<?xml version="1.0" encoding="ISO-8859-1"?>
<gpx xmlns="http://www.topografix.com/GPX/1/1" 
version="1.1" creator="Sports Tracker" 
xmlns:xsi="http://www.w3.org/2001/XMLSchema-instance" 
xsi:schemaLocation="http://www.topografix.com/GPX/1/1 
http://www.topografix.com/GPX/1/1/gpx.xsd 
http://www.garmin.com/xmlschemas/GpxExtensions/v3 
http://www.garmin.com/xmlschemas/GpxExtensionsv3.xsd 
http://www.garmin.com/xmlschemas/TrackPointExtension/v1 
http://www.garmin.com/xmlschemas/TrackPointExtensionv1.xsd" 
xmlns:gpxtpx="http://www.garmin.com/xmlschemas/TrackPointExtension/v1" 
xmlns:gpxx="http://www.garmin.com/xmlschemas/GpxExtensions/v3">
<metadata>
<name><![CDATA[05/07/2013 17:26]]></name>
<desc><![CDATA[PARAPENTE]]></desc>
<author><name><![CDATA[Pat]]></name></author>
<link href="www.sports-tracker.com">
<text>Sports Tracker</text>
</link>
<time>2013-07-05T17:26:03.57</time>
</metadata>
<trk>
<name><![CDATA[05/07/2013 17:26]]></name>
<trkseg>
<trkpt lat="42.871163" lon="-2.114910">
<ele>1595.5</ele>
<desc>Speed 0.0 km/h Distance 0.00 km</desc>
<time>2013-07-05T17:28:42.68</time>
<name>1</name>
<sym>Crossing</sym>
</trkpt>
<trkpt lat="42.871218" lon="-2.114908">
<ele>1604.5</ele>
<desc>Speed 0.9 km/h Distance 0.01 km</desc>
<time>2013-07-05T17:28:44.98</time>
<name>2</name>
<sym>Dot</sym>
</trkpt>
<trkpt lat="42.871215" lon="-2.114903">
<ele>1603.5</ele>
<desc>Speed 0.4 km/h Distance 0.01 km</desc>
<time>2013-07-05T17:28:45.80</time>
<name>3</name>
<sym>Dot</sym>
</trkpt>
<trkpt lat="42.871210" lon="-2.114895">
<ele>1602.0</ele>
<desc>Speed 0.3 km/h Distance 0.01 km</desc>
<time>2013-07-05T17:28:46.62</time>
<name>4</name>
<sym>Dot</sym>
</trkpt>
<trkpt lat="42.871203" lon="-2.114885">
<ele>1600.5</ele>
<desc>Speed 0.2 km/h Distance 0.01 km</desc>
<time>2013-07-05T17:28:47.61</time>
<name>5</name>
<sym>Dot</sym>
</trkpt>
<trkpt lat="42.871205" lon="-2.114880">
<ele>1600.5</ele>
<desc>Speed 0.3 km/h Distance 0.01 km</desc>
<time>2013-07-05T17:28:48.60</time>
<name>6</name>
<sym>Dot</sym>
</trkpt>
<trkpt lat="42.871205" lon="-2.114877">
<ele>1600.0</ele>
<desc>Speed 0.1 km/h Distance 0.01 km</desc>
<time>2013-07-05T17:28:49.59</time>
<name>7</name>
<sym>Dot</sym>
</trkpt>
<trkpt lat="42.871207" lon="-2.114875">
<ele>1600.0</ele>
<desc>Speed 0.4 km/h Distance 0.01 km</desc>
<time>2013-07-05T17:28:50.59</time>
<name>8</name>
<sym>Dot</sym>
</trkpt>
<trkpt lat="42.871213" lon="-2.114875">
<ele>1600.5</ele>
<desc>Speed 0.8 km/h Distance 0.01 km</desc>
<time>2013-07-05T17:28:51.68</time>
<name>9</name>
<sym>Dot</sym>
</trkpt>
<trkpt lat="42.871215" lon="-2.114878">
<ele>1600.5</ele>
<desc>Speed 0.3 km/h Distance 0.01 km</desc>
<time>2013-07-05T17:28:52.58</time>
<name>10</name>
<sym>Dot</sym>
</trkpt>
<trkpt lat="42.871217" lon="-2.114878">
<ele>1601.0</ele>
<desc>Speed 0.1 km/h Distance 0.01 km</desc>
<time>2013-07-05T17:28:53.56</time>
<name>11</name>
<sym>Dot</sym>
</trkpt>
<trkpt lat="42.871217" lon="-2.114878">
<ele>1601.0</ele>
<desc>Speed 0.1 km/h Distance 0.01 km</desc>
<time>2013-07-05T17:28:54.55</time>
<name>12</name>
<sym>Dot</sym>
</trkpt>
<trkpt lat="42.871215" lon="-2.114878">
<ele>1601.0</ele>
<desc>Speed 0.5 km/h Distance 0.01 km</desc>
<time>2013-07-05T17:28:56.02</time>
<name>13</name>
<sym>Dot</sym>
</trkpt>
<trkpt lat="42.871212" lon="-2.114868">
<ele>1601.5</ele>
<desc>Speed 2.8 km/h Distance 0.01 km</desc>
<time>2013-07-05T17:28:56.55</time>
<name>14</name>
<sym>Dot</sym>
</trkpt>
<trkpt lat="42.871212" lon="-2.114872">
<ele>1601.5</ele>
<desc>Speed 0.3 km/h Distance 0.01 km</desc>
<time>2013-07-05T17:28:57.62</time>
<name>15</name>
<sym>Dot</sym>
</trkpt>
<trkpt lat="42.871213" lon="-2.114877">
<ele>1602.0</ele>
<desc>Speed 0.4 km/h Distance 0.01 km</desc>
<time>2013-07-05T17:28:58.54</time>
<name>16</name>
<sym>Dot</sym>
</trkpt>
<trkpt lat="42.871213" lon="-2.114877">
<ele>1602.0</ele>
<desc>Speed 0.2 km/h Distance 0.01 km</desc>
<time>2013-07-05T17:28:59.53</time>
<name>17</name>
<sym>Dot</sym>
</trkpt>
<trkpt lat="42.871212" lon="-2.114877">
<ele>1602.0</ele>
<desc>Speed 0.4 km/h Distance 0.01 km</desc>
<time>2013-07-05T17:29:00.52</time>
<name>18</name>
<sym>Dot</sym>
</trkpt>
<trkpt lat="42.871213" lon="-2.114877">
<ele>1602.0</ele>
<desc>Speed 0.3 km/h Distance 0.01 km</desc>
<time>2013-07-05T17:29:01.51</time>
<name>19</name>
<sym>Dot</sym>
</trkpt>
<trkpt lat="42.871215" lon="-2.114878">
<ele>1602.5</ele>
<desc>Speed 0.1 km/h Distance 0.01 km</desc>
<time>2013-07-05T17:29:02.51</time>
<name>20</name>
<sym>Dot</sym>
</trkpt>
<trkpt lat="42.871215" lon="-2.114880">
<ele>1602.5</ele>
<desc>Speed 0.0 km/h Distance 0.01 km</desc>
<time>2013-07-05T17:29:03.51</time>
<name>21</name>
<sym>Dot</sym>
</trkpt>
<trkpt lat="42.871215" lon="-2.114880">
<ele>1602.5</ele>
<desc>Speed 0.6 km/h Distance 0.01 km</desc>
<time>2013-07-05T17:29:04.66</time>
<name>22</name>
<sym>Dot</sym>
</trkpt>
<trkpt lat="42.871215" lon="-2.114883">
<ele>1603.0</ele>
<desc>Speed 0.8 km/h Distance 0.01 km</desc>
<time>2013-07-05T17:29:05.50</time>
<name>23</name>
<sym>Dot</sym>
</trkpt>
<trkpt lat="42.871217" lon="-2.114883">
<ele>1603.0</ele>
<desc>Speed 0.2 km/h Distance 0.01 km</desc>
<time>2013-07-05T17:29:06.50</time>
<name>24</name>
<sym>Dot</sym>
</trkpt>
<trkpt lat="42.871220" lon="-2.114887">
<ele>1603.5</ele>
<desc>Speed 0.7 km/h Distance 0.01 km</desc>
<time>2013-07-05T17:29:07.49</time>
<name>25</name>
<sym>Dot</sym>
</trkpt>
<trkpt lat="42.871223" lon="-2.114892">
<ele>1603.5</ele>
<desc>Speed 0.7 km/h Distance 0.01 km</desc>
<time>2013-07-05T17:29:08.48</time>
<name>26</name>
<sym>Dot</sym>
</trkpt>
<trkpt lat="42.871223" lon="-2.114893">
<ele>1604.0</ele>
<desc>Speed 0.3 km/h Distance 0.02 km</desc>
<time>2013-07-05T17:29:09.48</time>
<name>27</name>
<sym>Dot</sym>
</trkpt>
<trkpt lat="42.871220" lon="-2.114892">
<ele>1604.0</ele>
<desc>Speed 0.9 km/h Distance 0.02 km</desc>
<time>2013-07-05T17:29:10.49</time>
<name>28</name>
<sym>Dot</sym>
</trkpt>
<trkpt lat="42.871220" lon="-2.114892">
<ele>1603.5</ele>
<desc>Speed 0.3 km/h Distance 0.02 km</desc>
<time>2013-07-05T17:29:11.64</time>
<name>29</name>
<sym>Dot</sym>
</trkpt>
<trkpt lat="42.871217" lon="-2.114892">
<ele>1603.5</ele>
<desc>Speed 0.4 km/h Distance 0.02 km</desc>
<time>2013-07-05T17:29:12.47</time>
<name>30</name>
<sym>Dot</sym>
</trkpt>
<trkpt lat="42.871215" lon="-2.114890">
<ele>1603.0</ele>
<desc>Speed 0.5 km/h Distance 0.02 km</desc>
<time>2013-07-05T17:29:13.47</time>
<name>31</name>
<sym>Dot</sym>
</trkpt>
<trkpt lat="42.871218" lon="-2.114880">
<ele>1603.0</ele>
<desc>Speed 3.6 km/h Distance 0.02 km</desc>
<time>2013-07-05T17:29:14.46</time>
<name>32</name>
<sym>Dot</sym>
</trkpt>
<trkpt lat="42.871218" lon="-2.114892">
<ele>1602.5</ele>
<desc>Speed 3.3 km/h Distance 0.02 km</desc>
<time>2013-07-05T17:29:15.46</time>
<name>33</name>
<sym>Dot</sym>
</trkpt>
<trkpt lat="42.871212" lon="-2.114887">
<ele>1602.0</ele>
<desc>Speed 2.4 km/h Distance 0.02 km</desc>
<time>2013-07-05T17:29:16.45</time>
<name>34</name>
<sym>Dot</sym>
</trkpt>
<trkpt lat="42.871202" lon="-2.114880">
<ele>1602.0</ele>
<desc>Speed 4.0 km/h Distance 0.02 km</desc>
<time>2013-07-05T17:29:17.44</time>
<name>35</name>
<sym>Dot</sym>
</trkpt>
<trkpt lat="42.871198" lon="-2.114875">
<ele>1602.0</ele>
<desc>Speed 2.2 km/h Distance 0.02 km</desc>
<time>2013-07-05T17:29:18.59</time>
<name>36</name>
<sym>Dot</sym>
</trkpt>
<trkpt lat="42.871197" lon="-2.114873">
<ele>1602.0</ele>
<desc>Speed 0.6 km/h Distance 0.02 km</desc>
<time>2013-07-05T17:29:19.43</time>
<name>37</name>
<sym>Dot</sym>
</trkpt>
<trkpt lat="42.871195" lon="-2.114872">
<ele>1602.0</ele>
<desc>Speed 0.2 km/h Distance 0.02 km</desc>
<time>2013-07-05T17:29:20.43</time>
<name>38</name>
<sym>Dot</sym>
</trkpt>
<trkpt lat="42.871193" lon="-2.114870">
<ele>1601.5</ele>
<desc>Speed 0.3 km/h Distance 0.02 km</desc>
<time>2013-07-05T17:29:21.42</time>
<name>39</name>
<sym>Dot</sym>
</trkpt>
<trkpt lat="42.871192" lon="-2.114868">
<ele>1601.0</ele>
<desc>Speed 0.4 km/h Distance 0.02 km</desc>
<time>2013-07-05T17:29:22.42</time>
<name>40</name>
<sym>Dot</sym>
</trkpt>
<trkpt lat="42.871188" lon="-2.114870">
<ele>1600.5</ele>
<desc>Speed 1.2 km/h Distance 0.02 km</desc>
<time>2013-07-05T17:29:23.41</time>
<name>41</name>
<sym>Dot</sym>
</trkpt>
<trkpt lat="42.871187" lon="-2.114868">
<ele>1600.5</ele>
<desc>Speed 0.5 km/h Distance 0.02 km</desc>
<time>2013-07-05T17:29:24.49</time>
<name>42</name>
<sym>Dot</sym>
</trkpt>
<trkpt lat="42.871183" lon="-2.114865">
<ele>1600.5</ele>
<desc>Speed 0.7 km/h Distance 0.02 km</desc>
<time>2013-07-05T17:29:25.40</time>
<name>43</name>
<sym>Dot</sym>
</trkpt>
<trkpt lat="42.871183" lon="-2.114865">
<ele>1600.5</ele>
<desc>Speed 0.7 km/h Distance 0.02 km</desc>
<time>2013-07-05T17:29:26.39</time>
<name>44</name>
<sym>Dot</sym>
</trkpt>
<trkpt lat="42.871187" lon="-2.114867">
<ele>1600.5</ele>
<desc>Speed 1.0 km/h Distance 0.02 km</desc>
<time>2013-07-05T17:29:27.38</time>
<name>45</name>
<sym>Dot</sym>
</trkpt>
<trkpt lat="42.871195" lon="-2.114865">
<ele>1601.0</ele>
<desc>Speed 1.4 km/h Distance 0.02 km</desc>
<time>2013-07-05T17:29:29.37</time>
<name>46</name>
<sym>Dot</sym>
</trkpt>
<trkpt lat="42.871187" lon="-2.114863">
<ele>1601.0</ele>
<desc>Speed 3.1 km/h Distance 0.02 km</desc>
<time>2013-07-05T17:29:30.42</time>
<name>47</name>
<sym>Dot</sym>
</trkpt>
<trkpt lat="42.871190" lon="-2.114862">
<ele>1601.5</ele>
<desc>Speed 1.8 km/h Distance 0.03 km</desc>
<time>2013-07-05T17:29:32.36</time>
<name>48</name>
<sym>Dot</sym>
</trkpt>
<trkpt lat="42.871225" lon="-2.114828">
<ele>1601.5</ele>
<desc>Speed 8.6 km/h Distance 0.03 km</desc>
<time>2013-07-05T17:29:34.35</time>
<name>49</name>
<sym>Dot</sym>
</trkpt>
<trkpt lat="42.871260" lon="-2.114823">
<ele>1601.5</ele>
<desc>Speed 14.1 km/h Distance 0.03 km</desc>
<time>2013-07-05T17:29:35.34</time>
<name>50</name>
<sym>Dot</sym>
</trkpt>
<trkpt lat="42.871293" lon="-2.114785">
<ele>1600.0</ele>
<desc>Speed 16.7 km/h Distance 0.04 km</desc>
<time>2013-07-05T17:29:36.55</time>
<name>51</name>
<sym>Dot</sym>
</trkpt>
<trkpt lat="42.871345" lon="-2.114752">
<ele>1600.0</ele>
<desc>Speed 22.8 km/h Distance 0.05 km</desc>
<time>2013-07-05T17:29:37.38</time>
<name>52</name>
<sym>Dot</sym>
</trkpt>
<trkpt lat="42.871488" lon="-2.114643">
<ele>1601.0</ele>
<desc>Speed 36.5 km/h Distance 0.06 km</desc>
<time>2013-07-05T17:29:39.33</time>
<name>53</name>
<sym>Dot</sym>
</trkpt>
<trkpt lat="42.871533" lon="-2.114553">
<ele>1601.0</ele>
<desc>Speed 32.0 km/h Distance 0.07 km</desc>
<time>2013-07-05T17:29:40.32</time>
<name>54</name>
<sym>Dot</sym>
</trkpt>
<trkpt lat="42.871548" lon="-2.114443">
<ele>1601.0</ele>
<desc>Speed 32.5 km/h Distance 0.08 km</desc>
<time>2013-07-05T17:29:41.32</time>
<name>55</name>
<sym>Dot</sym>
</trkpt>
<trkpt lat="42.871540" lon="-2.114340">
<ele>1600.5</ele>
<desc>Speed 30.0 km/h Distance 0.09 km</desc>
<time>2013-07-05T17:29:42.32</time>
<name>56</name>
<sym>Dot</sym>
</trkpt>
<trkpt lat="42.871523" lon="-2.114088">
<ele>1600.5</ele>
<desc>Speed 36.2 km/h Distance 0.11 km</desc>
<time>2013-07-05T17:29:44.31</time>
<name>57</name>
<sym>Dot</sym>
</trkpt>
<trkpt lat="42.871568" lon="-2.113960">
<ele>1600.5</ele>
<desc>Speed 41.0 km/h Distance 0.12 km</desc>
<time>2013-07-05T17:29:45.29</time>
<name>58</name>
<sym>Dot</sym>
</trkpt>
<trkpt lat="42.871605" lon="-2.113835">
<ele>1600.0</ele>
<desc>Speed 39.5 km/h Distance 0.13 km</desc>
<time>2013-07-05T17:29:46.29</time>
<name>59</name>
<sym>Dot</sym>
</trkpt>
<trkpt lat="42.871618" lon="-2.113720">
<ele>1598.0</ele>
<desc>Speed 34.3 km/h Distance 0.14 km</desc>
<time>2013-07-05T17:29:47.28</time>
<name>60</name>
<sym>Dot</sym>
</trkpt>
<trkpt lat="42.871652" lon="-2.113628">
<ele>1598.0</ele>
<desc>Speed 30.9 km/h Distance 0.15 km</desc>
<time>2013-07-05T17:29:48.27</time>
<name>61</name>
<sym>Dot</sym>
</trkpt>
<trkpt lat="42.871717" lon="-2.113558">
<ele>1598.0</ele>
<desc>Speed 33.9 km/h Distance 0.16 km</desc>
<time>2013-07-05T17:29:49.35</time>
<name>62</name>
<sym>Dot</sym>
</trkpt>
<trkpt lat="42.871765" lon="-2.113463">
<ele>1597.5</ele>
<desc>Speed 34.7 km/h Distance 0.17 km</desc>
<time>2013-07-05T17:29:50.26</time>
<name>63</name>
<sym>Dot</sym>
</trkpt>
<trkpt lat="42.871847" lon="-2.112948">
<ele>1597.0</ele>
<desc>Speed 55.9 km/h Distance 0.21 km</desc>
<time>2013-07-05T17:29:53.55</time>
<name>64</name>
<sym>Dot</sym>
</trkpt>
<trkpt lat="42.871960" lon="-2.112510">
<ele>1596.0</ele>
<desc>Speed 36.0 km/h Distance 0.25 km</desc>
<time>2013-07-05T17:29:57.54</time>
<name>65</name>
<sym>Dot</sym>
</trkpt>
<trkpt lat="42.872048" lon="-2.112215">
<ele>1594.5</ele>
<desc>Speed 47.2 km/h Distance 0.28 km</desc>
<time>2013-07-05T17:29:59.53</time>
<name>66</name>
<sym>Dot</sym>
</trkpt>
<trkpt lat="42.872077" lon="-2.112073">
<ele>1595.0</ele>
<desc>Speed 42.5 km/h Distance 0.29 km</desc>
<time>2013-07-05T17:30:00.53</time>
<name>67</name>
<sym>Dot</sym>
</trkpt>
<trkpt lat="42.872152" lon="-2.111870">
<ele>1596.0</ele>
<desc>Speed 32.7 km/h Distance 0.31 km</desc>
<time>2013-07-05T17:30:02.52</time>
<name>68</name>
<sym>Dot</sym>
</trkpt>
<trkpt lat="42.872197" lon="-2.111777">
<ele>1596.0</ele>
<desc>Speed 32.9 km/h Distance 0.32 km</desc>
<time>2013-07-05T17:30:03.77</time>
<name>69</name>
<sym>Dot</sym>
</trkpt>
<trkpt lat="42.872232" lon="-2.111667">
<ele>1594.0</ele>
<desc>Speed 35.6 km/h Distance 0.33 km</desc>
<time>2013-07-05T17:30:04.50</time>
<name>70</name>
<sym>Dot</sym>
</trkpt>
<trkpt lat="42.872273" lon="-2.111535">
<ele>1594.0</ele>
<desc>Speed 41.8 km/h Distance 0.34 km</desc>
<time>2013-07-05T17:30:06.15</time>
<name>71</name>
<sym>Dot</sym>
</trkpt>
<trkpt lat="42.872318" lon="-2.111407">
<ele>1593.0</ele>
<desc>Speed 41.4 km/h Distance 0.35 km</desc>
<time>2013-07-05T17:30:06.58</time>
<name>72</name>
<sym>Dot</sym>
</trkpt>
<trkpt lat="42.872367" lon="-2.111283">
<ele>1593.0</ele>
<desc>Speed 40.6 km/h Distance 0.36 km</desc>
<time>2013-07-05T17:30:07.48</time>
<name>73</name>
<sym>Dot</sym>
</trkpt>
<trkpt lat="42.872412" lon="-2.111168">
<ele>1593.5</ele>
<desc>Speed 38.6 km/h Distance 0.37 km</desc>
<time>2013-07-05T17:30:08.65</time>
<name>74</name>
<sym>Dot</sym>
</trkpt>
<trkpt lat="42.872438" lon="-2.111058">
<ele>1593.0</ele>
<desc>Speed 33.4 km/h Distance 0.38 km</desc>
<time>2013-07-05T17:30:09.47</time>
<name>75</name>
<sym>Dot</sym>
</trkpt>
<trkpt lat="42.872468" lon="-2.110945">
<ele>1594.5</ele>
<desc>Speed 35.0 km/h Distance 0.39 km</desc>
<time>2013-07-05T17:30:10.46</time>
<name>76</name>
<sym>Dot</sym>
</trkpt>
<trkpt lat="42.872498" lon="-2.110833">
<ele>1595.5</ele>
<desc>Speed 35.0 km/h Distance 0.40 km</desc>
<time>2013-07-05T17:30:11.75</time>
<name>77</name>
<sym>Dot</sym>
</trkpt>
<trkpt lat="42.872553" lon="-2.110588">
<ele>1595.0</ele>
<desc>Speed 37.4 km/h Distance 0.42 km</desc>
<time>2013-07-05T17:30:13.45</time>
<name>78</name>
<sym>Dot</sym>
</trkpt>
<trkpt lat="42.872587" lon="-2.110467">
<ele>1594.5</ele>
<desc>Speed 38.0 km/h Distance 0.43 km</desc>
<time>2013-07-05T17:30:14.44</time>
<name>79</name>
<sym>Dot</sym>
</trkpt>
<trkpt lat="42.872637" lon="-2.110350">
<ele>1595.0</ele>
<desc>Speed 38.9 km/h Distance 0.44 km</desc>
<time>2013-07-05T17:30:15.43</time>
<name>80</name>
<sym>Dot</sym>
</trkpt>
<trkpt lat="42.872692" lon="-2.110238">
<ele>1594.5</ele>
<desc>Speed 38.3 km/h Distance 0.45 km</desc>
<time>2013-07-05T17:30:16.43</time>
<name>81</name>
<sym>Dot</sym>
</trkpt>
<trkpt lat="42.872740" lon="-2.110130">
<ele>1594.5</ele>
<desc>Speed 36.5 km/h Distance 0.46 km</desc>
<time>2013-07-05T17:30:17.60</time>
<name>82</name>
<sym>Dot</sym>
</trkpt>
<trkpt lat="42.872745" lon="-2.110022">
<ele>1594.0</ele>
<desc>Speed 31.0 km/h Distance 0.47 km</desc>
<time>2013-07-05T17:30:18.42</time>
<name>83</name>
<sym>Dot</sym>
</trkpt>
<trkpt lat="42.872742" lon="-2.109897">
<ele>1594.0</ele>
<desc>Speed 35.8 km/h Distance 0.48 km</desc>
<time>2013-07-05T17:30:19.41</time>
<name>84</name>
<sym>Dot</sym>
</trkpt>
<trkpt lat="42.872727" lon="-2.109762">
<ele>1594.0</ele>
<desc>Speed 40.1 km/h Distance 0.49 km</desc>
<time>2013-07-05T17:30:20.39</time>
<name>85</name>
<sym>Dot</sym>
</trkpt>
<trkpt lat="42.872710" lon="-2.109603">
<ele>1594.0</ele>
<desc>Speed 46.0 km/h Distance 0.51 km</desc>
<time>2013-07-05T17:30:21.39</time>
<name>86</name>
<sym>Dot</sym>
</trkpt>
<trkpt lat="42.872733" lon="-2.109250">
<ele>1593.5</ele>
<desc>Speed 52.2 km/h Distance 0.54 km</desc>
<time>2013-07-05T17:30:23.51</time>
<name>87</name>
<sym>Dot</sym>
</trkpt>
<trkpt lat="42.872920" lon="-2.108907">
<ele>1594.0</ele>
<desc>Speed 24.3 km/h Distance 0.57 km</desc>
<time>2013-07-05T17:30:27.47</time>
<name>88</name>
<sym>Dot</sym>
</trkpt>
<trkpt lat="42.872995" lon="-2.108890">
<ele>1595.0</ele>
<desc>Speed 30.6 km/h Distance 0.58 km</desc>
<time>2013-07-05T17:30:28.47</time>
<name>89</name>
<sym>Dot</sym>
</trkpt>
<trkpt lat="42.873072" lon="-2.108985">
<ele>1597.5</ele>
<desc>Speed 14.4 km/h Distance 0.59 km</desc>
<time>2013-07-05T17:30:31.46</time>
<name>90</name>
<sym>Dot</sym>
</trkpt>
<trkpt lat="42.872735" lon="-2.109315">
<ele>1600.0</ele>
<desc>Speed 31.9 km/h Distance 0.64 km</desc>
<time>2013-07-05T17:30:36.49</time>
<name>91</name>
<sym>Dot</sym>
</trkpt>
<trkpt lat="42.872730" lon="-2.109453">
<ele>1601.0</ele>
<desc>Speed 18.6 km/h Distance 0.65 km</desc>
<time>2013-07-05T17:30:38.44</time>
<name>92</name>
<sym>Dot</sym>
</trkpt>
<trkpt lat="42.872773" lon="-2.109488">
<ele>1600.5</ele>
<desc>Speed 19.8 km/h Distance 0.65 km</desc>
<time>2013-07-05T17:30:39.43</time>
<name>93</name>
<sym>Dot</sym>
</trkpt>
<trkpt lat="42.872823" lon="-2.109490">
<ele>1602.5</ele>
<desc>Speed 20.0 km/h Distance 0.66 km</desc>
<time>2013-07-05T17:30:40.42</time>
<name>94</name>
<sym>Dot</sym>
</trkpt>
<trkpt lat="42.872862" lon="-2.109473">
<ele>1602.5</ele>
<desc>Speed 15.5 km/h Distance 0.66 km</desc>
<time>2013-07-05T17:30:41.42</time>
<name>95</name>
<sym>Dot</sym>
</trkpt>
<trkpt lat="42.873087" lon="-2.108820">
<ele>1608.0</ele>
<desc>Speed 44.7 km/h Distance 0.72 km</desc>
<time>2013-07-05T17:30:46.42</time>
<name>96</name>
<sym>Dot</sym>
</trkpt>
<trkpt lat="42.873103" lon="-2.108655">
<ele>1609.5</ele>
<desc>Speed 47.9 km/h Distance 0.74 km</desc>
<time>2013-07-05T17:30:47.41</time>
<name>97</name>
<sym>Dot</sym>
</trkpt>
<trkpt lat="42.873092" lon="-2.108470">
<ele>1609.0</ele>
<desc>Speed 55.1 km/h Distance 0.75 km</desc>
<time>2013-07-05T17:30:48.43</time>
<name>98</name>
<sym>Dot</sym>
</trkpt>
<trkpt lat="42.873067" lon="-2.108263">
<ele>1609.5</ele>
<desc>Speed 61.7 km/h Distance 0.77 km</desc>
<time>2013-07-05T17:30:49.58</time>
<name>99</name>
<sym>Dot</sym>
</trkpt>
<trkpt lat="42.873050" lon="-2.108065">
<ele>1611.5</ele>
<desc>Speed 58.6 km/h Distance 0.79 km</desc>
<time>2013-07-05T17:30:50.38</time>
<name>100</name>
<sym>Dot</sym>
</trkpt>
<trkpt lat="42.873042" lon="-2.107885">
<ele>1612.0</ele>
<desc>Speed 53.3 km/h Distance 0.80 km</desc>
<time>2013-07-05T17:30:51.37</time>
<name>101</name>
<sym>Dot</sym>
</trkpt>
<trkpt lat="42.873057" lon="-2.107725">
<ele>1613.0</ele>
<desc>Speed 47.4 km/h Distance 0.81 km</desc>
<time>2013-07-05T17:30:52.37</time>
<name>102</name>
<sym>Dot</sym>
</trkpt>
<trkpt lat="42.873077" lon="-2.107572">
<ele>1614.5</ele>
<desc>Speed 45.4 km/h Distance 0.83 km</desc>
<time>2013-07-05T17:30:53.35</time>
<name>103</name>
<sym>Dot</sym>
</trkpt>
<trkpt lat="42.873100" lon="-2.107415">
<ele>1615.0</ele>
<desc>Speed 47.2 km/h Distance 0.84 km</desc>
<time>2013-07-05T17:30:54.35</time>
<name>104</name>
<sym>Dot</sym>
</trkpt>
<trkpt lat="42.873123" lon="-2.107240">
<ele>1614.5</ele>
<desc>Speed 52.3 km/h Distance 0.85 km</desc>
<time>2013-07-05T17:30:55.38</time>
<name>105</name>
<sym>Dot</sym>
</trkpt>
<trkpt lat="42.873138" lon="-2.107042">
<ele>1613.5</ele>
<desc>Speed 58.3 km/h Distance 0.87 km</desc>
<time>2013-07-05T17:30:56.53</time>
<name>106</name>
<sym>Dot</sym>
</trkpt>
<trkpt lat="42.873133" lon="-2.106840">
<ele>1614.0</ele>
<desc>Speed 59.5 km/h Distance 0.89 km</desc>
<time>2013-07-05T17:30:57.33</time>
<name>107</name>
<sym>Dot</sym>
</trkpt>
<trkpt lat="42.873102" lon="-2.106657">
<ele>1614.0</ele>
<desc>Speed 55.1 km/h Distance 0.90 km</desc>
<time>2013-07-05T17:30:58.33</time>
<name>108</name>
<sym>Dot</sym>
</trkpt>
<trkpt lat="42.873092" lon="-2.106490">
<ele>1615.0</ele>
<desc>Speed 49.2 km/h Distance 0.92 km</desc>
<time>2013-07-05T17:30:59.32</time>
<name>109</name>
<sym>Dot</sym>
</trkpt>
<trkpt lat="42.873228" lon="-2.106228">
<ele>1618.0</ele>
<desc>Speed 34.7 km/h Distance 0.94 km</desc>
<time>2013-07-05T17:31:02.41</time>
<name>110</name>
<sym>Dot</sym>
</trkpt>
<trkpt lat="42.873298" lon="-2.106122">
<ele>1619.0</ele>
<desc>Speed 41.6 km/h Distance 0.95 km</desc>
<time>2013-07-05T17:31:03.56</time>
<name>111</name>
<sym>Dot</sym>
</trkpt>
<trkpt lat="42.873362" lon="-2.105852">
<ele>1622.0</ele>
<desc>Speed 42.6 km/h Distance 0.98 km</desc>
<time>2013-07-05T17:31:05.35</time>
<name>112</name>
<sym>Dot</sym>
</trkpt>
<trkpt lat="42.873352" lon="-2.105705">
<ele>1621.5</ele>
<desc>Speed 43.6 km/h Distance 0.99 km</desc>
<time>2013-07-05T17:31:06.34</time>
<name>113</name>
<sym>Dot</sym>
</trkpt>
<trkpt lat="42.873345" lon="-2.105555">
<ele>1624.0</ele>
<desc>Speed 44.9 km/h Distance 1.00 km</desc>
<time>2013-07-05T17:31:07.34</time>
<name>114</name>
<sym>Dot</sym>
</trkpt>
<trkpt lat="42.873332" lon="-2.105407">
<ele>1625.5</ele>
<desc>Speed 44.0 km/h Distance 1.01 km</desc>
<time>2013-07-05T17:31:08.32</time>
<name>115</name>
<sym>Dot</sym>
</trkpt>
<trkpt lat="42.873327" lon="-2.105265">
<ele>1627.5</ele>
<desc>Speed 42.7 km/h Distance 1.02 km</desc>
<time>2013-07-05T17:31:09.33</time>
<name>116</name>
<sym>Dot</sym>
</trkpt>
<trkpt lat="42.873313" lon="-2.105113">
<ele>1628.0</ele>
<desc>Speed 44.6 km/h Distance 1.04 km</desc>
<time>2013-07-05T17:31:10.48</time>
<name>117</name>
<sym>Dot</sym>
</trkpt>
<trkpt lat="42.873298" lon="-2.104953">
<ele>1628.5</ele>
<desc>Speed 47.9 km/h Distance 1.05 km</desc>
<time>2013-07-05T17:31:11.30</time>
<name>118</name>
<sym>Dot</sym>
</trkpt>
<trkpt lat="42.873285" lon="-2.104788">
<ele>1629.0</ele>
<desc>Speed 49.2 km/h Distance 1.06 km</desc>
<time>2013-07-05T17:31:12.29</time>
<name>119</name>
<sym>Dot</sym>
</trkpt>
<trkpt lat="42.873283" lon="-2.104643">
<ele>1629.5</ele>
<desc>Speed 43.1 km/h Distance 1.08 km</desc>
<time>2013-07-05T17:31:13.29</time>
<name>120</name>
<sym>Dot</sym>
</trkpt>
<trkpt lat="42.873300" lon="-2.104513">
<ele>1630.0</ele>
<desc>Speed 38.9 km/h Distance 1.09 km</desc>
<time>2013-07-05T17:31:14.28</time>
<name>121</name>
<sym>Dot</sym>
</trkpt>
<trkpt lat="42.873343" lon="-2.104408">
<ele>1630.0</ele>
<desc>Speed 34.4 km/h Distance 1.10 km</desc>
<time>2013-07-05T17:31:15.27</time>
<name>122</name>
<sym>Dot</sym>
</trkpt>
<trkpt lat="42.873398" lon="-2.104322">
<ele>1630.0</ele>
<desc>Speed 33.2 km/h Distance 1.11 km</desc>
<time>2013-07-05T17:31:16.30</time>
<name>123</name>
<sym>Dot</sym>
</trkpt>
<trkpt lat="42.873455" lon="-2.104233">
<ele>1631.5</ele>
<desc>Speed 33.9 km/h Distance 1.11 km</desc>
<time>2013-07-05T17:31:17.26</time>
<name>124</name>
<sym>Dot</sym>
</trkpt>
<trkpt lat="42.873503" lon="-2.104142">
<ele>1634.0</ele>
<desc>Speed 32.3 km/h Distance 1.12 km</desc>
<time>2013-07-05T17:31:18.25</time>
<name>125</name>
<sym>Dot</sym>
</trkpt>
<trkpt lat="42.873543" lon="-2.104062">
<ele>1636.0</ele>
<desc>Speed 28.3 km/h Distance 1.13 km</desc>
<time>2013-07-05T17:31:19.25</time>
<name>126</name>
<sym>Dot</sym>
</trkpt>
<trkpt lat="42.873587" lon="-2.104000">
<ele>1635.5</ele>
<desc>Speed 24.1 km/h Distance 1.14 km</desc>
<time>2013-07-05T17:31:20.24</time>
<name>127</name>
<sym>Dot</sym>
</trkpt>
<trkpt lat="42.873635" lon="-2.103943">
<ele>1635.5</ele>
<desc>Speed 24.5 km/h Distance 1.15 km</desc>
<time>2013-07-05T17:31:21.24</time>
<name>128</name>
<sym>Dot</sym>
</trkpt>
<trkpt lat="42.873688" lon="-2.103878">
<ele>1635.0</ele>
<desc>Speed 28.7 km/h Distance 1.15 km</desc>
<time>2013-07-05T17:31:22.42</time>
<name>129</name>
<sym>Dot</sym>
</trkpt>
<trkpt lat="42.873803" lon="-2.103687">
<ele>1635.5</ele>
<desc>Speed 38.3 km/h Distance 1.17 km</desc>
<time>2013-07-05T17:31:24.21</time>
<name>130</name>
<sym>Dot</sym>
</trkpt>
<trkpt lat="42.873837" lon="-2.103573">
<ele>1636.0</ele>
<desc>Speed 35.7 km/h Distance 1.18 km</desc>
<time>2013-07-05T17:31:25.20</time>
<name>131</name>
<sym>Dot</sym>
</trkpt>
<trkpt lat="42.873853" lon="-2.103468">
<ele>1637.0</ele>
<desc>Speed 31.6 km/h Distance 1.19 km</desc>
<time>2013-07-05T17:31:26.21</time>
<name>132</name>
<sym>Dot</sym>
</trkpt>
<trkpt lat="42.873858" lon="-2.103373">
<ele>1638.0</ele>
<desc>Speed 27.9 km/h Distance 1.20 km</desc>
<time>2013-07-05T17:31:27.48</time>
<name>133</name>
<sym>Dot</sym>
</trkpt>
<trkpt lat="42.873873" lon="-2.103290">
<ele>1638.0</ele>
<desc>Speed 24.6 km/h Distance 1.21 km</desc>
<time>2013-07-05T17:31:28.33</time>
<name>134</name>
<sym>Dot</sym>
</trkpt>
<trkpt lat="42.873895" lon="-2.103208">
<ele>1637.0</ele>
<desc>Speed 25.1 km/h Distance 1.21 km</desc>
<time>2013-07-05T17:31:29.18</time>
<name>135</name>
<sym>Dot</sym>
</trkpt>
<trkpt lat="42.873938" lon="-2.103137">
<ele>1636.0</ele>
<desc>Speed 27.1 km/h Distance 1.22 km</desc>
<time>2013-07-05T17:31:30.18</time>
<name>136</name>
<sym>Dot</sym>
</trkpt>
<trkpt lat="42.874005" lon="-2.103083">
<ele>1635.5</ele>
<desc>Speed 30.2 km/h Distance 1.23 km</desc>
<time>2013-07-05T17:31:31.18</time>
<name>137</name>
<sym>Dot</sym>
</trkpt>
<trkpt lat="42.874078" lon="-2.103058">
<ele>1635.0</ele>
<desc>Speed 28.2 km/h Distance 1.24 km</desc>
<time>2013-07-05T17:31:32.17</time>
<name>138</name>
<sym>Dot</sym>
</trkpt>
<trkpt lat="42.874133" lon="-2.103038">
<ele>1636.0</ele>
<desc>Speed 22.7 km/h Distance 1.25 km</desc>
<time>2013-07-05T17:31:33.16</time>
<name>139</name>
<sym>Dot</sym>
</trkpt>
<trkpt lat="42.874183" lon="-2.102993">
<ele>1638.0</ele>
<desc>Speed 22.8 km/h Distance 1.25 km</desc>
<time>2013-07-05T17:31:34.31</time>
<name>140</name>
<sym>Dot</sym>
</trkpt>
<trkpt lat="42.874223" lon="-2.102927">
<ele>1638.5</ele>
<desc>Speed 25.1 km/h Distance 1.26 km</desc>
<time>2013-07-05T17:31:35.14</time>
<name>141</name>
<sym>Dot</sym>
</trkpt>
<trkpt lat="42.874263" lon="-2.102848">
<ele>1638.0</ele>
<desc>Speed 27.5 km/h Distance 1.27 km</desc>
<time>2013-07-05T17:31:36.14</time>
<name>142</name>
<sym>Dot</sym>
</trkpt>
<trkpt lat="42.874307" lon="-2.102772">
<ele>1637.5</ele>
<desc>Speed 27.6 km/h Distance 1.27 km</desc>
<time>2013-07-05T17:31:37.13</time>
<name>143</name>
<sym>Dot</sym>
</trkpt>
<trkpt lat="42.874373" lon="-2.102725">
<ele>1636.5</ele>
<desc>Speed 29.3 km/h Distance 1.28 km</desc>
<time>2013-07-05T17:31:38.13</time>
<name>144</name>
<sym>Dot</sym>
</trkpt>
<trkpt lat="42.874447" lon="-2.102702">
<ele>1636.5</ele>
<desc>Speed 27.9 km/h Distance 1.29 km</desc>
<time>2013-07-05T17:31:39.12</time>
<name>145</name>
<sym>Dot</sym>
</trkpt>
<trkpt lat="42.874510" lon="-2.102678">
<ele>1638.0</ele>
<desc>Speed 26.0 km/h Distance 1.30 km</desc>
<time>2013-07-05T17:31:40.23</time>
<name>146</name>
<sym>Dot</sym>
</trkpt>
<trkpt lat="42.874553" lon="-2.102632">
<ele>1639.0</ele>
<desc>Speed 21.9 km/h Distance 1.31 km</desc>
<time>2013-07-05T17:31:41.11</time>
<name>147</name>
<sym>Dot</sym>
</trkpt>
<trkpt lat="42.874588" lon="-2.102563">
<ele>1639.5</ele>
<desc>Speed 23.1 km/h Distance 1.31 km</desc>
<time>2013-07-05T17:31:42.10</time>
<name>148</name>
<sym>Dot</sym>
</trkpt>
<trkpt lat="42.874617" lon="-2.102480">
<ele>1639.5</ele>
<desc>Speed 26.8 km/h Distance 1.32 km</desc>
<time>2013-07-05T17:31:43.09</time>
<name>149</name>
<sym>Dot</sym>
</trkpt>
<trkpt lat="42.874650" lon="-2.102395">
<ele>1638.5</ele>
<desc>Speed 28.1 km/h Distance 1.33 km</desc>
<time>2013-07-05T17:31:44.08</time>
<name>150</name>
<sym>Dot</sym>
</trkpt>
<trkpt lat="42.874695" lon="-2.102313">
<ele>1637.5</ele>
<desc>Speed 29.7 km/h Distance 1.34 km</desc>
<time>2013-07-05T17:31:45.08</time>
<name>151</name>
<sym>Dot</sym>
</trkpt>
<trkpt lat="42.874753" lon="-2.102238">
<ele>1637.5</ele>
<desc>Speed 30.9 km/h Distance 1.34 km</desc>
<time>2013-07-05T17:31:46.18</time>
<name>152</name>
<sym>Dot</sym>
</trkpt>
<trkpt lat="42.874813" lon="-2.102172">
<ele>1638.0</ele>
<desc>Speed 30.2 km/h Distance 1.35 km</desc>
<time>2013-07-05T17:31:47.07</time>
<name>153</name>
<sym>Dot</sym>
</trkpt>
<trkpt lat="42.874868" lon="-2.102117">
<ele>1640.0</ele>
<desc>Speed 27.3 km/h Distance 1.36 km</desc>
<time>2013-07-05T17:31:48.07</time>
<name>154</name>
<sym>Dot</sym>
</trkpt>
<trkpt lat="42.874920" lon="-2.102067">
<ele>1642.5</ele>
<desc>Speed 23.4 km/h Distance 1.37 km</desc>
<time>2013-07-05T17:31:49.06</time>
<name>155</name>
<sym>Dot</sym>
</trkpt>
<trkpt lat="42.874963" lon="-2.102013">
<ele>1643.5</ele>
<desc>Speed 21.9 km/h Distance 1.37 km</desc>
<time>2013-07-05T17:31:50.06</time>
<name>156</name>
<sym>Dot</sym>
</trkpt>
<trkpt lat="42.875010" lon="-2.101952">
<ele>1644.0</ele>
<desc>Speed 24.2 km/h Distance 1.38 km</desc>
<time>2013-07-05T17:31:51.05</time>
<name>157</name>
<sym>Dot</sym>
</trkpt>
<trkpt lat="42.875063" lon="-2.101878">
<ele>1643.5</ele>
<desc>Speed 30.0 km/h Distance 1.39 km</desc>
<time>2013-07-05T17:31:52.16</time>
<name>158</name>
<sym>Dot</sym>
</trkpt>
<trkpt lat="42.875125" lon="-2.101802">
<ele>1643.5</ele>
<desc>Speed 33.0 km/h Distance 1.40 km</desc>
<time>2013-07-05T17:31:53.04</time>
<name>159</name>
<sym>Dot</sym>
</trkpt>
<trkpt lat="42.875183" lon="-2.101730">
<ele>1644.0</ele>
<desc>Speed 31.0 km/h Distance 1.41 km</desc>
<time>2013-07-05T17:31:54.04</time>
<name>160</name>
<sym>Dot</sym>
</trkpt>
<trkpt lat="42.875235" lon="-2.101667">
<ele>1645.0</ele>
<desc>Speed 27.8 km/h Distance 1.42 km</desc>
<time>2013-07-05T17:31:55.03</time>
<name>161</name>
<sym>Dot</sym>
</trkpt>
<trkpt lat="42.875293" lon="-2.101610">
<ele>1646.0</ele>
<desc>Speed 26.4 km/h Distance 1.42 km</desc>
<time>2013-07-05T17:31:56.03</time>
<name>162</name>
<sym>Dot</sym>
</trkpt>
<trkpt lat="42.875355" lon="-2.101560">
<ele>1647.0</ele>
<desc>Speed 27.3 km/h Distance 1.43 km</desc>
<time>2013-07-05T17:31:57.02</time>
<name>163</name>
<sym>Dot</sym>
</trkpt>
<trkpt lat="42.875422" lon="-2.101510">
<ele>1647.0</ele>
<desc>Speed 28.2 km/h Distance 1.44 km</desc>
<time>2013-07-05T17:31:58.18</time>
<name>164</name>
<sym>Dot</sym>
</trkpt>
<trkpt lat="42.875487" lon="-2.101453">
<ele>1647.5</ele>
<desc>Speed 29.6 km/h Distance 1.45 km</desc>
<time>2013-07-05T17:31:59.02</time>
<name>165</name>
<sym>Dot</sym>
</trkpt>
<trkpt lat="42.875545" lon="-2.101372">
<ele>1648.5</ele>
<desc>Speed 32.8 km/h Distance 1.46 km</desc>
<time>2013-07-05T17:32:00.01</time>
<name>166</name>
<sym>Dot</sym>
</trkpt>
<trkpt lat="42.875593" lon="-2.101270">
<ele>1649.0</ele>
<desc>Speed 35.1 km/h Distance 1.47 km</desc>
<time>2013-07-05T17:32:01.00</time>
<name>167</name>
<sym>Dot</sym>
</trkpt>
<trkpt lat="42.875642" lon="-2.101167">
<ele>1649.5</ele>
<desc>Speed 35.6 km/h Distance 1.48 km</desc>
<time>2013-07-05T17:32:02.00</time>
<name>168</name>
<sym>Dot</sym>
</trkpt>
<trkpt lat="42.875677" lon="-2.101070">
<ele>1649.5</ele>
<desc>Speed 31.5 km/h Distance 1.49 km</desc>
<time>2013-07-05T17:32:02.99</time>
<name>169</name>
<sym>Dot</sym>
</trkpt>
<trkpt lat="42.875728" lon="-2.100985">
<ele>1650.5</ele>
<desc>Speed 32.0 km/h Distance 1.50 km</desc>
<time>2013-07-05T17:32:04.09</time>
<name>170</name>
<sym>Dot</sym>
</trkpt>
<trkpt lat="42.875783" lon="-2.100912">
<ele>1651.0</ele>
<desc>Speed 30.5 km/h Distance 1.50 km</desc>
<time>2013-07-05T17:32:04.98</time>
<name>171</name>
<sym>Dot</sym>
</trkpt>
<trkpt lat="42.875842" lon="-2.100848">
<ele>1652.0</ele>
<desc>Speed 29.3 km/h Distance 1.51 km</desc>
<time>2013-07-05T17:32:06.04</time>
<name>172</name>
<sym>Dot</sym>
</trkpt>
<trkpt lat="42.875898" lon="-2.100792">
<ele>1653.0</ele>
<desc>Speed 27.7 km/h Distance 1.52 km</desc>
<time>2013-07-05T17:32:06.97</time>
<name>173</name>
<sym>Dot</sym>
</trkpt>
<trkpt lat="42.875955" lon="-2.100743">
<ele>1653.5</ele>
<desc>Speed 26.3 km/h Distance 1.53 km</desc>
<time>2013-07-05T17:32:07.97</time>
<name>174</name>
<sym>Dot</sym>
</trkpt>
<trkpt lat="42.876015" lon="-2.100698">
<ele>1654.5</ele>
<desc>Speed 26.3 km/h Distance 1.54 km</desc>
<time>2013-07-05T17:32:09.12</time>
<name>175</name>
<sym>Dot</sym>
</trkpt>
<trkpt lat="42.876075" lon="-2.100650">
<ele>1655.0</ele>
<desc>Speed 27.8 km/h Distance 1.54 km</desc>
<time>2013-07-05T17:32:10.47</time>
<name>176</name>
<sym>Dot</sym>
</trkpt>
<trkpt lat="42.876138" lon="-2.100588">
<ele>1656.0</ele>
<desc>Speed 30.7 km/h Distance 1.55 km</desc>
<time>2013-07-05T17:32:10.95</time>
<name>177</name>
<sym>Dot</sym>
</trkpt>
<trkpt lat="42.876203" lon="-2.100510">
<ele>1657.5</ele>
<desc>Speed 34.0 km/h Distance 1.56 km</desc>
<time>2013-07-05T17:32:11.94</time>
<name>178</name>
<sym>Dot</sym>
</trkpt>
<trkpt lat="42.876253" lon="-2.100410">
<ele>1659.5</ele>
<desc>Speed 35.3 km/h Distance 1.57 km</desc>
<time>2013-07-05T17:32:12.94</time>
<name>179</name>
<sym>Dot</sym>
</trkpt>
<trkpt lat="42.876297" lon="-2.100305">
<ele>1661.0</ele>
<desc>Speed 35.3 km/h Distance 1.58 km</desc>
<time>2013-07-05T17:32:13.97</time>
<name>180</name>
<sym>Dot</sym>
</trkpt>
<trkpt lat="42.876333" lon="-2.100202">
<ele>1662.0</ele>
<desc>Speed 33.4 km/h Distance 1.59 km</desc>
<time>2013-07-05T17:32:14.92</time>
<name>181</name>
<sym>Dot</sym>
</trkpt>
<trkpt lat="42.876372" lon="-2.100112">
<ele>1663.0</ele>
<desc>Speed 30.3 km/h Distance 1.60 km</desc>
<time>2013-07-05T17:32:15.92</time>
<name>182</name>
<sym>Dot</sym>
</trkpt>
<trkpt lat="42.876420" lon="-2.100033">
<ele>1663.0</ele>
<desc>Speed 29.4 km/h Distance 1.61 km</desc>
<time>2013-07-05T17:32:16.91</time>
<name>183</name>
<sym>Dot</sym>
</trkpt>
<trkpt lat="42.876493" lon="-2.099975">
<ele>1663.5</ele>
<desc>Speed 33.4 km/h Distance 1.62 km</desc>
<time>2013-07-05T17:32:18.04</time>
<name>184</name>
<sym>Dot</sym>
</trkpt>
<trkpt lat="42.876668" lon="-2.099895">
<ele>1666.5</ele>
<desc>Speed 33.9 km/h Distance 1.64 km</desc>
<time>2013-07-05T17:32:19.91</time>
<name>185</name>
<sym>Dot</sym>
</trkpt>
<trkpt lat="42.876718" lon="-2.099808">
<ele>1667.0</ele>
<desc>Speed 32.0 km/h Distance 1.65 km</desc>
<time>2013-07-05T17:32:20.90</time>
<name>186</name>
<sym>Dot</sym>
</trkpt>
<trkpt lat="42.876757" lon="-2.099692">
<ele>1667.5</ele>
<desc>Speed 37.7 km/h Distance 1.66 km</desc>
<time>2013-07-05T17:32:21.90</time>
<name>187</name>
<sym>Dot</sym>
</trkpt>
<trkpt lat="42.876782" lon="-2.099422">
<ele>1670.0</ele>
<desc>Speed 35.2 km/h Distance 1.68 km</desc>
<time>2013-07-05T17:32:23.89</time>
<name>188</name>
<sym>Dot</sym>
</trkpt>
<trkpt lat="42.876818" lon="-2.099308">
<ele>1670.0</ele>
<desc>Speed 35.9 km/h Distance 1.69 km</desc>
<time>2013-07-05T17:32:25.06</time>
<name>189</name>
<sym>Dot</sym>
</trkpt>
<trkpt lat="42.876870" lon="-2.099230">
<ele>1670.0</ele>
<desc>Speed 31.2 km/h Distance 1.70 km</desc>
<time>2013-07-05T17:32:25.88</time>
<name>190</name>
<sym>Dot</sym>
</trkpt>
<trkpt lat="42.876955" lon="-2.099153">
<ele>1670.5</ele>
<desc>Speed 31.2 km/h Distance 1.71 km</desc>
<time>2013-07-05T17:32:27.87</time>
<name>191</name>
<sym>Dot</sym>
</trkpt>
<trkpt lat="42.877072" lon="-2.099175">
<ele>1670.5</ele>
<desc>Speed 17.9 km/h Distance 1.72 km</desc>
<time>2013-07-05T17:32:30.20</time>
<name>192</name>
<sym>Dot</sym>
</trkpt>
<trkpt lat="42.877097" lon="-2.099240">
<ele>1671.0</ele>
<desc>Speed 20.3 km/h Distance 1.73 km</desc>
<time>2013-07-05T17:32:31.25</time>
<name>193</name>
<sym>Dot</sym>
</trkpt>
<trkpt lat="42.877142" lon="-2.099422">
<ele>1669.5</ele>
<desc>Speed 26.0 km/h Distance 1.74 km</desc>
<time>2013-07-05T17:32:32.86</time>
<name>194</name>
<sym>Dot</sym>
</trkpt>
<trkpt lat="42.877135" lon="-2.099675">
<ele>1667.0</ele>
<desc>Speed 39.5 km/h Distance 1.76 km</desc>
<time>2013-07-05T17:32:34.85</time>
<name>195</name>
<sym>Dot</sym>
</trkpt>
<trkpt lat="42.877102" lon="-2.099813">
<ele>1667.0</ele>
<desc>Speed 42.6 km/h Distance 1.78 km</desc>
<time>2013-07-05T17:32:36.65</time>
<name>196</name>
<sym>Dot</sym>
</trkpt>
<trkpt lat="42.877023" lon="-2.099920">
<ele>1667.5</ele>
<desc>Speed 44.9 km/h Distance 1.79 km</desc>
<time>2013-07-05T17:32:36.87</time>
<name>197</name>
<sym>Dot</sym>
</trkpt>
<trkpt lat="42.876915" lon="-2.100010">
<ele>1667.5</ele>
<desc>Speed 49.4 km/h Distance 1.80 km</desc>
<time>2013-07-05T17:32:38.52</time>
<name>198</name>
<sym>Dot</sym>
</trkpt>
<trkpt lat="42.876797" lon="-2.100075">
<ele>1667.0</ele>
<desc>Speed 52.0 km/h Distance 1.82 km</desc>
<time>2013-07-05T17:32:39.12</time>
<name>199</name>
<sym>Dot</sym>
</trkpt>
<trkpt lat="42.876677" lon="-2.100102">
<ele>1666.5</ele>
<desc>Speed 49.0 km/h Distance 1.83 km</desc>
<time>2013-07-05T17:32:39.82</time>
<name>200</name>
<sym>Dot</sym>
</trkpt>
<trkpt lat="42.876563" lon="-2.100115">
<ele>1667.5</ele>
<desc>Speed 46.4 km/h Distance 1.84 km</desc>
<time>2013-07-05T17:32:40.85</time>
<name>201</name>
<sym>Dot</sym>
</trkpt>
<trkpt lat="42.876453" lon="-2.100132">
<ele>1668.5</ele>
<desc>Speed 44.0 km/h Distance 1.86 km</desc>
<time>2013-07-05T17:32:41.80</time>
<name>202</name>
<sym>Dot</sym>
</trkpt>
<trkpt lat="42.876352" lon="-2.100172">
<ele>1670.0</ele>
<desc>Speed 43.6 km/h Distance 1.87 km</desc>
<time>2013-07-05T17:32:42.78</time>
<name>203</name>
<sym>Dot</sym>
</trkpt>
<trkpt lat="42.876255" lon="-2.100235">
<ele>1671.0</ele>
<desc>Speed 45.0 km/h Distance 1.88 km</desc>
<time>2013-07-05T17:32:43.78</time>
<name>204</name>
<sym>Dot</sym>
</trkpt>
<trkpt lat="42.876160" lon="-2.100320">
<ele>1672.0</ele>
<desc>Speed 46.9 km/h Distance 1.89 km</desc>
<time>2013-07-05T17:32:44.77</time>
<name>205</name>
<sym>Dot</sym>
</trkpt>
<trkpt lat="42.876077" lon="-2.100428">
<ele>1673.0</ele>
<desc>Speed 47.8 km/h Distance 1.90 km</desc>
<time>2013-07-05T17:32:45.80</time>
<name>206</name>
<sym>Dot</sym>
</trkpt>
<trkpt lat="42.875973" lon="-2.100642">
<ele>1676.5</ele>
<desc>Speed 36.2 km/h Distance 1.93 km</desc>
<time>2013-07-05T17:32:47.76</time>
<name>207</name>
<sym>Dot</sym>
</trkpt>
<trkpt lat="42.875940" lon="-2.100738">
<ele>1677.5</ele>
<desc>Speed 30.8 km/h Distance 1.93 km</desc>
<time>2013-07-05T17:32:48.75</time>
<name>208</name>
<sym>Dot</sym>
</trkpt>
<trkpt lat="42.875923" lon="-2.100827">
<ele>1676.5</ele>
<desc>Speed 26.9 km/h Distance 1.94 km</desc>
<time>2013-07-05T17:32:49.75</time>
<name>209</name>
<sym>Dot</sym>
</trkpt>
<trkpt lat="42.875927" lon="-2.100925">
<ele>1675.5</ele>
<desc>Speed 29.3 km/h Distance 1.95 km</desc>
<time>2013-07-05T17:32:50.74</time>
<name>210</name>
<sym>Dot</sym>
</trkpt>
<trkpt lat="42.875962" lon="-2.101017">
<ele>1675.5</ele>
<desc>Speed 30.6 km/h Distance 1.96 km</desc>
<time>2013-07-05T17:32:51.81</time>
<name>211</name>
<sym>Dot</sym>
</trkpt>
<trkpt lat="42.876018" lon="-2.101083">
<ele>1675.5</ele>
<desc>Speed 29.4 km/h Distance 1.97 km</desc>
<time>2013-07-05T17:32:52.73</time>
<name>212</name>
<sym>Dot</sym>
</trkpt>
<trkpt lat="42.876092" lon="-2.101098">
<ele>1675.5</ele>
<desc>Speed 29.1 km/h Distance 1.97 km</desc>
<time>2013-07-05T17:32:53.72</time>
<name>213</name>
<sym>Dot</sym>
</trkpt>
<trkpt lat="42.876165" lon="-2.101072">
<ele>1675.5</ele>
<desc>Speed 30.2 km/h Distance 1.98 km</desc>
<time>2013-07-05T17:32:54.72</time>
<name>214</name>
<sym>Dot</sym>
</trkpt>
<trkpt lat="42.876225" lon="-2.100980">
<ele>1677.5</ele>
<desc>Speed 35.5 km/h Distance 1.99 km</desc>
<time>2013-07-05T17:32:55.71</time>
<name>215</name>
<sym>Dot</sym>
</trkpt>
<trkpt lat="42.876258" lon="-2.100853">
<ele>1677.0</ele>
<desc>Speed 39.1 km/h Distance 2.00 km</desc>
<time>2013-07-05T17:32:57.47</time>
<name>216</name>
<sym>Dot</sym>
</trkpt>
<trkpt lat="42.876275" lon="-2.100702">
<ele>1676.5</ele>
<desc>Speed 44.0 km/h Distance 2.02 km</desc>
<time>2013-07-05T17:32:57.96</time>
<name>217</name>
<sym>Dot</sym>
</trkpt>
<trkpt lat="42.876275" lon="-2.100563">
<ele>1677.0</ele>
<desc>Speed 40.7 km/h Distance 2.03 km</desc>
<time>2013-07-05T17:32:58.69</time>
<name>218</name>
<sym>Dot</sym>
</trkpt>
<trkpt lat="42.876270" lon="-2.100423">
<ele>1677.5</ele>
<desc>Speed 41.0 km/h Distance 2.04 km</desc>
<time>2013-07-05T17:32:59.68</time>
<name>219</name>
<sym>Dot</sym>
</trkpt>
<trkpt lat="42.876273" lon="-2.100283">
<ele>1677.5</ele>
<desc>Speed 40.6 km/h Distance 2.05 km</desc>
<time>2013-07-05T17:33:00.68</time>
<name>220</name>
<sym>Dot</sym>
</trkpt>
<trkpt lat="42.876295" lon="-2.100150">
<ele>1677.0</ele>
<desc>Speed 39.8 km/h Distance 2.06 km</desc>
<time>2013-07-05T17:33:01.82</time>
<name>221</name>
<sym>Dot</sym>
</trkpt>
<trkpt lat="42.876347" lon="-2.100040">
<ele>1677.0</ele>
<desc>Speed 38.0 km/h Distance 2.07 km</desc>
<time>2013-07-05T17:33:02.79</time>
<name>222</name>
<sym>Dot</sym>
</trkpt>
<trkpt lat="42.876398" lon="-2.099935">
<ele>1677.0</ele>
<desc>Speed 35.8 km/h Distance 2.08 km</desc>
<time>2013-07-05T17:33:03.66</time>
<name>223</name>
<sym>Dot</sym>
</trkpt>
<trkpt lat="42.876467" lon="-2.099857">
<ele>1678.5</ele>
<desc>Speed 35.1 km/h Distance 2.09 km</desc>
<time>2013-07-05T17:33:04.65</time>
<name>224</name>
<sym>Dot</sym>
</trkpt>
<trkpt lat="42.876530" lon="-2.099785">
<ele>1679.5</ele>
<desc>Speed 32.0 km/h Distance 2.10 km</desc>
<time>2013-07-05T17:33:05.65</time>
<name>225</name>
<sym>Dot</sym>
</trkpt>
<trkpt lat="42.876630" lon="-2.099712">
<ele>1679.5</ele>
<desc>Speed 20.3 km/h Distance 2.11 km</desc>
<time>2013-07-05T17:33:07.64</time>
<name>226</name>
<sym>Dot</sym>
</trkpt>
<trkpt lat="42.876765" lon="-2.099718">
<ele>1678.5</ele>
<desc>Speed 23.1 km/h Distance 2.13 km</desc>
<time>2013-07-05T17:33:09.65</time>
<name>227</name>
<sym>Dot</sym>
</trkpt>
<trkpt lat="42.876827" lon="-2.099737">
<ele>1679.5</ele>
<desc>Speed 25.1 km/h Distance 2.14 km</desc>
<time>2013-07-05T17:33:10.62</time>
<name>228</name>
<sym>Dot</sym>
</trkpt>
<trkpt lat="42.876892" lon="-2.099757">
<ele>1680.5</ele>
<desc>Speed 25.7 km/h Distance 2.14 km</desc>
<time>2013-07-05T17:33:11.61</time>
<name>229</name>
<sym>Dot</sym>
</trkpt>
<trkpt lat="42.876953" lon="-2.099770">
<ele>1682.5</ele>
<desc>Speed 25.4 km/h Distance 2.15 km</desc>
<time>2013-07-05T17:33:12.78</time>
<name>230</name>
<sym>Dot</sym>
</trkpt>
<trkpt lat="42.877018" lon="-2.099762">
<ele>1683.5</ele>
<desc>Speed 25.3 km/h Distance 2.16 km</desc>
<time>2013-07-05T17:33:13.61</time>
<name>231</name>
<sym>Dot</sym>
</trkpt>
<trkpt lat="42.877073" lon="-2.099725">
<ele>1682.5</ele>
<desc>Speed 24.6 km/h Distance 2.17 km</desc>
<time>2013-07-05T17:33:14.77</time>
<name>232</name>
<sym>Dot</sym>
</trkpt>
<trkpt lat="42.877123" lon="-2.099678">
<ele>1681.5</ele>
<desc>Speed 24.2 km/h Distance 2.17 km</desc>
<time>2013-07-05T17:33:15.59</time>
<name>233</name>
<sym>Dot</sym>
</trkpt>
<trkpt lat="42.877178" lon="-2.099633">
<ele>1682.0</ele>
<desc>Speed 25.2 km/h Distance 2.18 km</desc>
<time>2013-07-05T17:33:16.58</time>
<name>234</name>
<sym>Dot</sym>
</trkpt>
<trkpt lat="42.877253" lon="-2.099622">
<ele>1682.5</ele>
<desc>Speed 29.8 km/h Distance 2.19 km</desc>
<time>2013-07-05T17:33:17.58</time>
<name>235</name>
<sym>Dot</sym>
</trkpt>
<trkpt lat="42.877325" lon="-2.099638">
<ele>1682.5</ele>
<desc>Speed 29.6 km/h Distance 2.20 km</desc>
<time>2013-07-05T17:33:18.71</time>
<name>236</name>
<sym>Dot</sym>
</trkpt>
<trkpt lat="42.877397" lon="-2.099683">
<ele>1681.5</ele>
<desc>Speed 31.1 km/h Distance 2.20 km</desc>
<time>2013-07-05T17:33:19.57</time>
<name>237</name>
<sym>Dot</sym>
</trkpt>
<trkpt lat="42.877458" lon="-2.099760">
<ele>1682.0</ele>
<desc>Speed 33.0 km/h Distance 2.21 km</desc>
<time>2013-07-05T17:33:20.57</time>
<name>238</name>
<sym>Dot</sym>
</trkpt>
<trkpt lat="42.877502" lon="-2.099860">
<ele>1684.0</ele>
<desc>Speed 34.3 km/h Distance 2.22 km</desc>
<time>2013-07-05T17:33:21.56</time>
<name>239</name>
<sym>Dot</sym>
</trkpt>
<trkpt lat="42.877513" lon="-2.099960">
<ele>1684.0</ele>
<desc>Speed 29.9 km/h Distance 2.23 km</desc>
<time>2013-07-05T17:33:22.71</time>
<name>240</name>
<sym>Dot</sym>
</trkpt>
<trkpt lat="42.877495" lon="-2.100062">
<ele>1684.0</ele>
<desc>Speed 31.4 km/h Distance 2.24 km</desc>
<time>2013-07-05T17:33:23.54</time>
<name>241</name>
<sym>Dot</sym>
</trkpt>
<trkpt lat="42.877450" lon="-2.100168">
<ele>1683.0</ele>
<desc>Speed 35.7 km/h Distance 2.25 km</desc>
<time>2013-07-05T17:33:24.54</time>
<name>242</name>
<sym>Dot</sym>
</trkpt>
<trkpt lat="42.877378" lon="-2.100262">
<ele>1683.0</ele>
<desc>Speed 39.9 km/h Distance 2.26 km</desc>
<time>2013-07-05T17:33:25.54</time>
<name>243</name>
<sym>Dot</sym>
</trkpt>
<trkpt lat="42.877162" lon="-2.100352">
<ele>1682.5</ele>
<desc>Speed 43.7 km/h Distance 2.29 km</desc>
<time>2013-07-05T17:33:27.67</time>
<name>244</name>
<sym>Dot</sym>
</trkpt>
<trkpt lat="42.876915" lon="-2.100313">
<ele>1682.5</ele>
<desc>Speed 47.2 km/h Distance 2.31 km</desc>
<time>2013-07-05T17:33:29.52</time>
<name>245</name>
<sym>Dot</sym>
</trkpt>
<trkpt lat="42.876737" lon="-2.100135">
<ele>1682.5</ele>
<desc>Speed 50.5 km/h Distance 2.34 km</desc>
<time>2013-07-05T17:33:31.51</time>
<name>246</name>
<sym>Dot</sym>
</trkpt>
<trkpt lat="42.876668" lon="-2.099768">
<ele>1683.0</ele>
<desc>Speed 44.9 km/h Distance 2.37 km</desc>
<time>2013-07-05T17:33:33.62</time>
<name>247</name>
<sym>Dot</sym>
</trkpt>
<trkpt lat="42.876670" lon="-2.099610">
<ele>1684.0</ele>
<desc>Speed 42.9 km/h Distance 2.38 km</desc>
<time>2013-07-05T17:33:34.57</time>
<name>248</name>
<sym>Dot</sym>
</trkpt>
<trkpt lat="42.876673" lon="-2.099462">
<ele>1684.0</ele>
<desc>Speed 38.4 km/h Distance 2.39 km</desc>
<time>2013-07-05T17:33:35.49</time>
<name>249</name>
<sym>Dot</sym>
</trkpt>
<trkpt lat="42.876718" lon="-2.099325">
<ele>1684.5</ele>
<desc>Speed 37.4 km/h Distance 2.41 km</desc>
<time>2013-07-05T17:33:36.48</time>
<name>250</name>
<sym>Dot</sym>
</trkpt>
<trkpt lat="42.876870" lon="-2.099107">
<ele>1687.0</ele>
<desc>Speed 31.0 km/h Distance 2.43 km</desc>
<time>2013-07-05T17:33:40.22</time>
<name>251</name>
<sym>Dot</sym>
</trkpt>
<trkpt lat="42.876923" lon="-2.099038">
<ele>1687.0</ele>
<desc>Speed 25.0 km/h Distance 2.44 km</desc>
<time>2013-07-05T17:33:41.13</time>
<name>252</name>
<sym>Dot</sym>
</trkpt>
<trkpt lat="42.876975" lon="-2.098992">
<ele>1687.0</ele>
<desc>Speed 19.4 km/h Distance 2.45 km</desc>
<time>2013-07-05T17:33:42.11</time>
<name>253</name>
<sym>Dot</sym>
</trkpt>
<trkpt lat="42.877118" lon="-2.098952">
<ele>1685.5</ele>
<desc>Speed 25.6 km/h Distance 2.46 km</desc>
<time>2013-07-05T17:33:44.11</time>
<name>254</name>
<sym>Dot</sym>
</trkpt>
<trkpt lat="42.877283" lon="-2.098922">
<ele>1684.5</ele>
<desc>Speed 30.2 km/h Distance 2.48 km</desc>
<time>2013-07-05T17:33:46.23</time>
<name>255</name>
<sym>Dot</sym>
</trkpt>
<trkpt lat="42.877415" lon="-2.099060">
<ele>1684.5</ele>
<desc>Speed 27.6 km/h Distance 2.50 km</desc>
<time>2013-07-05T17:33:49.12</time>
<name>256</name>
<sym>Dot</sym>
</trkpt>
<trkpt lat="42.877405" lon="-2.099163">
<ele>1683.0</ele>
<desc>Speed 32.6 km/h Distance 2.51 km</desc>
<time>2013-07-05T17:33:50.10</time>
<name>257</name>
<sym>Dot</sym>
</trkpt>
<trkpt lat="42.877372" lon="-2.099285">
<ele>1682.5</ele>
<desc>Speed 39.2 km/h Distance 2.52 km</desc>
<time>2013-07-05T17:33:51.78</time>
<name>258</name>
<sym>Dot</sym>
</trkpt>
<trkpt lat="42.877212" lon="-2.099435">
<ele>1681.0</ele>
<desc>Speed 43.7 km/h Distance 2.54 km</desc>
<time>2013-07-05T17:33:53.09</time>
<name>259</name>
<sym>Dot</sym>
</trkpt>
<trkpt lat="42.877095" lon="-2.099460">
<ele>1680.5</ele>
<desc>Speed 48.9 km/h Distance 2.55 km</desc>
<time>2013-07-05T17:33:54.47</time>
<name>260</name>
<sym>Dot</sym>
</trkpt>
<trkpt lat="42.876967" lon="-2.099478">
<ele>1679.5</ele>
<desc>Speed 53.1 km/h Distance 2.57 km</desc>
<time>2013-07-05T17:33:55.56</time>
<name>261</name>
<sym>Dot</sym>
</trkpt>
<trkpt lat="42.876837" lon="-2.099488">
<ele>1679.5</ele>
<desc>Speed 54.3 km/h Distance 2.58 km</desc>
<time>2013-07-05T17:33:56.06</time>
<name>262</name>
<sym>Dot</sym>
</trkpt>
<trkpt lat="42.876547" lon="-2.099542">
<ele>1681.5</ele>
<desc>Speed 39.1 km/h Distance 2.61 km</desc>
<time>2013-07-05T17:33:59.13</time>
<name>263</name>
<sym>Dot</sym>
</trkpt>
<trkpt lat="42.876470" lon="-2.099613">
<ele>1681.5</ele>
<desc>Speed 40.1 km/h Distance 2.63 km</desc>
<time>2013-07-05T17:34:00.09</time>
<name>264</name>
<sym>Dot</sym>
</trkpt>
<trkpt lat="42.876400" lon="-2.099730">
<ele>1681.5</ele>
<desc>Speed 45.0 km/h Distance 2.64 km</desc>
<time>2013-07-05T17:34:01.08</time>
<name>265</name>
<sym>Dot</sym>
</trkpt>
<trkpt lat="42.876365" lon="-2.099860">
<ele>1682.5</ele>
<desc>Speed 41.3 km/h Distance 2.65 km</desc>
<time>2013-07-05T17:34:02.07</time>
<name>266</name>
<sym>Dot</sym>
</trkpt>
<trkpt lat="42.876408" lon="-2.100053">
<ele>1682.0</ele>
<desc>Speed 31.0 km/h Distance 2.67 km</desc>
<time>2013-07-05T17:34:04.07</time>
<name>267</name>
<sym>Dot</sym>
</trkpt>
<trkpt lat="42.876475" lon="-2.100100">
<ele>1681.0</ele>
<desc>Speed 29.3 km/h Distance 2.67 km</desc>
<time>2013-07-05T17:34:05.25</time>
<name>268</name>
<sym>Dot</sym>
</trkpt>
<trkpt lat="42.876545" lon="-2.100118">
<ele>1680.0</ele>
<desc>Speed 27.3 km/h Distance 2.68 km</desc>
<time>2013-07-05T17:34:06.06</time>
<name>269</name>
<sym>Dot</sym>
</trkpt>
<trkpt lat="42.876605" lon="-2.100087">
<ele>1680.0</ele>
<desc>Speed 24.9 km/h Distance 2.69 km</desc>
<time>2013-07-05T17:34:07.05</time>
<name>270</name>
<sym>Dot</sym>
</trkpt>
<trkpt lat="42.876653" lon="-2.100038">
<ele>1680.5</ele>
<desc>Speed 23.1 km/h Distance 2.70 km</desc>
<time>2013-07-05T17:34:08.04</time>
<name>271</name>
<sym>Dot</sym>
</trkpt>
<trkpt lat="42.876698" lon="-2.099960">
<ele>1680.0</ele>
<desc>Speed 28.5 km/h Distance 2.70 km</desc>
<time>2013-07-05T17:34:09.61</time>
<name>272</name>
<sym>Dot</sym>
</trkpt>
<trkpt lat="42.876767" lon="-2.099537">
<ele>1676.0</ele>
<desc>Speed 45.2 km/h Distance 2.74 km</desc>
<time>2013-07-05T17:34:12.02</time>
<name>273</name>
<sym>Dot</sym>
</trkpt>
<trkpt lat="42.876777" lon="-2.099377">
<ele>1676.0</ele>
<desc>Speed 46.5 km/h Distance 2.75 km</desc>
<time>2013-07-05T17:34:13.01</time>
<name>274</name>
<sym>Dot</sym>
</trkpt>
<trkpt lat="42.876777" lon="-2.099222">
<ele>1677.0</ele>
<desc>Speed 45.2 km/h Distance 2.76 km</desc>
<time>2013-07-05T17:34:14.00</time>
<name>275</name>
<sym>Dot</sym>
</trkpt>
<trkpt lat="42.876775" lon="-2.099073">
<ele>1677.5</ele>
<desc>Speed 43.5 km/h Distance 2.78 km</desc>
<time>2013-07-05T17:34:14.99</time>
<name>276</name>
<sym>Dot</sym>
</trkpt>
<trkpt lat="42.876778" lon="-2.098928">
<ele>1677.5</ele>
<desc>Speed 41.9 km/h Distance 2.79 km</desc>
<time>2013-07-05T17:34:16.12</time>
<name>277</name>
<sym>Dot</sym>
</trkpt>
<trkpt lat="42.876787" lon="-2.098787">
<ele>1677.0</ele>
<desc>Speed 41.6 km/h Distance 2.80 km</desc>
<time>2013-07-05T17:34:16.98</time>
<name>278</name>
<sym>Dot</sym>
</trkpt>
<trkpt lat="42.876805" lon="-2.098643">
<ele>1676.5</ele>
<desc>Speed 41.6 km/h Distance 2.81 km</desc>
<time>2013-07-05T17:34:17.97</time>
<name>279</name>
<sym>Dot</sym>
</trkpt>
<trkpt lat="42.876827" lon="-2.098500">
<ele>1676.5</ele>
<desc>Speed 42.5 km/h Distance 2.82 km</desc>
<time>2013-07-05T17:34:18.97</time>
<name>280</name>
<sym>Dot</sym>
</trkpt>
<trkpt lat="42.876838" lon="-2.098350">
<ele>1676.5</ele>
<desc>Speed 43.4 km/h Distance 2.84 km</desc>
<time>2013-07-05T17:34:20.16</time>
<name>281</name>
<sym>Dot</sym>
</trkpt>
<trkpt lat="42.876838" lon="-2.098195">
<ele>1676.5</ele>
<desc>Speed 45.2 km/h Distance 2.85 km</desc>
<time>2013-07-05T17:34:20.95</time>
<name>282</name>
<sym>Dot</sym>
</trkpt>
<trkpt lat="42.876825" lon="-2.098037">
<ele>1675.5</ele>
<desc>Speed 46.6 km/h Distance 2.86 km</desc>
<time>2013-07-05T17:34:22.22</time>
<name>283</name>
<sym>Dot</sym>
</trkpt>
<trkpt lat="42.876805" lon="-2.097877">
<ele>1675.0</ele>
<desc>Speed 48.1 km/h Distance 2.88 km</desc>
<time>2013-07-05T17:34:22.94</time>
<name>284</name>
<sym>Dot</sym>
</trkpt>
<trkpt lat="42.876787" lon="-2.097710">
<ele>1675.5</ele>
<desc>Speed 49.4 km/h Distance 2.89 km</desc>
<time>2013-07-05T17:34:23.93</time>
<name>285</name>
<sym>Dot</sym>
</trkpt>
<trkpt lat="42.876772" lon="-2.097550">
<ele>1677.0</ele>
<desc>Speed 47.4 km/h Distance 2.90 km</desc>
<time>2013-07-05T17:34:24.98</time>
<name>286</name>
<sym>Dot</sym>
</trkpt>
<trkpt lat="42.876765" lon="-2.097398">
<ele>1678.0</ele>
<desc>Speed 44.2 km/h Distance 2.91 km</desc>
<time>2013-07-05T17:34:25.91</time>
<name>287</name>
<sym>Dot</sym>
</trkpt>
<trkpt lat="42.876762" lon="-2.097255">
<ele>1678.5</ele>
<desc>Speed 41.9 km/h Distance 2.93 km</desc>
<time>2013-07-05T17:34:26.90</time>
<name>288</name>
<sym>Dot</sym>
</trkpt>
<trkpt lat="42.876763" lon="-2.097113">
<ele>1679.0</ele>
<desc>Speed 42.0 km/h Distance 2.94 km</desc>
<time>2013-07-05T17:34:27.89</time>
<name>289</name>
<sym>Dot</sym>
</trkpt>
<trkpt lat="42.876770" lon="-2.096965">
<ele>1678.5</ele>
<desc>Speed 43.3 km/h Distance 2.95 km</desc>
<time>2013-07-05T17:34:28.88</time>
<name>290</name>
<sym>Dot</sym>
</trkpt>
<trkpt lat="42.876780" lon="-2.096815">
<ele>1678.5</ele>
<desc>Speed 43.7 km/h Distance 2.96 km</desc>
<time>2013-07-05T17:34:29.87</time>
<name>291</name>
<sym>Dot</sym>
</trkpt>
<trkpt lat="42.876798" lon="-2.096672">
<ele>1679.0</ele>
<desc>Speed 42.9 km/h Distance 2.97 km</desc>
<time>2013-07-05T17:34:30.98</time>
<name>292</name>
<sym>Dot</sym>
</trkpt>
<trkpt lat="42.876823" lon="-2.096532">
<ele>1679.5</ele>
<desc>Speed 41.4 km/h Distance 2.99 km</desc>
<time>2013-07-05T17:34:31.85</time>
<name>293</name>
<sym>Dot</sym>
</trkpt>
<trkpt lat="42.876850" lon="-2.096400">
<ele>1680.5</ele>
<desc>Speed 40.1 km/h Distance 3.00 km</desc>
<time>2013-07-05T17:34:32.84</time>
<name>294</name>
<sym>Dot</sym>
</trkpt>
<trkpt lat="42.876882" lon="-2.096273">
<ele>1682.0</ele>
<desc>Speed 39.4 km/h Distance 3.01 km</desc>
<time>2013-07-05T17:34:34.17</time>
<name>295</name>
<sym>Dot</sym>
</trkpt>
<trkpt lat="42.876915" lon="-2.096145">
<ele>1683.5</ele>
<desc>Speed 39.5 km/h Distance 3.02 km</desc>
<time>2013-07-05T17:34:34.83</time>
<name>296</name>
<sym>Dot</sym>
</trkpt>
<trkpt lat="42.876945" lon="-2.096013">
<ele>1685.0</ele>
<desc>Speed 40.6 km/h Distance 3.03 km</desc>
<time>2013-07-05T17:34:35.82</time>
<name>297</name>
<sym>Dot</sym>
</trkpt>
<trkpt lat="42.876965" lon="-2.095867">
<ele>1686.0</ele>
<desc>Speed 43.6 km/h Distance 3.04 km</desc>
<time>2013-07-05T17:34:36.98</time>
<name>298</name>
<sym>Dot</sym>
</trkpt>
<trkpt lat="42.876967" lon="-2.095702">
<ele>1687.0</ele>
<desc>Speed 48.2 km/h Distance 3.06 km</desc>
<time>2013-07-05T17:34:38.29</time>
<name>299</name>
<sym>Dot</sym>
</trkpt>
<trkpt lat="42.876932" lon="-2.095347">
<ele>1690.0</ele>
<desc>Speed 52.3 km/h Distance 3.08 km</desc>
<time>2013-07-05T17:34:39.80</time>
<name>300</name>
<sym>Dot</sym>
</trkpt>
<trkpt lat="42.876908" lon="-2.095170">
<ele>1691.5</ele>
<desc>Speed 52.7 km/h Distance 3.10 km</desc>
<time>2013-07-05T17:34:42.14</time>
<name>301</name>
<sym>Dot</sym>
</trkpt>
<trkpt lat="42.876867" lon="-2.094852">
<ele>1695.5</ele>
<desc>Speed 45.4 km/h Distance 3.13 km</desc>
<time>2013-07-05T17:34:42.80</time>
<name>302</name>
<sym>Dot</sym>
</trkpt>
<trkpt lat="42.876855" lon="-2.094708">
<ele>1696.5</ele>
<desc>Speed 42.5 km/h Distance 3.14 km</desc>
<time>2013-07-05T17:34:43.78</time>
<name>303</name>
<sym>Dot</sym>
</trkpt>
<trkpt lat="42.876867" lon="-2.094562">
<ele>1696.0</ele>
<desc>Speed 43.6 km/h Distance 3.15 km</desc>
<time>2013-07-05T17:34:44.78</time>
<name>304</name>
<sym>Dot</sym>
</trkpt>
<trkpt lat="42.876910" lon="-2.094422">
<ele>1696.0</ele>
<desc>Speed 44.4 km/h Distance 3.16 km</desc>
<time>2013-07-05T17:34:46.77</time>
<name>305</name>
<sym>Dot</sym>
</trkpt>
<trkpt lat="42.877047" lon="-2.094195">
<ele>1696.0</ele>
<desc>Speed 44.4 km/h Distance 3.19 km</desc>
<time>2013-07-05T17:34:47.99</time>
<name>306</name>
<sym>Dot</sym>
</trkpt>
<trkpt lat="42.877218" lon="-2.094295">
<ele>1696.5</ele>
<desc>Speed 24.8 km/h Distance 3.21 km</desc>
<time>2013-07-05T17:34:51.00</time>
<name>307</name>
<sym>Dot</sym>
</trkpt>
<trkpt lat="42.877215" lon="-2.094395">
<ele>1695.5</ele>
<desc>Speed 25.6 km/h Distance 3.22 km</desc>
<time>2013-07-05T17:34:52.15</time>
<name>308</name>
<sym>Dot</sym>
</trkpt>
<trkpt lat="42.877153" lon="-2.094573">
<ele>1694.0</ele>
<desc>Speed 26.8 km/h Distance 3.23 km</desc>
<time>2013-07-05T17:34:53.98</time>
<name>309</name>
<sym>Dot</sym>
</trkpt>
<trkpt lat="42.877103" lon="-2.094648">
<ele>1694.5</ele>
<desc>Speed 28.9 km/h Distance 3.24 km</desc>
<time>2013-07-05T17:34:54.98</time>
<name>310</name>
<sym>Dot</sym>
</trkpt>
<trkpt lat="42.877057" lon="-2.094715">
<ele>1695.0</ele>
<desc>Speed 25.9 km/h Distance 3.25 km</desc>
<time>2013-07-05T17:34:55.97</time>
<name>311</name>
<sym>Dot</sym>
</trkpt>
<trkpt lat="42.877003" lon="-2.094785">
<ele>1695.0</ele>
<desc>Speed 28.6 km/h Distance 3.26 km</desc>
<time>2013-07-05T17:34:56.96</time>
<name>312</name>
<sym>Dot</sym>
</trkpt>
<trkpt lat="42.876952" lon="-2.094870">
<ele>1694.5</ele>
<desc>Speed 32.0 km/h Distance 3.26 km</desc>
<time>2013-07-05T17:34:58.07</time>
<name>313</name>
<sym>Dot</sym>
</trkpt>
<trkpt lat="42.876908" lon="-2.094970">
<ele>1694.0</ele>
<desc>Speed 33.6 km/h Distance 3.27 km</desc>
<time>2013-07-05T17:34:58.95</time>
<name>314</name>
<sym>Dot</sym>
</trkpt>
<trkpt lat="42.876872" lon="-2.095085">
<ele>1694.5</ele>
<desc>Speed 35.3 km/h Distance 3.28 km</desc>
<time>2013-07-05T17:34:59.94</time>
<name>315</name>
<sym>Dot</sym>
</trkpt>
<trkpt lat="42.876848" lon="-2.095183">
<ele>1694.5</ele>
<desc>Speed 29.3 km/h Distance 3.29 km</desc>
<time>2013-07-05T17:35:01.10</time>
<name>316</name>
<sym>Dot</sym>
</trkpt>
<trkpt lat="42.876850" lon="-2.095332">
<ele>1697.0</ele>
<desc>Speed 19.8 km/h Distance 3.30 km</desc>
<time>2013-07-05T17:35:02.93</time>
<name>317</name>
<sym>Dot</sym>
</trkpt>
<trkpt lat="42.876857" lon="-2.095393">
<ele>1698.0</ele>
<desc>Speed 17.1 km/h Distance 3.31 km</desc>
<time>2013-07-05T17:35:03.92</time>
<name>318</name>
<sym>Dot</sym>
</trkpt>
<trkpt lat="42.876870" lon="-2.095452">
<ele>1698.0</ele>
<desc>Speed 17.8 km/h Distance 3.31 km</desc>
<time>2013-07-05T17:35:05.22</time>
<name>319</name>
<sym>Dot</sym>
</trkpt>
<trkpt lat="42.876895" lon="-2.095518">
<ele>1697.0</ele>
<desc>Speed 21.6 km/h Distance 3.32 km</desc>
<time>2013-07-05T17:35:05.92</time>
<name>320</name>
<sym>Dot</sym>
</trkpt>
<trkpt lat="42.876927" lon="-2.095592">
<ele>1697.5</ele>
<desc>Speed 25.1 km/h Distance 3.33 km</desc>
<time>2013-07-05T17:35:07.03</time>
<name>321</name>
<sym>Dot</sym>
</trkpt>
<trkpt lat="42.876962" lon="-2.095670">
<ele>1698.5</ele>
<desc>Speed 25.8 km/h Distance 3.34 km</desc>
<time>2013-07-05T17:35:07.91</time>
<name>322</name>
<sym>Dot</sym>
</trkpt>
<trkpt lat="42.876987" lon="-2.095750">
<ele>1700.5</ele>
<desc>Speed 24.6 km/h Distance 3.34 km</desc>
<time>2013-07-05T17:35:08.90</time>
<name>323</name>
<sym>Dot</sym>
</trkpt>
<trkpt lat="42.877003" lon="-2.095828">
<ele>1701.5</ele>
<desc>Speed 23.9 km/h Distance 3.35 km</desc>
<time>2013-07-05T17:35:10.12</time>
<name>324</name>
<sym>Dot</sym>
</trkpt>
<trkpt lat="42.877010" lon="-2.095915">
<ele>1702.0</ele>
<desc>Speed 25.1 km/h Distance 3.36 km</desc>
<time>2013-07-05T17:35:10.89</time>
<name>325</name>
<sym>Dot</sym>
</trkpt>
<trkpt lat="42.877015" lon="-2.096008">
<ele>1702.0</ele>
<desc>Speed 27.3 km/h Distance 3.36 km</desc>
<time>2013-07-05T17:35:11.88</time>
<name>326</name>
<sym>Dot</sym>
</trkpt>
<trkpt lat="42.877020" lon="-2.096108">
<ele>1702.5</ele>
<desc>Speed 29.2 km/h Distance 3.37 km</desc>
<time>2013-07-05T17:35:12.88</time>
<name>327</name>
<sym>Dot</sym>
</trkpt>
<trkpt lat="42.877025" lon="-2.096212">
<ele>1703.5</ele>
<desc>Speed 29.8 km/h Distance 3.38 km</desc>
<time>2013-07-05T17:35:13.87</time>
<name>328</name>
<sym>Dot</sym>
</trkpt>
<trkpt lat="42.877027" lon="-2.096310">
<ele>1705.0</ele>
<desc>Speed 28.7 km/h Distance 3.39 km</desc>
<time>2013-07-05T17:35:14.86</time>
<name>329</name>
<sym>Dot</sym>
</trkpt>
<trkpt lat="42.877018" lon="-2.096405">
<ele>1706.0</ele>
<desc>Speed 27.9 km/h Distance 3.40 km</desc>
<time>2013-07-05T17:35:15.97</time>
<name>330</name>
<sym>Dot</sym>
</trkpt>
<trkpt lat="42.877005" lon="-2.096500">
<ele>1706.5</ele>
<desc>Speed 28.4 km/h Distance 3.40 km</desc>
<time>2013-07-05T17:35:17.25</time>
<name>331</name>
<sym>Dot</sym>
</trkpt>
<trkpt lat="42.876982" lon="-2.096602">
<ele>1706.5</ele>
<desc>Speed 31.1 km/h Distance 3.41 km</desc>
<time>2013-07-05T17:35:17.84</time>
<name>332</name>
<sym>Dot</sym>
</trkpt>
<trkpt lat="42.876953" lon="-2.096710">
<ele>1707.0</ele>
<desc>Speed 33.2 km/h Distance 3.42 km</desc>
<time>2013-07-05T17:35:18.84</time>
<name>333</name>
<sym>Dot</sym>
</trkpt>
<trkpt lat="42.876928" lon="-2.096820">
<ele>1707.5</ele>
<desc>Speed 33.6 km/h Distance 3.43 km</desc>
<time>2013-07-05T17:35:19.83</time>
<name>334</name>
<sym>Dot</sym>
</trkpt>
<trkpt lat="42.876917" lon="-2.096923">
<ele>1708.0</ele>
<desc>Speed 30.5 km/h Distance 3.44 km</desc>
<time>2013-07-05T17:35:21.09</time>
<name>335</name>
<sym>Dot</sym>
</trkpt>
<trkpt lat="42.876917" lon="-2.097015">
<ele>1708.5</ele>
<desc>Speed 26.7 km/h Distance 3.45 km</desc>
<time>2013-07-05T17:35:21.96</time>
<name>336</name>
<sym>Dot</sym>
</trkpt>
<trkpt lat="42.876938" lon="-2.097092">
<ele>1709.5</ele>
<desc>Speed 24.1 km/h Distance 3.45 km</desc>
<time>2013-07-05T17:35:22.80</time>
<name>337</name>
<sym>Dot</sym>
</trkpt>
<trkpt lat="42.876968" lon="-2.097162">
<ele>1709.5</ele>
<desc>Speed 23.8 km/h Distance 3.46 km</desc>
<time>2013-07-05T17:35:23.80</time>
<name>338</name>
<sym>Dot</sym>
</trkpt>
<trkpt lat="42.877017" lon="-2.097222">
<ele>1710.5</ele>
<desc>Speed 25.2 km/h Distance 3.47 km</desc>
<time>2013-07-05T17:35:24.80</time>
<name>339</name>
<sym>Dot</sym>
</trkpt>
<trkpt lat="42.877065" lon="-2.097268">
<ele>1711.0</ele>
<desc>Speed 23.9 km/h Distance 3.47 km</desc>
<time>2013-07-05T17:35:25.89</time>
<name>340</name>
<sym>Dot</sym>
</trkpt>
<trkpt lat="42.877125" lon="-2.097297">
<ele>1711.0</ele>
<desc>Speed 24.4 km/h Distance 3.48 km</desc>
<time>2013-07-05T17:35:26.79</time>
<name>341</name>
<sym>Dot</sym>
</trkpt>
<trkpt lat="42.877190" lon="-2.097292">
<ele>1711.0</ele>
<desc>Speed 26.4 km/h Distance 3.49 km</desc>
<time>2013-07-05T17:35:27.79</time>
<name>342</name>
<sym>Dot</sym>
</trkpt>
<trkpt lat="42.877252" lon="-2.097255">
<ele>1711.5</ele>
<desc>Speed 26.6 km/h Distance 3.50 km</desc>
<time>2013-07-05T17:35:28.77</time>
<name>343</name>
<sym>Dot</sym>
</trkpt>
<trkpt lat="42.877372" lon="-2.097065">
<ele>1711.5</ele>
<desc>Speed 39.1 km/h Distance 3.52 km</desc>
<time>2013-07-05T17:35:30.82</time>
<name>344</name>
<sym>Dot</sym>
</trkpt>
<trkpt lat="42.877408" lon="-2.096928">
<ele>1711.0</ele>
<desc>Speed 42.7 km/h Distance 3.53 km</desc>
<time>2013-07-05T17:35:31.77</time>
<name>345</name>
<sym>Dot</sym>
</trkpt>
<trkpt lat="42.877385" lon="-2.096600">
<ele>1711.0</ele>
<desc>Speed 50.1 km/h Distance 3.56 km</desc>
<time>2013-07-05T17:35:33.75</time>
<name>346</name>
<sym>Dot</sym>
</trkpt>
<trkpt lat="42.877332" lon="-2.096440">
<ele>1709.0</ele>
<desc>Speed 52.1 km/h Distance 3.57 km</desc>
<time>2013-07-05T17:35:34.74</time>
<name>347</name>
<sym>Dot</sym>
</trkpt>
<trkpt lat="42.877263" lon="-2.096292">
<ele>1709.0</ele>
<desc>Speed 51.7 km/h Distance 3.58 km</desc>
<time>2013-07-05T17:35:35.74</time>
<name>348</name>
<sym>Dot</sym>
</trkpt>
<trkpt lat="42.877180" lon="-2.096153">
<ele>1710.0</ele>
<desc>Speed 52.8 km/h Distance 3.60 km</desc>
<time>2013-07-05T17:35:36.92</time>
<name>349</name>
<sym>Dot</sym>
</trkpt>
<trkpt lat="42.877025" lon="-2.095880">
<ele>1710.5</ele>
<desc>Speed 50.8 km/h Distance 3.63 km</desc>
<time>2013-07-05T17:35:38.71</time>
<name>350</name>
<sym>Dot</sym>
</trkpt>
<trkpt lat="42.876968" lon="-2.095725">
<ele>1710.0</ele>
<desc>Speed 51.2 km/h Distance 3.64 km</desc>
<time>2013-07-05T17:35:39.71</time>
<name>351</name>
<sym>Dot</sym>
</trkpt>
<trkpt lat="42.876927" lon="-2.095570">
<ele>1710.5</ele>
<desc>Speed 49.2 km/h Distance 3.65 km</desc>
<time>2013-07-05T17:35:40.70</time>
<name>352</name>
<sym>Dot</sym>
</trkpt>
<trkpt lat="42.876897" lon="-2.095413">
<ele>1711.0</ele>
<desc>Speed 47.6 km/h Distance 3.67 km</desc>
<time>2013-07-05T17:35:41.70</time>
<name>353</name>
<sym>Dot</sym>
</trkpt>
<trkpt lat="42.876872" lon="-2.095262">
<ele>1712.0</ele>
<desc>Speed 45.8 km/h Distance 3.68 km</desc>
<time>2013-07-05T17:35:42.78</time>
<name>354</name>
<sym>Dot</sym>
</trkpt>
<trkpt lat="42.876855" lon="-2.095117">
<ele>1712.0</ele>
<desc>Speed 43.6 km/h Distance 3.69 km</desc>
<time>2013-07-05T17:35:43.70</time>
<name>355</name>
<sym>Dot</sym>
</trkpt>
<trkpt lat="42.876842" lon="-2.094975">
<ele>1712.5</ele>
<desc>Speed 42.7 km/h Distance 3.70 km</desc>
<time>2013-07-05T17:35:44.68</time>
<name>356</name>
<sym>Dot</sym>
</trkpt>
<trkpt lat="42.876828" lon="-2.094830">
<ele>1712.0</ele>
<desc>Speed 43.3 km/h Distance 3.72 km</desc>
<time>2013-07-05T17:35:45.68</time>
<name>357</name>
<sym>Dot</sym>
</trkpt>
<trkpt lat="42.876812" lon="-2.094680">
<ele>1711.5</ele>
<desc>Speed 45.3 km/h Distance 3.73 km</desc>
<time>2013-07-05T17:35:46.67</time>
<name>358</name>
<sym>Dot</sym>
</trkpt>
<trkpt lat="42.876788" lon="-2.094525">
<ele>1711.0</ele>
<desc>Speed 47.6 km/h Distance 3.74 km</desc>
<time>2013-07-05T17:35:47.66</time>
<name>359</name>
<sym>Dot</sym>
</trkpt>
<trkpt lat="42.876760" lon="-2.094367">
<ele>1711.0</ele>
<desc>Speed 49.0 km/h Distance 3.75 km</desc>
<time>2013-07-05T17:35:49.09</time>
<name>360</name>
<sym>Dot</sym>
</trkpt>
<trkpt lat="42.876730" lon="-2.094202">
<ele>1711.0</ele>
<desc>Speed 50.3 km/h Distance 3.77 km</desc>
<time>2013-07-05T17:35:49.84</time>
<name>361</name>
<sym>Dot</sym>
</trkpt>
<trkpt lat="42.876708" lon="-2.094033">
<ele>1710.5</ele>
<desc>Speed 50.7 km/h Distance 3.78 km</desc>
<time>2013-07-05T17:35:50.64</time>
<name>362</name>
<sym>Dot</sym>
</trkpt>
<trkpt lat="42.876697" lon="-2.093870">
<ele>1711.0</ele>
<desc>Speed 48.5 km/h Distance 3.80 km</desc>
<time>2013-07-05T17:35:51.65</time>
<name>363</name>
<sym>Dot</sym>
</trkpt>
<trkpt lat="42.876698" lon="-2.093713">
<ele>1711.5</ele>
<desc>Speed 46.4 km/h Distance 3.81 km</desc>
<time>2013-07-05T17:35:52.64</time>
<name>364</name>
<sym>Dot</sym>
</trkpt>
<trkpt lat="42.876722" lon="-2.093575">
<ele>1712.0</ele>
<desc>Speed 42.3 km/h Distance 3.82 km</desc>
<time>2013-07-05T17:35:53.81</time>
<name>365</name>
<sym>Dot</sym>
</trkpt>
<trkpt lat="42.876753" lon="-2.093438">
<ele>1712.5</ele>
<desc>Speed 41.9 km/h Distance 3.83 km</desc>
<time>2013-07-05T17:35:54.61</time>
<name>366</name>
<sym>Dot</sym>
</trkpt>
<trkpt lat="42.876795" lon="-2.093310">
<ele>1713.0</ele>
<desc>Speed 40.9 km/h Distance 3.84 km</desc>
<time>2013-07-05T17:35:55.86</time>
<name>367</name>
<sym>Dot</sym>
</trkpt>
<trkpt lat="42.876840" lon="-2.093193">
<ele>1713.5</ele>
<desc>Speed 39.1 km/h Distance 3.85 km</desc>
<time>2013-07-05T17:35:56.60</time>
<name>368</name>
<sym>Dot</sym>
</trkpt>
<trkpt lat="42.876895" lon="-2.093090">
<ele>1713.5</ele>
<desc>Speed 36.8 km/h Distance 3.86 km</desc>
<time>2013-07-05T17:35:57.59</time>
<name>369</name>
<sym>Dot</sym>
</trkpt>
<trkpt lat="42.876968" lon="-2.093015">
<ele>1713.5</ele>
<desc>Speed 36.8 km/h Distance 3.87 km</desc>
<time>2013-07-05T17:35:58.64</time>
<name>370</name>
<sym>Dot</sym>
</trkpt>
<trkpt lat="42.877047" lon="-2.092955">
<ele>1712.5</ele>
<desc>Speed 35.8 km/h Distance 3.88 km</desc>
<time>2013-07-05T17:35:59.57</time>
<name>371</name>
<sym>Dot</sym>
</trkpt>
<trkpt lat="42.877123" lon="-2.092928">
<ele>1712.5</ele>
<desc>Speed 31.0 km/h Distance 3.89 km</desc>
<time>2013-07-05T17:36:00.79</time>
<name>372</name>
<sym>Dot</sym>
</trkpt>
<trkpt lat="42.877195" lon="-2.092952">
<ele>1712.5</ele>
<desc>Speed 29.2 km/h Distance 3.90 km</desc>
<time>2013-07-05T17:36:01.98</time>
<name>373</name>
<sym>Dot</sym>
</trkpt>
<trkpt lat="42.877247" lon="-2.092998">
<ele>1712.5</ele>
<desc>Speed 24.2 km/h Distance 3.91 km</desc>
<time>2013-07-05T17:36:02.55</time>
<name>374</name>
<sym>Dot</sym>
</trkpt>
<trkpt lat="42.877272" lon="-2.093075">
<ele>1713.0</ele>
<desc>Speed 24.8 km/h Distance 3.92 km</desc>
<time>2013-07-05T17:36:03.55</time>
<name>375</name>
<sym>Dot</sym>
</trkpt>
<trkpt lat="42.877268" lon="-2.093152">
<ele>1712.5</ele>
<desc>Speed 22.5 km/h Distance 3.92 km</desc>
<time>2013-07-05T17:36:04.53</time>
<name>376</name>
<sym>Dot</sym>
</trkpt>
<trkpt lat="42.877245" lon="-2.093240">
<ele>1712.5</ele>
<desc>Speed 27.3 km/h Distance 3.93 km</desc>
<time>2013-07-05T17:36:05.52</time>
<name>377</name>
<sym>Dot</sym>
</trkpt>
<trkpt lat="42.876983" lon="-2.093457">
<ele>1712.5</ele>
<desc>Speed 45.8 km/h Distance 3.96 km</desc>
<time>2013-07-05T17:36:08.87</time>
<name>378</name>
<sym>Dot</sym>
</trkpt>
<trkpt lat="42.876600" lon="-2.093200">
<ele>1712.5</ele>
<desc>Speed 60.4 km/h Distance 4.01 km</desc>
<time>2013-07-05T17:36:12.10</time>
<name>379</name>
<sym>Dot</sym>
</trkpt>
<trkpt lat="42.876517" lon="-2.092775">
<ele>1711.0</ele>
<desc>Speed 61.0 km/h Distance 4.05 km</desc>
<time>2013-07-05T17:36:13.86</time>
<name>380</name>
<sym>Dot</sym>
</trkpt>
<trkpt lat="42.876587" lon="-2.092303">
<ele>1713.0</ele>
<desc>Speed 42.3 km/h Distance 4.09 km</desc>
<time>2013-07-05T17:36:16.85</time>
<name>381</name>
<sym>Dot</sym>
</trkpt>
<trkpt lat="42.876607" lon="-2.092163">
<ele>1713.5</ele>
<desc>Speed 42.2 km/h Distance 4.10 km</desc>
<time>2013-07-05T17:36:17.96</time>
<name>382</name>
<sym>Dot</sym>
</trkpt>
<trkpt lat="42.876635" lon="-2.092022">
<ele>1713.5</ele>
<desc>Speed 43.7 km/h Distance 4.11 km</desc>
<time>2013-07-05T17:36:18.84</time>
<name>383</name>
<sym>Dot</sym>
</trkpt>
<trkpt lat="42.876663" lon="-2.091882">
<ele>1712.0</ele>
<desc>Speed 43.8 km/h Distance 4.12 km</desc>
<time>2013-07-05T17:36:19.83</time>
<name>384</name>
<sym>Dot</sym>
</trkpt>
<trkpt lat="42.876707" lon="-2.091748">
<ele>1710.5</ele>
<desc>Speed 43.6 km/h Distance 4.13 km</desc>
<time>2013-07-05T17:36:20.82</time>
<name>385</name>
<sym>Dot</sym>
</trkpt>
<trkpt lat="42.876762" lon="-2.091633">
<ele>1710.5</ele>
<desc>Speed 40.7 km/h Distance 4.14 km</desc>
<time>2013-07-05T17:36:21.92</time>
<name>386</name>
<sym>Dot</sym>
</trkpt>
<trkpt lat="42.876927" lon="-2.091475">
<ele>1710.5</ele>
<desc>Speed 26.2 km/h Distance 4.17 km</desc>
<time>2013-07-05T17:36:24.83</time>
<name>387</name>
<sym>Dot</sym>
</trkpt>
<trkpt lat="42.876987" lon="-2.091493">
<ele>1710.5</ele>
<desc>Speed 24.7 km/h Distance 4.17 km</desc>
<time>2013-07-05T17:36:25.83</time>
<name>388</name>
<sym>Dot</sym>
</trkpt>
<trkpt lat="42.877045" lon="-2.091510">
<ele>1708.5</ele>
<desc>Speed 23.7 km/h Distance 4.18 km</desc>
<time>2013-07-05T17:36:26.82</time>
<name>389</name>
<sym>Dot</sym>
</trkpt>
<trkpt lat="42.877102" lon="-2.091540">
<ele>1708.0</ele>
<desc>Speed 23.6 km/h Distance 4.19 km</desc>
<time>2013-07-05T17:36:27.93</time>
<name>390</name>
<sym>Dot</sym>
</trkpt>
<trkpt lat="42.877147" lon="-2.091580">
<ele>1706.0</ele>
<desc>Speed 20.3 km/h Distance 4.19 km</desc>
<time>2013-07-05T17:36:28.79</time>
<name>391</name>
<sym>Dot</sym>
</trkpt>
<trkpt lat="42.877190" lon="-2.091628">
<ele>1706.5</ele>
<desc>Speed 21.5 km/h Distance 4.20 km</desc>
<time>2013-07-05T17:36:29.79</time>
<name>392</name>
<sym>Dot</sym>
</trkpt>
<trkpt lat="42.877223" lon="-2.091680">
<ele>1706.5</ele>
<desc>Speed 19.4 km/h Distance 4.21 km</desc>
<time>2013-07-05T17:36:30.77</time>
<name>393</name>
<sym>Dot</sym>
</trkpt>
<trkpt lat="42.877245" lon="-2.091737">
<ele>1706.0</ele>
<desc>Speed 18.5 km/h Distance 4.21 km</desc>
<time>2013-07-05T17:36:31.87</time>
<name>394</name>
<sym>Dot</sym>
</trkpt>
<trkpt lat="42.877260" lon="-2.091803">
<ele>1705.5</ele>
<desc>Speed 20.3 km/h Distance 4.22 km</desc>
<time>2013-07-05T17:36:32.76</time>
<name>395</name>
<sym>Dot</sym>
</trkpt>
<trkpt lat="42.877270" lon="-2.091880">
<ele>1705.0</ele>
<desc>Speed 22.3 km/h Distance 4.22 km</desc>
<time>2013-07-05T17:36:33.88</time>
<name>396</name>
<sym>Dot</sym>
</trkpt>
<trkpt lat="42.877270" lon="-2.091960">
<ele>1704.0</ele>
<desc>Speed 23.9 km/h Distance 4.23 km</desc>
<time>2013-07-05T17:36:35.23</time>
<name>397</name>
<sym>Dot</sym>
</trkpt>
<trkpt lat="42.877262" lon="-2.092045">
<ele>1703.5</ele>
<desc>Speed 25.5 km/h Distance 4.24 km</desc>
<time>2013-07-05T17:36:35.75</time>
<name>398</name>
<sym>Dot</sym>
</trkpt>
<trkpt lat="42.877253" lon="-2.092133">
<ele>1703.5</ele>
<desc>Speed 25.7 km/h Distance 4.24 km</desc>
<time>2013-07-05T17:36:36.74</time>
<name>399</name>
<sym>Dot</sym>
</trkpt>
<trkpt lat="42.877245" lon="-2.092215">
<ele>1703.5</ele>
<desc>Speed 24.2 km/h Distance 4.25 km</desc>
<time>2013-07-05T17:36:37.73</time>
<name>400</name>
<sym>Dot</sym>
</trkpt>
<trkpt lat="42.877235" lon="-2.092292">
<ele>1703.5</ele>
<desc>Speed 23.0 km/h Distance 4.26 km</desc>
<time>2013-07-05T17:36:38.73</time>
<name>401</name>
<sym>Dot</sym>
</trkpt>
<trkpt lat="42.877222" lon="-2.092368">
<ele>1703.0</ele>
<desc>Speed 23.8 km/h Distance 4.26 km</desc>
<time>2013-07-05T17:36:39.90</time>
<name>402</name>
<sym>Dot</sym>
</trkpt>
<trkpt lat="42.877203" lon="-2.092450">
<ele>1702.0</ele>
<desc>Speed 26.0 km/h Distance 4.27 km</desc>
<time>2013-07-05T17:36:40.73</time>
<name>403</name>
<sym>Dot</sym>
</trkpt>
<trkpt lat="42.877178" lon="-2.092538">
<ele>1701.0</ele>
<desc>Speed 28.4 km/h Distance 4.28 km</desc>
<time>2013-07-05T17:36:41.71</time>
<name>404</name>
<sym>Dot</sym>
</trkpt>
<trkpt lat="42.877155" lon="-2.092632">
<ele>1700.0</ele>
<desc>Speed 29.2 km/h Distance 4.29 km</desc>
<time>2013-07-05T17:36:42.71</time>
<name>405</name>
<sym>Dot</sym>
</trkpt>
<trkpt lat="42.877135" lon="-2.092725">
<ele>1700.0</ele>
<desc>Speed 29.0 km/h Distance 4.29 km</desc>
<time>2013-07-05T17:36:43.71</time>
<name>406</name>
<sym>Dot</sym>
</trkpt>
<trkpt lat="42.877115" lon="-2.092815">
<ele>1700.0</ele>
<desc>Speed 28.3 km/h Distance 4.30 km</desc>
<time>2013-07-05T17:36:44.70</time>
<name>407</name>
<sym>Dot</sym>
</trkpt>
<trkpt lat="42.877093" lon="-2.092905">
<ele>1700.5</ele>
<desc>Speed 28.2 km/h Distance 4.31 km</desc>
<time>2013-07-05T17:36:45.84</time>
<name>408</name>
<sym>Dot</sym>
</trkpt>
<trkpt lat="42.877068" lon="-2.092990">
<ele>1700.5</ele>
<desc>Speed 27.5 km/h Distance 4.32 km</desc>
<time>2013-07-05T17:36:46.69</time>
<name>409</name>
<sym>Dot</sym>
</trkpt>
<trkpt lat="42.877043" lon="-2.093073">
<ele>1700.5</ele>
<desc>Speed 27.1 km/h Distance 4.32 km</desc>
<time>2013-07-05T17:36:47.91</time>
<name>410</name>
<sym>Dot</sym>
</trkpt>
<trkpt lat="42.877018" lon="-2.093158">
<ele>1700.0</ele>
<desc>Speed 27.2 km/h Distance 4.33 km</desc>
<time>2013-07-05T17:36:48.68</time>
<name>411</name>
<sym>Dot</sym>
</trkpt>
<trkpt lat="42.876993" lon="-2.093250">
<ele>1699.5</ele>
<desc>Speed 29.1 km/h Distance 4.34 km</desc>
<time>2013-07-05T17:36:49.68</time>
<name>412</name>
<sym>Dot</sym>
</trkpt>
<trkpt lat="42.876972" lon="-2.093348">
<ele>1699.0</ele>
<desc>Speed 30.3 km/h Distance 4.35 km</desc>
<time>2013-07-05T17:36:50.81</time>
<name>413</name>
<sym>Dot</sym>
</trkpt>
<trkpt lat="42.876958" lon="-2.093447">
<ele>1699.0</ele>
<desc>Speed 29.8 km/h Distance 4.36 km</desc>
<time>2013-07-05T17:36:51.67</time>
<name>414</name>
<sym>Dot</sym>
</trkpt>
<trkpt lat="42.876947" lon="-2.093542">
<ele>1699.5</ele>
<desc>Speed 28.6 km/h Distance 4.36 km</desc>
<time>2013-07-05T17:36:52.66</time>
<name>415</name>
<sym>Dot</sym>
</trkpt>
<trkpt lat="42.876930" lon="-2.093630">
<ele>1700.5</ele>
<desc>Speed 26.9 km/h Distance 4.37 km</desc>
<time>2013-07-05T17:36:53.65</time>
<name>416</name>
<sym>Dot</sym>
</trkpt>
<trkpt lat="42.876907" lon="-2.093713">
<ele>1700.5</ele>
<desc>Speed 26.3 km/h Distance 4.38 km</desc>
<time>2013-07-05T17:36:54.64</time>
<name>417</name>
<sym>Dot</sym>
</trkpt>
<trkpt lat="42.876885" lon="-2.093798">
<ele>1700.5</ele>
<desc>Speed 26.3 km/h Distance 4.39 km</desc>
<time>2013-07-05T17:36:55.64</time>
<name>418</name>
<sym>Dot</sym>
</trkpt>
<trkpt lat="42.876868" lon="-2.093888">
<ele>1700.5</ele>
<desc>Speed 27.8 km/h Distance 4.39 km</desc>
<time>2013-07-05T17:36:56.80</time>
<name>419</name>
<sym>Dot</sym>
</trkpt>
<trkpt lat="42.876857" lon="-2.093985">
<ele>1700.5</ele>
<desc>Speed 29.1 km/h Distance 4.40 km</desc>
<time>2013-07-05T17:36:57.62</time>
<name>420</name>
<sym>Dot</sym>
</trkpt>
<trkpt lat="42.876850" lon="-2.094083">
<ele>1701.5</ele>
<desc>Speed 29.4 km/h Distance 4.41 km</desc>
<time>2013-07-05T17:36:58.77</time>
<name>421</name>
<sym>Dot</sym>
</trkpt>
<trkpt lat="42.876845" lon="-2.094167">
<ele>1701.5</ele>
<desc>Speed 24.7 km/h Distance 4.42 km</desc>
<time>2013-07-05T17:36:59.62</time>
<name>422</name>
<sym>Dot</sym>
</trkpt>
<trkpt lat="42.876855" lon="-2.094277">
<ele>1703.5</ele>
<desc>Speed 16.0 km/h Distance 4.43 km</desc>
<time>2013-07-05T17:37:01.61</time>
<name>423</name>
<sym>Dot</sym>
</trkpt>
<trkpt lat="42.876858" lon="-2.094332">
<ele>1703.5</ele>
<desc>Speed 15.8 km/h Distance 4.43 km</desc>
<time>2013-07-05T17:37:02.72</time>
<name>424</name>
<sym>Dot</sym>
</trkpt>
<trkpt lat="42.876872" lon="-2.094488">
<ele>1702.5</ele>
<desc>Speed 25.1 km/h Distance 4.44 km</desc>
<time>2013-07-05T17:37:04.58</time>
<name>425</name>
<sym>Dot</sym>
</trkpt>
<trkpt lat="42.876880" lon="-2.094580">
<ele>1704.0</ele>
<desc>Speed 26.6 km/h Distance 4.45 km</desc>
<time>2013-07-05T17:37:05.58</time>
<name>426</name>
<sym>Dot</sym>
</trkpt>
<trkpt lat="42.876915" lon="-2.094725">
<ele>1706.5</ele>
<desc>Speed 13.4 km/h Distance 4.46 km</desc>
<time>2013-07-05T17:37:08.88</time>
<name>427</name>
<sym>Dot</sym>
</trkpt>
<trkpt lat="42.876928" lon="-2.094778">
<ele>1706.0</ele>
<desc>Speed 15.9 km/h Distance 4.47 km</desc>
<time>2013-07-05T17:37:09.76</time>
<name>428</name>
<sym>Dot</sym>
</trkpt>
<trkpt lat="42.876948" lon="-2.094848">
<ele>1704.5</ele>
<desc>Speed 21.6 km/h Distance 4.47 km</desc>
<time>2013-07-05T17:37:10.76</time>
<name>429</name>
<sym>Dot</sym>
</trkpt>
<trkpt lat="42.876977" lon="-2.094933">
<ele>1703.5</ele>
<desc>Speed 26.4 km/h Distance 4.48 km</desc>
<time>2013-07-05T17:37:11.75</time>
<name>430</name>
<sym>Dot</sym>
</trkpt>
<trkpt lat="42.877012" lon="-2.095015">
<ele>1703.5</ele>
<desc>Speed 27.5 km/h Distance 4.49 km</desc>
<time>2013-07-05T17:37:12.74</time>
<name>431</name>
<sym>Dot</sym>
</trkpt>
<trkpt lat="42.877050" lon="-2.095085">
<ele>1705.0</ele>
<desc>Speed 24.9 km/h Distance 4.50 km</desc>
<time>2013-07-05T17:37:13.73</time>
<name>432</name>
<sym>Dot</sym>
</trkpt>
<trkpt lat="42.877083" lon="-2.095137">
<ele>1706.5</ele>
<desc>Speed 20.6 km/h Distance 4.50 km</desc>
<time>2013-07-05T17:37:14.88</time>
<name>433</name>
<sym>Dot</sym>
</trkpt>
<trkpt lat="42.877145" lon="-2.095228">
<ele>1707.0</ele>
<desc>Speed 18.4 km/h Distance 4.51 km</desc>
<time>2013-07-05T17:37:16.71</time>
<name>434</name>
<sym>Dot</sym>
</trkpt>
<trkpt lat="42.877177" lon="-2.095285">
<ele>1706.5</ele>
<desc>Speed 20.9 km/h Distance 4.52 km</desc>
<time>2013-07-05T17:37:17.70</time>
<name>435</name>
<sym>Dot</sym>
</trkpt>
<trkpt lat="42.877208" lon="-2.095355">
<ele>1706.5</ele>
<desc>Speed 23.5 km/h Distance 4.52 km</desc>
<time>2013-07-05T17:37:18.69</time>
<name>436</name>
<sym>Dot</sym>
</trkpt>
<trkpt lat="42.877218" lon="-2.095457">
<ele>1708.0</ele>
<desc>Speed 30.3 km/h Distance 4.53 km</desc>
<time>2013-07-05T17:37:19.69</time>
<name>437</name>
<sym>Dot</sym>
</trkpt>
<trkpt lat="42.877207" lon="-2.095558">
<ele>1707.5</ele>
<desc>Speed 30.0 km/h Distance 4.54 km</desc>
<time>2013-07-05T17:37:20.73</time>
<name>438</name>
<sym>Dot</sym>
</trkpt>
<trkpt lat="42.877182" lon="-2.095658">
<ele>1708.0</ele>
<desc>Speed 31.0 km/h Distance 4.55 km</desc>
<time>2013-07-05T17:37:21.67</time>
<name>439</name>
<sym>Dot</sym>
</trkpt>
<trkpt lat="42.877137" lon="-2.095760">
<ele>1708.5</ele>
<desc>Speed 34.8 km/h Distance 4.56 km</desc>
<time>2013-07-05T17:37:22.66</time>
<name>440</name>
<sym>Dot</sym>
</trkpt>
<trkpt lat="42.877083" lon="-2.095862">
<ele>1709.5</ele>
<desc>Speed 37.0 km/h Distance 4.57 km</desc>
<time>2013-07-05T17:37:23.65</time>
<name>441</name>
<sym>Dot</sym>
</trkpt>
<trkpt lat="42.877027" lon="-2.095962">
<ele>1710.0</ele>
<desc>Speed 37.1 km/h Distance 4.58 km</desc>
<time>2013-07-05T17:37:24.77</time>
<name>442</name>
<sym>Dot</sym>
</trkpt>
<trkpt lat="42.876970" lon="-2.096058">
<ele>1710.5</ele>
<desc>Speed 36.3 km/h Distance 4.59 km</desc>
<time>2013-07-05T17:37:26.13</time>
<name>443</name>
<sym>Dot</sym>
</trkpt>
<trkpt lat="42.876918" lon="-2.096157">
<ele>1710.5</ele>
<desc>Speed 35.3 km/h Distance 4.60 km</desc>
<time>2013-07-05T17:37:26.65</time>
<name>444</name>
<sym>Dot</sym>
</trkpt>
<trkpt lat="42.876870" lon="-2.096255">
<ele>1710.5</ele>
<desc>Speed 34.8 km/h Distance 4.61 km</desc>
<time>2013-07-05T17:37:27.64</time>
<name>445</name>
<sym>Dot</sym>
</trkpt>
<trkpt lat="42.876825" lon="-2.096358">
<ele>1710.0</ele>
<desc>Speed 35.7 km/h Distance 4.62 km</desc>
<time>2013-07-05T17:37:28.63</time>
<name>446</name>
<sym>Dot</sym>
</trkpt>
<trkpt lat="42.876780" lon="-2.096468">
<ele>1709.5</ele>
<desc>Speed 37.0 km/h Distance 4.63 km</desc>
<time>2013-07-05T17:37:29.67</time>
<name>447</name>
<sym>Dot</sym>
</trkpt>
<trkpt lat="42.876743" lon="-2.096585">
<ele>1709.0</ele>
<desc>Speed 37.7 km/h Distance 4.64 km</desc>
<time>2013-07-05T17:37:30.61</time>
<name>448</name>
<sym>Dot</sym>
</trkpt>
<trkpt lat="42.876717" lon="-2.096703">
<ele>1709.5</ele>
<desc>Speed 36.4 km/h Distance 4.65 km</desc>
<time>2013-07-05T17:37:31.61</time>
<name>449</name>
<sym>Dot</sym>
</trkpt>
<trkpt lat="42.876702" lon="-2.096818">
<ele>1710.0</ele>
<desc>Speed 34.3 km/h Distance 4.66 km</desc>
<time>2013-07-05T17:37:32.59</time>
<name>450</name>
<sym>Dot</sym>
</trkpt>
<trkpt lat="42.876700" lon="-2.096927">
<ele>1710.0</ele>
<desc>Speed 32.1 km/h Distance 4.67 km</desc>
<time>2013-07-05T17:37:33.63</time>
<name>451</name>
<sym>Dot</sym>
</trkpt>
<trkpt lat="42.876707" lon="-2.097028">
<ele>1710.0</ele>
<desc>Speed 29.7 km/h Distance 4.68 km</desc>
<time>2013-07-05T17:37:34.57</time>
<name>452</name>
<sym>Dot</sym>
</trkpt>
<trkpt lat="42.876717" lon="-2.097122">
<ele>1710.0</ele>
<desc>Speed 28.0 km/h Distance 4.68 km</desc>
<time>2013-07-05T17:37:35.56</time>
<name>453</name>
<sym>Dot</sym>
</trkpt>
<trkpt lat="42.876727" lon="-2.097215">
<ele>1710.5</ele>
<desc>Speed 27.5 km/h Distance 4.69 km</desc>
<time>2013-07-05T17:37:36.55</time>
<name>454</name>
<sym>Dot</sym>
</trkpt>
<trkpt lat="42.876735" lon="-2.097308">
<ele>1711.0</ele>
<desc>Speed 27.4 km/h Distance 4.70 km</desc>
<time>2013-07-05T17:37:37.54</time>
<name>455</name>
<sym>Dot</sym>
</trkpt>
<trkpt lat="42.876742" lon="-2.097403">
<ele>1712.0</ele>
<desc>Speed 27.7 km/h Distance 4.71 km</desc>
<time>2013-07-05T17:37:38.83</time>
<name>456</name>
<sym>Dot</sym>
</trkpt>
<trkpt lat="42.876755" lon="-2.097495">
<ele>1712.0</ele>
<desc>Speed 27.5 km/h Distance 4.71 km</desc>
<time>2013-07-05T17:37:39.67</time>
<name>457</name>
<sym>Dot</sym>
</trkpt>
<trkpt lat="42.876772" lon="-2.097582">
<ele>1712.5</ele>
<desc>Speed 26.2 km/h Distance 4.72 km</desc>
<time>2013-07-05T17:37:40.52</time>
<name>458</name>
<sym>Dot</sym>
</trkpt>
<trkpt lat="42.876788" lon="-2.097667">
<ele>1713.0</ele>
<desc>Speed 26.0 km/h Distance 4.73 km</desc>
<time>2013-07-05T17:37:41.51</time>
<name>459</name>
<sym>Dot</sym>
</trkpt>
<trkpt lat="42.876798" lon="-2.097755">
<ele>1714.0</ele>
<desc>Speed 26.1 km/h Distance 4.74 km</desc>
<time>2013-07-05T17:37:42.50</time>
<name>460</name>
<sym>Dot</sym>
</trkpt>
<trkpt lat="42.876798" lon="-2.097850">
<ele>1714.5</ele>
<desc>Speed 28.0 km/h Distance 4.74 km</desc>
<time>2013-07-05T17:37:43.50</time>
<name>461</name>
<sym>Dot</sym>
</trkpt>
<trkpt lat="42.876788" lon="-2.097952">
<ele>1715.5</ele>
<desc>Speed 29.9 km/h Distance 4.75 km</desc>
<time>2013-07-05T17:37:44.79</time>
<name>462</name>
<sym>Dot</sym>
</trkpt>
<trkpt lat="42.876770" lon="-2.098052">
<ele>1716.0</ele>
<desc>Speed 30.2 km/h Distance 4.76 km</desc>
<time>2013-07-05T17:37:45.63</time>
<name>463</name>
<sym>Dot</sym>
</trkpt>
<trkpt lat="42.876745" lon="-2.098145">
<ele>1716.0</ele>
<desc>Speed 29.2 km/h Distance 4.77 km</desc>
<time>2013-07-05T17:37:46.48</time>
<name>464</name>
<sym>Dot</sym>
</trkpt>
<trkpt lat="42.876723" lon="-2.098240">
<ele>1715.0</ele>
<desc>Speed 29.2 km/h Distance 4.78 km</desc>
<time>2013-07-05T17:37:47.47</time>
<name>465</name>
<sym>Dot</sym>
</trkpt>
<trkpt lat="42.876712" lon="-2.098342">
<ele>1713.5</ele>
<desc>Speed 30.6 km/h Distance 4.79 km</desc>
<time>2013-07-05T17:37:48.46</time>
<name>466</name>
<sym>Dot</sym>
</trkpt>
<trkpt lat="42.876708" lon="-2.098452">
<ele>1712.5</ele>
<desc>Speed 32.6 km/h Distance 4.79 km</desc>
<time>2013-07-05T17:37:49.45</time>
<name>467</name>
<sym>Dot</sym>
</trkpt>
<trkpt lat="42.876705" lon="-2.098562">
<ele>1712.5</ele>
<desc>Speed 33.1 km/h Distance 4.80 km</desc>
<time>2013-07-05T17:37:50.44</time>
<name>468</name>
<sym>Dot</sym>
</trkpt>
<trkpt lat="42.876695" lon="-2.098668">
<ele>1713.5</ele>
<desc>Speed 31.7 km/h Distance 4.81 km</desc>
<time>2013-07-05T17:37:51.61</time>
<name>469</name>
<sym>Dot</sym>
</trkpt>
<trkpt lat="42.876678" lon="-2.098765">
<ele>1714.5</ele>
<desc>Speed 29.1 km/h Distance 4.82 km</desc>
<time>2013-07-05T17:37:52.42</time>
<name>470</name>
<sym>Dot</sym>
</trkpt>
<trkpt lat="42.876660" lon="-2.098853">
<ele>1715.0</ele>
<desc>Speed 27.2 km/h Distance 4.83 km</desc>
<time>2013-07-05T17:37:53.41</time>
<name>471</name>
<sym>Dot</sym>
</trkpt>
<trkpt lat="42.876640" lon="-2.098943">
<ele>1714.5</ele>
<desc>Speed 27.4 km/h Distance 4.84 km</desc>
<time>2013-07-05T17:37:54.40</time>
<name>472</name>
<sym>Dot</sym>
</trkpt>
<trkpt lat="42.876622" lon="-2.099038">
<ele>1713.5</ele>
<desc>Speed 29.2 km/h Distance 4.84 km</desc>
<time>2013-07-05T17:37:55.40</time>
<name>473</name>
<sym>Dot</sym>
</trkpt>
<trkpt lat="42.876607" lon="-2.099142">
<ele>1712.5</ele>
<desc>Speed 31.1 km/h Distance 4.85 km</desc>
<time>2013-07-05T17:37:56.39</time>
<name>474</name>
<sym>Dot</sym>
</trkpt>
<trkpt lat="42.876598" lon="-2.099250">
<ele>1712.5</ele>
<desc>Speed 32.1 km/h Distance 4.86 km</desc>
<time>2013-07-05T17:37:57.55</time>
<name>475</name>
<sym>Dot</sym>
</trkpt>
<trkpt lat="42.876593" lon="-2.099357">
<ele>1713.0</ele>
<desc>Speed 31.6 km/h Distance 4.87 km</desc>
<time>2013-07-05T17:37:58.38</time>
<name>476</name>
<sym>Dot</sym>
</trkpt>
<trkpt lat="42.876587" lon="-2.099455">
<ele>1714.0</ele>
<desc>Speed 29.4 km/h Distance 4.88 km</desc>
<time>2013-07-05T17:37:59.37</time>
<name>477</name>
<sym>Dot</sym>
</trkpt>
<trkpt lat="42.876575" lon="-2.099545">
<ele>1715.0</ele>
<desc>Speed 26.9 km/h Distance 4.89 km</desc>
<time>2013-07-05T17:38:00.37</time>
<name>478</name>
<sym>Dot</sym>
</trkpt>
<trkpt lat="42.876558" lon="-2.099632">
<ele>1715.5</ele>
<desc>Speed 26.4 km/h Distance 4.89 km</desc>
<time>2013-07-05T17:38:01.36</time>
<name>479</name>
<sym>Dot</sym>
</trkpt>
<trkpt lat="42.876537" lon="-2.099720">
<ele>1715.5</ele>
<desc>Speed 27.7 km/h Distance 4.90 km</desc>
<time>2013-07-05T17:38:02.36</time>
<name>480</name>
<sym>Dot</sym>
</trkpt>
<trkpt lat="42.876512" lon="-2.099817">
<ele>1715.5</ele>
<desc>Speed 29.9 km/h Distance 4.91 km</desc>
<time>2013-07-05T17:38:03.47</time>
<name>481</name>
<sym>Dot</sym>
</trkpt>
<trkpt lat="42.876485" lon="-2.099915">
<ele>1715.5</ele>
<desc>Speed 31.4 km/h Distance 4.92 km</desc>
<time>2013-07-05T17:38:04.33</time>
<name>482</name>
<sym>Dot</sym>
</trkpt>
<trkpt lat="42.876452" lon="-2.100013">
<ele>1716.0</ele>
<desc>Speed 32.1 km/h Distance 4.93 km</desc>
<time>2013-07-05T17:38:05.65</time>
<name>483</name>
<sym>Dot</sym>
</trkpt>
<trkpt lat="42.876417" lon="-2.100110">
<ele>1716.0</ele>
<desc>Speed 32.1 km/h Distance 4.93 km</desc>
<time>2013-07-05T17:38:06.31</time>
<name>484</name>
<sym>Dot</sym>
</trkpt>
<trkpt lat="42.876380" lon="-2.100207">
<ele>1716.0</ele>
<desc>Speed 32.0 km/h Distance 4.94 km</desc>
<time>2013-07-05T17:38:07.31</time>
<name>485</name>
<sym>Dot</sym>
</trkpt>
<trkpt lat="42.876342" lon="-2.100303">
<ele>1715.5</ele>
<desc>Speed 32.8 km/h Distance 4.95 km</desc>
<time>2013-07-05T17:38:08.46</time>
<name>486</name>
<sym>Dot</sym>
</trkpt>
<trkpt lat="42.876302" lon="-2.100403">
<ele>1715.5</ele>
<desc>Speed 33.9 km/h Distance 4.96 km</desc>
<time>2013-07-05T17:38:09.30</time>
<name>487</name>
<sym>Dot</sym>
</trkpt>
<trkpt lat="42.876258" lon="-2.100503">
<ele>1715.5</ele>
<desc>Speed 34.1 km/h Distance 4.97 km</desc>
<time>2013-07-05T17:38:10.30</time>
<name>488</name>
<sym>Dot</sym>
</trkpt>
<trkpt lat="42.876218" lon="-2.100598">
<ele>1716.0</ele>
<desc>Speed 32.7 km/h Distance 4.98 km</desc>
<time>2013-07-05T17:38:11.29</time>
<name>489</name>
<sym>Dot</sym>
</trkpt>
<trkpt lat="42.876187" lon="-2.100687">
<ele>1716.5</ele>
<desc>Speed 29.1 km/h Distance 4.99 km</desc>
<time>2013-07-05T17:38:12.28</time>
<name>490</name>
<sym>Dot</sym>
</trkpt>
<trkpt lat="42.876168" lon="-2.100770">
<ele>1716.5</ele>
<desc>Speed 25.5 km/h Distance 5.00 km</desc>
<time>2013-07-05T17:38:13.28</time>
<name>491</name>
<sym>Dot</sym>
</trkpt>
<trkpt lat="42.876160" lon="-2.100853">
<ele>1716.0</ele>
<desc>Speed 24.6 km/h Distance 5.00 km</desc>
<time>2013-07-05T17:38:14.39</time>
<name>492</name>
<sym>Dot</sym>
</trkpt>
<trkpt lat="42.876158" lon="-2.100942">
<ele>1715.0</ele>
<desc>Speed 26.2 km/h Distance 5.01 km</desc>
<time>2013-07-05T17:38:15.26</time>
<name>493</name>
<sym>Dot</sym>
</trkpt>
<trkpt lat="42.876153" lon="-2.101037">
<ele>1714.5</ele>
<desc>Speed 27.9 km/h Distance 5.02 km</desc>
<time>2013-07-05T17:38:16.26</time>
<name>494</name>
<sym>Dot</sym>
</trkpt>
<trkpt lat="42.876150" lon="-2.101133">
<ele>1714.0</ele>
<desc>Speed 28.2 km/h Distance 5.03 km</desc>
<time>2013-07-05T17:38:17.25</time>
<name>495</name>
<sym>Dot</sym>
</trkpt>
<trkpt lat="42.876155" lon="-2.101227">
<ele>1714.5</ele>
<desc>Speed 27.5 km/h Distance 5.03 km</desc>
<time>2013-07-05T17:38:18.25</time>
<name>496</name>
<sym>Dot</sym>
</trkpt>
<trkpt lat="42.876170" lon="-2.101313">
<ele>1715.5</ele>
<desc>Speed 26.5 km/h Distance 5.04 km</desc>
<time>2013-07-05T17:38:19.24</time>
<name>497</name>
<sym>Dot</sym>
</trkpt>
<trkpt lat="42.876193" lon="-2.101397">
<ele>1716.5</ele>
<desc>Speed 26.3 km/h Distance 5.05 km</desc>
<time>2013-07-05T17:38:20.38</time>
<name>498</name>
<sym>Dot</sym>
</trkpt>
<trkpt lat="42.876217" lon="-2.101478">
<ele>1717.0</ele>
<desc>Speed 25.6 km/h Distance 5.05 km</desc>
<time>2013-07-05T17:38:21.22</time>
<name>499</name>
<sym>Dot</sym>
</trkpt>
<trkpt lat="42.876233" lon="-2.101555">
<ele>1717.5</ele>
<desc>Speed 23.6 km/h Distance 5.06 km</desc>
<time>2013-07-05T17:38:22.32</time>
<name>500</name>
<sym>Dot</sym>
</trkpt>
<trkpt lat="42.876253" lon="-2.101743">
<ele>1718.0</ele>
<desc>Speed 25.7 km/h Distance 5.08 km</desc>
<time>2013-07-05T17:38:24.21</time>
<name>501</name>
<sym>Dot</sym>
</trkpt>
<trkpt lat="42.876263" lon="-2.101838">
<ele>1717.5</ele>
<desc>Speed 28.4 km/h Distance 5.08 km</desc>
<time>2013-07-05T17:38:25.21</time>
<name>502</name>
<sym>Dot</sym>
</trkpt>
<trkpt lat="42.876277" lon="-2.101940">
<ele>1717.0</ele>
<desc>Speed 30.4 km/h Distance 5.09 km</desc>
<time>2013-07-05T17:38:26.35</time>
<name>503</name>
<sym>Dot</sym>
</trkpt>
<trkpt lat="42.876292" lon="-2.102045">
<ele>1717.0</ele>
<desc>Speed 31.2 km/h Distance 5.10 km</desc>
<time>2013-07-05T17:38:27.19</time>
<name>504</name>
<sym>Dot</sym>
</trkpt>
<trkpt lat="42.876308" lon="-2.102147">
<ele>1717.0</ele>
<desc>Speed 30.6 km/h Distance 5.11 km</desc>
<time>2013-07-05T17:38:28.19</time>
<name>505</name>
<sym>Dot</sym>
</trkpt>
<trkpt lat="42.876325" lon="-2.102240">
<ele>1717.0</ele>
<desc>Speed 28.4 km/h Distance 5.12 km</desc>
<time>2013-07-05T17:38:29.18</time>
<name>506</name>
<sym>Dot</sym>
</trkpt>
<trkpt lat="42.876332" lon="-2.102333">
<ele>1717.5</ele>
<desc>Speed 27.7 km/h Distance 5.13 km</desc>
<time>2013-07-05T17:38:30.17</time>
<name>507</name>
<sym>Dot</sym>
</trkpt>
<trkpt lat="42.876318" lon="-2.102430">
<ele>1716.5</ele>
<desc>Speed 29.2 km/h Distance 5.13 km</desc>
<time>2013-07-05T17:38:31.17</time>
<name>508</name>
<sym>Dot</sym>
</trkpt>
<trkpt lat="42.876273" lon="-2.102525">
<ele>1716.0</ele>
<desc>Speed 33.7 km/h Distance 5.14 km</desc>
<time>2013-07-05T17:38:32.31</time>
<name>509</name>
<sym>Dot</sym>
</trkpt>
<trkpt lat="42.876255" lon="-2.102655">
<ele>1715.5</ele>
<desc>Speed 22.3 km/h Distance 5.15 km</desc>
<time>2013-07-05T17:38:34.17</time>
<name>510</name>
<sym>Dot</sym>
</trkpt>
<trkpt lat="42.876253" lon="-2.102712">
<ele>1714.5</ele>
<desc>Speed 22.3 km/h Distance 5.16 km</desc>
<time>2013-07-05T17:38:36.16</time>
<name>511</name>
<sym>Dot</sym>
</trkpt>
<trkpt lat="42.876247" lon="-2.102612">
<ele>1713.5</ele>
<desc>Speed 22.3 km/h Distance 5.17 km</desc>
<time>2013-07-05T17:38:39.58</time>
<name>512</name>
<sym>Dot</sym>
</trkpt>
<trkpt lat="42.876167" lon="-2.102648">
<ele>1715.0</ele>
<desc>Speed 32.9 km/h Distance 5.18 km</desc>
<time>2013-07-05T17:38:42.58</time>
<name>513</name>
<sym>Dot</sym>
</trkpt>
<trkpt lat="42.875962" lon="-2.102745">
<ele>1714.5</ele>
<desc>Speed 36.5 km/h Distance 5.20 km</desc>
<time>2013-07-05T17:38:45.05</time>
<name>514</name>
<sym>Dot</sym>
</trkpt>
<trkpt lat="42.875777" lon="-2.102910">
<ele>1712.5</ele>
<desc>Speed 39.8 km/h Distance 5.22 km</desc>
<time>2013-07-05T17:38:46.56</time>
<name>515</name>
<sym>Dot</sym>
</trkpt>
<trkpt lat="42.875523" lon="-2.103008">
<ele>1712.5</ele>
<desc>Speed 53.0 km/h Distance 5.25 km</desc>
<time>2013-07-05T17:38:48.57</time>
<name>516</name>
<sym>Dot</sym>
</trkpt>
<trkpt lat="42.875390" lon="-2.103013">
<ele>1712.5</ele>
<desc>Speed 48.2 km/h Distance 5.27 km</desc>
<time>2013-07-05T17:38:49.74</time>
<name>517</name>
<sym>Dot</sym>
</trkpt>
<trkpt lat="42.875007" lon="-2.102688">
<ele>1710.0</ele>
<desc>Speed 55.8 km/h Distance 5.32 km</desc>
<time>2013-07-05T17:38:52.55</time>
<name>518</name>
<sym>Dot</sym>
</trkpt>
<trkpt lat="42.874925" lon="-2.102527">
<ele>1709.0</ele>
<desc>Speed 49.4 km/h Distance 5.34 km</desc>
<time>2013-07-05T17:38:53.54</time>
<name>519</name>
<sym>Dot</sym>
</trkpt>
<trkpt lat="42.874888" lon="-2.102360">
<ele>1708.0</ele>
<desc>Speed 44.3 km/h Distance 5.35 km</desc>
<time>2013-07-05T17:38:54.66</time>
<name>520</name>
<sym>Dot</sym>
</trkpt>
<trkpt lat="42.874903" lon="-2.102202">
<ele>1708.0</ele>
<desc>Speed 45.8 km/h Distance 5.36 km</desc>
<time>2013-07-05T17:38:55.52</time>
<name>521</name>
<sym>Dot</sym>
</trkpt>
<trkpt lat="42.875032" lon="-2.101887">
<ele>1709.0</ele>
<desc>Speed 19.2 km/h Distance 5.39 km</desc>
<time>2013-07-05T17:38:59.58</time>
<name>522</name>
<sym>Dot</sym>
</trkpt>
<trkpt lat="42.875057" lon="-2.101833">
<ele>1708.5</ele>
<desc>Speed 18.6 km/h Distance 5.40 km</desc>
<time>2013-07-05T17:39:00.78</time>
<name>523</name>
<sym>Dot</sym>
</trkpt>
<trkpt lat="42.875102" lon="-2.101782">
<ele>1707.0</ele>
<desc>Speed 23.4 km/h Distance 5.40 km</desc>
<time>2013-07-05T17:39:01.75</time>
<name>524</name>
<sym>Dot</sym>
</trkpt>
<trkpt lat="42.875158" lon="-2.101725">
<ele>1706.5</ele>
<desc>Speed 28.2 km/h Distance 5.41 km</desc>
<time>2013-07-05T17:39:02.62</time>
<name>525</name>
<sym>Dot</sym>
</trkpt>
<trkpt lat="42.875220" lon="-2.101673">
<ele>1707.0</ele>
<desc>Speed 29.9 km/h Distance 5.42 km</desc>
<time>2013-07-05T17:39:03.87</time>
<name>526</name>
<sym>Dot</sym>
</trkpt>
<trkpt lat="42.875275" lon="-2.101623">
<ele>1709.0</ele>
<desc>Speed 27.1 km/h Distance 5.43 km</desc>
<time>2013-07-05T17:39:04.51</time>
<name>527</name>
<sym>Dot</sym>
</trkpt>
<trkpt lat="42.875317" lon="-2.101573">
<ele>1710.5</ele>
<desc>Speed 22.1 km/h Distance 5.43 km</desc>
<time>2013-07-05T17:39:05.67</time>
<name>528</name>
<sym>Dot</sym>
</trkpt>
<trkpt lat="42.875370" lon="-2.101465">
<ele>1710.5</ele>
<desc>Speed 19.7 km/h Distance 5.44 km</desc>
<time>2013-07-05T17:39:08.37</time>
<name>529</name>
<sym>Dot</sym>
</trkpt>
<trkpt lat="42.875553" lon="-2.101295">
<ele>1709.0</ele>
<desc>Speed 33.4 km/h Distance 5.47 km</desc>
<time>2013-07-05T17:39:10.71</time>
<name>530</name>
<sym>Dot</sym>
</trkpt>
<trkpt lat="42.875617" lon="-2.101232">
<ele>1710.5</ele>
<desc>Speed 32.0 km/h Distance 5.48 km</desc>
<time>2013-07-05T17:39:11.51</time>
<name>531</name>
<sym>Dot</sym>
</trkpt>
<trkpt lat="42.875667" lon="-2.101167">
<ele>1712.0</ele>
<desc>Speed 27.4 km/h Distance 5.48 km</desc>
<time>2013-07-05T17:39:12.49</time>
<name>532</name>
<sym>Dot</sym>
</trkpt>
<trkpt lat="42.875702" lon="-2.101098">
<ele>1712.5</ele>
<desc>Speed 25.1 km/h Distance 5.49 km</desc>
<time>2013-07-05T17:39:13.49</time>
<name>533</name>
<sym>Dot</sym>
</trkpt>
<trkpt lat="42.875740" lon="-2.101025">
<ele>1712.0</ele>
<desc>Speed 26.5 km/h Distance 5.50 km</desc>
<time>2013-07-05T17:39:14.48</time>
<name>534</name>
<sym>Dot</sym>
</trkpt>
<trkpt lat="42.875792" lon="-2.100948">
<ele>1710.5</ele>
<desc>Speed 30.2 km/h Distance 5.51 km</desc>
<time>2013-07-05T17:39:15.47</time>
<name>535</name>
<sym>Dot</sym>
</trkpt>
<trkpt lat="42.875853" lon="-2.100870">
<ele>1709.0</ele>
<desc>Speed 33.9 km/h Distance 5.52 km</desc>
<time>2013-07-05T17:39:16.63</time>
<name>536</name>
<sym>Dot</sym>
</trkpt>
<trkpt lat="42.875923" lon="-2.100795">
<ele>1708.5</ele>
<desc>Speed 35.6 km/h Distance 5.53 km</desc>
<time>2013-07-05T17:39:18.02</time>
<name>537</name>
<sym>Dot</sym>
</trkpt>
<trkpt lat="42.875988" lon="-2.100722">
<ele>1709.0</ele>
<desc>Speed 34.1 km/h Distance 5.54 km</desc>
<time>2013-07-05T17:39:18.45</time>
<name>538</name>
<sym>Dot</sym>
</trkpt>
<trkpt lat="42.876045" lon="-2.100650">
<ele>1710.0</ele>
<desc>Speed 30.6 km/h Distance 5.54 km</desc>
<time>2013-07-05T17:39:19.44</time>
<name>539</name>
<sym>Dot</sym>
</trkpt>
<trkpt lat="42.876097" lon="-2.100593">
<ele>1710.5</ele>
<desc>Speed 26.6 km/h Distance 5.55 km</desc>
<time>2013-07-05T17:39:20.71</time>
<name>540</name>
<sym>Dot</sym>
</trkpt>
<trkpt lat="42.876155" lon="-2.100585">
<ele>1710.5</ele>
<desc>Speed 23.3 km/h Distance 5.56 km</desc>
<time>2013-07-05T17:39:21.43</time>
<name>541</name>
<sym>Dot</sym>
</trkpt>
<trkpt lat="42.876217" lon="-2.100608">
<ele>1711.0</ele>
<desc>Speed 26.4 km/h Distance 5.57 km</desc>
<time>2013-07-05T17:39:22.42</time>
<name>542</name>
<sym>Dot</sym>
</trkpt>
<trkpt lat="42.876277" lon="-2.100645">
<ele>1710.0</ele>
<desc>Speed 27.0 km/h Distance 5.57 km</desc>
<time>2013-07-05T17:39:23.42</time>
<name>543</name>
<sym>Dot</sym>
</trkpt>
<trkpt lat="42.876317" lon="-2.100692">
<ele>1708.5</ele>
<desc>Speed 21.1 km/h Distance 5.58 km</desc>
<time>2013-07-05T17:39:24.55</time>
<name>544</name>
<sym>Dot</sym>
</trkpt>
<trkpt lat="42.876348" lon="-2.100883">
<ele>1709.5</ele>
<desc>Speed 29.9 km/h Distance 5.59 km</desc>
<time>2013-07-05T17:39:26.40</time>
<name>545</name>
<sym>Dot</sym>
</trkpt>
<trkpt lat="42.876363" lon="-2.100982">
<ele>1709.5</ele>
<desc>Speed 29.8 km/h Distance 5.60 km</desc>
<time>2013-07-05T17:39:27.41</time>
<name>546</name>
<sym>Dot</sym>
</trkpt>
<trkpt lat="42.876383" lon="-2.101083">
<ele>1709.5</ele>
<desc>Speed 30.7 km/h Distance 5.61 km</desc>
<time>2013-07-05T17:39:28.92</time>
<name>547</name>
<sym>Dot</sym>
</trkpt>
<trkpt lat="42.876407" lon="-2.101178">
<ele>1710.5</ele>
<desc>Speed 29.6 km/h Distance 5.62 km</desc>
<time>2013-07-05T17:39:29.39</time>
<name>548</name>
<sym>Dot</sym>
</trkpt>
<trkpt lat="42.876420" lon="-2.101273">
<ele>1711.0</ele>
<desc>Speed 28.7 km/h Distance 5.63 km</desc>
<time>2013-07-05T17:39:30.37</time>
<name>549</name>
<sym>Dot</sym>
</trkpt>
<trkpt lat="42.876422" lon="-2.101372">
<ele>1711.5</ele>
<desc>Speed 28.5 km/h Distance 5.64 km</desc>
<time>2013-07-05T17:39:31.36</time>
<name>550</name>
<sym>Dot</sym>
</trkpt>
<trkpt lat="42.876413" lon="-2.101472">
<ele>1711.5</ele>
<desc>Speed 30.2 km/h Distance 5.64 km</desc>
<time>2013-07-05T17:39:32.35</time>
<name>551</name>
<sym>Dot</sym>
</trkpt>
<trkpt lat="42.876397" lon="-2.101577">
<ele>1710.5</ele>
<desc>Speed 32.0 km/h Distance 5.65 km</desc>
<time>2013-07-05T17:39:33.34</time>
<name>552</name>
<sym>Dot</sym>
</trkpt>
<trkpt lat="42.876377" lon="-2.101687">
<ele>1710.5</ele>
<desc>Speed 34.0 km/h Distance 5.66 km</desc>
<time>2013-07-05T17:39:34.49</time>
<name>553</name>
<sym>Dot</sym>
</trkpt>
<trkpt lat="42.876352" lon="-2.101803">
<ele>1710.5</ele>
<desc>Speed 36.0 km/h Distance 5.67 km</desc>
<time>2013-07-05T17:39:35.33</time>
<name>554</name>
<sym>Dot</sym>
</trkpt>
<trkpt lat="42.876315" lon="-2.101917">
<ele>1711.0</ele>
<desc>Speed 36.3 km/h Distance 5.68 km</desc>
<time>2013-07-05T17:39:36.32</time>
<name>555</name>
<sym>Dot</sym>
</trkpt>
<trkpt lat="42.876263" lon="-2.102020">
<ele>1711.5</ele>
<desc>Speed 36.8 km/h Distance 5.69 km</desc>
<time>2013-07-05T17:39:37.31</time>
<name>556</name>
<sym>Dot</sym>
</trkpt>
<trkpt lat="42.876195" lon="-2.102115">
<ele>1711.5</ele>
<desc>Speed 39.2 km/h Distance 5.70 km</desc>
<time>2013-07-05T17:39:38.30</time>
<name>557</name>
<sym>Dot</sym>
</trkpt>
<trkpt lat="42.876118" lon="-2.102205">
<ele>1711.0</ele>
<desc>Speed 40.5 km/h Distance 5.71 km</desc>
<time>2013-07-05T17:39:39.29</time>
<name>558</name>
<sym>Dot</sym>
</trkpt>
<trkpt lat="42.876043" lon="-2.102300">
<ele>1710.5</ele>
<desc>Speed 40.9 km/h Distance 5.73 km</desc>
<time>2013-07-05T17:39:40.43</time>
<name>559</name>
<sym>Dot</sym>
</trkpt>
<trkpt lat="42.875970" lon="-2.102398">
<ele>1710.0</ele>
<desc>Speed 41.7 km/h Distance 5.74 km</desc>
<time>2013-07-05T17:39:41.28</time>
<name>560</name>
<sym>Dot</sym>
</trkpt>
<trkpt lat="42.875890" lon="-2.102495">
<ele>1710.0</ele>
<desc>Speed 42.8 km/h Distance 5.75 km</desc>
<time>2013-07-05T17:39:42.27</time>
<name>561</name>
<sym>Dot</sym>
</trkpt>
<trkpt lat="42.875802" lon="-2.102585">
<ele>1709.5</ele>
<desc>Speed 44.5 km/h Distance 5.76 km</desc>
<time>2013-07-05T17:39:43.26</time>
<name>562</name>
<sym>Dot</sym>
</trkpt>
<trkpt lat="42.875707" lon="-2.102672">
<ele>1710.0</ele>
<desc>Speed 45.2 km/h Distance 5.77 km</desc>
<time>2013-07-05T17:39:44.57</time>
<name>563</name>
<sym>Dot</sym>
</trkpt>
<trkpt lat="42.875608" lon="-2.102758">
<ele>1710.5</ele>
<desc>Speed 46.7 km/h Distance 5.79 km</desc>
<time>2013-07-05T17:39:45.24</time>
<name>564</name>
<sym>Dot</sym>
</trkpt>
<trkpt lat="42.875520" lon="-2.102848">
<ele>1711.0</ele>
<desc>Speed 44.6 km/h Distance 5.80 km</desc>
<time>2013-07-05T17:39:46.24</time>
<name>565</name>
<sym>Dot</sym>
</trkpt>
<trkpt lat="42.875438" lon="-2.102943">
<ele>1711.0</ele>
<desc>Speed 43.1 km/h Distance 5.81 km</desc>
<time>2013-07-05T17:39:47.24</time>
<name>566</name>
<sym>Dot</sym>
</trkpt>
<trkpt lat="42.875368" lon="-2.103048">
<ele>1711.0</ele>
<desc>Speed 42.2 km/h Distance 5.82 km</desc>
<time>2013-07-05T17:39:48.22</time>
<name>567</name>
<sym>Dot</sym>
</trkpt>
<trkpt lat="42.875308" lon="-2.103163">
<ele>1710.5</ele>
<desc>Speed 41.6 km/h Distance 5.83 km</desc>
<time>2013-07-05T17:39:49.22</time>
<name>568</name>
<sym>Dot</sym>
</trkpt>
<trkpt lat="42.875273" lon="-2.103300">
<ele>1712.5</ele>
<desc>Speed 43.3 km/h Distance 5.85 km</desc>
<time>2013-07-05T17:39:50.21</time>
<name>569</name>
<sym>Dot</sym>
</trkpt>
<trkpt lat="42.875250" lon="-2.103433">
<ele>1712.0</ele>
<desc>Speed 40.8 km/h Distance 5.86 km</desc>
<time>2013-07-05T17:39:51.35</time>
<name>570</name>
<sym>Dot</sym>
</trkpt>
<trkpt lat="42.875243" lon="-2.103565">
<ele>1713.0</ele>
<desc>Speed 38.9 km/h Distance 5.87 km</desc>
<time>2013-07-05T17:39:52.20</time>
<name>571</name>
<sym>Dot</sym>
</trkpt>
<trkpt lat="42.875250" lon="-2.103748">
<ele>1714.5</ele>
<desc>Speed 24.6 km/h Distance 5.88 km</desc>
<time>2013-07-05T17:39:54.20</time>
<name>572</name>
<sym>Dot</sym>
</trkpt>
<trkpt lat="42.875258" lon="-2.103820">
<ele>1713.0</ele>
<desc>Speed 21.7 km/h Distance 5.89 km</desc>
<time>2013-07-05T17:39:55.19</time>
<name>573</name>
<sym>Dot</sym>
</trkpt>
<trkpt lat="42.875323" lon="-2.104015">
<ele>1712.5</ele>
<desc>Speed 33.5 km/h Distance 5.91 km</desc>
<time>2013-07-05T17:39:57.18</time>
<name>574</name>
<sym>Dot</sym>
</trkpt>
<trkpt lat="42.875357" lon="-2.104115">
<ele>1711.5</ele>
<desc>Speed 32.5 km/h Distance 5.92 km</desc>
<time>2013-07-05T17:39:58.17</time>
<name>575</name>
<sym>Dot</sym>
</trkpt>
<trkpt lat="42.875398" lon="-2.104207">
<ele>1712.0</ele>
<desc>Speed 31.4 km/h Distance 5.92 km</desc>
<time>2013-07-05T17:39:59.18</time>
<name>576</name>
<sym>Dot</sym>
</trkpt>
<trkpt lat="42.875452" lon="-2.104265">
<ele>1713.5</ele>
<desc>Speed 28.2 km/h Distance 5.93 km</desc>
<time>2013-07-05T17:40:00.28</time>
<name>577</name>
<sym>Dot</sym>
</trkpt>
<trkpt lat="42.875500" lon="-2.104310">
<ele>1714.0</ele>
<desc>Speed 23.5 km/h Distance 5.94 km</desc>
<time>2013-07-05T17:40:01.14</time>
<name>578</name>
<sym>Dot</sym>
</trkpt>
<trkpt lat="42.875542" lon="-2.104352">
<ele>1713.0</ele>
<desc>Speed 21.2 km/h Distance 5.94 km</desc>
<time>2013-07-05T17:40:02.13</time>
<name>579</name>
<sym>Dot</sym>
</trkpt>
<trkpt lat="42.875582" lon="-2.104407">
<ele>1711.5</ele>
<desc>Speed 22.5 km/h Distance 5.95 km</desc>
<time>2013-07-05T17:40:03.13</time>
<name>580</name>
<sym>Dot</sym>
</trkpt>
<trkpt lat="42.875605" lon="-2.104492">
<ele>1710.0</ele>
<desc>Speed 27.3 km/h Distance 5.96 km</desc>
<time>2013-07-05T17:40:04.11</time>
<name>581</name>
<sym>Dot</sym>
</trkpt>
<trkpt lat="42.875602" lon="-2.104753">
<ele>1709.0</ele>
<desc>Speed 41.3 km/h Distance 5.98 km</desc>
<time>2013-07-05T17:40:06.11</time>
<name>582</name>
<sym>Dot</sym>
</trkpt>
<trkpt lat="42.875605" lon="-2.104888">
<ele>1709.0</ele>
<desc>Speed 39.5 km/h Distance 5.99 km</desc>
<time>2013-07-05T17:40:07.10</time>
<name>583</name>
<sym>Dot</sym>
</trkpt>
<trkpt lat="42.875430" lon="-2.105083">
<ele>1708.5</ele>
<desc>Speed 41.4 km/h Distance 6.02 km</desc>
<time>2013-07-05T17:40:09.09</time>
<name>584</name>
<sym>Dot</sym>
</trkpt>
<trkpt lat="42.875285" lon="-2.105213">
<ele>1709.5</ele>
<desc>Speed 32.3 km/h Distance 6.03 km</desc>
<time>2013-07-05T17:40:11.07</time>
<name>585</name>
<sym>Dot</sym>
</trkpt>
<trkpt lat="42.874832" lon="-2.105580">
<ele>1708.0</ele>
<desc>Speed 56.7 km/h Distance 6.09 km</desc>
<time>2013-07-05T17:40:15.36</time>
<name>586</name>
<sym>Dot</sym>
</trkpt>
<trkpt lat="42.874518" lon="-2.105987">
<ele>1709.0</ele>
<desc>Speed 26.6 km/h Distance 6.14 km</desc>
<time>2013-07-05T17:40:20.37</time>
<name>587</name>
<sym>Dot</sym>
</trkpt>
<trkpt lat="42.874512" lon="-2.106378">
<ele>1709.0</ele>
<desc>Speed 32.9 km/h Distance 6.17 km</desc>
<time>2013-07-05T17:40:23.34</time>
<name>588</name>
<sym>Dot</sym>
</trkpt>
<trkpt lat="42.874515" lon="-2.106470">
<ele>1709.5</ele>
<desc>Speed 26.4 km/h Distance 6.18 km</desc>
<time>2013-07-05T17:40:24.34</time>
<name>589</name>
<sym>Dot</sym>
</trkpt>
<trkpt lat="42.874533" lon="-2.106552">
<ele>1709.5</ele>
<desc>Speed 25.2 km/h Distance 6.19 km</desc>
<time>2013-07-05T17:40:25.42</time>
<name>590</name>
<sym>Dot</sym>
</trkpt>
<trkpt lat="42.874535" lon="-2.106768">
<ele>1707.0</ele>
<desc>Speed 37.0 km/h Distance 6.21 km</desc>
<time>2013-07-05T17:40:27.32</time>
<name>591</name>
<sym>Dot</sym>
</trkpt>
<trkpt lat="42.874507" lon="-2.106902">
<ele>1705.0</ele>
<desc>Speed 40.2 km/h Distance 6.22 km</desc>
<time>2013-07-05T17:40:28.31</time>
<name>592</name>
<sym>Dot</sym>
</trkpt>
<trkpt lat="42.874463" lon="-2.107045">
<ele>1706.5</ele>
<desc>Speed 44.3 km/h Distance 6.23 km</desc>
<time>2013-07-05T17:40:29.30</time>
<name>593</name>
<sym>Dot</sym>
</trkpt>
<trkpt lat="42.874405" lon="-2.107172">
<ele>1707.5</ele>
<desc>Speed 42.1 km/h Distance 6.24 km</desc>
<time>2013-07-05T17:40:30.30</time>
<name>594</name>
<sym>Dot</sym>
</trkpt>
<trkpt lat="42.874362" lon="-2.107292">
<ele>1709.0</ele>
<desc>Speed 38.1 km/h Distance 6.25 km</desc>
<time>2013-07-05T17:40:31.30</time>
<name>595</name>
<sym>Dot</sym>
</trkpt>
<trkpt lat="42.874333" lon="-2.107415">
<ele>1709.5</ele>
<desc>Speed 37.7 km/h Distance 6.26 km</desc>
<time>2013-07-05T17:40:32.28</time>
<name>596</name>
<sym>Dot</sym>
</trkpt>
<trkpt lat="42.874308" lon="-2.107537">
<ele>1709.0</ele>
<desc>Speed 36.5 km/h Distance 6.27 km</desc>
<time>2013-07-05T17:40:33.28</time>
<name>597</name>
<sym>Dot</sym>
</trkpt>
<trkpt lat="42.874272" lon="-2.107673">
<ele>1708.5</ele>
<desc>Speed 42.2 km/h Distance 6.29 km</desc>
<time>2013-07-05T17:40:34.27</time>
<name>598</name>
<sym>Dot</sym>
</trkpt>
<trkpt lat="42.874202" lon="-2.107815">
<ele>1708.5</ele>
<desc>Speed 48.6 km/h Distance 6.30 km</desc>
<time>2013-07-05T17:40:35.37</time>
<name>599</name>
<sym>Dot</sym>
</trkpt>
<trkpt lat="42.874123" lon="-2.107942">
<ele>1710.0</ele>
<desc>Speed 47.9 km/h Distance 6.31 km</desc>
<time>2013-07-05T17:40:36.26</time>
<name>600</name>
<sym>Dot</sym>
</trkpt>
<trkpt lat="42.874042" lon="-2.108030">
<ele>1710.5</ele>
<desc>Speed 41.2 km/h Distance 6.32 km</desc>
<time>2013-07-05T17:40:37.26</time>
<name>601</name>
<sym>Dot</sym>
</trkpt>
<trkpt lat="42.873957" lon="-2.108107">
<ele>1712.5</ele>
<desc>Speed 40.6 km/h Distance 6.34 km</desc>
<time>2013-07-05T17:40:38.25</time>
<name>602</name>
<sym>Dot</sym>
</trkpt>
<trkpt lat="42.873868" lon="-2.108177">
<ele>1714.0</ele>
<desc>Speed 40.4 km/h Distance 6.35 km</desc>
<time>2013-07-05T17:40:39.24</time>
<name>603</name>
<sym>Dot</sym>
</trkpt>
<trkpt lat="42.873770" lon="-2.108237">
<ele>1714.0</ele>
<desc>Speed 42.6 km/h Distance 6.36 km</desc>
<time>2013-07-05T17:40:40.24</time>
<name>604</name>
<sym>Dot</sym>
</trkpt>
<trkpt lat="42.873662" lon="-2.108292">
<ele>1713.5</ele>
<desc>Speed 46.2 km/h Distance 6.37 km</desc>
<time>2013-07-05T17:40:41.23</time>
<name>605</name>
<sym>Dot</sym>
</trkpt>
<trkpt lat="42.873542" lon="-2.108352">
<ele>1712.0</ele>
<desc>Speed 50.3 km/h Distance 6.39 km</desc>
<time>2013-07-05T17:40:42.22</time>
<name>606</name>
<sym>Dot</sym>
</trkpt>
<trkpt lat="42.873418" lon="-2.108417">
<ele>1711.5</ele>
<desc>Speed 52.6 km/h Distance 6.40 km</desc>
<time>2013-07-05T17:40:43.22</time>
<name>607</name>
<sym>Dot</sym>
</trkpt>
<trkpt lat="42.873297" lon="-2.108487">
<ele>1712.0</ele>
<desc>Speed 52.6 km/h Distance 6.42 km</desc>
<time>2013-07-05T17:40:44.31</time>
<name>608</name>
<sym>Dot</sym>
</trkpt>
<trkpt lat="42.873177" lon="-2.108548">
<ele>1712.5</ele>
<desc>Speed 50.9 km/h Distance 6.43 km</desc>
<time>2013-07-05T17:40:45.20</time>
<name>609</name>
<sym>Dot</sym>
</trkpt>
<trkpt lat="42.873057" lon="-2.108598">
<ele>1712.5</ele>
<desc>Speed 49.2 km/h Distance 6.44 km</desc>
<time>2013-07-05T17:40:46.20</time>
<name>610</name>
<sym>Dot</sym>
</trkpt>
<trkpt lat="42.872937" lon="-2.108637">
<ele>1712.0</ele>
<desc>Speed 48.7 km/h Distance 6.46 km</desc>
<time>2013-07-05T17:40:47.19</time>
<name>611</name>
<sym>Dot</sym>
</trkpt>
<trkpt lat="42.872815" lon="-2.108673">
<ele>1711.5</ele>
<desc>Speed 49.7 km/h Distance 6.47 km</desc>
<time>2013-07-05T17:40:48.18</time>
<name>612</name>
<sym>Dot</sym>
</trkpt>
<trkpt lat="42.872687" lon="-2.108710">
<ele>1710.5</ele>
<desc>Speed 51.6 km/h Distance 6.49 km</desc>
<time>2013-07-05T17:40:49.18</time>
<name>613</name>
<sym>Dot</sym>
</trkpt>
<trkpt lat="42.872555" lon="-2.108745">
<ele>1710.5</ele>
<desc>Speed 53.1 km/h Distance 6.50 km</desc>
<time>2013-07-05T17:40:50.17</time>
<name>614</name>
<sym>Dot</sym>
</trkpt>
<trkpt lat="42.872423" lon="-2.108775">
<ele>1711.0</ele>
<desc>Speed 53.3 km/h Distance 6.52 km</desc>
<time>2013-07-05T17:40:51.17</time>
<name>615</name>
<sym>Dot</sym>
</trkpt>
<trkpt lat="42.872293" lon="-2.108797">
<ele>1711.0</ele>
<desc>Speed 51.8 km/h Distance 6.53 km</desc>
<time>2013-07-05T17:40:52.15</time>
<name>616</name>
<sym>Dot</sym>
</trkpt>
<trkpt lat="42.872168" lon="-2.108818">
<ele>1710.0</ele>
<desc>Speed 50.4 km/h Distance 6.54 km</desc>
<time>2013-07-05T17:40:53.25</time>
<name>617</name>
<sym>Dot</sym>
</trkpt>
<trkpt lat="42.872045" lon="-2.108850">
<ele>1709.0</ele>
<desc>Speed 49.5 km/h Distance 6.56 km</desc>
<time>2013-07-05T17:40:54.14</time>
<name>618</name>
<sym>Dot</sym>
</trkpt>
<trkpt lat="42.871925" lon="-2.108893">
<ele>1707.5</ele>
<desc>Speed 49.4 km/h Distance 6.57 km</desc>
<time>2013-07-05T17:40:55.14</time>
<name>619</name>
<sym>Dot</sym>
</trkpt>
<trkpt lat="42.871813" lon="-2.108955">
<ele>1706.0</ele>
<desc>Speed 48.5 km/h Distance 6.59 km</desc>
<time>2013-07-05T17:40:56.14</time>
<name>620</name>
<sym>Dot</sym>
</trkpt>
<trkpt lat="42.871733" lon="-2.109055">
<ele>1705.0</ele>
<desc>Speed 43.1 km/h Distance 6.60 km</desc>
<time>2013-07-05T17:40:57.12</time>
<name>621</name>
<sym>Dot</sym>
</trkpt>
<trkpt lat="42.871653" lon="-2.109163">
<ele>1705.0</ele>
<desc>Speed 45.0 km/h Distance 6.61 km</desc>
<time>2013-07-05T17:40:58.12</time>
<name>622</name>
<sym>Dot</sym>
</trkpt>
<trkpt lat="42.871577" lon="-2.109268">
<ele>1704.0</ele>
<desc>Speed 42.8 km/h Distance 6.62 km</desc>
<time>2013-07-05T17:40:59.11</time>
<name>623</name>
<sym>Dot</sym>
</trkpt>
<trkpt lat="42.871510" lon="-2.109370">
<ele>1703.0</ele>
<desc>Speed 40.0 km/h Distance 6.63 km</desc>
<time>2013-07-05T17:41:00.10</time>
<name>624</name>
<sym>Dot</sym>
</trkpt>
<trkpt lat="42.871448" lon="-2.109467">
<ele>1702.0</ele>
<desc>Speed 37.5 km/h Distance 6.64 km</desc>
<time>2013-07-05T17:41:01.09</time>
<name>625</name>
<sym>Dot</sym>
</trkpt>
<trkpt lat="42.871397" lon="-2.109568">
<ele>1700.0</ele>
<desc>Speed 36.5 km/h Distance 6.65 km</desc>
<time>2013-07-05T17:41:02.19</time>
<name>626</name>
<sym>Dot</sym>
</trkpt>
<trkpt lat="42.871353" lon="-2.109682">
<ele>1698.5</ele>
<desc>Speed 37.7 km/h Distance 6.66 km</desc>
<time>2013-07-05T17:41:03.07</time>
<name>627</name>
<sym>Dot</sym>
</trkpt>
<trkpt lat="42.871317" lon="-2.109800">
<ele>1697.0</ele>
<desc>Speed 38.0 km/h Distance 6.67 km</desc>
<time>2013-07-05T17:41:04.07</time>
<name>628</name>
<sym>Dot</sym>
</trkpt>
<trkpt lat="42.871278" lon="-2.109918">
<ele>1695.5</ele>
<desc>Speed 38.0 km/h Distance 6.69 km</desc>
<time>2013-07-05T17:41:05.05</time>
<name>629</name>
<sym>Dot</sym>
</trkpt>
<trkpt lat="42.871235" lon="-2.110028">
<ele>1695.0</ele>
<desc>Speed 36.5 km/h Distance 6.70 km</desc>
<time>2013-07-05T17:41:06.05</time>
<name>630</name>
<sym>Dot</sym>
</trkpt>
<trkpt lat="42.871192" lon="-2.110127">
<ele>1694.0</ele>
<desc>Speed 33.4 km/h Distance 6.70 km</desc>
<time>2013-07-05T17:41:07.03</time>
<name>631</name>
<sym>Dot</sym>
</trkpt>
<trkpt lat="42.871160" lon="-2.110218">
<ele>1692.5</ele>
<desc>Speed 29.6 km/h Distance 6.71 km</desc>
<time>2013-07-05T17:41:08.02</time>
<name>632</name>
<sym>Dot</sym>
</trkpt>
<trkpt lat="42.871138" lon="-2.110308">
<ele>1690.0</ele>
<desc>Speed 27.8 km/h Distance 6.72 km</desc>
<time>2013-07-05T17:41:09.01</time>
<name>633</name>
<sym>Dot</sym>
</trkpt>
<trkpt lat="42.871128" lon="-2.110410">
<ele>1690.0</ele>
<desc>Speed 29.8 km/h Distance 6.73 km</desc>
<time>2013-07-05T17:41:10.10</time>
<name>634</name>
<sym>Dot</sym>
</trkpt>
<trkpt lat="42.871117" lon="-2.110513">
<ele>1688.0</ele>
<desc>Speed 30.9 km/h Distance 6.74 km</desc>
<time>2013-07-05T17:41:11.00</time>
<name>635</name>
<sym>Dot</sym>
</trkpt>
<trkpt lat="42.871105" lon="-2.110620">
<ele>1686.5</ele>
<desc>Speed 31.4 km/h Distance 6.75 km</desc>
<time>2013-07-05T17:41:11.99</time>
<name>636</name>
<sym>Dot</sym>
</trkpt>
<trkpt lat="42.871092" lon="-2.110720">
<ele>1685.5</ele>
<desc>Speed 30.0 km/h Distance 6.75 km</desc>
<time>2013-07-05T17:41:12.99</time>
<name>637</name>
<sym>Dot</sym>
</trkpt>
<trkpt lat="42.871078" lon="-2.110815">
<ele>1684.5</ele>
<desc>Speed 28.5 km/h Distance 6.76 km</desc>
<time>2013-07-05T17:41:13.98</time>
<name>638</name>
<sym>Dot</sym>
</trkpt>
<trkpt lat="42.871058" lon="-2.110907">
<ele>1682.5</ele>
<desc>Speed 28.2 km/h Distance 6.77 km</desc>
<time>2013-07-05T17:41:14.97</time>
<name>639</name>
<sym>Dot</sym>
</trkpt>
<trkpt lat="42.871042" lon="-2.111008">
<ele>1682.0</ele>
<desc>Speed 30.5 km/h Distance 6.78 km</desc>
<time>2013-07-05T17:41:15.96</time>
<name>640</name>
<sym>Dot</sym>
</trkpt>
<trkpt lat="42.871030" lon="-2.111118">
<ele>1681.5</ele>
<desc>Speed 32.5 km/h Distance 6.79 km</desc>
<time>2013-07-05T17:41:16.99</time>
<name>641</name>
<sym>Dot</sym>
</trkpt>
<trkpt lat="42.871028" lon="-2.111237">
<ele>1681.0</ele>
<desc>Speed 34.7 km/h Distance 6.80 km</desc>
<time>2013-07-05T17:41:17.95</time>
<name>642</name>
<sym>Dot</sym>
</trkpt>
<trkpt lat="42.871025" lon="-2.111357">
<ele>1680.5</ele>
<desc>Speed 35.4 km/h Distance 6.81 km</desc>
<time>2013-07-05T17:41:18.95</time>
<name>643</name>
<sym>Dot</sym>
</trkpt>
<trkpt lat="42.871008" lon="-2.111468">
<ele>1679.0</ele>
<desc>Speed 33.4 km/h Distance 6.82 km</desc>
<time>2013-07-05T17:41:19.94</time>
<name>644</name>
<sym>Dot</sym>
</trkpt>
<trkpt lat="42.870988" lon="-2.111577">
<ele>1678.5</ele>
<desc>Speed 32.6 km/h Distance 6.83 km</desc>
<time>2013-07-05T17:41:20.93</time>
<name>645</name>
<sym>Dot</sym>
</trkpt>
<trkpt lat="42.870965" lon="-2.111678">
<ele>1678.0</ele>
<desc>Speed 31.4 km/h Distance 6.83 km</desc>
<time>2013-07-05T17:41:21.93</time>
<name>646</name>
<sym>Dot</sym>
</trkpt>
<trkpt lat="42.870942" lon="-2.111772">
<ele>1677.0</ele>
<desc>Speed 29.2 km/h Distance 6.84 km</desc>
<time>2013-07-05T17:41:22.91</time>
<name>647</name>
<sym>Dot</sym>
</trkpt>
<trkpt lat="42.870925" lon="-2.111858">
<ele>1675.5</ele>
<desc>Speed 26.5 km/h Distance 6.85 km</desc>
<time>2013-07-05T17:41:23.92</time>
<name>648</name>
<sym>Dot</sym>
</trkpt>
<trkpt lat="42.870915" lon="-2.111938">
<ele>1673.5</ele>
<desc>Speed 23.9 km/h Distance 6.86 km</desc>
<time>2013-07-05T17:41:25.05</time>
<name>649</name>
<sym>Dot</sym>
</trkpt>
<trkpt lat="42.870917" lon="-2.112010">
<ele>1671.5</ele>
<desc>Speed 21.3 km/h Distance 6.86 km</desc>
<time>2013-07-05T17:41:25.90</time>
<name>650</name>
<sym>Dot</sym>
</trkpt>
<trkpt lat="42.870923" lon="-2.112075">
<ele>1670.0</ele>
<desc>Speed 19.3 km/h Distance 6.87 km</desc>
<time>2013-07-05T17:41:26.89</time>
<name>651</name>
<sym>Dot</sym>
</trkpt>
<trkpt lat="42.870925" lon="-2.112143">
<ele>1668.5</ele>
<desc>Speed 20.5 km/h Distance 6.87 km</desc>
<time>2013-07-05T17:41:27.88</time>
<name>652</name>
<sym>Dot</sym>
</trkpt>
<trkpt lat="42.870915" lon="-2.112222">
<ele>1667.0</ele>
<desc>Speed 23.2 km/h Distance 6.88 km</desc>
<time>2013-07-05T17:41:28.87</time>
<name>653</name>
<sym>Dot</sym>
</trkpt>
<trkpt lat="42.870898" lon="-2.112300">
<ele>1665.5</ele>
<desc>Speed 24.2 km/h Distance 6.89 km</desc>
<time>2013-07-05T17:41:29.87</time>
<name>654</name>
<sym>Dot</sym>
</trkpt>
<trkpt lat="42.870887" lon="-2.112372">
<ele>1663.5</ele>
<desc>Speed 21.9 km/h Distance 6.89 km</desc>
<time>2013-07-05T17:41:30.86</time>
<name>655</name>
<sym>Dot</sym>
</trkpt>
<trkpt lat="42.870893" lon="-2.112427">
<ele>1661.0</ele>
<desc>Speed 16.1 km/h Distance 6.90 km</desc>
<time>2013-07-05T17:41:31.90</time>
<name>656</name>
<sym>Dot</sym>
</trkpt>
<trkpt lat="42.870958" lon="-2.112557">
<ele>1660.5</ele>
<desc>Speed 22.8 km/h Distance 6.91 km</desc>
<time>2013-07-05T17:41:33.84</time>
<name>657</name>
<sym>Dot</sym>
</trkpt>
<trkpt lat="42.870983" lon="-2.112618">
<ele>1659.0</ele>
<desc>Speed 21.4 km/h Distance 6.92 km</desc>
<time>2013-07-05T17:41:34.83</time>
<name>658</name>
<sym>Dot</sym>
</trkpt>
<trkpt lat="42.871005" lon="-2.112682">
<ele>1658.5</ele>
<desc>Speed 20.7 km/h Distance 6.92 km</desc>
<time>2013-07-05T17:41:35.82</time>
<name>659</name>
<sym>Dot</sym>
</trkpt>
<trkpt lat="42.871017" lon="-2.112742">
<ele>1658.0</ele>
<desc>Speed 18.3 km/h Distance 6.93 km</desc>
<time>2013-07-05T17:41:36.81</time>
<name>660</name>
<sym>Dot</sym>
</trkpt>
<trkpt lat="42.871017" lon="-2.112803">
<ele>1657.5</ele>
<desc>Speed 18.3 km/h Distance 6.93 km</desc>
<time>2013-07-05T17:41:37.81</time>
<name>661</name>
<sym>Dot</sym>
</trkpt>
<trkpt lat="42.871010" lon="-2.112877">
<ele>1655.5</ele>
<desc>Speed 21.2 km/h Distance 6.94 km</desc>
<time>2013-07-05T17:41:38.80</time>
<name>662</name>
<sym>Dot</sym>
</trkpt>
<trkpt lat="42.871005" lon="-2.112958">
<ele>1653.5</ele>
<desc>Speed 24.0 km/h Distance 6.94 km</desc>
<time>2013-07-05T17:41:39.89</time>
<name>663</name>
<sym>Dot</sym>
</trkpt>
<trkpt lat="42.871007" lon="-2.113050">
<ele>1653.5</ele>
<desc>Speed 26.8 km/h Distance 6.95 km</desc>
<time>2013-07-05T17:41:40.79</time>
<name>664</name>
<sym>Dot</sym>
</trkpt>
<trkpt lat="42.870997" lon="-2.113135">
<ele>1652.0</ele>
<desc>Speed 25.3 km/h Distance 6.96 km</desc>
<time>2013-07-05T17:41:41.78</time>
<name>665</name>
<sym>Dot</sym>
</trkpt>
<trkpt lat="42.870980" lon="-2.113222">
<ele>1651.0</ele>
<desc>Speed 26.0 km/h Distance 6.97 km</desc>
<time>2013-07-05T17:41:42.77</time>
<name>666</name>
<sym>Dot</sym>
</trkpt>
<trkpt lat="42.870960" lon="-2.113300">
<ele>1650.5</ele>
<desc>Speed 24.4 km/h Distance 6.97 km</desc>
<time>2013-07-05T17:41:43.76</time>
<name>667</name>
<sym>Dot</sym>
</trkpt>
<trkpt lat="42.870938" lon="-2.113367">
<ele>1650.5</ele>
<desc>Speed 21.1 km/h Distance 6.98 km</desc>
<time>2013-07-05T17:41:44.75</time>
<name>668</name>
<sym>Dot</sym>
</trkpt>
<trkpt lat="42.870937" lon="-2.113430">
<ele>1650.5</ele>
<desc>Speed 18.9 km/h Distance 6.98 km</desc>
<time>2013-07-05T17:41:45.75</time>
<name>669</name>
<sym>Dot</sym>
</trkpt>
<trkpt lat="42.870952" lon="-2.113498">
<ele>1650.0</ele>
<desc>Speed 21.1 km/h Distance 6.99 km</desc>
<time>2013-07-05T17:41:46.76</time>
<name>670</name>
<sym>Dot</sym>
</trkpt>
<trkpt lat="42.870987" lon="-2.113560">
<ele>1648.0</ele>
<desc>Speed 23.1 km/h Distance 7.00 km</desc>
<time>2013-07-05T17:41:47.88</time>
<name>671</name>
<sym>Dot</sym>
</trkpt>
<trkpt lat="42.871025" lon="-2.113605">
<ele>1646.0</ele>
<desc>Speed 20.7 km/h Distance 7.00 km</desc>
<time>2013-07-05T17:41:48.72</time>
<name>672</name>
<sym>Dot</sym>
</trkpt>
<trkpt lat="42.871063" lon="-2.113628">
<ele>1645.5</ele>
<desc>Speed 16.6 km/h Distance 7.01 km</desc>
<time>2013-07-05T17:41:49.71</time>
<name>673</name>
<sym>Dot</sym>
</trkpt>
<trkpt lat="42.871253" lon="-2.113455">
<ele>1644.0</ele>
<desc>Speed 30.9 km/h Distance 7.03 km</desc>
<time>2013-07-05T17:41:53.12</time>
<name>674</name>
<sym>Dot</sym>
</trkpt>
<trkpt lat="42.871310" lon="-2.113407">
<ele>1642.5</ele>
<desc>Speed 26.5 km/h Distance 7.04 km</desc>
<time>2013-07-05T17:41:54.11</time>
<name>675</name>
<sym>Dot</sym>
</trkpt>
<trkpt lat="42.871363" lon="-2.113413">
<ele>1642.0</ele>
<desc>Speed 21.4 km/h Distance 7.05 km</desc>
<time>2013-07-05T17:41:55.10</time>
<name>676</name>
<sym>Dot</sym>
</trkpt>
<trkpt lat="42.871415" lon="-2.113615">
<ele>1643.0</ele>
<desc>Speed 35.0 km/h Distance 7.06 km</desc>
<time>2013-07-05T17:41:57.10</time>
<name>677</name>
<sym>Dot</sym>
</trkpt>
<trkpt lat="42.871395" lon="-2.113728">
<ele>1641.0</ele>
<desc>Speed 33.9 km/h Distance 7.07 km</desc>
<time>2013-07-05T17:41:58.09</time>
<name>678</name>
<sym>Dot</sym>
</trkpt>
<trkpt lat="42.871382" lon="-2.113835">
<ele>1641.5</ele>
<desc>Speed 31.7 km/h Distance 7.08 km</desc>
<time>2013-07-05T17:41:59.08</time>
<name>679</name>
<sym>Dot</sym>
</trkpt>
<trkpt lat="42.871350" lon="-2.113923">
<ele>1641.5</ele>
<desc>Speed 29.6 km/h Distance 7.09 km</desc>
<time>2013-07-05T17:42:00.06</time>
<name>680</name>
<sym>Dot</sym>
</trkpt>
<trkpt lat="42.871317" lon="-2.114005">
<ele>1641.0</ele>
<desc>Speed 27.7 km/h Distance 7.10 km</desc>
<time>2013-07-05T17:42:01.06</time>
<name>681</name>
<sym>Dot</sym>
</trkpt>
<trkpt lat="42.871283" lon="-2.114083">
<ele>1640.0</ele>
<desc>Speed 26.7 km/h Distance 7.10 km</desc>
<time>2013-07-05T17:42:02.04</time>
<name>682</name>
<sym>Dot</sym>
</trkpt>
<trkpt lat="42.871257" lon="-2.114173">
<ele>1638.0</ele>
<desc>Speed 28.4 km/h Distance 7.11 km</desc>
<time>2013-07-05T17:42:03.03</time>
<name>683</name>
<sym>Dot</sym>
</trkpt>
<trkpt lat="42.871238" lon="-2.114292">
<ele>1636.0</ele>
<desc>Speed 35.4 km/h Distance 7.12 km</desc>
<time>2013-07-05T17:42:04.11</time>
<name>684</name>
<sym>Dot</sym>
</trkpt>
<trkpt lat="42.871195" lon="-2.114547">
<ele>1639.0</ele>
<desc>Speed 36.2 km/h Distance 7.14 km</desc>
<time>2013-07-05T17:42:06.03</time>
<name>685</name>
<sym>Dot</sym>
</trkpt>
<trkpt lat="42.871195" lon="-2.114763">
<ele>1638.5</ele>
<desc>Speed 19.2 km/h Distance 7.16 km</desc>
<time>2013-07-05T17:42:09.08</time>
<name>686</name>
<sym>Dot</sym>
</trkpt>
<trkpt lat="42.871195" lon="-2.114833">
<ele>1637.0</ele>
<desc>Speed 20.7 km/h Distance 7.17 km</desc>
<time>2013-07-05T17:42:10.07</time>
<name>687</name>
<sym>Dot</sym>
</trkpt>
<trkpt lat="42.871197" lon="-2.114905">
<ele>1635.5</ele>
<desc>Speed 21.5 km/h Distance 7.17 km</desc>
<time>2013-07-05T17:42:11.06</time>
<name>688</name>
<sym>Dot</sym>
</trkpt>
<trkpt lat="42.871208" lon="-2.114972">
<ele>1634.0</ele>
<desc>Speed 21.2 km/h Distance 7.18 km</desc>
<time>2013-07-05T17:42:12.12</time>
<name>689</name>
<sym>Dot</sym>
</trkpt>
<trkpt lat="42.871225" lon="-2.115030">
<ele>1633.5</ele>
<desc>Speed 19.2 km/h Distance 7.18 km</desc>
<time>2013-07-05T17:42:13.05</time>
<name>690</name>
<sym>Dot</sym>
</trkpt>
<trkpt lat="42.871255" lon="-2.115063">
<ele>1634.5</ele>
<desc>Speed 16.0 km/h Distance 7.19 km</desc>
<time>2013-07-05T17:42:14.04</time>
<name>691</name>
<sym>Dot</sym>
</trkpt>
<trkpt lat="42.871283" lon="-2.115103">
<ele>1633.0</ele>
<desc>Speed 16.9 km/h Distance 7.19 km</desc>
<time>2013-07-05T17:42:15.04</time>
<name>692</name>
<sym>Dot</sym>
</trkpt>
<trkpt lat="42.871308" lon="-2.115162">
<ele>1630.5</ele>
<desc>Speed 20.7 km/h Distance 7.20 km</desc>
<time>2013-07-05T17:42:16.04</time>
<name>693</name>
<sym>Dot</sym>
</trkpt>
<trkpt lat="42.871330" lon="-2.115215">
<ele>1628.0</ele>
<desc>Speed 19.0 km/h Distance 7.20 km</desc>
<time>2013-07-05T17:42:17.03</time>
<name>694</name>
<sym>Dot</sym>
</trkpt>
<trkpt lat="42.871335" lon="-2.115252">
<ele>1628.0</ele>
<desc>Speed 2.0 km/h Distance 7.21 km</desc>
<time>2013-07-05T17:42:20.15</time>
<name>695</name>
<sym>Dot</sym>
</trkpt>
<trkpt lat="42.871327" lon="-2.115250">
<ele>1626.0</ele>
<desc>Speed 1.4 km/h Distance 7.21 km</desc>
<time>2013-07-05T17:42:22.04</time>
<name>696</name>
<sym>Dot</sym>
</trkpt>
<trkpt lat="42.871327" lon="-2.115250">
<ele>1625.5</ele>
<desc>Speed 0.3 km/h Distance 7.21 km</desc>
<time>2013-07-05T17:42:23.04</time>
<name>697</name>
<sym>Dot</sym>
</trkpt>
<trkpt lat="42.871325" lon="-2.115250">
<ele>1625.5</ele>
<desc>Speed 0.2 km/h Distance 7.21 km</desc>
<time>2013-07-05T17:42:24.02</time>
<name>698</name>
<sym>Dot</sym>
</trkpt>
<trkpt lat="42.871325" lon="-2.115245">
<ele>1625.5</ele>
<desc>Speed 1.0 km/h Distance 7.21 km</desc>
<time>2013-07-05T17:42:25.01</time>
<name>699</name>
<sym>Dot</sym>
</trkpt>
<trkpt lat="42.871323" lon="-2.115245">
<ele>1625.0</ele>
<desc>Speed 0.4 km/h Distance 7.21 km</desc>
<time>2013-07-05T17:42:26.01</time>
<name>700</name>
<sym>Dot</sym>
</trkpt>
<trkpt lat="42.871322" lon="-2.115245">
<ele>1624.5</ele>
<desc>Speed 0.4 km/h Distance 7.21 km</desc>
<time>2013-07-05T17:42:27.01</time>
<name>701</name>
<sym>Dot</sym>
</trkpt>
<trkpt lat="42.871320" lon="-2.115245">
<ele>1624.0</ele>
<desc>Speed 0.2 km/h Distance 7.21 km</desc>
<time>2013-07-05T17:42:27.99</time>
<name>702</name>
<sym>Dot</sym>
</trkpt>
<trkpt lat="42.871320" lon="-2.115243">
<ele>1624.0</ele>
<desc>Speed 0.1 km/h Distance 7.21 km</desc>
<time>2013-07-05T17:42:29.11</time>
<name>703</name>
<sym>Dot</sym>
</trkpt>
<trkpt lat="42.871320" lon="-2.115243">
<ele>1623.5</ele>
<desc>Speed 0.2 km/h Distance 7.21 km</desc>
<time>2013-07-05T17:42:29.98</time>
<name>704</name>
<sym>Dot</sym>
</trkpt>
<trkpt lat="42.871317" lon="-2.115242">
<ele>1624.0</ele>
<desc>Speed 0.7 km/h Distance 7.21 km</desc>
<time>2013-07-05T17:42:30.97</time>
<name>705</name>
<sym>Dot</sym>
</trkpt>
<trkpt lat="42.871315" lon="-2.115238">
<ele>1623.5</ele>
<desc>Speed 0.2 km/h Distance 7.21 km</desc>
<time>2013-07-05T17:42:31.97</time>
<name>706</name>
<sym>Dot</sym>
</trkpt>
<trkpt lat="42.871313" lon="-2.115238">
<ele>1623.0</ele>
<desc>Speed 0.0 km/h Distance 7.21 km</desc>
<time>2013-07-05T17:42:33.00</time>
<name>707</name>
<sym>Dot</sym>
</trkpt>
<trkpt lat="42.871313" lon="-2.115237">
<ele>1623.0</ele>
<desc>Speed 0.2 km/h Distance 7.21 km</desc>
<time>2013-07-05T17:42:33.96</time>
<name>708</name>
<sym>Dot</sym>
</trkpt>
<trkpt lat="42.871312" lon="-2.115233">
<ele>1622.5</ele>
<desc>Speed 0.2 km/h Distance 7.21 km</desc>
<time>2013-07-05T17:42:34.96</time>
<name>709</name>
<sym>Dot</sym>
</trkpt>
<trkpt lat="42.871310" lon="-2.115232">
<ele>1622.0</ele>
<desc>Speed 0.3 km/h Distance 7.21 km</desc>
<time>2013-07-05T17:42:35.94</time>
<name>710</name>
<sym>Dot</sym>
</trkpt>
<trkpt lat="42.871308" lon="-2.115230">
<ele>1621.5</ele>
<desc>Speed 0.4 km/h Distance 7.21 km</desc>
<time>2013-07-05T17:42:37.04</time>
<name>711</name>
<sym>Dot</sym>
</trkpt>
<trkpt lat="42.871307" lon="-2.115230">
<ele>1621.5</ele>
<desc>Speed 0.3 km/h Distance 7.21 km</desc>
<time>2013-07-05T17:42:37.93</time>
<name>712</name>
<sym>Dot</sym>
</trkpt>
<trkpt lat="42.871307" lon="-2.115230">
<ele>1621.5</ele>
<desc>Speed 0.2 km/h Distance 7.21 km</desc>
<time>2013-07-05T17:42:38.92</time>
<name>713</name>
<sym>Dot</sym>
</trkpt>
<trkpt lat="42.871307" lon="-2.115228">
<ele>1621.5</ele>
<desc>Speed 0.2 km/h Distance 7.21 km</desc>
<time>2013-07-05T17:42:39.91</time>
<name>714</name>
<sym>Dot</sym>
</trkpt>
<trkpt lat="42.871307" lon="-2.115228">
<ele>1621.5</ele>
<desc>Speed 0.3 km/h Distance 7.21 km</desc>
<time>2013-07-05T17:42:40.92</time>
<name>715</name>
<sym>Dot</sym>
</trkpt>
<trkpt lat="42.871303" lon="-2.115227">
<ele>1621.0</ele>
<desc>Speed 0.8 km/h Distance 7.21 km</desc>
<time>2013-07-05T17:42:41.91</time>
<name>716</name>
<sym>Dot</sym>
</trkpt>
<trkpt lat="42.871303" lon="-2.115220">
<ele>1621.0</ele>
<desc>Speed 1.8 km/h Distance 7.21 km</desc>
<time>2013-07-05T17:42:42.91</time>
<name>717</name>
<sym>Dot</sym>
</trkpt>
<trkpt lat="42.871303" lon="-2.115220">
<ele>1620.5</ele>
<desc>Speed 0.6 km/h Distance 7.21 km</desc>
<time>2013-07-05T17:42:43.93</time>
<name>718</name>
<sym>Dot</sym>
</trkpt>
<trkpt lat="42.871303" lon="-2.115213">
<ele>1620.0</ele>
<desc>Speed 0.3 km/h Distance 7.21 km</desc>
<time>2013-07-05T17:42:44.89</time>
<name>719</name>
<sym>Dot</sym>
</trkpt>
<trkpt lat="42.871303" lon="-2.115212">
<ele>1619.5</ele>
<desc>Speed 0.1 km/h Distance 7.21 km</desc>
<time>2013-07-05T17:42:45.88</time>
<name>720</name>
<sym>Dot</sym>
</trkpt>
<trkpt lat="42.871302" lon="-2.115212">
<ele>1619.5</ele>
<desc>Speed 0.0 km/h Distance 7.21 km</desc>
<time>2013-07-05T17:42:46.86</time>
<name>721</name>
<sym>Dot</sym>
</trkpt>
<trkpt lat="42.871302" lon="-2.115210">
<ele>1619.5</ele>
<desc>Speed 0.1 km/h Distance 7.21 km</desc>
<time>2013-07-05T17:42:47.86</time>
<name>722</name>
<sym>Dot</sym>
</trkpt>
<trkpt lat="42.871302" lon="-2.115210">
<ele>1619.5</ele>
<desc>Speed 0.1 km/h Distance 7.21 km</desc>
<time>2013-07-05T17:42:48.85</time>
<name>723</name>
<sym>Dot</sym>
</trkpt>
<trkpt lat="42.871300" lon="-2.115208">
<ele>1619.5</ele>
<desc>Speed 0.4 km/h Distance 7.21 km</desc>
<time>2013-07-05T17:42:49.84</time>
<name>724</name>
<sym>Dot</sym>
</trkpt>
<trkpt lat="42.871300" lon="-2.115208">
<ele>1619.5</ele>
<desc>Speed 0.1 km/h Distance 7.21 km</desc>
<time>2013-07-05T17:42:50.84</time>
<name>725</name>
<sym>Dot</sym>
</trkpt>
<trkpt lat="42.871300" lon="-2.115207">
<ele>1619.5</ele>
<desc>Speed 0.1 km/h Distance 7.21 km</desc>
<time>2013-07-05T17:42:51.94</time>
<name>726</name>
<sym>Dot</sym>
</trkpt>
<trkpt lat="42.871298" lon="-2.115207">
<ele>1619.5</ele>
<desc>Speed 0.3 km/h Distance 7.21 km</desc>
<time>2013-07-05T17:42:52.82</time>
<name>727</name>
<sym>Dot</sym>
</trkpt>
<trkpt lat="42.871298" lon="-2.115207">
<ele>1619.5</ele>
<desc>Speed 0.2 km/h Distance 7.21 km</desc>
<time>2013-07-05T17:42:53.80</time>
<name>728</name>
<sym>Dot</sym>
</trkpt>
<trkpt lat="42.871298" lon="-2.115207">
<ele>1619.5</ele>
<desc>Speed 0.3 km/h Distance 7.21 km</desc>
<time>2013-07-05T17:42:54.79</time>
<name>729</name>
<sym>Dot</sym>
</trkpt>
<trkpt lat="42.871298" lon="-2.115207">
<ele>1619.0</ele>
<desc>Speed 0.2 km/h Distance 7.21 km</desc>
<time>2013-07-05T17:42:55.79</time>
<name>730</name>
<sym>Dot</sym>
</trkpt>
<trkpt lat="42.871298" lon="-2.115207">
<ele>1619.0</ele>
<desc>Speed 0.0 km/h Distance 7.21 km</desc>
<time>2013-07-05T17:42:56.78</time>
<name>731</name>
<sym>Dot</sym>
</trkpt>
<trkpt lat="42.871298" lon="-2.115205">
<ele>1619.0</ele>
<desc>Speed 0.1 km/h Distance 7.21 km</desc>
<time>2013-07-05T17:42:57.77</time>
<name>732</name>
<sym>Dot</sym>
</trkpt>
<trkpt lat="42.871298" lon="-2.115205">
<ele>1619.0</ele>
<desc>Speed 0.5 km/h Distance 7.21 km</desc>
<time>2013-07-05T17:42:58.79</time>
<name>733</name>
<sym>Dot</sym>
</trkpt>
<trkpt lat="42.871298" lon="-2.115205">
<ele>1619.0</ele>
<desc>Speed 0.4 km/h Distance 7.21 km</desc>
<time>2013-07-05T17:42:59.91</time>
<name>734</name>
<sym>Dot</sym>
</trkpt>
<trkpt lat="42.871298" lon="-2.115205">
<ele>1619.0</ele>
<desc>Speed 0.1 km/h Distance 7.21 km</desc>
<time>2013-07-05T17:43:00.75</time>
<name>735</name>
<sym>Dot</sym>
</trkpt>
<trkpt lat="42.871298" lon="-2.115205">
<ele>1619.0</ele>
<desc>Speed 0.1 km/h Distance 7.21 km</desc>
<time>2013-07-05T17:43:01.74</time>
<name>736</name>
<sym>Dot</sym>
</trkpt>
<trkpt lat="42.871298" lon="-2.115203">
<ele>1619.0</ele>
<desc>Speed 0.3 km/h Distance 7.21 km</desc>
<time>2013-07-05T17:43:02.73</time>
<name>737</name>
<sym>Dot</sym>
</trkpt>
<trkpt lat="42.871298" lon="-2.115203">
<ele>1619.0</ele>
<desc>Speed 0.4 km/h Distance 7.21 km</desc>
<time>2013-07-05T17:43:03.71</time>
<name>738</name>
<sym>Dot</sym>
</trkpt>
<trkpt lat="42.871297" lon="-2.115198">
<ele>1618.5</ele>
<desc>Speed 1.2 km/h Distance 7.21 km</desc>
<time>2013-07-05T17:43:04.70</time>
<name>739</name>
<sym>Dot</sym>
</trkpt>
<trkpt lat="42.871295" lon="-2.115195">
<ele>1618.0</ele>
<desc>Speed 0.4 km/h Distance 7.21 km</desc>
<time>2013-07-05T17:43:05.69</time>
<name>740</name>
<sym>Dot</sym>
</trkpt>
<trkpt lat="42.871295" lon="-2.115190">
<ele>1618.0</ele>
<desc>Speed 1.4 km/h Distance 7.21 km</desc>
<time>2013-07-05T17:43:06.73</time>
<name>741</name>
<sym>Dot</sym>
</trkpt>
<trkpt lat="42.871293" lon="-2.115190">
<ele>1617.5</ele>
<desc>Speed 0.3 km/h Distance 7.21 km</desc>
<time>2013-07-05T17:43:07.80</time>
<name>742</name>
<sym>Dot</sym>
</trkpt>
<trkpt lat="42.871287" lon="-2.115192">
<ele>1617.5</ele>
<desc>Speed 2.5 km/h Distance 7.21 km</desc>
<time>2013-07-05T17:43:08.67</time>
<name>743</name>
<sym>Dot</sym>
</trkpt>
<trkpt lat="42.871277" lon="-2.115185">
<ele>1617.0</ele>
<desc>Speed 3.6 km/h Distance 7.22 km</desc>
<time>2013-07-05T17:43:09.67</time>
<name>744</name>
<sym>Dot</sym>
</trkpt>
<trkpt lat="42.871270" lon="-2.115183">
<ele>1617.0</ele>
<desc>Speed 1.5 km/h Distance 7.22 km</desc>
<time>2013-07-05T17:43:10.66</time>
<name>745</name>
<sym>Dot</sym>
</trkpt>
<trkpt lat="42.871268" lon="-2.115178">
<ele>1616.0</ele>
<desc>Speed 0.7 km/h Distance 7.22 km</desc>
<time>2013-07-05T17:43:11.65</time>
<name>746</name>
<sym>Dot</sym>
</trkpt>
<trkpt lat="42.871262" lon="-2.115170">
<ele>1615.5</ele>
<desc>Speed 2.4 km/h Distance 7.22 km</desc>
<time>2013-07-05T17:43:12.65</time>
<name>747</name>
<sym>Dot</sym>
</trkpt>
<trkpt lat="42.871255" lon="-2.115155">
<ele>1614.5</ele>
<desc>Speed 4.1 km/h Distance 7.22 km</desc>
<time>2013-07-05T17:43:13.64</time>
<name>748</name>
<sym>Dot</sym>
</trkpt>
<trkpt lat="42.871243" lon="-2.115138">
<ele>1614.0</ele>
<desc>Speed 5.7 km/h Distance 7.22 km</desc>
<time>2013-07-05T17:43:14.69</time>
<name>749</name>
<sym>Dot</sym>
</trkpt>
<trkpt lat="42.871233" lon="-2.115120">
<ele>1613.5</ele>
<desc>Speed 5.5 km/h Distance 7.22 km</desc>
<time>2013-07-05T17:43:15.63</time>
<name>750</name>
<sym>Dot</sym>
</trkpt>
<trkpt lat="42.871225" lon="-2.115103">
<ele>1613.0</ele>
<desc>Speed 5.5 km/h Distance 7.23 km</desc>
<time>2013-07-05T17:43:16.62</time>
<name>751</name>
<sym>Dot</sym>
</trkpt>
<trkpt lat="42.871217" lon="-2.115087">
<ele>1613.0</ele>
<desc>Speed 5.2 km/h Distance 7.23 km</desc>
<time>2013-07-05T17:43:18.03</time>
<name>752</name>
<sym>Dot</sym>
</trkpt>
<trkpt lat="42.871203" lon="-2.115042">
<ele>1612.0</ele>
<desc>Speed 5.9 km/h Distance 7.23 km</desc>
<time>2013-07-05T17:43:19.60</time>
<name>753</name>
<sym>Dot</sym>
</trkpt>
<trkpt lat="42.871195" lon="-2.115023">
<ele>1612.0</ele>
<desc>Speed 5.4 km/h Distance 7.23 km</desc>
<time>2013-07-05T17:43:20.59</time>
<name>754</name>
<sym>Dot</sym>
</trkpt>
<trkpt lat="42.871185" lon="-2.115005">
<ele>1611.5</ele>
<desc>Speed 6.2 km/h Distance 7.23 km</desc>
<time>2013-07-05T17:43:21.59</time>
<name>755</name>
<sym>Dot</sym>
</trkpt>
<trkpt lat="42.871178" lon="-2.114987">
<ele>1611.5</ele>
<desc>Speed 5.4 km/h Distance 7.24 km</desc>
<time>2013-07-05T17:43:22.58</time>
<name>756</name>
<sym>Dot</sym>
</trkpt>
<trkpt lat="42.871173" lon="-2.114968">
<ele>1611.5</ele>
<desc>Speed 5.5 km/h Distance 7.24 km</desc>
<time>2013-07-05T17:43:23.75</time>
<name>757</name>
<sym>Dot</sym>
</trkpt>
<trkpt lat="42.871170" lon="-2.114950">
<ele>1611.5</ele>
<desc>Speed 5.1 km/h Distance 7.24 km</desc>
<time>2013-07-05T17:43:25.10</time>
<name>758</name>
<sym>Dot</sym>
</trkpt>
<trkpt lat="42.871162" lon="-2.114932">
<ele>1611.0</ele>
<desc>Speed 6.2 km/h Distance 7.24 km</desc>
<time>2013-07-05T17:43:28.45</time>
<name>759</name>
<sym>Dot</sym>
</trkpt>
<trkpt lat="42.871133" lon="-2.114882">
<ele>1610.5</ele>
<desc>Speed 5.7 km/h Distance 7.25 km</desc>
<time>2013-07-05T17:43:29.00</time>
<name>760</name>
<sym>Dot</sym>
</trkpt>
<trkpt lat="42.871133" lon="-2.114868">
<ele>1610.0</ele>
<desc>Speed 1.8 km/h Distance 7.25 km</desc>
<time>2013-07-05T17:43:32.06</time>
<name>761</name>
<sym>Dot</sym>
</trkpt>
<trkpt lat="42.871137" lon="-2.114865">
<ele>1610.0</ele>
<desc>Speed 0.4 km/h Distance 7.25 km</desc>
<time>2013-07-05T17:43:32.89</time>
<name>762</name>
<sym>Dot</sym>
</trkpt>
<trkpt lat="42.871138" lon="-2.114863">
<ele>1610.0</ele>
<desc>Speed 0.2 km/h Distance 7.25 km</desc>
<time>2013-07-05T17:43:33.89</time>
<name>763</name>
<sym>Dot</sym>
</trkpt>
<trkpt lat="42.871138" lon="-2.114863">
<ele>1609.5</ele>
<desc>Speed 0.2 km/h Distance 7.25 km</desc>
<time>2013-07-05T17:43:34.88</time>
<name>764</name>
<sym>Dot</sym>
</trkpt>
<trkpt lat="42.871138" lon="-2.114862">
<ele>1609.5</ele>
<desc>Speed 0.1 km/h Distance 7.25 km</desc>
<time>2013-07-05T17:43:35.86</time>
<name>765</name>
<sym>Dot</sym>
</trkpt>
<trkpt lat="42.871138" lon="-2.114862">
<ele>1609.0</ele>
<desc>Speed 0.3 km/h Distance 7.25 km</desc>
<time>2013-07-05T17:43:36.85</time>
<name>766</name>
<sym>Dot</sym>
</trkpt>
<trkpt lat="42.871138" lon="-2.114860">
<ele>1608.5</ele>
<desc>Speed 0.2 km/h Distance 7.25 km</desc>
<time>2013-07-05T17:43:37.98</time>
<name>767</name>
<sym>Dot</sym>
</trkpt>
<trkpt lat="42.871138" lon="-2.114860">
<ele>1608.5</ele>
<desc>Speed 0.3 km/h Distance 7.25 km</desc>
<time>2013-07-05T17:43:38.85</time>
<name>768</name>
<sym>Dot</sym>
</trkpt>
<trkpt lat="42.871138" lon="-2.114860">
<ele>1608.5</ele>
<desc>Speed 0.4 km/h Distance 7.25 km</desc>
<time>2013-07-05T17:43:39.85</time>
<name>769</name>
<sym>Dot</sym>
</trkpt>
<trkpt lat="42.871138" lon="-2.114862">
<ele>1608.5</ele>
<desc>Speed 0.3 km/h Distance 7.25 km</desc>
<time>2013-07-05T17:43:41.16</time>
<name>770</name>
<sym>Dot</sym>
</trkpt>
<trkpt lat="42.871137" lon="-2.114862">
<ele>1608.5</ele>
<desc>Speed 0.6 km/h Distance 7.25 km</desc>
<time>2013-07-05T17:43:41.94</time>
<name>771</name>
<sym>Dot</sym>
</trkpt>
<trkpt lat="42.871137" lon="-2.114862">
<ele>1608.5</ele>
<desc>Speed 0.7 km/h Distance 7.25 km</desc>
<time>2013-07-05T17:43:42.84</time>
<name>772</name>
<sym>Dot</sym>
</trkpt>
<trkpt lat="42.871137" lon="-2.114862">
<ele>1608.5</ele>
<desc>Speed 0.4 km/h Distance 7.25 km</desc>
<time>2013-07-05T17:43:43.83</time>
<name>773</name>
<sym>Dot</sym>
</trkpt>
<trkpt lat="42.871135" lon="-2.114868">
<ele>1608.0</ele>
<desc>Speed 1.8 km/h Distance 7.25 km</desc>
<time>2013-07-05T17:43:44.82</time>
<name>774</name>
<sym>Dot</sym>
</trkpt>
<trkpt lat="42.871133" lon="-2.114867">
<ele>1607.5</ele>
<desc>Speed 0.3 km/h Distance 7.25 km</desc>
<time>2013-07-05T17:43:45.80</time>
<name>775</name>
<sym>Dot</sym>
</trkpt>
<trkpt lat="42.871123" lon="-2.114918">
<ele>1608.0</ele>
<desc>Speed 7.0 km/h Distance 7.25 km</desc>
<time>2013-07-05T17:43:47.87</time>
<name>776</name>
<sym>Dot</sym>
</trkpt>
<trkpt lat="42.871123" lon="-2.114918">
<ele>1608.0</ele>
<desc>Speed 0.2 km/h Distance 7.25 km</desc>
<time>2013-07-05T17:43:49.79</time>
<name>777</name>
<sym>Dot</sym>
</trkpt>
<trkpt lat="42.871123" lon="-2.114918">
<ele>1608.0</ele>
<desc>Speed 0.2 km/h Distance 7.25 km</desc>
<time>2013-07-05T17:43:50.79</time>
<name>778</name>
<sym>Dot</sym>
</trkpt>
<trkpt lat="42.871125" lon="-2.114918">
<ele>1608.0</ele>
<desc>Speed 0.3 km/h Distance 7.25 km</desc>
<time>2013-07-05T17:43:51.78</time>
<name>779</name>
<sym>Dot</sym>
</trkpt>
<trkpt lat="42.871125" lon="-2.114918">
<ele>1607.5</ele>
<desc>Speed 0.4 km/h Distance 7.25 km</desc>
<time>2013-07-05T17:43:52.77</time>
<name>780</name>
<sym>Dot</sym>
</trkpt>
<trkpt lat="42.871125" lon="-2.114920">
<ele>1607.5</ele>
<desc>Speed 0.4 km/h Distance 7.25 km</desc>
<time>2013-07-05T17:43:53.85</time>
<name>781</name>
<sym>Dot</sym>
</trkpt>
<trkpt lat="42.871125" lon="-2.114920">
<ele>1607.5</ele>
<desc>Speed 0.3 km/h Distance 7.25 km</desc>
<time>2013-07-05T17:43:54.76</time>
<name>782</name>
<sym>Dot</sym>
</trkpt>
<trkpt lat="42.871125" lon="-2.114920">
<ele>1607.5</ele>
<desc>Speed 0.0 km/h Distance 7.25 km</desc>
<time>2013-07-05T17:43:55.75</time>
<name>783</name>
<sym>Dot</sym>
</trkpt>
<trkpt lat="42.871127" lon="-2.114920">
<ele>1607.5</ele>
<desc>Speed 0.2 km/h Distance 7.25 km</desc>
<time>2013-07-05T17:43:56.74</time>
<name>784</name>
<sym>Dot</sym>
</trkpt>
<trkpt lat="42.871127" lon="-2.114920">
<ele>1607.5</ele>
<desc>Speed 0.2 km/h Distance 7.25 km</desc>
<time>2013-07-05T17:43:57.73</time>
<name>785</name>
<sym>Dot</sym>
</trkpt>
<trkpt lat="42.871127" lon="-2.114920">
<ele>1607.5</ele>
<desc>Speed 0.2 km/h Distance 7.25 km</desc>
<time>2013-07-05T17:43:58.72</time>
<name>786</name>
<sym>Dot</sym>
</trkpt>
<trkpt lat="42.871127" lon="-2.114920">
<ele>1607.5</ele>
<desc>Speed 0.1 km/h Distance 7.25 km</desc>
<time>2013-07-05T17:43:59.81</time>
<name>787</name>
<sym>Dot</sym>
</trkpt>
<trkpt lat="42.871127" lon="-2.114920">
<ele>1607.5</ele>
<desc>Speed 0.1 km/h Distance 7.25 km</desc>
<time>2013-07-05T17:44:00.71</time>
<name>788</name>
<sym>Dot</sym>
</trkpt>
<trkpt lat="42.871127" lon="-2.114920">
<ele>1607.5</ele>
<desc>Speed 0.5 km/h Distance 7.25 km</desc>
<time>2013-07-05T17:44:01.70</time>
<name>789</name>
<sym>Dot</sym>
</trkpt>
<trkpt lat="42.871127" lon="-2.114920">
<ele>1607.5</ele>
<desc>Speed 0.4 km/h Distance 7.25 km</desc>
<time>2013-07-05T17:44:02.69</time>
<name>790</name>
<sym>Dot</sym>
</trkpt>
<trkpt lat="42.871127" lon="-2.114920">
<ele>1607.5</ele>
<desc>Speed 0.2 km/h Distance 7.25 km</desc>
<time>2013-07-05T17:44:03.68</time>
<name>791</name>
<sym>Dot</sym>
</trkpt>
<trkpt lat="42.871127" lon="-2.114920">
<ele>1607.5</ele>
<desc>Speed 0.3 km/h Distance 7.25 km</desc>
<time>2013-07-05T17:44:04.67</time>
<name>792</name>
<sym>Dot</sym>
</trkpt>
<trkpt lat="42.871127" lon="-2.114920">
<ele>1607.5</ele>
<desc>Speed 0.3 km/h Distance 7.25 km</desc>
<time>2013-07-05T17:44:05.76</time>
<name>793</name>
<sym>Dot</sym>
</trkpt>
<trkpt lat="42.871130" lon="-2.114923">
<ele>1608.5</ele>
<desc>Speed 1.0 km/h Distance 7.25 km</desc>
<time>2013-07-05T17:44:06.69</time>
<name>794</name>
<sym>Dot</sym>
</trkpt>
<trkpt lat="42.871133" lon="-2.114923">
<ele>1609.0</ele>
<desc>Speed 1.1 km/h Distance 7.25 km</desc>
<time>2013-07-05T17:44:07.65</time>
<name>795</name>
<sym>Dot</sym>
</trkpt>
<trkpt lat="42.871133" lon="-2.114923">
<ele>1609.0</ele>
<desc>Speed 0.3 km/h Distance 7.25 km</desc>
<time>2013-07-05T17:44:08.64</time>
<name>796</name>
<sym>Dot</sym>
</trkpt>
<trkpt lat="42.871135" lon="-2.114923">
<ele>1609.0</ele>
<desc>Speed 0.4 km/h Distance 7.26 km</desc>
<time>2013-07-05T17:44:09.63</time>
<name>797</name>
<sym>Dot</sym>
</trkpt>
<trkpt lat="42.871135" lon="-2.114923">
<ele>1609.0</ele>
<desc>Speed 0.5 km/h Distance 7.26 km</desc>
<time>2013-07-05T17:44:10.63</time>
<name>798</name>
<sym>Dot</sym>
</trkpt>
<trkpt lat="42.871135" lon="-2.114923">
<ele>1609.0</ele>
<desc>Speed 0.4 km/h Distance 7.26 km</desc>
<time>2013-07-05T17:44:11.63</time>
<name>799</name>
<sym>Dot</sym>
</trkpt>
<trkpt lat="42.871138" lon="-2.114925">
<ele>1609.0</ele>
<desc>Speed 1.4 km/h Distance 7.26 km</desc>
<time>2013-07-05T17:44:12.62</time>
<name>800</name>
<sym>Dot</sym>
</trkpt>
<trkpt lat="42.871140" lon="-2.114925">
<ele>1609.5</ele>
<desc>Speed 0.2 km/h Distance 7.26 km</desc>
<time>2013-07-05T17:44:13.61</time>
<name>801</name>
<sym>Dot</sym>
</trkpt>
<trkpt lat="42.871140" lon="-2.114925">
<ele>1609.5</ele>
<desc>Speed 0.2 km/h Distance 7.26 km</desc>
<time>2013-07-05T17:44:14.61</time>
<name>802</name>
<sym>Dot</sym>
</trkpt>
<trkpt lat="42.871140" lon="-2.114925">
<ele>1609.5</ele>
<desc>Speed 0.2 km/h Distance 7.26 km</desc>
<time>2013-07-05T17:44:15.66</time>
<name>803</name>
<sym>Dot</sym>
</trkpt>
<trkpt lat="42.871140" lon="-2.114925">
<ele>1609.0</ele>
<desc>Speed 0.1 km/h Distance 7.26 km</desc>
<time>2013-07-05T17:44:16.58</time>
<name>804</name>
<sym>Dot</sym>
</trkpt>
<trkpt lat="42.871140" lon="-2.114925">
<ele>1609.0</ele>
<desc>Speed 0.3 km/h Distance 7.26 km</desc>
<time>2013-07-05T17:44:17.57</time>
<name>805</name>
<sym>Dot</sym>
</trkpt>
<trkpt lat="42.871140" lon="-2.114925">
<ele>1609.0</ele>
<desc>Speed 0.3 km/h Distance 7.26 km</desc>
<time>2013-07-05T17:44:18.56</time>
<name>806</name>
<sym>Dot</sym>
</trkpt>
<trkpt lat="42.871140" lon="-2.114925">
<ele>1609.0</ele>
<desc>Speed 0.4 km/h Distance 7.26 km</desc>
<time>2013-07-05T17:44:19.57</time>
<name>807</name>
<sym>Dot</sym>
</trkpt>
<trkpt lat="42.871138" lon="-2.114920">
<ele>1609.5</ele>
<desc>Speed 1.7 km/h Distance 7.26 km</desc>
<time>2013-07-05T17:44:20.56</time>
<name>808</name>
<sym>Dot</sym>
</trkpt>
<trkpt lat="42.871137" lon="-2.114917">
<ele>1609.0</ele>
<desc>Speed 0.7 km/h Distance 7.26 km</desc>
<time>2013-07-05T17:44:21.59</time>
<name>809</name>
<sym>Dot</sym>
</trkpt>
<trkpt lat="42.871130" lon="-2.114915">
<ele>1609.0</ele>
<desc>Speed 2.1 km/h Distance 7.26 km</desc>
<time>2013-07-05T17:44:22.74</time>
<name>810</name>
<sym>Dot</sym>
</trkpt>
<trkpt lat="42.871127" lon="-2.114923">
<ele>1609.0</ele>
<desc>Speed 2.5 km/h Distance 7.26 km</desc>
<time>2013-07-05T17:44:23.54</time>
<name>811</name>
<sym>Dot</sym>
</trkpt>
<trkpt lat="42.871127" lon="-2.114933">
<ele>1609.0</ele>
<desc>Speed 3.5 km/h Distance 7.26 km</desc>
<time>2013-07-05T17:44:24.54</time>
<name>812</name>
<sym>Dot</sym>
</trkpt>
<trkpt lat="42.871117" lon="-2.114938">
<ele>1608.5</ele>
<desc>Speed 4.0 km/h Distance 7.26 km</desc>
<time>2013-07-05T17:44:25.53</time>
<name>813</name>
<sym>Dot</sym>
</trkpt>
<trkpt lat="42.871110" lon="-2.114942">
<ele>1608.5</ele>
<desc>Speed 3.1 km/h Distance 7.26 km</desc>
<time>2013-07-05T17:44:26.52</time>
<name>814</name>
<sym>Dot</sym>
</trkpt>
<trkpt lat="42.871110" lon="-2.114942">
<ele>1608.5</ele>
<desc>Speed 0.0 km/h Distance 7.26 km</desc>
<time>2013-07-05T17:44:27.51</time>
<name>815</name>
<sym>Dot</sym>
</trkpt>
<trkpt lat="42.871110" lon="-2.114942">
<ele>1608.5</ele>
<desc>Speed 0.0 km/h Distance 7.26 km</desc>
<time>2013-07-05T17:44:28.54</time>
<name>816</name>
<sym>Dot</sym>
</trkpt>
<trkpt lat="42.871110" lon="-2.114940">
<ele>1608.0</ele>
<desc>Speed 0.1 km/h Distance 7.26 km</desc>
<time>2013-07-05T17:44:29.50</time>
<name>817</name>
<sym>Dot</sym>
</trkpt>
<trkpt lat="42.871110" lon="-2.114940">
<ele>1608.0</ele>
<desc>Speed 0.3 km/h Distance 7.26 km</desc>
<time>2013-07-05T17:44:30.49</time>
<name>818</name>
<sym>Dot</sym>
</trkpt>
<trkpt lat="42.871112" lon="-2.114942">
<ele>1608.0</ele>
<desc>Speed 0.9 km/h Distance 7.26 km</desc>
<time>2013-07-05T17:44:31.48</time>
<name>819</name>
<sym>Dot</sym>
</trkpt>
<trkpt lat="42.871112" lon="-2.114942">
<ele>1608.0</ele>
<desc>Speed 0.2 km/h Distance 7.26 km</desc>
<time>2013-07-05T17:44:32.48</time>
<name>820</name>
<sym>Dot</sym>
</trkpt>
<trkpt lat="42.871112" lon="-2.114942">
<ele>1608.0</ele>
<desc>Speed 0.4 km/h Distance 7.26 km</desc>
<time>2013-07-05T17:44:33.47</time>
<name>821</name>
<sym>Dot</sym>
</trkpt>
<trkpt lat="42.871112" lon="-2.114942">
<ele>1608.0</ele>
<desc>Speed 0.2 km/h Distance 7.26 km</desc>
<time>2013-07-05T17:44:34.47</time>
<name>822</name>
<sym>Dot</sym>
</trkpt>
<trkpt lat="42.871112" lon="-2.114942">
<ele>1608.0</ele>
<desc>Speed 0.4 km/h Distance 7.26 km</desc>
<time>2013-07-05T17:44:35.46</time>
<name>823</name>
<sym>Dot</sym>
</trkpt>
<trkpt lat="42.871112" lon="-2.114942">
<ele>1608.0</ele>
<desc>Speed 0.5 km/h Distance 7.26 km</desc>
<time>2013-07-05T17:44:36.50</time>
<name>824</name>
<sym>Dot</sym>
</trkpt>
<trkpt lat="42.871112" lon="-2.114942">
<ele>1608.0</ele>
<desc>Speed 0.3 km/h Distance 7.26 km</desc>
<time>2013-07-05T17:44:37.44</time>
<name>825</name>
<sym>Dot</sym>
</trkpt>
<trkpt lat="42.871110" lon="-2.114938">
<ele>1608.5</ele>
<desc>Speed 0.8 km/h Distance 7.26 km</desc>
<time>2013-07-05T17:44:38.44</time>
<name>826</name>
<sym>Dot</sym>
</trkpt>
<trkpt lat="42.871108" lon="-2.114937">
<ele>1609.0</ele>
<desc>Speed 0.9 km/h Distance 7.26 km</desc>
<time>2013-07-05T17:44:39.42</time>
<name>827</name>
<sym>Dot</sym>
</trkpt>
<trkpt lat="42.871108" lon="-2.114937">
<ele>1609.0</ele>
<desc>Speed 0.3 km/h Distance 7.26 km</desc>
<time>2013-07-05T17:44:40.42</time>
<name>828</name>
<sym>Dot</sym>
</trkpt>
<trkpt lat="42.871108" lon="-2.114937">
<ele>1608.5</ele>
<desc>Speed 0.6 km/h Distance 7.26 km</desc>
<time>2013-07-05T17:44:41.41</time>
<name>829</name>
<sym>Dot</sym>
</trkpt>
<trkpt lat="42.871110" lon="-2.114937">
<ele>1608.5</ele>
<desc>Speed 0.2 km/h Distance 7.26 km</desc>
<time>2013-07-05T17:44:42.41</time>
<name>830</name>
<sym>Dot</sym>
</trkpt>
<trkpt lat="42.871110" lon="-2.114937">
<ele>1608.5</ele>
<desc>Speed 0.2 km/h Distance 7.26 km</desc>
<time>2013-07-05T17:44:43.55</time>
<name>831</name>
<sym>Dot</sym>
</trkpt>
<trkpt lat="42.871112" lon="-2.114938">
<ele>1608.5</ele>
<desc>Speed 0.3 km/h Distance 7.26 km</desc>
<time>2013-07-05T17:44:44.40</time>
<name>832</name>
<sym>Dot</sym>
</trkpt>
<trkpt lat="42.871112" lon="-2.114938">
<ele>1608.5</ele>
<desc>Speed 0.3 km/h Distance 7.26 km</desc>
<time>2013-07-05T17:44:45.46</time>
<name>833</name>
<sym>Dot</sym>
</trkpt>
<trkpt lat="42.871112" lon="-2.114938">
<ele>1608.5</ele>
<desc>Speed 0.6 km/h Distance 7.26 km</desc>
<time>2013-07-05T17:44:46.39</time>
<name>834</name>
<sym>Dot</sym>
</trkpt>
<trkpt lat="42.871112" lon="-2.114940">
<ele>1608.0</ele>
<desc>Speed 0.8 km/h Distance 7.26 km</desc>
<time>2013-07-05T17:44:47.39</time>
<name>835</name>
<sym>Dot</sym>
</trkpt>
<trkpt lat="42.871113" lon="-2.114940">
<ele>1608.0</ele>
<desc>Speed 0.2 km/h Distance 7.26 km</desc>
<time>2013-07-05T17:44:48.40</time>
<name>836</name>
<sym>Dot</sym>
</trkpt>
<trkpt lat="42.871113" lon="-2.114940">
<ele>1608.0</ele>
<desc>Speed 0.4 km/h Distance 7.26 km</desc>
<time>2013-07-05T17:44:49.57</time>
<name>837</name>
<sym>Dot</sym>
</trkpt>
<trkpt lat="42.871113" lon="-2.114940">
<ele>1608.0</ele>
<desc>Speed 0.3 km/h Distance 7.26 km</desc>
<time>2013-07-05T17:44:50.39</time>
<name>838</name>
<sym>Dot</sym>
</trkpt>
<trkpt lat="42.871113" lon="-2.114938">
<ele>1608.0</ele>
<desc>Speed 0.1 km/h Distance 7.26 km</desc>
<time>2013-07-05T17:44:51.38</time>
<name>839</name>
<sym>Dot</sym>
</trkpt>
<trkpt lat="42.871113" lon="-2.114938">
<ele>1608.0</ele>
<desc>Speed 0.3 km/h Distance 7.26 km</desc>
<time>2013-07-05T17:44:52.37</time>
<name>840</name>
<sym>Dot</sym>
</trkpt>
<trkpt lat="42.871113" lon="-2.114938">
<ele>1608.0</ele>
<desc>Speed 0.2 km/h Distance 7.26 km</desc>
<time>2013-07-05T17:44:53.35</time>
<name>841</name>
<sym>Dot</sym>
</trkpt>
<trkpt lat="42.871113" lon="-2.114938">
<ele>1608.0</ele>
<desc>Speed 0.1 km/h Distance 7.26 km</desc>
<time>2013-07-05T17:44:54.34</time>
<name>842</name>
<sym>Dot</sym>
</trkpt>
<trkpt lat="42.871113" lon="-2.114937">
<ele>1607.5</ele>
<desc>Speed 0.2 km/h Distance 7.26 km</desc>
<time>2013-07-05T17:44:56.34</time>
<name>843</name>
<sym>Dot</sym>
</trkpt>
<trkpt lat="42.871115" lon="-2.114937">
<ele>1607.5</ele>
<desc>Speed 0.3 km/h Distance 7.26 km</desc>
<time>2013-07-05T17:44:58.33</time>
<name>844</name>
<sym>Dot</sym>
</trkpt>
<trkpt lat="42.871115" lon="-2.114937">
<ele>1607.5</ele>
<desc>Speed 0.1 km/h Distance 7.26 km</desc>
<time>2013-07-05T17:44:59.33</time>
<name>845</name>
<sym>Dot</sym>
</trkpt>
<trkpt lat="42.871115" lon="-2.114937">
<ele>1607.5</ele>
<desc>Speed 0.4 km/h Distance 7.26 km</desc>
<time>2013-07-05T17:45:00.35</time>
<name>846</name>
<sym>Dot</sym>
</trkpt>
<trkpt lat="42.871113" lon="-2.114937">
<ele>1607.0</ele>
<desc>Speed 0.1 km/h Distance 7.26 km</desc>
<time>2013-07-05T17:45:02.31</time>
<name>847</name>
<sym>Dot</sym>
</trkpt>
<trkpt lat="42.871113" lon="-2.114937">
<ele>1607.0</ele>
<desc>Speed 0.3 km/h Distance 7.26 km</desc>
<time>2013-07-05T17:45:03.31</time>
<name>848</name>
<sym>Dot</sym>
</trkpt>
<trkpt lat="42.871115" lon="-2.114935">
<ele>1607.0</ele>
<desc>Speed 1.2 km/h Distance 7.26 km</desc>
<time>2013-07-05T17:45:04.29</time>
<name>849</name>
<sym>Dot</sym>
</trkpt>
<trkpt lat="42.871117" lon="-2.114937">
<ele>1607.0</ele>
<desc>Speed 0.8 km/h Distance 7.26 km</desc>
<time>2013-07-05T17:45:05.28</time>
<name>850</name>
<sym>Dot</sym>
</trkpt>
<trkpt lat="42.871117" lon="-2.114940">
<ele>1606.5</ele>
<desc>Speed 0.9 km/h Distance 7.26 km</desc>
<time>2013-07-05T17:45:06.27</time>
<name>851</name>
<sym>Dot</sym>
</trkpt>
<trkpt lat="42.871120" lon="-2.114940">
<ele>1606.5</ele>
<desc>Speed 0.4 km/h Distance 7.26 km</desc>
<time>2013-07-05T17:45:07.33</time>
<name>852</name>
<sym>Dot</sym>
</trkpt>
<trkpt lat="42.871125" lon="-2.114942">
<ele>1607.0</ele>
<desc>Speed 2.4 km/h Distance 7.26 km</desc>
<time>2013-07-05T17:45:08.26</time>
<name>853</name>
<sym>Dot</sym>
</trkpt>
<trkpt lat="42.871123" lon="-2.114943">
<ele>1607.0</ele>
<desc>Speed 1.2 km/h Distance 7.27 km</desc>
<time>2013-07-05T17:45:09.24</time>
<name>854</name>
<sym>Dot</sym>
</trkpt>
<trkpt lat="42.871127" lon="-2.114943">
<ele>1606.5</ele>
<desc>Speed 0.9 km/h Distance 7.27 km</desc>
<time>2013-07-05T17:45:10.24</time>
<name>855</name>
<sym>Dot</sym>
</trkpt>
<trkpt lat="42.871122" lon="-2.114943">
<ele>1606.0</ele>
<desc>Speed 2.4 km/h Distance 7.27 km</desc>
<time>2013-07-05T17:45:11.24</time>
<name>856</name>
<sym>Dot</sym>
</trkpt>
<trkpt lat="42.871122" lon="-2.114945">
<ele>1605.5</ele>
<desc>Speed 0.1 km/h Distance 7.27 km</desc>
<time>2013-07-05T17:45:12.24</time>
<name>857</name>
<sym>Dot</sym>
</trkpt>
<trkpt lat="42.871120" lon="-2.114948">
<ele>1605.5</ele>
<desc>Speed 1.8 km/h Distance 7.27 km</desc>
<time>2013-07-05T17:45:13.41</time>
<name>858</name>
<sym>Dot</sym>
</trkpt>
<trkpt lat="42.871120" lon="-2.114948">
<ele>1605.0</ele>
<desc>Speed 0.6 km/h Distance 7.27 km</desc>
<time>2013-07-05T17:45:14.22</time>
<name>859</name>
<sym>Dot</sym>
</trkpt>
<trkpt lat="42.871137" lon="-2.114950">
<ele>1606.5</ele>
<desc>Speed 7.2 km/h Distance 7.27 km</desc>
<time>2013-07-05T17:45:15.21</time>
<name>860</name>
<sym>Dot</sym>
</trkpt>
<trkpt lat="42.871138" lon="-2.114950">
<ele>1606.5</ele>
<desc>Speed 0.2 km/h Distance 7.27 km</desc>
<time>2013-07-05T17:45:16.20</time>
<name>861</name>
<sym>Dot</sym>
</trkpt>
<trkpt lat="42.871123" lon="-2.114950">
<ele>1605.5</ele>
<desc>Speed 0.9 km/h Distance 7.27 km</desc>
<time>2013-07-05T17:45:17.20</time>
<name>862</name>
<sym>Dot</sym>
</trkpt>
<trkpt lat="42.871120" lon="-2.114950">
<ele>1605.0</ele>
<desc>Speed 0.6 km/h Distance 7.27 km</desc>
<time>2013-07-05T17:45:18.19</time>
<name>863</name>
<sym>Dot</sym>
</trkpt>
<trkpt lat="42.871117" lon="-2.114950">
<ele>1605.0</ele>
<desc>Speed 1.7 km/h Distance 7.27 km</desc>
<time>2013-07-05T17:45:19.31</time>
<name>864</name>
<sym>Dot</sym>
</trkpt>
<trkpt lat="42.871123" lon="-2.114948">
<ele>1605.0</ele>
<desc>Speed 1.1 km/h Distance 7.27 km</desc>
<time>2013-07-05T17:45:20.19</time>
<name>865</name>
<sym>Dot</sym>
</trkpt>
<trkpt lat="42.871123" lon="-2.114948">
<ele>1605.0</ele>
<desc>Speed 0.5 km/h Distance 7.27 km</desc>
<time>2013-07-05T17:45:21.18</time>
<name>866</name>
<sym>Dot</sym>
</trkpt>
<trkpt lat="42.871130" lon="-2.114950">
<ele>1605.5</ele>
<desc>Speed 1.8 km/h Distance 7.27 km</desc>
<time>2013-07-05T17:45:22.17</time>
<name>867</name>
<sym>Dot</sym>
</trkpt>
<trkpt lat="42.871130" lon="-2.114952">
<ele>1606.0</ele>
<desc>Speed 1.4 km/h Distance 7.27 km</desc>
<time>2013-07-05T17:45:23.16</time>
<name>868</name>
<sym>Dot</sym>
</trkpt>
<trkpt lat="42.871118" lon="-2.114950">
<ele>1604.5</ele>
<desc>Speed 0.3 km/h Distance 7.27 km</desc>
<time>2013-07-05T17:45:24.16</time>
<name>869</name>
<sym>Dot</sym>
</trkpt>
<trkpt lat="42.871120" lon="-2.114952">
<ele>1604.5</ele>
<desc>Speed 0.2 km/h Distance 7.27 km</desc>
<time>2013-07-05T17:45:25.15</time>
<name>870</name>
<sym>Dot</sym>
</trkpt>
<trkpt lat="42.871113" lon="-2.114952">
<ele>1604.0</ele>
<desc>Speed 1.3 km/h Distance 7.27 km</desc>
<time>2013-07-05T17:45:26.24</time>
<name>871</name>
<sym>Dot</sym>
</trkpt>
<trkpt lat="42.871112" lon="-2.114952">
<ele>1604.0</ele>
<desc>Speed 0.7 km/h Distance 7.28 km</desc>
<time>2013-07-05T17:45:27.14</time>
<name>872</name>
<sym>Dot</sym>
</trkpt>
<trkpt lat="42.871110" lon="-2.114952">
<ele>1604.0</ele>
<desc>Speed 0.4 km/h Distance 7.28 km</desc>
<time>2013-07-05T17:45:28.13</time>
<name>873</name>
<sym>Dot</sym>
</trkpt>
<trkpt lat="42.871110" lon="-2.114952">
<ele>1604.0</ele>
<desc>Speed 0.2 km/h Distance 7.28 km</desc>
<time>2013-07-05T17:45:29.13</time>
<name>874</name>
<sym>Dot</sym>
</trkpt>
<trkpt lat="42.871110" lon="-2.114952">
<ele>1604.0</ele>
<desc>Speed 0.3 km/h Distance 7.28 km</desc>
<time>2013-07-05T17:45:30.12</time>
<name>875</name>
<sym>Dot</sym>
</trkpt>
<trkpt lat="42.871110" lon="-2.114952">
<ele>1604.0</ele>
<desc>Speed 0.3 km/h Distance 7.28 km</desc>
<time>2013-07-05T17:45:31.11</time>
<name>876</name>
<sym>Dot</sym>
</trkpt>
<trkpt lat="42.871110" lon="-2.114953">
<ele>1604.0</ele>
<desc>Speed 0.4 km/h Distance 7.28 km</desc>
<time>2013-07-05T17:45:32.10</time>
<name>877</name>
<sym>Dot</sym>
</trkpt>
<trkpt lat="42.871110" lon="-2.114953">
<ele>1604.0</ele>
<desc>Speed 0.4 km/h Distance 7.28 km</desc>
<time>2013-07-05T17:45:33.19</time>
<name>878</name>
<sym>Dot</sym>
</trkpt>
<trkpt lat="42.871110" lon="-2.114953">
<ele>1604.0</ele>
<desc>Speed 0.1 km/h Distance 7.28 km</desc>
<time>2013-07-05T17:45:34.09</time>
<name>879</name>
<sym>Dot</sym>
</trkpt>
<trkpt lat="42.871108" lon="-2.114953">
<ele>1604.0</ele>
<desc>Speed 0.2 km/h Distance 7.28 km</desc>
<time>2013-07-05T17:45:35.09</time>
<name>880</name>
<sym>Dot</sym>
</trkpt>
<trkpt lat="42.871110" lon="-2.114953">
<ele>1604.5</ele>
<desc>Speed 0.3 km/h Distance 7.28 km</desc>
<time>2013-07-05T17:45:36.08</time>
<name>881</name>
<sym>Dot</sym>
</trkpt>
<trkpt lat="42.871110" lon="-2.114953">
<ele>1604.5</ele>
<desc>Speed 0.0 km/h Distance 7.28 km</desc>
<time>2013-07-05T17:45:37.07</time>
<name>882</name>
<sym>Dot</sym>
</trkpt>
<trkpt lat="42.871110" lon="-2.114955">
<ele>1604.5</ele>
<desc>Speed 0.2 km/h Distance 7.28 km</desc>
<time>2013-07-05T17:45:38.07</time>
<name>883</name>
<sym>Dot</sym>
</trkpt>
<trkpt lat="42.871110" lon="-2.114955">
<ele>1604.5</ele>
<desc>Speed 0.4 km/h Distance 7.28 km</desc>
<time>2013-07-05T17:45:39.09</time>
<name>884</name>
<sym>Dot</sym>
</trkpt>
<trkpt lat="42.871110" lon="-2.114955">
<ele>1605.0</ele>
<desc>Speed 0.4 km/h Distance 7.28 km</desc>
<time>2013-07-05T17:45:40.05</time>
<name>885</name>
<sym>Dot</sym>
</trkpt>
<trkpt lat="42.871110" lon="-2.114955">
<ele>1605.0</ele>
<desc>Speed 0.5 km/h Distance 7.28 km</desc>
<time>2013-07-05T17:45:41.03</time>
<name>886</name>
<sym>Dot</sym>
</trkpt>
<trkpt lat="42.871110" lon="-2.114955">
<ele>1605.0</ele>
<desc>Speed 0.4 km/h Distance 7.28 km</desc>
<time>2013-07-05T17:45:42.03</time>
<name>887</name>
<sym>Dot</sym>
</trkpt>
<trkpt lat="42.871110" lon="-2.114955">
<ele>1605.0</ele>
<desc>Speed 0.4 km/h Distance 7.28 km</desc>
<time>2013-07-05T17:45:43.01</time>
<name>888</name>
<sym>Dot</sym>
</trkpt>
<trkpt lat="42.871110" lon="-2.114955">
<ele>1605.0</ele>
<desc>Speed 0.3 km/h Distance 7.28 km</desc>
<time>2013-07-05T17:45:44.01</time>
<name>889</name>
<sym>Dot</sym>
</trkpt>
<trkpt lat="42.871108" lon="-2.114957">
<ele>1605.0</ele>
<desc>Speed 0.5 km/h Distance 7.28 km</desc>
<time>2013-07-05T17:45:45.03</time>
<name>890</name>
<sym>Dot</sym>
</trkpt>
<trkpt lat="42.871108" lon="-2.114957">
<ele>1605.0</ele>
<desc>Speed 0.4 km/h Distance 7.28 km</desc>
<time>2013-07-05T17:45:46.20</time>
<name>891</name>
<sym>Dot</sym>
</trkpt>
<trkpt lat="42.871108" lon="-2.114957">
<ele>1605.0</ele>
<desc>Speed 0.0 km/h Distance 7.28 km</desc>
<time>2013-07-05T17:45:47.00</time>
<name>892</name>
<sym>Dot</sym>
</trkpt>
<trkpt lat="42.871108" lon="-2.114957">
<ele>1605.0</ele>
<desc>Speed 0.4 km/h Distance 7.28 km</desc>
<time>2013-07-05T17:45:47.99</time>
<name>893</name>
<sym>Dot</sym>
</trkpt>
<trkpt lat="42.871108" lon="-2.114957">
<ele>1605.0</ele>
<desc>Speed 0.3 km/h Distance 7.28 km</desc>
<time>2013-07-05T17:45:48.98</time>
<name>894</name>
<sym>Dot</sym>
</trkpt>
<trkpt lat="42.871108" lon="-2.114957">
<ele>1605.5</ele>
<desc>Speed 0.3 km/h Distance 7.28 km</desc>
<time>2013-07-05T17:45:49.98</time>
<name>895</name>
<sym>Dot</sym>
</trkpt>
<trkpt lat="42.871108" lon="-2.114957">
<ele>1605.5</ele>
<desc>Speed 0.1 km/h Distance 7.28 km</desc>
<time>2013-07-05T17:45:50.97</time>
<name>896</name>
<sym>Dot</sym>
</trkpt>
<trkpt lat="42.871110" lon="-2.114957">
<ele>1605.5</ele>
<desc>Speed 0.0 km/h Distance 7.28 km</desc>
<time>2013-07-05T17:45:52.10</time>
<name>897</name>
<sym>Dot</sym>
</trkpt>
<trkpt lat="42.871110" lon="-2.114958">
<ele>1605.5</ele>
<desc>Speed 0.3 km/h Distance 7.28 km</desc>
<time>2013-07-05T17:45:52.96</time>
<name>898</name>
<sym>Dot</sym>
</trkpt>
<trkpt lat="42.871110" lon="-2.114958">
<ele>1605.5</ele>
<desc>Speed 0.2 km/h Distance 7.28 km</desc>
<time>2013-07-05T17:45:53.95</time>
<name>899</name>
<sym>Dot</sym>
</trkpt>
<trkpt lat="42.871110" lon="-2.114958">
<ele>1606.0</ele>
<desc>Speed 0.0 km/h Distance 7.28 km</desc>
<time>2013-07-05T17:45:54.95</time>
<name>900</name>
<sym>Dot</sym>
</trkpt>
<trkpt lat="42.871110" lon="-2.114958">
<ele>1606.0</ele>
<desc>Speed 0.2 km/h Distance 7.28 km</desc>
<time>2013-07-05T17:45:55.94</time>
<name>901</name>
<sym>Dot</sym>
</trkpt>
<trkpt lat="42.871110" lon="-2.114958">
<ele>1606.0</ele>
<desc>Speed 0.2 km/h Distance 7.28 km</desc>
<time>2013-07-05T17:45:56.93</time>
<name>902</name>
<sym>Dot</sym>
</trkpt>
<trkpt lat="42.871110" lon="-2.114958">
<ele>1606.0</ele>
<desc>Speed 0.1 km/h Distance 7.28 km</desc>
<time>2013-07-05T17:45:57.91</time>
<name>903</name>
<sym>Dot</sym>
</trkpt>
<trkpt lat="42.871112" lon="-2.114958">
<ele>1606.0</ele>
<desc>Speed 0.0 km/h Distance 7.28 km</desc>
<time>2013-07-05T17:45:59.04</time>
<name>904</name>
<sym>Dot</sym>
</trkpt>
<trkpt lat="42.871112" lon="-2.114958">
<ele>1606.0</ele>
<desc>Speed 0.2 km/h Distance 7.28 km</desc>
<time>2013-07-05T17:45:59.90</time>
<name>905</name>
<sym>Dot</sym>
</trkpt>
<trkpt lat="42.871112" lon="-2.114958">
<ele>1606.0</ele>
<desc>Speed 0.1 km/h Distance 7.28 km</desc>
<time>2013-07-05T17:46:00.89</time>
<name>906</name>
<sym>Dot</sym>
</trkpt>
<trkpt lat="42.871112" lon="-2.114958">
<ele>1606.0</ele>
<desc>Speed 0.0 km/h Distance 7.28 km</desc>
<time>2013-07-05T17:46:01.88</time>
<name>907</name>
<sym>Dot</sym>
</trkpt>
<trkpt lat="42.871112" lon="-2.114958">
<ele>1606.0</ele>
<desc>Speed 0.1 km/h Distance 7.28 km</desc>
<time>2013-07-05T17:46:02.87</time>
<name>908</name>
<sym>Dot</sym>
</trkpt>
<trkpt lat="42.871112" lon="-2.114958">
<ele>1606.0</ele>
<desc>Speed 0.2 km/h Distance 7.28 km</desc>
<time>2013-07-05T17:46:03.86</time>
<name>909</name>
<sym>Dot</sym>
</trkpt>
<trkpt lat="42.871112" lon="-2.114958">
<ele>1606.0</ele>
<desc>Speed 0.3 km/h Distance 7.28 km</desc>
<time>2013-07-05T17:46:04.85</time>
<name>910</name>
<sym>Dot</sym>
</trkpt>
<trkpt lat="42.871112" lon="-2.114958">
<ele>1606.0</ele>
<desc>Speed 0.2 km/h Distance 7.28 km</desc>
<time>2013-07-05T17:46:05.93</time>
<name>911</name>
<sym>Dot</sym>
</trkpt>
<trkpt lat="42.871112" lon="-2.114958">
<ele>1606.0</ele>
<desc>Speed 0.3 km/h Distance 7.28 km</desc>
<time>2013-07-05T17:46:06.85</time>
<name>912</name>
<sym>Dot</sym>
</trkpt>
<trkpt lat="42.871112" lon="-2.114958">
<ele>1606.0</ele>
<desc>Speed 0.1 km/h Distance 7.28 km</desc>
<time>2013-07-05T17:46:07.84</time>
<name>913</name>
<sym>Dot</sym>
</trkpt>
<trkpt lat="42.871112" lon="-2.114958">
<ele>1606.0</ele>
<desc>Speed 0.4 km/h Distance 7.28 km</desc>
<time>2013-07-05T17:46:08.83</time>
<name>914</name>
<sym>Dot</sym>
</trkpt>
<trkpt lat="42.871112" lon="-2.114958">
<ele>1606.0</ele>
<desc>Speed 0.4 km/h Distance 7.28 km</desc>
<time>2013-07-05T17:46:09.82</time>
<name>915</name>
<sym>Dot</sym>
</trkpt>
<trkpt lat="42.871112" lon="-2.114958">
<ele>1606.0</ele>
<desc>Speed 0.1 km/h Distance 7.28 km</desc>
<time>2013-07-05T17:46:10.82</time>
<name>916</name>
<sym>Dot</sym>
</trkpt>
<trkpt lat="42.871112" lon="-2.114958">
<ele>1606.0</ele>
<desc>Speed 0.0 km/h Distance 7.28 km</desc>
<time>2013-07-05T17:46:11.82</time>
<name>917</name>
<sym>Dot</sym>
</trkpt>
<trkpt lat="42.871112" lon="-2.114958">
<ele>1606.0</ele>
<desc>Speed 0.2 km/h Distance 7.28 km</desc>
<time>2013-07-05T17:46:12.91</time>
<name>918</name>
<sym>Dot</sym>
</trkpt>
<trkpt lat="42.871112" lon="-2.114958">
<ele>1606.0</ele>
<desc>Speed 0.2 km/h Distance 7.28 km</desc>
<time>2013-07-05T17:46:13.81</time>
<name>919</name>
<sym>Dot</sym>
</trkpt>
<trkpt lat="42.871110" lon="-2.114958">
<ele>1606.0</ele>
<desc>Speed 0.0 km/h Distance 7.28 km</desc>
<time>2013-07-05T17:46:14.81</time>
<name>920</name>
<sym>Dot</sym>
</trkpt>
<trkpt lat="42.871110" lon="-2.114958">
<ele>1606.0</ele>
<desc>Speed 0.2 km/h Distance 7.28 km</desc>
<time>2013-07-05T17:46:15.79</time>
<name>921</name>
<sym>Dot</sym>
</trkpt>
<trkpt lat="42.871110" lon="-2.114958">
<ele>1606.0</ele>
<desc>Speed 0.1 km/h Distance 7.28 km</desc>
<time>2013-07-05T17:46:16.79</time>
<name>922</name>
<sym>Dot</sym>
</trkpt>
<trkpt lat="42.871110" lon="-2.114958">
<ele>1606.0</ele>
<desc>Speed 0.3 km/h Distance 7.28 km</desc>
<time>2013-07-05T17:46:17.79</time>
<name>923</name>
<sym>Dot</sym>
</trkpt>
<trkpt lat="42.871110" lon="-2.114958">
<ele>1606.0</ele>
<desc>Speed 0.1 km/h Distance 7.28 km</desc>
<time>2013-07-05T17:46:18.78</time>
<name>924</name>
<sym>Dot</sym>
</trkpt>
<trkpt lat="42.871110" lon="-2.114958">
<ele>1606.0</ele>
<desc>Speed 0.2 km/h Distance 7.28 km</desc>
<time>2013-07-05T17:46:19.86</time>
<name>925</name>
<sym>Dot</sym>
</trkpt>
<trkpt lat="42.871110" lon="-2.114958">
<ele>1606.0</ele>
<desc>Speed 0.2 km/h Distance 7.28 km</desc>
<time>2013-07-05T17:46:20.76</time>
<name>926</name>
<sym>Dot</sym>
</trkpt>
<trkpt lat="42.871110" lon="-2.114958">
<ele>1606.0</ele>
<desc>Speed 0.1 km/h Distance 7.28 km</desc>
<time>2013-07-05T17:46:21.76</time>
<name>927</name>
<sym>Dot</sym>
</trkpt>
<trkpt lat="42.871110" lon="-2.114958">
<ele>1606.0</ele>
<desc>Speed 0.1 km/h Distance 7.28 km</desc>
<time>2013-07-05T17:46:22.75</time>
<name>928</name>
<sym>Dot</sym>
</trkpt>
<trkpt lat="42.871110" lon="-2.114958">
<ele>1606.0</ele>
<desc>Speed 0.2 km/h Distance 7.28 km</desc>
<time>2013-07-05T17:46:23.75</time>
<name>929</name>
<sym>Dot</sym>
</trkpt>
<trkpt lat="42.871110" lon="-2.114958">
<ele>1606.0</ele>
<desc>Speed 0.2 km/h Distance 7.28 km</desc>
<time>2013-07-05T17:46:24.74</time>
<name>930</name>
<sym>Dot</sym>
</trkpt>
<trkpt lat="42.871110" lon="-2.114958">
<ele>1606.0</ele>
<desc>Speed 0.1 km/h Distance 7.28 km</desc>
<time>2013-07-05T17:46:25.81</time>
<name>931</name>
<sym>Dot</sym>
</trkpt>
<trkpt lat="42.871110" lon="-2.114958">
<ele>1606.0</ele>
<desc>Speed 0.1 km/h Distance 7.28 km</desc>
<time>2013-07-05T17:46:26.73</time>
<name>932</name>
<sym>Dot</sym>
</trkpt>
<trkpt lat="42.871110" lon="-2.114958">
<ele>1606.0</ele>
<desc>Speed 0.1 km/h Distance 7.28 km</desc>
<time>2013-07-05T17:46:27.72</time>
<name>933</name>
<sym>Dot</sym>
</trkpt>
<trkpt lat="42.871110" lon="-2.114958">
<ele>1606.0</ele>
<desc>Speed 0.2 km/h Distance 7.28 km</desc>
<time>2013-07-05T17:46:28.71</time>
<name>934</name>
<sym>Dot</sym>
</trkpt>
<trkpt lat="42.871110" lon="-2.114958">
<ele>1606.0</ele>
<desc>Speed 0.1 km/h Distance 7.28 km</desc>
<time>2013-07-05T17:46:29.70</time>
<name>935</name>
<sym>Dot</sym>
</trkpt>
<trkpt lat="42.871110" lon="-2.114958">
<ele>1606.0</ele>
<desc>Speed 0.3 km/h Distance 7.28 km</desc>
<time>2013-07-05T17:46:30.70</time>
<name>936</name>
<sym>Dot</sym>
</trkpt>
<trkpt lat="42.871110" lon="-2.114958">
<ele>1606.0</ele>
<desc>Speed 0.1 km/h Distance 7.28 km</desc>
<time>2013-07-05T17:46:31.72</time>
<name>937</name>
<sym>Dot</sym>
</trkpt>
<trkpt lat="42.871110" lon="-2.114958">
<ele>1606.0</ele>
<desc>Speed 0.1 km/h Distance 7.28 km</desc>
<time>2013-07-05T17:46:32.87</time>
<name>938</name>
<sym>Dot</sym>
</trkpt>
<trkpt lat="42.871110" lon="-2.114957">
<ele>1606.0</ele>
<desc>Speed 0.1 km/h Distance 7.28 km</desc>
<time>2013-07-05T17:46:33.67</time>
<name>939</name>
<sym>Dot</sym>
</trkpt>
<trkpt lat="42.871110" lon="-2.114957">
<ele>1606.0</ele>
<desc>Speed 0.2 km/h Distance 7.28 km</desc>
<time>2013-07-05T17:46:34.67</time>
<name>940</name>
<sym>Dot</sym>
</trkpt>
<trkpt lat="42.871110" lon="-2.114957">
<ele>1605.5</ele>
<desc>Speed 0.2 km/h Distance 7.28 km</desc>
<time>2013-07-05T17:46:35.66</time>
<name>941</name>
<sym>Dot</sym>
</trkpt>
<trkpt lat="42.871110" lon="-2.114957">
<ele>1605.5</ele>
<desc>Speed 0.1 km/h Distance 7.28 km</desc>
<time>2013-07-05T17:46:36.66</time>
<name>942</name>
<sym>Dot</sym>
</trkpt>
<trkpt lat="42.871110" lon="-2.114957">
<ele>1605.5</ele>
<desc>Speed 0.1 km/h Distance 7.28 km</desc>
<time>2013-07-05T17:46:37.66</time>
<name>943</name>
<sym>Dot</sym>
</trkpt>
<trkpt lat="42.871110" lon="-2.114957">
<ele>1605.5</ele>
<desc>Speed 0.1 km/h Distance 7.28 km</desc>
<time>2013-07-05T17:46:38.69</time>
<name>944</name>
<sym>Dot</sym>
</trkpt>
<trkpt lat="42.871110" lon="-2.114957">
<ele>1605.5</ele>
<desc>Speed 0.2 km/h Distance 7.28 km</desc>
<time>2013-07-05T17:46:39.65</time>
<name>945</name>
<sym>Dot</sym>
</trkpt>
<trkpt lat="42.871110" lon="-2.114957">
<ele>1605.5</ele>
<desc>Speed 0.1 km/h Distance 7.28 km</desc>
<time>2013-07-05T17:46:40.64</time>
<name>946</name>
<sym>Dot</sym>
</trkpt>
<trkpt lat="42.871110" lon="-2.114957">
<ele>1605.5</ele>
<desc>Speed 0.1 km/h Distance 7.28 km</desc>
<time>2013-07-05T17:46:41.63</time>
<name>947</name>
<sym>Dot</sym>
</trkpt>
<trkpt lat="42.871110" lon="-2.114957">
<ele>1605.5</ele>
<desc>Speed 0.2 km/h Distance 7.28 km</desc>
<time>2013-07-05T17:46:42.62</time>
<name>948</name>
<sym>Dot</sym>
</trkpt>
<trkpt lat="42.871110" lon="-2.114957">
<ele>1605.5</ele>
<desc>Speed 0.2 km/h Distance 7.28 km</desc>
<time>2013-07-05T17:46:43.61</time>
<name>949</name>
<sym>Dot</sym>
</trkpt>
<trkpt lat="42.871110" lon="-2.114957">
<ele>1605.5</ele>
<desc>Speed 0.1 km/h Distance 7.28 km</desc>
<time>2013-07-05T17:46:44.68</time>
<name>950</name>
<sym>Dot</sym>
</trkpt>
<trkpt lat="42.871110" lon="-2.114957">
<ele>1605.5</ele>
<desc>Speed 0.1 km/h Distance 7.28 km</desc>
<time>2013-07-05T17:46:45.60</time>
<name>951</name>
<sym>Dot</sym>
</trkpt>
<trkpt lat="42.871110" lon="-2.114955">
<ele>1605.5</ele>
<desc>Speed 0.3 km/h Distance 7.28 km</desc>
<time>2013-07-05T17:46:46.59</time>
<name>952</name>
<sym>Dot</sym>
</trkpt>
<trkpt lat="42.871110" lon="-2.114955">
<ele>1605.5</ele>
<desc>Speed 0.2 km/h Distance 7.28 km</desc>
<time>2013-07-05T17:46:47.58</time>
<name>953</name>
<sym>Dot</sym>
</trkpt>
<trkpt lat="42.871110" lon="-2.114955">
<ele>1605.5</ele>
<desc>Speed 0.1 km/h Distance 7.28 km</desc>
<time>2013-07-05T17:46:48.57</time>
<name>954</name>
<sym>Dot</sym>
</trkpt>
<trkpt lat="42.871110" lon="-2.114955">
<ele>1605.5</ele>
<desc>Speed 0.2 km/h Distance 7.28 km</desc>
<time>2013-07-05T17:46:49.57</time>
<name>955</name>
<sym>Dot</sym>
</trkpt>
<trkpt lat="42.871110" lon="-2.114955">
<ele>1605.5</ele>
<desc>Speed 0.2 km/h Distance 7.28 km</desc>
<time>2013-07-05T17:46:50.56</time>
<name>956</name>
<sym>Dot</sym>
</trkpt>
<trkpt lat="42.871110" lon="-2.114955">
<ele>1605.5</ele>
<desc>Speed 0.1 km/h Distance 7.28 km</desc>
<time>2013-07-05T17:46:51.56</time>
<name>957</name>
<sym>Dot</sym>
</trkpt>
<trkpt lat="42.871110" lon="-2.114955">
<ele>1605.5</ele>
<desc>Speed 0.2 km/h Distance 7.28 km</desc>
<time>2013-07-05T17:46:52.55</time>
<name>958</name>
<sym>Dot</sym>
</trkpt>
<trkpt lat="42.871110" lon="-2.114955">
<ele>1605.5</ele>
<desc>Speed 0.0 km/h Distance 7.28 km</desc>
<time>2013-07-05T17:46:53.54</time>
<name>959</name>
<sym>Dot</sym>
</trkpt>
<trkpt lat="42.871110" lon="-2.114955">
<ele>1605.5</ele>
<desc>Speed 0.3 km/h Distance 7.28 km</desc>
<time>2013-07-05T17:46:54.54</time>
<name>960</name>
<sym>Dot</sym>
</trkpt>
<trkpt lat="42.871108" lon="-2.114955">
<ele>1605.5</ele>
<desc>Speed 0.2 km/h Distance 7.28 km</desc>
<time>2013-07-05T17:46:55.52</time>
<name>961</name>
<sym>Dot</sym>
</trkpt>
<trkpt lat="42.871108" lon="-2.114955">
<ele>1605.5</ele>
<desc>Speed 0.1 km/h Distance 7.28 km</desc>
<time>2013-07-05T17:46:56.52</time>
<name>962</name>
<sym>Dot</sym>
</trkpt>
<trkpt lat="42.871108" lon="-2.114955">
<ele>1605.5</ele>
<desc>Speed 0.2 km/h Distance 7.28 km</desc>
<time>2013-07-05T17:46:57.51</time>
<name>963</name>
<sym>Dot</sym>
</trkpt>
<trkpt lat="42.871108" lon="-2.114955">
<ele>1605.5</ele>
<desc>Speed 0.1 km/h Distance 7.28 km</desc>
<time>2013-07-05T17:46:58.51</time>
<name>964</name>
<sym>Dot</sym>
</trkpt>
<trkpt lat="42.871108" lon="-2.114955">
<ele>1605.5</ele>
<desc>Speed 0.2 km/h Distance 7.28 km</desc>
<time>2013-07-05T17:46:59.50</time>
<name>965</name>
<sym>Dot</sym>
</trkpt>
<trkpt lat="42.871108" lon="-2.114955">
<ele>1605.5</ele>
<desc>Speed 0.0 km/h Distance 7.28 km</desc>
<time>2013-07-05T17:47:00.49</time>
<name>966</name>
<sym>Dot</sym>
</trkpt>
<trkpt lat="42.871108" lon="-2.114955">
<ele>1605.5</ele>
<desc>Speed 0.2 km/h Distance 7.28 km</desc>
<time>2013-07-05T17:47:01.48</time>
<name>967</name>
<sym>Dot</sym>
</trkpt>
<trkpt lat="42.871108" lon="-2.114955">
<ele>1605.5</ele>
<desc>Speed 0.1 km/h Distance 7.28 km</desc>
<time>2013-07-05T17:47:02.47</time>
<name>968</name>
<sym>Dot</sym>
</trkpt>
<trkpt lat="42.871108" lon="-2.114955">
<ele>1605.5</ele>
<desc>Speed 0.1 km/h Distance 7.28 km</desc>
<time>2013-07-05T17:47:03.46</time>
<name>969</name>
<sym>Dot</sym>
</trkpt>
<trkpt lat="42.871108" lon="-2.114955">
<ele>1605.5</ele>
<desc>Speed 0.1 km/h Distance 7.28 km</desc>
<time>2013-07-05T17:47:04.45</time>
<name>970</name>
<sym>Dot</sym>
</trkpt>
<trkpt lat="42.871108" lon="-2.114955">
<ele>1605.5</ele>
<desc>Speed 0.1 km/h Distance 7.28 km</desc>
<time>2013-07-05T17:47:05.44</time>
<name>971</name>
<sym>Dot</sym>
</trkpt>
<trkpt lat="42.871108" lon="-2.114955">
<ele>1605.5</ele>
<desc>Speed 0.0 km/h Distance 7.28 km</desc>
<time>2013-07-05T17:47:06.43</time>
<name>972</name>
<sym>Dot</sym>
</trkpt>
<trkpt lat="42.871108" lon="-2.114955">
<ele>1605.5</ele>
<desc>Speed 0.1 km/h Distance 7.28 km</desc>
<time>2013-07-05T17:47:07.42</time>
<name>973</name>
<sym>Dot</sym>
</trkpt>
<trkpt lat="42.871108" lon="-2.114955">
<ele>1605.5</ele>
<desc>Speed 0.0 km/h Distance 7.28 km</desc>
<time>2013-07-05T17:47:08.41</time>
<name>974</name>
<sym>Dot</sym>
</trkpt>
<trkpt lat="42.871108" lon="-2.114955">
<ele>1605.5</ele>
<desc>Speed 0.2 km/h Distance 7.28 km</desc>
<time>2013-07-05T17:47:09.40</time>
<name>975</name>
<sym>Dot</sym>
</trkpt>
<trkpt lat="42.871108" lon="-2.114955">
<ele>1605.5</ele>
<desc>Speed 0.1 km/h Distance 7.28 km</desc>
<time>2013-07-05T17:47:10.39</time>
<name>976</name>
<sym>Dot</sym>
</trkpt>
<trkpt lat="42.871108" lon="-2.114955">
<ele>1605.5</ele>
<desc>Speed 0.2 km/h Distance 7.28 km</desc>
<time>2013-07-05T17:47:11.38</time>
<name>977</name>
<sym>Dot</sym>
</trkpt>
<trkpt lat="42.871108" lon="-2.114953">
<ele>1605.5</ele>
<desc>Speed 0.2 km/h Distance 7.28 km</desc>
<time>2013-07-05T17:47:12.37</time>
<name>978</name>
<sym>Dot</sym>
</trkpt>
<trkpt lat="42.871108" lon="-2.114953">
<ele>1605.5</ele>
<desc>Speed 0.2 km/h Distance 7.28 km</desc>
<time>2013-07-05T17:47:13.36</time>
<name>979</name>
<sym>Dot</sym>
</trkpt>
<trkpt lat="42.871108" lon="-2.114953">
<ele>1605.5</ele>
<desc>Speed 0.1 km/h Distance 7.28 km</desc>
<time>2013-07-05T17:47:14.35</time>
<name>980</name>
<sym>Dot</sym>
</trkpt>
<trkpt lat="42.871108" lon="-2.114953">
<ele>1605.5</ele>
<desc>Speed 0.3 km/h Distance 7.28 km</desc>
<time>2013-07-05T17:47:15.34</time>
<name>981</name>
<sym>Dot</sym>
</trkpt>
<trkpt lat="42.871108" lon="-2.114953">
<ele>1605.5</ele>
<desc>Speed 0.2 km/h Distance 7.28 km</desc>
<time>2013-07-05T17:47:16.34</time>
<name>982</name>
<sym>Dot</sym>
</trkpt>
<trkpt lat="42.871108" lon="-2.114953">
<ele>1605.5</ele>
<desc>Speed 0.1 km/h Distance 7.28 km</desc>
<time>2013-07-05T17:47:17.33</time>
<name>983</name>
<sym>Dot</sym>
</trkpt>
<trkpt lat="42.871108" lon="-2.114953">
<ele>1605.5</ele>
<desc>Speed 0.0 km/h Distance 7.28 km</desc>
<time>2013-07-05T17:47:18.32</time>
<name>984</name>
<sym>Dot</sym>
</trkpt>
<trkpt lat="42.871108" lon="-2.114953">
<ele>1605.5</ele>
<desc>Speed 0.2 km/h Distance 7.28 km</desc>
<time>2013-07-05T17:47:19.31</time>
<name>985</name>
<sym>Dot</sym>
</trkpt>
<trkpt lat="42.871108" lon="-2.114953">
<ele>1605.5</ele>
<desc>Speed 0.1 km/h Distance 7.28 km</desc>
<time>2013-07-05T17:47:20.30</time>
<name>986</name>
<sym>Dot</sym>
</trkpt>
<trkpt lat="42.871108" lon="-2.114953">
<ele>1605.5</ele>
<desc>Speed 0.2 km/h Distance 7.28 km</desc>
<time>2013-07-05T17:47:21.30</time>
<name>987</name>
<sym>Dot</sym>
</trkpt>
<trkpt lat="42.871108" lon="-2.114953">
<ele>1605.5</ele>
<desc>Speed 0.2 km/h Distance 7.28 km</desc>
<time>2013-07-05T17:47:22.29</time>
<name>988</name>
<sym>Dot</sym>
</trkpt>
<trkpt lat="42.871108" lon="-2.114953">
<ele>1605.5</ele>
<desc>Speed 0.0 km/h Distance 7.28 km</desc>
<time>2013-07-05T17:47:23.29</time>
<name>989</name>
<sym>Dot</sym>
</trkpt>
<trkpt lat="42.871108" lon="-2.114953">
<ele>1605.5</ele>
<desc>Speed 0.1 km/h Distance 7.28 km</desc>
<time>2013-07-05T17:47:24.28</time>
<name>990</name>
<sym>Dot</sym>
</trkpt>
<trkpt lat="42.871108" lon="-2.114953">
<ele>1605.5</ele>
<desc>Speed 0.2 km/h Distance 7.28 km</desc>
<time>2013-07-05T17:47:25.27</time>
<name>991</name>
<sym>Dot</sym>
</trkpt>
<trkpt lat="42.871108" lon="-2.114953">
<ele>1605.5</ele>
<desc>Speed 0.1 km/h Distance 7.28 km</desc>
<time>2013-07-05T17:47:26.26</time>
<name>992</name>
<sym>Dot</sym>
</trkpt>
<trkpt lat="42.871108" lon="-2.114953">
<ele>1605.5</ele>
<desc>Speed 0.1 km/h Distance 7.28 km</desc>
<time>2013-07-05T17:47:27.26</time>
<name>993</name>
<sym>Dot</sym>
</trkpt>
<trkpt lat="42.871108" lon="-2.114953">
<ele>1605.5</ele>
<desc>Speed 0.1 km/h Distance 7.28 km</desc>
<time>2013-07-05T17:47:28.25</time>
<name>994</name>
<sym>Dot</sym>
</trkpt>
<trkpt lat="42.871108" lon="-2.114953">
<ele>1605.5</ele>
<desc>Speed 0.3 km/h Distance 7.28 km</desc>
<time>2013-07-05T17:47:29.27</time>
<name>995</name>
<sym>Dot</sym>
</trkpt>
<trkpt lat="42.871108" lon="-2.114953">
<ele>1605.5</ele>
<desc>Speed 0.2 km/h Distance 7.28 km</desc>
<time>2013-07-05T17:47:30.24</time>
<name>996</name>
<sym>Dot</sym>
</trkpt>
<trkpt lat="42.871108" lon="-2.114953">
<ele>1605.5</ele>
<desc>Speed 0.2 km/h Distance 7.28 km</desc>
<time>2013-07-05T17:47:31.23</time>
<name>997</name>
<sym>Dot</sym>
</trkpt>
<trkpt lat="42.871108" lon="-2.114953">
<ele>1605.5</ele>
<desc>Speed 0.1 km/h Distance 7.28 km</desc>
<time>2013-07-05T17:47:32.22</time>
<name>998</name>
<sym>Dot</sym>
</trkpt>
<trkpt lat="42.871108" lon="-2.114953">
<ele>1605.5</ele>
<desc>Speed 0.3 km/h Distance 7.28 km</desc>
<time>2013-07-05T17:47:33.21</time>
<name>999</name>
<sym>Dot</sym>
</trkpt>
<trkpt lat="42.871108" lon="-2.114953">
<ele>1605.5</ele>
<desc>Speed 0.1 km/h Distance 7.28 km</desc>
<time>2013-07-05T17:47:34.20</time>
<name>1000</name>
<sym>Dot</sym>
</trkpt>
<trkpt lat="42.871108" lon="-2.114953">
<ele>1605.5</ele>
<desc>Speed 0.1 km/h Distance 7.28 km</desc>
<time>2013-07-05T17:47:35.19</time>
<name>1001</name>
<sym>Dot</sym>
</trkpt>
<trkpt lat="42.871108" lon="-2.114953">
<ele>1605.5</ele>
<desc>Speed 0.2 km/h Distance 7.28 km</desc>
<time>2013-07-05T17:47:36.18</time>
<name>1002</name>
<sym>Dot</sym>
</trkpt>
<trkpt lat="42.871108" lon="-2.114953">
<ele>1605.5</ele>
<desc>Speed 0.2 km/h Distance 7.28 km</desc>
<time>2013-07-05T17:47:37.17</time>
<name>1003</name>
<sym>Dot</sym>
</trkpt>
<trkpt lat="42.871108" lon="-2.114953">
<ele>1605.5</ele>
<desc>Speed 0.1 km/h Distance 7.28 km</desc>
<time>2013-07-05T17:47:38.16</time>
<name>1004</name>
<sym>Dot</sym>
</trkpt>
<trkpt lat="42.871108" lon="-2.114953">
<ele>1605.5</ele>
<desc>Speed 0.1 km/h Distance 7.28 km</desc>
<time>2013-07-05T17:47:39.16</time>
<name>1005</name>
<sym>Dot</sym>
</trkpt>
<trkpt lat="42.871108" lon="-2.114953">
<ele>1605.5</ele>
<desc>Speed 0.0 km/h Distance 7.28 km</desc>
<time>2013-07-05T17:47:40.15</time>
<name>1006</name>
<sym>Dot</sym>
</trkpt>
<trkpt lat="42.871108" lon="-2.114953">
<ele>1605.5</ele>
<desc>Speed 0.2 km/h Distance 7.28 km</desc>
<time>2013-07-05T17:47:41.14</time>
<name>1007</name>
<sym>Dot</sym>
</trkpt>
<trkpt lat="42.871108" lon="-2.114953">
<ele>1605.5</ele>
<desc>Speed 0.1 km/h Distance 7.28 km</desc>
<time>2013-07-05T17:47:42.13</time>
<name>1008</name>
<sym>Dot</sym>
</trkpt>
<trkpt lat="42.871108" lon="-2.114953">
<ele>1605.5</ele>
<desc>Speed 0.2 km/h Distance 7.28 km</desc>
<time>2013-07-05T17:47:43.12</time>
<name>1009</name>
<sym>Dot</sym>
</trkpt>
<trkpt lat="42.871108" lon="-2.114953">
<ele>1605.5</ele>
<desc>Speed 0.1 km/h Distance 7.28 km</desc>
<time>2013-07-05T17:47:44.11</time>
<name>1010</name>
<sym>Dot</sym>
</trkpt>
<trkpt lat="42.871108" lon="-2.114953">
<ele>1605.5</ele>
<desc>Speed 0.2 km/h Distance 7.28 km</desc>
<time>2013-07-05T17:47:45.11</time>
<name>1011</name>
<sym>Dot</sym>
</trkpt>
<trkpt lat="42.871108" lon="-2.114953">
<ele>1605.5</ele>
<desc>Speed 0.1 km/h Distance 7.28 km</desc>
<time>2013-07-05T17:47:46.10</time>
<name>1012</name>
<sym>Dot</sym>
</trkpt>
<trkpt lat="42.871108" lon="-2.114953">
<ele>1605.5</ele>
<desc>Speed 0.1 km/h Distance 7.28 km</desc>
<time>2013-07-05T17:47:47.09</time>
<name>1013</name>
<sym>Dot</sym>
</trkpt>
<trkpt lat="42.871108" lon="-2.114952">
<ele>1605.5</ele>
<desc>Speed 0.1 km/h Distance 7.28 km</desc>
<time>2013-07-05T17:47:48.26</time>
<name>1014</name>
<sym>Dot</sym>
</trkpt>
<trkpt lat="42.871108" lon="-2.114952">
<ele>1605.5</ele>
<desc>Speed 0.2 km/h Distance 7.28 km</desc>
<time>2013-07-05T17:47:49.08</time>
<name>1015</name>
<sym>Dot</sym>
</trkpt>
<trkpt lat="42.871108" lon="-2.114952">
<ele>1605.5</ele>
<desc>Speed 0.3 km/h Distance 7.28 km</desc>
<time>2013-07-05T17:47:50.07</time>
<name>1016</name>
<sym>Dot</sym>
</trkpt>
<trkpt lat="42.871108" lon="-2.114952">
<ele>1605.5</ele>
<desc>Speed 0.1 km/h Distance 7.28 km</desc>
<time>2013-07-05T17:47:51.06</time>
<name>1017</name>
<sym>Dot</sym>
</trkpt>
<trkpt lat="42.871108" lon="-2.114952">
<ele>1605.5</ele>
<desc>Speed 0.2 km/h Distance 7.28 km</desc>
<time>2013-07-05T17:47:52.05</time>
<name>1018</name>
<sym>Dot</sym>
</trkpt>
<trkpt lat="42.871108" lon="-2.114952">
<ele>1605.5</ele>
<desc>Speed 0.3 km/h Distance 7.28 km</desc>
<time>2013-07-05T17:47:53.04</time>
<name>1019</name>
<sym>Dot</sym>
</trkpt>
<trkpt lat="42.871108" lon="-2.114952">
<ele>1605.5</ele>
<desc>Speed 0.2 km/h Distance 7.28 km</desc>
<time>2013-07-05T17:47:54.03</time>
<name>1020</name>
<sym>Dot</sym>
</trkpt>
<trkpt lat="42.871108" lon="-2.114952">
<ele>1605.5</ele>
<desc>Speed 0.1 km/h Distance 7.28 km</desc>
<time>2013-07-05T17:47:55.02</time>
<name>1021</name>
<sym>Dot</sym>
</trkpt>
<trkpt lat="42.871108" lon="-2.114952">
<ele>1605.5</ele>
<desc>Speed 0.1 km/h Distance 7.28 km</desc>
<time>2013-07-05T17:47:56.01</time>
<name>1022</name>
<sym>Dot</sym>
</trkpt>
<trkpt lat="42.871108" lon="-2.114952">
<ele>1605.5</ele>
<desc>Speed 0.2 km/h Distance 7.28 km</desc>
<time>2013-07-05T17:47:57.00</time>
<name>1023</name>
<sym>Dot</sym>
</trkpt>
<trkpt lat="42.871108" lon="-2.114952">
<ele>1605.5</ele>
<desc>Speed 0.1 km/h Distance 7.28 km</desc>
<time>2013-07-05T17:47:58.00</time>
<name>1024</name>
<sym>Dot</sym>
</trkpt>
<trkpt lat="42.871108" lon="-2.114952">
<ele>1605.5</ele>
<desc>Speed 0.1 km/h Distance 7.28 km</desc>
<time>2013-07-05T17:47:58.99</time>
<name>1025</name>
<sym>Dot</sym>
</trkpt>
<trkpt lat="42.871108" lon="-2.114952">
<ele>1605.5</ele>
<desc>Speed 0.1 km/h Distance 7.28 km</desc>
<time>2013-07-05T17:47:59.98</time>
<name>1026</name>
<sym>Dot</sym>
</trkpt>
<trkpt lat="42.871108" lon="-2.114952">
<ele>1605.5</ele>
<desc>Speed 0.1 km/h Distance 7.28 km</desc>
<time>2013-07-05T17:48:00.97</time>
<name>1027</name>
<sym>Dot</sym>
</trkpt>
<trkpt lat="42.871108" lon="-2.114952">
<ele>1605.5</ele>
<desc>Speed 0.1 km/h Distance 7.28 km</desc>
<time>2013-07-05T17:48:01.97</time>
<name>1028</name>
<sym>Dot</sym>
</trkpt>
<trkpt lat="42.871108" lon="-2.114952">
<ele>1605.5</ele>
<desc>Speed 0.2 km/h Distance 7.28 km</desc>
<time>2013-07-05T17:48:02.96</time>
<name>1029</name>
<sym>Dot</sym>
</trkpt>
<trkpt lat="42.871108" lon="-2.114952">
<ele>1605.5</ele>
<desc>Speed 0.2 km/h Distance 7.28 km</desc>
<time>2013-07-05T17:48:03.95</time>
<name>1030</name>
<sym>Dot</sym>
</trkpt>
<trkpt lat="42.871108" lon="-2.114952">
<ele>1605.5</ele>
<desc>Speed 0.1 km/h Distance 7.28 km</desc>
<time>2013-07-05T17:48:04.94</time>
<name>1031</name>
<sym>Dot</sym>
</trkpt>
<trkpt lat="42.871108" lon="-2.114952">
<ele>1605.5</ele>
<desc>Speed 0.1 km/h Distance 7.28 km</desc>
<time>2013-07-05T17:48:05.93</time>
<name>1032</name>
<sym>Dot</sym>
</trkpt>
<trkpt lat="42.871108" lon="-2.114952">
<ele>1605.5</ele>
<desc>Speed 0.3 km/h Distance 7.28 km</desc>
<time>2013-07-05T17:48:06.92</time>
<name>1033</name>
<sym>Dot</sym>
</trkpt>
<trkpt lat="42.871108" lon="-2.114952">
<ele>1605.5</ele>
<desc>Speed 0.1 km/h Distance 7.28 km</desc>
<time>2013-07-05T17:48:07.91</time>
<name>1034</name>
<sym>Dot</sym>
</trkpt>
<trkpt lat="42.871108" lon="-2.114952">
<ele>1605.5</ele>
<desc>Speed 0.1 km/h Distance 7.28 km</desc>
<time>2013-07-05T17:48:08.91</time>
<name>1035</name>
<sym>Dot</sym>
</trkpt>
<trkpt lat="42.871108" lon="-2.114952">
<ele>1605.5</ele>
<desc>Speed 0.1 km/h Distance 7.28 km</desc>
<time>2013-07-05T17:48:09.90</time>
<name>1036</name>
<sym>Dot</sym>
</trkpt>
<trkpt lat="42.871108" lon="-2.114952">
<ele>1605.5</ele>
<desc>Speed 0.1 km/h Distance 7.28 km</desc>
<time>2013-07-05T17:48:10.89</time>
<name>1037</name>
<sym>Dot</sym>
</trkpt>
<trkpt lat="42.871108" lon="-2.114950">
<ele>1605.5</ele>
<desc>Speed 0.2 km/h Distance 7.28 km</desc>
<time>2013-07-05T17:48:11.88</time>
<name>1038</name>
<sym>Dot</sym>
</trkpt>
<trkpt lat="42.871108" lon="-2.114950">
<ele>1605.5</ele>
<desc>Speed 0.1 km/h Distance 7.28 km</desc>
<time>2013-07-05T17:48:12.88</time>
<name>1039</name>
<sym>Dot</sym>
</trkpt>
<trkpt lat="42.871108" lon="-2.114950">
<ele>1605.5</ele>
<desc>Speed 0.3 km/h Distance 7.28 km</desc>
<time>2013-07-05T17:48:13.87</time>
<name>1040</name>
<sym>Dot</sym>
</trkpt>
<trkpt lat="42.871108" lon="-2.114950">
<ele>1605.5</ele>
<desc>Speed 0.1 km/h Distance 7.28 km</desc>
<time>2013-07-05T17:48:14.86</time>
<name>1041</name>
<sym>Dot</sym>
</trkpt>
<trkpt lat="42.871108" lon="-2.114950">
<ele>1605.5</ele>
<desc>Speed 0.1 km/h Distance 7.28 km</desc>
<time>2013-07-05T17:48:15.85</time>
<name>1042</name>
<sym>Dot</sym>
</trkpt>
<trkpt lat="42.871107" lon="-2.114950">
<ele>1605.5</ele>
<desc>Speed 0.1 km/h Distance 7.28 km</desc>
<time>2013-07-05T17:48:16.85</time>
<name>1043</name>
<sym>Dot</sym>
</trkpt>
<trkpt lat="42.871107" lon="-2.114950">
<ele>1605.5</ele>
<desc>Speed 0.0 km/h Distance 7.28 km</desc>
<time>2013-07-05T17:48:22.50</time>
<name>1044</name>
<sym>Dot</sym>
</trkpt>
<trkpt lat="42.871107" lon="-2.114950">
<ele>1605.5</ele>
<desc>Speed 0.1 km/h Distance 7.28 km</desc>
<time>2013-07-05T17:48:23.49</time>
<name>1045</name>
<sym>Dot</sym>
</trkpt>
<trkpt lat="42.871107" lon="-2.114950">
<ele>1605.5</ele>
<desc>Speed 0.1 km/h Distance 7.28 km</desc>
<time>2013-07-05T17:48:24.48</time>
<name>1046</name>
<sym>Dot</sym>
</trkpt>
<trkpt lat="42.871107" lon="-2.114950">
<ele>1605.5</ele>
<desc>Speed 0.1 km/h Distance 7.28 km</desc>
<time>2013-07-05T17:48:25.47</time>
<name>1047</name>
<sym>Dot</sym>
</trkpt>
<trkpt lat="42.871107" lon="-2.114950">
<ele>1605.5</ele>
<desc>Speed 0.2 km/h Distance 7.28 km</desc>
<time>2013-07-05T17:48:26.46</time>
<name>1048</name>
<sym>Dot</sym>
</trkpt>
<trkpt lat="42.871107" lon="-2.114950">
<ele>1605.5</ele>
<desc>Speed 0.1 km/h Distance 7.28 km</desc>
<time>2013-07-05T17:48:27.45</time>
<name>1049</name>
<sym>Dot</sym>
</trkpt>
<trkpt lat="42.871107" lon="-2.114950">
<ele>1605.5</ele>
<desc>Speed 0.2 km/h Distance 7.28 km</desc>
<time>2013-07-05T17:48:28.45</time>
<name>1050</name>
<sym>Dot</sym>
</trkpt>
<trkpt lat="42.871107" lon="-2.114950">
<ele>1605.5</ele>
<desc>Speed 0.2 km/h Distance 7.28 km</desc>
<time>2013-07-05T17:48:29.44</time>
<name>1051</name>
<sym>Dot</sym>
</trkpt>
<trkpt lat="42.871107" lon="-2.114950">
<ele>1605.5</ele>
<desc>Speed 0.1 km/h Distance 7.28 km</desc>
<time>2013-07-05T17:48:30.43</time>
<name>1052</name>
<sym>Dot</sym>
</trkpt>
<trkpt lat="42.871107" lon="-2.114950">
<ele>1605.5</ele>
<desc>Speed 0.1 km/h Distance 7.28 km</desc>
<time>2013-07-05T17:48:31.42</time>
<name>1053</name>
<sym>Dot</sym>
</trkpt>
<trkpt lat="42.871107" lon="-2.114950">
<ele>1605.5</ele>
<desc>Speed 0.1 km/h Distance 7.28 km</desc>
<time>2013-07-05T17:48:32.41</time>
<name>1054</name>
<sym>Dot</sym>
</trkpt>
<trkpt lat="42.871107" lon="-2.114950">
<ele>1605.5</ele>
<desc>Speed 0.1 km/h Distance 7.28 km</desc>
<time>2013-07-05T17:48:33.40</time>
<name>1055</name>
<sym>Dot</sym>
</trkpt>
<trkpt lat="42.871107" lon="-2.114950">
<ele>1605.5</ele>
<desc>Speed 0.1 km/h Distance 7.28 km</desc>
<time>2013-07-05T17:48:34.39</time>
<name>1056</name>
<sym>Dot</sym>
</trkpt>
<trkpt lat="42.871107" lon="-2.114950">
<ele>1605.5</ele>
<desc>Speed 0.2 km/h Distance 7.28 km</desc>
<time>2013-07-05T17:48:35.38</time>
<name>1057</name>
<sym>Dot</sym>
</trkpt>
<trkpt lat="42.871107" lon="-2.114950">
<ele>1605.5</ele>
<desc>Speed 0.3 km/h Distance 7.28 km</desc>
<time>2013-07-05T17:48:36.38</time>
<name>1058</name>
<sym>Dot</sym>
</trkpt>
<trkpt lat="42.871107" lon="-2.114950">
<ele>1605.5</ele>
<desc>Speed 0.2 km/h Distance 7.28 km</desc>
<time>2013-07-05T17:48:37.37</time>
<name>1059</name>
<sym>Dot</sym>
</trkpt>
<trkpt lat="42.871107" lon="-2.114950">
<ele>1605.5</ele>
<desc>Speed 0.3 km/h Distance 7.28 km</desc>
<time>2013-07-05T17:48:38.36</time>
<name>1060</name>
<sym>Dot</sym>
</trkpt>
<trkpt lat="42.871107" lon="-2.114950">
<ele>1605.5</ele>
<desc>Speed 0.1 km/h Distance 7.28 km</desc>
<time>2013-07-05T17:48:39.35</time>
<name>1061</name>
<sym>Dot</sym>
</trkpt>
<trkpt lat="42.871107" lon="-2.114950">
<ele>1605.5</ele>
<desc>Speed 0.1 km/h Distance 7.28 km</desc>
<time>2013-07-05T17:48:40.34</time>
<name>1062</name>
<sym>Dot</sym>
</trkpt>
<trkpt lat="42.871107" lon="-2.114950">
<ele>1605.5</ele>
<desc>Speed 0.1 km/h Distance 7.28 km</desc>
<time>2013-07-05T17:48:41.33</time>
<name>1063</name>
<sym>Dot</sym>
</trkpt>
<trkpt lat="42.871107" lon="-2.114950">
<ele>1605.5</ele>
<desc>Speed 0.1 km/h Distance 7.28 km</desc>
<time>2013-07-05T17:48:42.33</time>
<name>1064</name>
<sym>Dot</sym>
</trkpt>
<trkpt lat="42.871107" lon="-2.114950">
<ele>1605.5</ele>
<desc>Speed 0.3 km/h Distance 7.28 km</desc>
<time>2013-07-05T17:48:43.33</time>
<name>1065</name>
<sym>Dot</sym>
</trkpt>
<trkpt lat="42.871107" lon="-2.114950">
<ele>1605.5</ele>
<desc>Speed 0.1 km/h Distance 7.28 km</desc>
<time>2013-07-05T17:48:44.32</time>
<name>1066</name>
<sym>Dot</sym>
</trkpt>
<trkpt lat="42.871107" lon="-2.114950">
<ele>1605.5</ele>
<desc>Speed 0.1 km/h Distance 7.28 km</desc>
<time>2013-07-05T17:48:45.32</time>
<name>1067</name>
<sym>Dot</sym>
</trkpt>
<trkpt lat="42.871107" lon="-2.114950">
<ele>1605.5</ele>
<desc>Speed 0.2 km/h Distance 7.28 km</desc>
<time>2013-07-05T17:48:46.32</time>
<name>1068</name>
<sym>Dot</sym>
</trkpt>
<trkpt lat="42.871107" lon="-2.114950">
<ele>1605.5</ele>
<desc>Speed 0.3 km/h Distance 7.28 km</desc>
<time>2013-07-05T17:48:47.31</time>
<name>1069</name>
<sym>Dot</sym>
</trkpt>
<trkpt lat="42.871107" lon="-2.114950">
<ele>1605.5</ele>
<desc>Speed 0.3 km/h Distance 7.28 km</desc>
<time>2013-07-05T17:48:48.31</time>
<name>1070</name>
<sym>Dot</sym>
</trkpt>
<trkpt lat="42.871107" lon="-2.114950">
<ele>1605.5</ele>
<desc>Speed 0.1 km/h Distance 7.28 km</desc>
<time>2013-07-05T17:48:49.31</time>
<name>1071</name>
<sym>Dot</sym>
</trkpt>
<trkpt lat="42.871107" lon="-2.114950">
<ele>1605.5</ele>
<desc>Speed 0.1 km/h Distance 7.28 km</desc>
<time>2013-07-05T17:48:50.30</time>
<name>1072</name>
<sym>Dot</sym>
</trkpt>
<trkpt lat="42.871107" lon="-2.114950">
<ele>1605.5</ele>
<desc>Speed 0.3 km/h Distance 7.28 km</desc>
<time>2013-07-05T17:48:51.28</time>
<name>1073</name>
<sym>Dot</sym>
</trkpt>
<trkpt lat="42.871107" lon="-2.114948">
<ele>1605.5</ele>
<desc>Speed 0.3 km/h Distance 7.28 km</desc>
<time>2013-07-05T17:48:52.27</time>
<name>1074</name>
<sym>Dot</sym>
</trkpt>
<trkpt lat="42.871107" lon="-2.114948">
<ele>1605.5</ele>
<desc>Speed 0.2 km/h Distance 7.28 km</desc>
<time>2013-07-05T17:48:53.27</time>
<name>1075</name>
<sym>Dot</sym>
</trkpt>
<trkpt lat="42.871107" lon="-2.114948">
<ele>1605.5</ele>
<desc>Speed 0.0 km/h Distance 7.28 km</desc>
<time>2013-07-05T17:48:54.27</time>
<name>1076</name>
<sym>Dot</sym>
</trkpt>
<trkpt lat="42.871107" lon="-2.114948">
<ele>1605.5</ele>
<desc>Speed 0.3 km/h Distance 7.28 km</desc>
<time>2013-07-05T17:48:55.27</time>
<name>1077</name>
<sym>Dot</sym>
</trkpt>
<trkpt lat="42.871107" lon="-2.114948">
<ele>1605.5</ele>
<desc>Speed 0.1 km/h Distance 7.28 km</desc>
<time>2013-07-05T17:48:56.26</time>
<name>1078</name>
<sym>Dot</sym>
</trkpt>
<trkpt lat="42.871107" lon="-2.114948">
<ele>1605.5</ele>
<desc>Speed 0.1 km/h Distance 7.28 km</desc>
<time>2013-07-05T17:48:57.25</time>
<name>1079</name>
<sym>Dot</sym>
</trkpt>
<trkpt lat="42.871107" lon="-2.114948">
<ele>1605.5</ele>
<desc>Speed 0.1 km/h Distance 7.28 km</desc>
<time>2013-07-05T17:48:58.25</time>
<name>1080</name>
<sym>Dot</sym>
</trkpt>
<trkpt lat="42.871107" lon="-2.114948">
<ele>1605.5</ele>
<desc>Speed 0.2 km/h Distance 7.28 km</desc>
<time>2013-07-05T17:48:59.24</time>
<name>1081</name>
<sym>Dot</sym>
</trkpt>
<trkpt lat="42.871107" lon="-2.114948">
<ele>1605.5</ele>
<desc>Speed 0.2 km/h Distance 7.28 km</desc>
<time>2013-07-05T17:49:00.23</time>
<name>1082</name>
<sym>Dot</sym>
</trkpt>
<trkpt lat="42.871107" lon="-2.114948">
<ele>1605.5</ele>
<desc>Speed 0.1 km/h Distance 7.28 km</desc>
<time>2013-07-05T17:49:01.22</time>
<name>1083</name>
<sym>Dot</sym>
</trkpt>
<trkpt lat="42.871107" lon="-2.114948">
<ele>1605.5</ele>
<desc>Speed 0.1 km/h Distance 7.28 km</desc>
<time>2013-07-05T17:49:02.21</time>
<name>1084</name>
<sym>Dot</sym>
</trkpt>
<trkpt lat="42.871107" lon="-2.114948">
<ele>1605.5</ele>
<desc>Speed 0.1 km/h Distance 7.28 km</desc>
<time>2013-07-05T17:49:03.20</time>
<name>1085</name>
<sym>Dot</sym>
</trkpt>
<trkpt lat="42.871107" lon="-2.114948">
<ele>1605.5</ele>
<desc>Speed 0.2 km/h Distance 7.28 km</desc>
<time>2013-07-05T17:49:04.20</time>
<name>1086</name>
<sym>Dot</sym>
</trkpt>
<trkpt lat="42.871107" lon="-2.114948">
<ele>1605.5</ele>
<desc>Speed 0.1 km/h Distance 7.28 km</desc>
<time>2013-07-05T17:49:05.19</time>
<name>1087</name>
<sym>Dot</sym>
</trkpt>
<trkpt lat="42.871107" lon="-2.114948">
<ele>1605.5</ele>
<desc>Speed 0.2 km/h Distance 7.28 km</desc>
<time>2013-07-05T17:49:06.18</time>
<name>1088</name>
<sym>Dot</sym>
</trkpt>
<trkpt lat="42.871107" lon="-2.114948">
<ele>1605.5</ele>
<desc>Speed 0.2 km/h Distance 7.28 km</desc>
<time>2013-07-05T17:49:07.18</time>
<name>1089</name>
<sym>Dot</sym>
</trkpt>
<trkpt lat="42.871107" lon="-2.114948">
<ele>1605.5</ele>
<desc>Speed 0.1 km/h Distance 7.28 km</desc>
<time>2013-07-05T17:49:08.17</time>
<name>1090</name>
<sym>Dot</sym>
</trkpt>
<trkpt lat="42.871107" lon="-2.114948">
<ele>1605.5</ele>
<desc>Speed 0.2 km/h Distance 7.28 km</desc>
<time>2013-07-05T17:49:09.16</time>
<name>1091</name>
<sym>Dot</sym>
</trkpt>
<trkpt lat="42.871107" lon="-2.114948">
<ele>1605.5</ele>
<desc>Speed 0.3 km/h Distance 7.28 km</desc>
<time>2013-07-05T17:49:11.15</time>
<name>1092</name>
<sym>Dot</sym>
</trkpt>
<trkpt lat="42.871107" lon="-2.114948">
<ele>1605.5</ele>
<desc>Speed 0.0 km/h Distance 7.28 km</desc>
<time>2013-07-05T17:49:12.14</time>
<name>1093</name>
<sym>Dot</sym>
</trkpt>
<trkpt lat="42.871107" lon="-2.114948">
<ele>1605.5</ele>
<desc>Speed 0.2 km/h Distance 7.28 km</desc>
<time>2013-07-05T17:49:13.13</time>
<name>1094</name>
<sym>Dot</sym>
</trkpt>
<trkpt lat="42.871107" lon="-2.114948">
<ele>1605.5</ele>
<desc>Speed 0.2 km/h Distance 7.28 km</desc>
<time>2013-07-05T17:49:14.13</time>
<name>1095</name>
<sym>Dot</sym>
</trkpt>
<trkpt lat="42.871107" lon="-2.114948">
<ele>1605.5</ele>
<desc>Speed 0.1 km/h Distance 7.28 km</desc>
<time>2013-07-05T17:49:15.12</time>
<name>1096</name>
<sym>Dot</sym>
</trkpt>
<trkpt lat="42.871107" lon="-2.114948">
<ele>1605.5</ele>
<desc>Speed 0.1 km/h Distance 7.28 km</desc>
<time>2013-07-05T17:49:16.11</time>
<name>1097</name>
<sym>Dot</sym>
</trkpt>
<trkpt lat="42.871107" lon="-2.114948">
<ele>1605.5</ele>
<desc>Speed 0.2 km/h Distance 7.28 km</desc>
<time>2013-07-05T17:49:17.10</time>
<name>1098</name>
<sym>Dot</sym>
</trkpt>
<trkpt lat="42.871107" lon="-2.114948">
<ele>1605.5</ele>
<desc>Speed 0.3 km/h Distance 7.28 km</desc>
<time>2013-07-05T17:49:18.09</time>
<name>1099</name>
<sym>Dot</sym>
</trkpt>
<trkpt lat="42.871107" lon="-2.114948">
<ele>1605.5</ele>
<desc>Speed 0.0 km/h Distance 7.28 km</desc>
<time>2013-07-05T17:49:19.09</time>
<name>1100</name>
<sym>Dot</sym>
</trkpt>
<trkpt lat="42.871107" lon="-2.114948">
<ele>1605.5</ele>
<desc>Speed 0.0 km/h Distance 7.28 km</desc>
<time>2013-07-05T17:49:20.08</time>
<name>1101</name>
<sym>Dot</sym>
</trkpt>
<trkpt lat="42.871107" lon="-2.114948">
<ele>1605.5</ele>
<desc>Speed 0.2 km/h Distance 7.28 km</desc>
<time>2013-07-05T17:49:21.07</time>
<name>1102</name>
<sym>Dot</sym>
</trkpt>
<trkpt lat="42.871107" lon="-2.114948">
<ele>1605.5</ele>
<desc>Speed 0.0 km/h Distance 7.28 km</desc>
<time>2013-07-05T17:49:22.06</time>
<name>1103</name>
<sym>Dot</sym>
</trkpt>
<trkpt lat="42.871107" lon="-2.114948">
<ele>1605.5</ele>
<desc>Speed 0.2 km/h Distance 7.28 km</desc>
<time>2013-07-05T17:49:23.06</time>
<name>1104</name>
<sym>Dot</sym>
</trkpt>
<trkpt lat="42.871107" lon="-2.114948">
<ele>1605.5</ele>
<desc>Speed 0.3 km/h Distance 7.28 km</desc>
<time>2013-07-05T17:49:24.06</time>
<name>1105</name>
<sym>Dot</sym>
</trkpt>
<trkpt lat="42.871107" lon="-2.114948">
<ele>1605.5</ele>
<desc>Speed 0.1 km/h Distance 7.28 km</desc>
<time>2013-07-05T17:49:25.05</time>
<name>1106</name>
<sym>Dot</sym>
</trkpt>
<trkpt lat="42.871107" lon="-2.114948">
<ele>1605.5</ele>
<desc>Speed 0.1 km/h Distance 7.28 km</desc>
<time>2013-07-05T17:49:26.04</time>
<name>1107</name>
<sym>Dot</sym>
</trkpt>
<trkpt lat="42.871107" lon="-2.114948">
<ele>1605.5</ele>
<desc>Speed 0.5 km/h Distance 7.28 km</desc>
<time>2013-07-05T17:49:27.04</time>
<name>1108</name>
<sym>Dot</sym>
</trkpt>
<trkpt lat="42.871107" lon="-2.114948">
<ele>1605.5</ele>
<desc>Speed 0.1 km/h Distance 7.28 km</desc>
<time>2013-07-05T17:49:28.03</time>
<name>1109</name>
<sym>Dot</sym>
</trkpt>
<trkpt lat="42.871107" lon="-2.114948">
<ele>1605.5</ele>
<desc>Speed 0.1 km/h Distance 7.28 km</desc>
<time>2013-07-05T17:49:29.02</time>
<name>1110</name>
<sym>Dot</sym>
</trkpt>
<trkpt lat="42.871107" lon="-2.114948">
<ele>1605.5</ele>
<desc>Speed 0.0 km/h Distance 7.28 km</desc>
<time>2013-07-05T17:49:30.00</time>
<name>1111</name>
<sym>Dot</sym>
</trkpt>
<trkpt lat="42.871107" lon="-2.114948">
<ele>1605.5</ele>
<desc>Speed 0.2 km/h Distance 7.28 km</desc>
<time>2013-07-05T17:49:31.00</time>
<name>1112</name>
<sym>Dot</sym>
</trkpt>
<trkpt lat="42.871107" lon="-2.114948">
<ele>1605.5</ele>
<desc>Speed 0.2 km/h Distance 7.28 km</desc>
<time>2013-07-05T17:49:31.99</time>
<name>1113</name>
<sym>Dot</sym>
</trkpt>
<trkpt lat="42.871107" lon="-2.114948">
<ele>1605.5</ele>
<desc>Speed 0.1 km/h Distance 7.28 km</desc>
<time>2013-07-05T17:49:32.98</time>
<name>1114</name>
<sym>Dot</sym>
</trkpt>
<trkpt lat="42.871107" lon="-2.114948">
<ele>1605.5</ele>
<desc>Speed 0.4 km/h Distance 7.28 km</desc>
<time>2013-07-05T17:49:33.98</time>
<name>1115</name>
<sym>Dot</sym>
</trkpt>
<trkpt lat="42.871107" lon="-2.114948">
<ele>1605.5</ele>
<desc>Speed 0.3 km/h Distance 7.28 km</desc>
<time>2013-07-05T17:49:34.97</time>
<name>1116</name>
<sym>Dot</sym>
</trkpt>
<trkpt lat="42.871107" lon="-2.114948">
<ele>1605.5</ele>
<desc>Speed 0.3 km/h Distance 7.28 km</desc>
<time>2013-07-05T17:49:35.97</time>
<name>1117</name>
<sym>Dot</sym>
</trkpt>
<trkpt lat="42.871107" lon="-2.114948">
<ele>1605.5</ele>
<desc>Speed 0.2 km/h Distance 7.28 km</desc>
<time>2013-07-05T17:49:36.97</time>
<name>1118</name>
<sym>Dot</sym>
</trkpt>
<trkpt lat="42.871107" lon="-2.114948">
<ele>1605.5</ele>
<desc>Speed 0.1 km/h Distance 7.28 km</desc>
<time>2013-07-05T17:49:37.96</time>
<name>1119</name>
<sym>Dot</sym>
</trkpt>
<trkpt lat="42.871107" lon="-2.114948">
<ele>1605.5</ele>
<desc>Speed 0.1 km/h Distance 7.28 km</desc>
<time>2013-07-05T17:49:38.95</time>
<name>1120</name>
<sym>Dot</sym>
</trkpt>
<trkpt lat="42.871107" lon="-2.114948">
<ele>1605.5</ele>
<desc>Speed 0.1 km/h Distance 7.28 km</desc>
<time>2013-07-05T17:49:39.95</time>
<name>1121</name>
<sym>Dot</sym>
</trkpt>
<trkpt lat="42.871108" lon="-2.114948">
<ele>1605.5</ele>
<desc>Speed 0.1 km/h Distance 7.28 km</desc>
<time>2013-07-05T17:49:40.95</time>
<name>1122</name>
<sym>Dot</sym>
</trkpt>
<trkpt lat="42.871108" lon="-2.114948">
<ele>1605.5</ele>
<desc>Speed 0.0 km/h Distance 7.28 km</desc>
<time>2013-07-05T17:49:41.94</time>
<name>1123</name>
<sym>Dot</sym>
</trkpt>
<trkpt lat="42.871108" lon="-2.114948">
<ele>1605.5</ele>
<desc>Speed 0.1 km/h Distance 7.28 km</desc>
<time>2013-07-05T17:49:42.92</time>
<name>1124</name>
<sym>Dot</sym>
</trkpt>
<trkpt lat="42.871108" lon="-2.114948">
<ele>1605.5</ele>
<desc>Speed 0.1 km/h Distance 7.28 km</desc>
<time>2013-07-05T17:49:43.91</time>
<name>1125</name>
<sym>Dot</sym>
</trkpt>
<trkpt lat="42.871108" lon="-2.114948">
<ele>1605.5</ele>
<desc>Speed 0.3 km/h Distance 7.28 km</desc>
<time>2013-07-05T17:49:44.91</time>
<name>1126</name>
<sym>Dot</sym>
</trkpt>
<trkpt lat="42.871108" lon="-2.114948">
<ele>1605.5</ele>
<desc>Speed 0.2 km/h Distance 7.28 km</desc>
<time>2013-07-05T17:49:45.90</time>
<name>1127</name>
<sym>Dot</sym>
</trkpt>
<trkpt lat="42.871108" lon="-2.114948">
<ele>1605.5</ele>
<desc>Speed 0.1 km/h Distance 7.28 km</desc>
<time>2013-07-05T17:49:46.89</time>
<name>1128</name>
<sym>Dot</sym>
</trkpt>
<trkpt lat="42.871108" lon="-2.114948">
<ele>1605.5</ele>
<desc>Speed 0.4 km/h Distance 7.28 km</desc>
<time>2013-07-05T17:49:47.88</time>
<name>1129</name>
<sym>Dot</sym>
</trkpt>
<trkpt lat="42.871108" lon="-2.114948">
<ele>1605.5</ele>
<desc>Speed 0.1 km/h Distance 7.28 km</desc>
<time>2013-07-05T17:49:48.87</time>
<name>1130</name>
<sym>Dot</sym>
</trkpt>
<trkpt lat="42.871108" lon="-2.114948">
<ele>1605.5</ele>
<desc>Speed 0.3 km/h Distance 7.28 km</desc>
<time>2013-07-05T17:49:49.86</time>
<name>1131</name>
<sym>Dot</sym>
</trkpt>
<trkpt lat="42.871108" lon="-2.114948">
<ele>1605.5</ele>
<desc>Speed 0.0 km/h Distance 7.28 km</desc>
<time>2013-07-05T17:49:50.85</time>
<name>1132</name>
<sym>Dot</sym>
</trkpt>
<trkpt lat="42.871108" lon="-2.114948">
<ele>1605.5</ele>
<desc>Speed 0.2 km/h Distance 7.28 km</desc>
<time>2013-07-05T17:49:51.84</time>
<name>1133</name>
<sym>Dot</sym>
</trkpt>
<trkpt lat="42.871108" lon="-2.114948">
<ele>1605.5</ele>
<desc>Speed 0.2 km/h Distance 7.28 km</desc>
<time>2013-07-05T17:49:52.84</time>
<name>1134</name>
<sym>Dot</sym>
</trkpt>
<trkpt lat="42.871108" lon="-2.114948">
<ele>1605.5</ele>
<desc>Speed 0.2 km/h Distance 7.28 km</desc>
<time>2013-07-05T17:49:53.83</time>
<name>1135</name>
<sym>Dot</sym>
</trkpt>
<trkpt lat="42.871108" lon="-2.114948">
<ele>1605.5</ele>
<desc>Speed 0.3 km/h Distance 7.28 km</desc>
<time>2013-07-05T17:49:54.82</time>
<name>1136</name>
<sym>Dot</sym>
</trkpt>
<trkpt lat="42.871108" lon="-2.114948">
<ele>1605.5</ele>
<desc>Speed 0.2 km/h Distance 7.28 km</desc>
<time>2013-07-05T17:49:55.82</time>
<name>1137</name>
<sym>Dot</sym>
</trkpt>
<trkpt lat="42.871108" lon="-2.114948">
<ele>1605.5</ele>
<desc>Speed 0.3 km/h Distance 7.28 km</desc>
<time>2013-07-05T17:49:56.81</time>
<name>1138</name>
<sym>Dot</sym>
</trkpt>
<trkpt lat="42.871107" lon="-2.114948">
<ele>1605.5</ele>
<desc>Speed 0.3 km/h Distance 7.28 km</desc>
<time>2013-07-05T17:49:57.80</time>
<name>1139</name>
<sym>Dot</sym>
</trkpt>
<trkpt lat="42.871107" lon="-2.114948">
<ele>1605.5</ele>
<desc>Speed 0.1 km/h Distance 7.28 km</desc>
<time>2013-07-05T17:49:58.79</time>
<name>1140</name>
<sym>Dot</sym>
</trkpt>
<trkpt lat="42.871107" lon="-2.114948">
<ele>1605.5</ele>
<desc>Speed 0.2 km/h Distance 7.28 km</desc>
<time>2013-07-05T17:49:59.79</time>
<name>1141</name>
<sym>Dot</sym>
</trkpt>
<trkpt lat="42.871107" lon="-2.114948">
<ele>1605.5</ele>
<desc>Speed 0.1 km/h Distance 7.28 km</desc>
<time>2013-07-05T17:50:00.78</time>
<name>1142</name>
<sym>Dot</sym>
</trkpt>
<trkpt lat="42.871107" lon="-2.114948">
<ele>1605.5</ele>
<desc>Speed 0.2 km/h Distance 7.28 km</desc>
<time>2013-07-05T17:50:01.78</time>
<name>1143</name>
<sym>Dot</sym>
</trkpt>
<trkpt lat="42.871107" lon="-2.114948">
<ele>1605.5</ele>
<desc>Speed 0.1 km/h Distance 7.28 km</desc>
<time>2013-07-05T17:50:02.77</time>
<name>1144</name>
<sym>Dot</sym>
</trkpt>
<trkpt lat="42.871107" lon="-2.114948">
<ele>1605.5</ele>
<desc>Speed 0.2 km/h Distance 7.28 km</desc>
<time>2013-07-05T17:50:03.76</time>
<name>1145</name>
<sym>Dot</sym>
</trkpt>
<trkpt lat="42.871107" lon="-2.114948">
<ele>1605.5</ele>
<desc>Speed 0.2 km/h Distance 7.28 km</desc>
<time>2013-07-05T17:50:04.75</time>
<name>1146</name>
<sym>Dot</sym>
</trkpt>
<trkpt lat="42.871107" lon="-2.114948">
<ele>1605.5</ele>
<desc>Speed 0.3 km/h Distance 7.28 km</desc>
<time>2013-07-05T17:50:05.74</time>
<name>1147</name>
<sym>Dot</sym>
</trkpt>
<trkpt lat="42.871107" lon="-2.114948">
<ele>1605.5</ele>
<desc>Speed 0.1 km/h Distance 7.28 km</desc>
<time>2013-07-05T17:50:06.74</time>
<name>1148</name>
<sym>Dot</sym>
</trkpt>
<trkpt lat="42.871107" lon="-2.114948">
<ele>1605.5</ele>
<desc>Speed 0.3 km/h Distance 7.28 km</desc>
<time>2013-07-05T17:50:07.73</time>
<name>1149</name>
<sym>Dot</sym>
</trkpt>
<trkpt lat="42.871107" lon="-2.114948">
<ele>1605.5</ele>
<desc>Speed 0.2 km/h Distance 7.28 km</desc>
<time>2013-07-05T17:50:08.72</time>
<name>1150</name>
<sym>Dot</sym>
</trkpt>
<trkpt lat="42.871107" lon="-2.114948">
<ele>1605.5</ele>
<desc>Speed 0.3 km/h Distance 7.28 km</desc>
<time>2013-07-05T17:50:09.71</time>
<name>1151</name>
<sym>Dot</sym>
</trkpt>
<trkpt lat="42.871107" lon="-2.114948">
<ele>1605.5</ele>
<desc>Speed 0.1 km/h Distance 7.28 km</desc>
<time>2013-07-05T17:50:10.71</time>
<name>1152</name>
<sym>Dot</sym>
</trkpt>
<trkpt lat="42.871107" lon="-2.114948">
<ele>1605.5</ele>
<desc>Speed 0.2 km/h Distance 7.28 km</desc>
<time>2013-07-05T17:50:11.70</time>
<name>1153</name>
<sym>Dot</sym>
</trkpt>
<trkpt lat="42.871107" lon="-2.114948">
<ele>1605.5</ele>
<desc>Speed 0.2 km/h Distance 7.28 km</desc>
<time>2013-07-05T17:50:12.69</time>
<name>1154</name>
<sym>Dot</sym>
</trkpt>
<trkpt lat="42.871107" lon="-2.114948">
<ele>1605.5</ele>
<desc>Speed 0.2 km/h Distance 7.28 km</desc>
<time>2013-07-05T17:50:13.68</time>
<name>1155</name>
<sym>Dot</sym>
</trkpt>
<trkpt lat="42.871107" lon="-2.114948">
<ele>1605.5</ele>
<desc>Speed 0.0 km/h Distance 7.28 km</desc>
<time>2013-07-05T17:50:14.68</time>
<name>1156</name>
<sym>Dot</sym>
</trkpt>
<trkpt lat="42.871107" lon="-2.114948">
<ele>1605.5</ele>
<desc>Speed 0.2 km/h Distance 7.28 km</desc>
<time>2013-07-05T17:50:15.67</time>
<name>1157</name>
<sym>Dot</sym>
</trkpt>
<trkpt lat="42.871107" lon="-2.114948">
<ele>1605.5</ele>
<desc>Speed 0.2 km/h Distance 7.28 km</desc>
<time>2013-07-05T17:50:16.66</time>
<name>1158</name>
<sym>Dot</sym>
</trkpt>
<trkpt lat="42.871107" lon="-2.114948">
<ele>1605.5</ele>
<desc>Speed 0.1 km/h Distance 7.28 km</desc>
<time>2013-07-05T17:50:17.65</time>
<name>1159</name>
<sym>Dot</sym>
</trkpt>
<trkpt lat="42.871107" lon="-2.114948">
<ele>1605.5</ele>
<desc>Speed 0.2 km/h Distance 7.28 km</desc>
<time>2013-07-05T17:50:18.64</time>
<name>1160</name>
<sym>Dot</sym>
</trkpt>
<trkpt lat="42.871107" lon="-2.114948">
<ele>1605.5</ele>
<desc>Speed 0.3 km/h Distance 7.28 km</desc>
<time>2013-07-05T17:50:19.64</time>
<name>1161</name>
<sym>Dot</sym>
</trkpt>
<trkpt lat="42.871107" lon="-2.114948">
<ele>1605.5</ele>
<desc>Speed 0.1 km/h Distance 7.28 km</desc>
<time>2013-07-05T17:50:20.64</time>
<name>1162</name>
<sym>Dot</sym>
</trkpt>
<trkpt lat="42.871107" lon="-2.114948">
<ele>1605.5</ele>
<desc>Speed 0.2 km/h Distance 7.28 km</desc>
<time>2013-07-05T17:50:21.63</time>
<name>1163</name>
<sym>Dot</sym>
</trkpt>
<trkpt lat="42.871107" lon="-2.114948">
<ele>1605.5</ele>
<desc>Speed 0.1 km/h Distance 7.28 km</desc>
<time>2013-07-05T17:50:22.62</time>
<name>1164</name>
<sym>Dot</sym>
</trkpt>
<trkpt lat="42.871107" lon="-2.114948">
<ele>1605.5</ele>
<desc>Speed 0.1 km/h Distance 7.28 km</desc>
<time>2013-07-05T17:50:23.61</time>
<name>1165</name>
<sym>Dot</sym>
</trkpt>
<trkpt lat="42.871107" lon="-2.114948">
<ele>1605.5</ele>
<desc>Speed 0.1 km/h Distance 7.28 km</desc>
<time>2013-07-05T17:50:24.60</time>
<name>1166</name>
<sym>Dot</sym>
</trkpt>
<trkpt lat="42.871107" lon="-2.114948">
<ele>1605.5</ele>
<desc>Speed 0.1 km/h Distance 7.28 km</desc>
<time>2013-07-05T17:50:25.60</time>
<name>1167</name>
<sym>Dot</sym>
</trkpt>
<trkpt lat="42.871107" lon="-2.114948">
<ele>1605.5</ele>
<desc>Speed 0.1 km/h Distance 7.28 km</desc>
<time>2013-07-05T17:50:26.59</time>
<name>1168</name>
<sym>Dot</sym>
</trkpt>
<trkpt lat="42.871107" lon="-2.114948">
<ele>1605.5</ele>
<desc>Speed 0.3 km/h Distance 7.28 km</desc>
<time>2013-07-05T17:50:27.58</time>
<name>1169</name>
<sym>Dot</sym>
</trkpt>
<trkpt lat="42.871107" lon="-2.114948">
<ele>1605.5</ele>
<desc>Speed 0.0 km/h Distance 7.28 km</desc>
<time>2013-07-05T17:50:28.57</time>
<name>1170</name>
<sym>Dot</sym>
</trkpt>
<trkpt lat="42.871107" lon="-2.114948">
<ele>1605.5</ele>
<desc>Speed 0.1 km/h Distance 7.28 km</desc>
<time>2013-07-05T17:50:29.56</time>
<name>1171</name>
<sym>Dot</sym>
</trkpt>
<trkpt lat="42.871107" lon="-2.114948">
<ele>1605.5</ele>
<desc>Speed 0.1 km/h Distance 7.28 km</desc>
<time>2013-07-05T17:50:30.55</time>
<name>1172</name>
<sym>Dot</sym>
</trkpt>
<trkpt lat="42.871107" lon="-2.114948">
<ele>1605.5</ele>
<desc>Speed 0.1 km/h Distance 7.28 km</desc>
<time>2013-07-05T17:50:31.55</time>
<name>1173</name>
<sym>Dot</sym>
</trkpt>
<trkpt lat="42.871107" lon="-2.114948">
<ele>1605.5</ele>
<desc>Speed 0.1 km/h Distance 7.28 km</desc>
<time>2013-07-05T17:50:32.54</time>
<name>1174</name>
<sym>Dot</sym>
</trkpt>
<trkpt lat="42.871107" lon="-2.114948">
<ele>1605.5</ele>
<desc>Speed 0.2 km/h Distance 7.28 km</desc>
<time>2013-07-05T17:50:35.95</time>
<name>1175</name>
<sym>Dot</sym>
</trkpt>
<trkpt lat="42.871107" lon="-2.114948">
<ele>1605.5</ele>
<desc>Speed 0.1 km/h Distance 7.28 km</desc>
<time>2013-07-05T17:50:37.38</time>
<name>1176</name>
<sym>Dot</sym>
</trkpt>
<trkpt lat="42.871107" lon="-2.114948">
<ele>1605.5</ele>
<desc>Speed 0.3 km/h Distance 7.28 km</desc>
<time>2013-07-05T17:50:38.37</time>
<name>1177</name>
<sym>Dot</sym>
</trkpt>
<trkpt lat="42.871107" lon="-2.114948">
<ele>1605.5</ele>
<desc>Speed 0.1 km/h Distance 7.28 km</desc>
<time>2013-07-05T17:50:39.36</time>
<name>1178</name>
<sym>Dot</sym>
</trkpt>
<trkpt lat="42.871107" lon="-2.114948">
<ele>1605.5</ele>
<desc>Speed 0.3 km/h Distance 7.28 km</desc>
<time>2013-07-05T17:50:40.36</time>
<name>1179</name>
<sym>Dot</sym>
</trkpt>
<trkpt lat="42.871107" lon="-2.114948">
<ele>1605.5</ele>
<desc>Speed 0.0 km/h Distance 7.28 km</desc>
<time>2013-07-05T17:50:41.35</time>
<name>1180</name>
<sym>Dot</sym>
</trkpt>
<trkpt lat="42.871107" lon="-2.114948">
<ele>1605.5</ele>
<desc>Speed 0.0 km/h Distance 7.28 km</desc>
<time>2013-07-05T17:50:42.36</time>
<name>1181</name>
<sym>Dot</sym>
</trkpt>
<trkpt lat="42.871107" lon="-2.114948">
<ele>1605.5</ele>
<desc>Speed 0.2 km/h Distance 7.28 km</desc>
<time>2013-07-05T17:50:43.34</time>
<name>1182</name>
<sym>Dot</sym>
</trkpt>
<trkpt lat="42.871107" lon="-2.114948">
<ele>1605.5</ele>
<desc>Speed 0.1 km/h Distance 7.28 km</desc>
<time>2013-07-05T17:50:44.34</time>
<name>1183</name>
<sym>Dot</sym>
</trkpt>
<trkpt lat="42.871107" lon="-2.114948">
<ele>1605.5</ele>
<desc>Speed 0.2 km/h Distance 7.28 km</desc>
<time>2013-07-05T17:50:45.33</time>
<name>1184</name>
<sym>Dot</sym>
</trkpt>
<trkpt lat="42.871107" lon="-2.114948">
<ele>1605.5</ele>
<desc>Speed 0.0 km/h Distance 7.28 km</desc>
<time>2013-07-05T17:50:46.34</time>
<name>1185</name>
<sym>Dot</sym>
</trkpt>
<trkpt lat="42.871107" lon="-2.114948">
<ele>1605.5</ele>
<desc>Speed 0.1 km/h Distance 7.28 km</desc>
<time>2013-07-05T17:50:47.31</time>
<name>1186</name>
<sym>Dot</sym>
</trkpt>
<trkpt lat="42.871107" lon="-2.114948">
<ele>1605.5</ele>
<desc>Speed 0.2 km/h Distance 7.28 km</desc>
<time>2013-07-05T17:50:48.31</time>
<name>1187</name>
<sym>Dot</sym>
</trkpt>
<trkpt lat="42.871107" lon="-2.114948">
<ele>1605.5</ele>
<desc>Speed 0.3 km/h Distance 7.28 km</desc>
<time>2013-07-05T17:50:49.29</time>
<name>1188</name>
<sym>Dot</sym>
</trkpt>
<trkpt lat="42.871107" lon="-2.114948">
<ele>1605.5</ele>
<desc>Speed 0.1 km/h Distance 7.28 km</desc>
<time>2013-07-05T17:50:50.30</time>
<name>1189</name>
<sym>Dot</sym>
</trkpt>
<trkpt lat="42.871107" lon="-2.114948">
<ele>1605.5</ele>
<desc>Speed 0.1 km/h Distance 7.28 km</desc>
<time>2013-07-05T17:50:51.28</time>
<name>1190</name>
<sym>Dot</sym>
</trkpt>
<trkpt lat="42.871107" lon="-2.114948">
<ele>1605.5</ele>
<desc>Speed 0.1 km/h Distance 7.28 km</desc>
<time>2013-07-05T17:50:52.29</time>
<name>1191</name>
<sym>Dot</sym>
</trkpt>
<trkpt lat="42.871107" lon="-2.114948">
<ele>1605.5</ele>
<desc>Speed 0.0 km/h Distance 7.28 km</desc>
<time>2013-07-05T17:50:53.28</time>
<name>1192</name>
<sym>Dot</sym>
</trkpt>
<trkpt lat="42.871107" lon="-2.114948">
<ele>1605.5</ele>
<desc>Speed 0.2 km/h Distance 7.28 km</desc>
<time>2013-07-05T17:50:54.27</time>
<name>1193</name>
<sym>Dot</sym>
</trkpt>
<trkpt lat="42.871107" lon="-2.114948">
<ele>1605.5</ele>
<desc>Speed 0.2 km/h Distance 7.28 km</desc>
<time>2013-07-05T17:50:55.25</time>
<name>1194</name>
<sym>Dot</sym>
</trkpt>
<trkpt lat="42.871107" lon="-2.114948">
<ele>1605.5</ele>
<desc>Speed 0.3 km/h Distance 7.28 km</desc>
<time>2013-07-05T17:50:56.24</time>
<name>1195</name>
<sym>Dot</sym>
</trkpt>
<trkpt lat="42.871107" lon="-2.114948">
<ele>1605.5</ele>
<desc>Speed 0.2 km/h Distance 7.28 km</desc>
<time>2013-07-05T17:50:57.23</time>
<name>1196</name>
<sym>Dot</sym>
</trkpt>
<trkpt lat="42.871107" lon="-2.114948">
<ele>1605.5</ele>
<desc>Speed 0.3 km/h Distance 7.28 km</desc>
<time>2013-07-05T17:50:58.22</time>
<name>1197</name>
<sym>Dot</sym>
</trkpt>
<trkpt lat="42.871107" lon="-2.114948">
<ele>1605.5</ele>
<desc>Speed 0.2 km/h Distance 7.28 km</desc>
<time>2013-07-05T17:50:59.21</time>
<name>1198</name>
<sym>Dot</sym>
</trkpt>
<trkpt lat="42.871107" lon="-2.114947">
<ele>1605.5</ele>
<desc>Speed 0.3 km/h Distance 7.28 km</desc>
<time>2013-07-05T17:51:00.20</time>
<name>1199</name>
<sym>Dot</sym>
</trkpt>
<trkpt lat="42.871107" lon="-2.114947">
<ele>1605.5</ele>
<desc>Speed 0.2 km/h Distance 7.28 km</desc>
<time>2013-07-05T17:51:01.19</time>
<name>1200</name>
<sym>Dot</sym>
</trkpt>
<trkpt lat="42.871107" lon="-2.114947">
<ele>1605.5</ele>
<desc>Speed 0.3 km/h Distance 7.28 km</desc>
<time>2013-07-05T17:51:02.18</time>
<name>1201</name>
<sym>Dot</sym>
</trkpt>
<trkpt lat="42.871107" lon="-2.114947">
<ele>1605.5</ele>
<desc>Speed 0.3 km/h Distance 7.28 km</desc>
<time>2013-07-05T17:51:03.17</time>
<name>1202</name>
<sym>Dot</sym>
</trkpt>
<trkpt lat="42.871107" lon="-2.114947">
<ele>1605.5</ele>
<desc>Speed 0.1 km/h Distance 7.28 km</desc>
<time>2013-07-05T17:51:04.16</time>
<name>1203</name>
<sym>Dot</sym>
</trkpt>
<trkpt lat="42.871107" lon="-2.114947">
<ele>1605.5</ele>
<desc>Speed 0.3 km/h Distance 7.28 km</desc>
<time>2013-07-05T17:51:06.44</time>
<name>1204</name>
<sym>Dot</sym>
</trkpt>
<trkpt lat="42.871107" lon="-2.114947">
<ele>1605.5</ele>
<desc>Speed 0.1 km/h Distance 7.28 km</desc>
<time>2013-07-05T17:51:07.15</time>
<name>1205</name>
<sym>Dot</sym>
</trkpt>
<trkpt lat="42.871107" lon="-2.114947">
<ele>1605.5</ele>
<desc>Speed 0.0 km/h Distance 7.28 km</desc>
<time>2013-07-05T17:51:08.14</time>
<name>1206</name>
<sym>Dot</sym>
</trkpt>
<trkpt lat="42.871107" lon="-2.114947">
<ele>1605.5</ele>
<desc>Speed 0.1 km/h Distance 7.28 km</desc>
<time>2013-07-05T17:51:09.13</time>
<name>1207</name>
<sym>Dot</sym>
</trkpt>
<trkpt lat="42.871107" lon="-2.114947">
<ele>1605.5</ele>
<desc>Speed 0.2 km/h Distance 7.28 km</desc>
<time>2013-07-05T17:51:10.12</time>
<name>1208</name>
<sym>Dot</sym>
</trkpt>
<trkpt lat="42.871107" lon="-2.114947">
<ele>1605.5</ele>
<desc>Speed 0.1 km/h Distance 7.28 km</desc>
<time>2013-07-05T17:51:11.11</time>
<name>1209</name>
<sym>Dot</sym>
</trkpt>
<trkpt lat="42.871107" lon="-2.114947">
<ele>1605.5</ele>
<desc>Speed 0.3 km/h Distance 7.28 km</desc>
<time>2013-07-05T17:51:12.10</time>
<name>1210</name>
<sym>Dot</sym>
</trkpt>
<trkpt lat="42.871107" lon="-2.114947">
<ele>1605.5</ele>
<desc>Speed 0.1 km/h Distance 7.28 km</desc>
<time>2013-07-05T17:51:13.09</time>
<name>1211</name>
<sym>Dot</sym>
</trkpt>
<trkpt lat="42.871107" lon="-2.114947">
<ele>1605.5</ele>
<desc>Speed 0.2 km/h Distance 7.28 km</desc>
<time>2013-07-05T17:51:14.09</time>
<name>1212</name>
<sym>Dot</sym>
</trkpt>
<trkpt lat="42.871107" lon="-2.114947">
<ele>1605.5</ele>
<desc>Speed 0.2 km/h Distance 7.28 km</desc>
<time>2013-07-05T17:51:15.08</time>
<name>1213</name>
<sym>Dot</sym>
</trkpt>
<trkpt lat="42.871107" lon="-2.114947">
<ele>1605.5</ele>
<desc>Speed 0.2 km/h Distance 7.28 km</desc>
<time>2013-07-05T17:51:16.08</time>
<name>1214</name>
<sym>Dot</sym>
</trkpt>
<trkpt lat="42.871107" lon="-2.114947">
<ele>1605.5</ele>
<desc>Speed 0.2 km/h Distance 7.28 km</desc>
<time>2013-07-05T17:51:17.06</time>
<name>1215</name>
<sym>Dot</sym>
</trkpt>
<trkpt lat="42.871105" lon="-2.114947">
<ele>1605.5</ele>
<desc>Speed 0.0 km/h Distance 7.28 km</desc>
<time>2013-07-05T17:51:18.05</time>
<name>1216</name>
<sym>Dot</sym>
</trkpt>
<trkpt lat="42.871105" lon="-2.114947">
<ele>1605.5</ele>
<desc>Speed 0.1 km/h Distance 7.28 km</desc>
<time>2013-07-05T17:51:19.04</time>
<name>1217</name>
<sym>Dot</sym>
</trkpt>
<trkpt lat="42.871105" lon="-2.114947">
<ele>1605.5</ele>
<desc>Speed 0.2 km/h Distance 7.28 km</desc>
<time>2013-07-05T17:51:20.03</time>
<name>1218</name>
<sym>Dot</sym>
</trkpt>
<trkpt lat="42.871105" lon="-2.114947">
<ele>1605.5</ele>
<desc>Speed 0.1 km/h Distance 7.28 km</desc>
<time>2013-07-05T17:51:21.02</time>
<name>1219</name>
<sym>Dot</sym>
</trkpt>
<trkpt lat="42.871105" lon="-2.114947">
<ele>1605.5</ele>
<desc>Speed 0.2 km/h Distance 7.28 km</desc>
<time>2013-07-05T17:51:22.01</time>
<name>1220</name>
<sym>Dot</sym>
</trkpt>
<trkpt lat="42.871105" lon="-2.114947">
<ele>1605.5</ele>
<desc>Speed 0.2 km/h Distance 7.28 km</desc>
<time>2013-07-05T17:51:23.00</time>
<name>1221</name>
<sym>Dot</sym>
</trkpt>
<trkpt lat="42.871105" lon="-2.114947">
<ele>1605.5</ele>
<desc>Speed 0.2 km/h Distance 7.28 km</desc>
<time>2013-07-05T17:51:23.99</time>
<name>1222</name>
<sym>Dot</sym>
</trkpt>
<trkpt lat="42.871105" lon="-2.114947">
<ele>1605.5</ele>
<desc>Speed 0.2 km/h Distance 7.28 km</desc>
<time>2013-07-05T17:51:24.98</time>
<name>1223</name>
<sym>Dot</sym>
</trkpt>
<trkpt lat="42.871105" lon="-2.114947">
<ele>1605.5</ele>
<desc>Speed 0.2 km/h Distance 7.28 km</desc>
<time>2013-07-05T17:51:25.98</time>
<name>1224</name>
<sym>Dot</sym>
</trkpt>
<trkpt lat="42.871105" lon="-2.114947">
<ele>1605.5</ele>
<desc>Speed 0.2 km/h Distance 7.28 km</desc>
<time>2013-07-05T17:51:27.12</time>
<name>1225</name>
<sym>Dot</sym>
</trkpt>
<trkpt lat="42.871105" lon="-2.114947">
<ele>1605.5</ele>
<desc>Speed 0.2 km/h Distance 7.28 km</desc>
<time>2013-07-05T17:51:27.97</time>
<name>1226</name>
<sym>Dot</sym>
</trkpt>
<trkpt lat="42.871105" lon="-2.114947">
<ele>1605.5</ele>
<desc>Speed 0.1 km/h Distance 7.28 km</desc>
<time>2013-07-05T17:51:28.96</time>
<name>1227</name>
<sym>Dot</sym>
</trkpt>
<trkpt lat="42.871105" lon="-2.114947">
<ele>1605.5</ele>
<desc>Speed 0.2 km/h Distance 7.28 km</desc>
<time>2013-07-05T17:51:29.95</time>
<name>1228</name>
<sym>Dot</sym>
</trkpt>
<trkpt lat="42.871105" lon="-2.114947">
<ele>1605.5</ele>
<desc>Speed 0.2 km/h Distance 7.28 km</desc>
<time>2013-07-05T17:51:30.94</time>
<name>1229</name>
<sym>Dot</sym>
</trkpt>
<trkpt lat="42.871105" lon="-2.114947">
<ele>1605.5</ele>
<desc>Speed 0.1 km/h Distance 7.28 km</desc>
<time>2013-07-05T17:51:31.93</time>
<name>1230</name>
<sym>Dot</sym>
</trkpt>
<trkpt lat="42.871105" lon="-2.114947">
<ele>1605.5</ele>
<desc>Speed 0.2 km/h Distance 7.28 km</desc>
<time>2013-07-05T17:51:32.93</time>
<name>1231</name>
<sym>Dot</sym>
</trkpt>
<trkpt lat="42.871105" lon="-2.114947">
<ele>1605.5</ele>
<desc>Speed 0.2 km/h Distance 7.28 km</desc>
<time>2013-07-05T17:51:33.92</time>
<name>1232</name>
<sym>Dot</sym>
</trkpt>
<trkpt lat="42.871105" lon="-2.114947">
<ele>1605.5</ele>
<desc>Speed 0.2 km/h Distance 7.28 km</desc>
<time>2013-07-05T17:51:34.92</time>
<name>1233</name>
<sym>Dot</sym>
</trkpt>
<trkpt lat="42.871105" lon="-2.114947">
<ele>1605.5</ele>
<desc>Speed 0.1 km/h Distance 7.28 km</desc>
<time>2013-07-05T17:51:35.91</time>
<name>1234</name>
<sym>Dot</sym>
</trkpt>
<trkpt lat="42.871105" lon="-2.114947">
<ele>1605.5</ele>
<desc>Speed 0.3 km/h Distance 7.28 km</desc>
<time>2013-07-05T17:51:36.91</time>
<name>1235</name>
<sym>Dot</sym>
</trkpt>
<trkpt lat="42.871105" lon="-2.114947">
<ele>1605.5</ele>
<desc>Speed 0.1 km/h Distance 7.28 km</desc>
<time>2013-07-05T17:51:37.90</time>
<name>1236</name>
<sym>Dot</sym>
</trkpt>
<trkpt lat="42.871105" lon="-2.114947">
<ele>1605.5</ele>
<desc>Speed 0.2 km/h Distance 7.28 km</desc>
<time>2013-07-05T17:51:38.90</time>
<name>1237</name>
<sym>Dot</sym>
</trkpt>
<trkpt lat="42.871105" lon="-2.114947">
<ele>1605.5</ele>
<desc>Speed 0.2 km/h Distance 7.28 km</desc>
<time>2013-07-05T17:51:39.89</time>
<name>1238</name>
<sym>Dot</sym>
</trkpt>
<trkpt lat="42.871107" lon="-2.114947">
<ele>1605.5</ele>
<desc>Speed 0.1 km/h Distance 7.28 km</desc>
<time>2013-07-05T17:51:40.87</time>
<name>1239</name>
<sym>Dot</sym>
</trkpt>
<trkpt lat="42.871107" lon="-2.114947">
<ele>1605.5</ele>
<desc>Speed 0.3 km/h Distance 7.28 km</desc>
<time>2013-07-05T17:51:41.86</time>
<name>1240</name>
<sym>Dot</sym>
</trkpt>
<trkpt lat="42.871107" lon="-2.114947">
<ele>1605.5</ele>
<desc>Speed 0.1 km/h Distance 7.28 km</desc>
<time>2013-07-05T17:51:42.85</time>
<name>1241</name>
<sym>Dot</sym>
</trkpt>
<trkpt lat="42.871107" lon="-2.114947">
<ele>1605.5</ele>
<desc>Speed 0.1 km/h Distance 7.28 km</desc>
<time>2013-07-05T17:51:43.85</time>
<name>1242</name>
<sym>Dot</sym>
</trkpt>
<trkpt lat="42.871107" lon="-2.114947">
<ele>1605.5</ele>
<desc>Speed 0.2 km/h Distance 7.28 km</desc>
<time>2013-07-05T17:51:44.84</time>
<name>1243</name>
<sym>Dot</sym>
</trkpt>
<trkpt lat="42.871107" lon="-2.114947">
<ele>1605.5</ele>
<desc>Speed 0.2 km/h Distance 7.28 km</desc>
<time>2013-07-05T17:51:45.84</time>
<name>1244</name>
<sym>Dot</sym>
</trkpt>
<trkpt lat="42.871107" lon="-2.114947">
<ele>1605.5</ele>
<desc>Speed 0.1 km/h Distance 7.28 km</desc>
<time>2013-07-05T17:51:46.83</time>
<name>1245</name>
<sym>Dot</sym>
</trkpt>
<trkpt lat="42.871107" lon="-2.114947">
<ele>1605.5</ele>
<desc>Speed 0.2 km/h Distance 7.28 km</desc>
<time>2013-07-05T17:51:47.82</time>
<name>1246</name>
<sym>Dot</sym>
</trkpt>
<trkpt lat="42.871105" lon="-2.114947">
<ele>1605.5</ele>
<desc>Speed 0.2 km/h Distance 7.28 km</desc>
<time>2013-07-05T17:51:48.81</time>
<name>1247</name>
<sym>Dot</sym>
</trkpt>
<trkpt lat="42.871105" lon="-2.114947">
<ele>1605.5</ele>
<desc>Speed 0.3 km/h Distance 7.28 km</desc>
<time>2013-07-05T17:51:49.80</time>
<name>1248</name>
<sym>Dot</sym>
</trkpt>
<trkpt lat="42.871105" lon="-2.114947">
<ele>1605.5</ele>
<desc>Speed 0.1 km/h Distance 7.28 km</desc>
<time>2013-07-05T17:51:50.79</time>
<name>1249</name>
<sym>Dot</sym>
</trkpt>
<trkpt lat="42.871105" lon="-2.114947">
<ele>1605.5</ele>
<desc>Speed 0.1 km/h Distance 7.28 km</desc>
<time>2013-07-05T17:51:51.78</time>
<name>1250</name>
<sym>Dot</sym>
</trkpt>
<trkpt lat="42.871105" lon="-2.114947">
<ele>1605.5</ele>
<desc>Speed 0.1 km/h Distance 7.28 km</desc>
<time>2013-07-05T17:51:52.78</time>
<name>1251</name>
<sym>Dot</sym>
</trkpt>
<trkpt lat="42.871105" lon="-2.114947">
<ele>1605.5</ele>
<desc>Speed 0.2 km/h Distance 7.28 km</desc>
<time>2013-07-05T17:51:53.77</time>
<name>1252</name>
<sym>Dot</sym>
</trkpt>
<trkpt lat="42.871105" lon="-2.114947">
<ele>1605.5</ele>
<desc>Speed 0.1 km/h Distance 7.28 km</desc>
<time>2013-07-05T17:51:54.76</time>
<name>1253</name>
<sym>Dot</sym>
</trkpt>
<trkpt lat="42.871105" lon="-2.114947">
<ele>1605.5</ele>
<desc>Speed 0.2 km/h Distance 7.28 km</desc>
<time>2013-07-05T17:51:55.75</time>
<name>1254</name>
<sym>Dot</sym>
</trkpt>
<trkpt lat="42.871105" lon="-2.114947">
<ele>1605.5</ele>
<desc>Speed 0.2 km/h Distance 7.28 km</desc>
<time>2013-07-05T17:51:56.74</time>
<name>1255</name>
<sym>Dot</sym>
</trkpt>
<trkpt lat="42.871105" lon="-2.114947">
<ele>1605.5</ele>
<desc>Speed 0.2 km/h Distance 7.28 km</desc>
<time>2013-07-05T17:51:57.73</time>
<name>1256</name>
<sym>Dot</sym>
</trkpt>
<trkpt lat="42.871105" lon="-2.114945">
<ele>1605.5</ele>
<desc>Speed 0.2 km/h Distance 7.28 km</desc>
<time>2013-07-05T17:51:58.72</time>
<name>1257</name>
<sym>Dot</sym>
</trkpt>
<trkpt lat="42.871105" lon="-2.114945">
<ele>1605.5</ele>
<desc>Speed 0.2 km/h Distance 7.28 km</desc>
<time>2013-07-05T17:51:59.71</time>
<name>1258</name>
<sym>Dot</sym>
</trkpt>
<trkpt lat="42.871105" lon="-2.114945">
<ele>1605.5</ele>
<desc>Speed 0.3 km/h Distance 7.28 km</desc>
<time>2013-07-05T17:52:00.71</time>
<name>1259</name>
<sym>Dot</sym>
</trkpt>
<trkpt lat="42.871105" lon="-2.114945">
<ele>1605.5</ele>
<desc>Speed 0.3 km/h Distance 7.28 km</desc>
<time>2013-07-05T17:52:01.69</time>
<name>1260</name>
<sym>Dot</sym>
</trkpt>
<trkpt lat="42.871105" lon="-2.114945">
<ele>1605.5</ele>
<desc>Speed 0.1 km/h Distance 7.28 km</desc>
<time>2013-07-05T17:52:02.68</time>
<name>1261</name>
<sym>Dot</sym>
</trkpt>
<trkpt lat="42.871105" lon="-2.114945">
<ele>1605.5</ele>
<desc>Speed 0.1 km/h Distance 7.28 km</desc>
<time>2013-07-05T17:52:03.67</time>
<name>1262</name>
<sym>Dot</sym>
</trkpt>
<trkpt lat="42.871105" lon="-2.114945">
<ele>1605.5</ele>
<desc>Speed 0.0 km/h Distance 7.28 km</desc>
<time>2013-07-05T17:52:04.66</time>
<name>1263</name>
<sym>Dot</sym>
</trkpt>
<trkpt lat="42.871105" lon="-2.114945">
<ele>1605.5</ele>
<desc>Speed 0.2 km/h Distance 7.28 km</desc>
<time>2013-07-05T17:52:05.65</time>
<name>1264</name>
<sym>Dot</sym>
</trkpt>
<trkpt lat="42.871105" lon="-2.114945">
<ele>1605.5</ele>
<desc>Speed 0.1 km/h Distance 7.28 km</desc>
<time>2013-07-05T17:52:06.64</time>
<name>1265</name>
<sym>Dot</sym>
</trkpt>
<trkpt lat="42.871105" lon="-2.114945">
<ele>1605.5</ele>
<desc>Speed 0.2 km/h Distance 7.28 km</desc>
<time>2013-07-05T17:52:07.63</time>
<name>1266</name>
<sym>Dot</sym>
</trkpt>
<trkpt lat="42.871105" lon="-2.114945">
<ele>1605.5</ele>
<desc>Speed 0.3 km/h Distance 7.28 km</desc>
<time>2013-07-05T17:52:08.62</time>
<name>1267</name>
<sym>Dot</sym>
</trkpt>
<trkpt lat="42.871105" lon="-2.114945">
<ele>1605.5</ele>
<desc>Speed 0.1 km/h Distance 7.28 km</desc>
<time>2013-07-05T17:52:09.61</time>
<name>1268</name>
<sym>Dot</sym>
</trkpt>
<trkpt lat="42.871105" lon="-2.114945">
<ele>1605.5</ele>
<desc>Speed 0.2 km/h Distance 7.28 km</desc>
<time>2013-07-05T17:52:10.60</time>
<name>1269</name>
<sym>Dot</sym>
</trkpt>
<trkpt lat="42.871105" lon="-2.114945">
<ele>1605.5</ele>
<desc>Speed 0.1 km/h Distance 7.28 km</desc>
<time>2013-07-05T17:52:11.59</time>
<name>1270</name>
<sym>Dot</sym>
</trkpt>
<trkpt lat="42.871105" lon="-2.114945">
<ele>1605.5</ele>
<desc>Speed 0.1 km/h Distance 7.28 km</desc>
<time>2013-07-05T17:52:12.59</time>
<name>1271</name>
<sym>Dot</sym>
</trkpt>
<trkpt lat="42.871105" lon="-2.114945">
<ele>1605.5</ele>
<desc>Speed 0.1 km/h Distance 7.28 km</desc>
<time>2013-07-05T17:52:13.58</time>
<name>1272</name>
<sym>Dot</sym>
</trkpt>
<trkpt lat="42.871105" lon="-2.114945">
<ele>1605.5</ele>
<desc>Speed 0.1 km/h Distance 7.28 km</desc>
<time>2013-07-05T17:52:14.57</time>
<name>1273</name>
<sym>Dot</sym>
</trkpt>
<trkpt lat="42.871105" lon="-2.114945">
<ele>1605.5</ele>
<desc>Speed 0.3 km/h Distance 7.28 km</desc>
<time>2013-07-05T17:52:15.56</time>
<name>1274</name>
<sym>Dot</sym>
</trkpt>
<trkpt lat="42.871105" lon="-2.114945">
<ele>1605.5</ele>
<desc>Speed 0.1 km/h Distance 7.28 km</desc>
<time>2013-07-05T17:52:16.56</time>
<name>1275</name>
<sym>Dot</sym>
</trkpt>
<trkpt lat="42.871105" lon="-2.114945">
<ele>1605.5</ele>
<desc>Speed 0.0 km/h Distance 7.28 km</desc>
<time>2013-07-05T17:52:17.55</time>
<name>1276</name>
<sym>Dot</sym>
</trkpt>
<trkpt lat="42.871105" lon="-2.114945">
<ele>1605.5</ele>
<desc>Speed 0.1 km/h Distance 7.28 km</desc>
<time>2013-07-05T17:52:18.54</time>
<name>1277</name>
<sym>Dot</sym>
</trkpt>
<trkpt lat="42.871105" lon="-2.114945">
<ele>1605.5</ele>
<desc>Speed 0.2 km/h Distance 7.28 km</desc>
<time>2013-07-05T17:52:19.53</time>
<name>1278</name>
<sym>Dot</sym>
</trkpt>
<trkpt lat="42.871105" lon="-2.114945">
<ele>1605.5</ele>
<desc>Speed 0.2 km/h Distance 7.28 km</desc>
<time>2013-07-05T17:52:20.52</time>
<name>1279</name>
<sym>Dot</sym>
</trkpt>
<trkpt lat="42.871105" lon="-2.114945">
<ele>1605.5</ele>
<desc>Speed 0.1 km/h Distance 7.28 km</desc>
<time>2013-07-05T17:52:21.51</time>
<name>1280</name>
<sym>Dot</sym>
</trkpt>
<trkpt lat="42.871105" lon="-2.114945">
<ele>1605.5</ele>
<desc>Speed 0.2 km/h Distance 7.28 km</desc>
<time>2013-07-05T17:52:22.50</time>
<name>1281</name>
<sym>Dot</sym>
</trkpt>
<trkpt lat="42.871105" lon="-2.114945">
<ele>1605.5</ele>
<desc>Speed 0.2 km/h Distance 7.28 km</desc>
<time>2013-07-05T17:52:23.49</time>
<name>1282</name>
<sym>Dot</sym>
</trkpt>
<trkpt lat="42.871105" lon="-2.114945">
<ele>1605.5</ele>
<desc>Speed 0.2 km/h Distance 7.28 km</desc>
<time>2013-07-05T17:52:24.48</time>
<name>1283</name>
<sym>Dot</sym>
</trkpt>
<trkpt lat="42.871105" lon="-2.114945">
<ele>1605.5</ele>
<desc>Speed 0.1 km/h Distance 7.28 km</desc>
<time>2013-07-05T17:52:25.47</time>
<name>1284</name>
<sym>Dot</sym>
</trkpt>
<trkpt lat="42.871105" lon="-2.114945">
<ele>1605.5</ele>
<desc>Speed 0.0 km/h Distance 7.28 km</desc>
<time>2013-07-05T17:52:26.46</time>
<name>1285</name>
<sym>Dot</sym>
</trkpt>
<trkpt lat="42.871105" lon="-2.114945">
<ele>1605.5</ele>
<desc>Speed 0.2 km/h Distance 7.28 km</desc>
<time>2013-07-05T17:52:27.45</time>
<name>1286</name>
<sym>Dot</sym>
</trkpt>
<trkpt lat="42.871105" lon="-2.114945">
<ele>1605.5</ele>
<desc>Speed 0.1 km/h Distance 7.28 km</desc>
<time>2013-07-05T17:52:28.45</time>
<name>1287</name>
<sym>Dot</sym>
</trkpt>
<trkpt lat="42.871105" lon="-2.114945">
<ele>1605.5</ele>
<desc>Speed 0.2 km/h Distance 7.28 km</desc>
<time>2013-07-05T17:52:29.44</time>
<name>1288</name>
<sym>Dot</sym>
</trkpt>
<trkpt lat="42.871105" lon="-2.114945">
<ele>1605.5</ele>
<desc>Speed 0.0 km/h Distance 7.28 km</desc>
<time>2013-07-05T17:52:30.43</time>
<name>1289</name>
<sym>Dot</sym>
</trkpt>
<trkpt lat="42.871105" lon="-2.114945">
<ele>1605.5</ele>
<desc>Speed 0.2 km/h Distance 7.28 km</desc>
<time>2013-07-05T17:52:31.42</time>
<name>1290</name>
<sym>Dot</sym>
</trkpt>
<trkpt lat="42.871105" lon="-2.114945">
<ele>1605.5</ele>
<desc>Speed 0.2 km/h Distance 7.28 km</desc>
<time>2013-07-05T17:52:32.42</time>
<name>1291</name>
<sym>Dot</sym>
</trkpt>
<trkpt lat="42.871105" lon="-2.114945">
<ele>1605.5</ele>
<desc>Speed 0.2 km/h Distance 7.28 km</desc>
<time>2013-07-05T17:52:33.41</time>
<name>1292</name>
<sym>Dot</sym>
</trkpt>
<trkpt lat="42.871105" lon="-2.114945">
<ele>1606.0</ele>
<desc>Speed 0.3 km/h Distance 7.28 km</desc>
<time>2013-07-05T17:52:34.41</time>
<name>1293</name>
<sym>Dot</sym>
</trkpt>
<trkpt lat="42.871105" lon="-2.114947">
<ele>1606.0</ele>
<desc>Speed 0.1 km/h Distance 7.28 km</desc>
<time>2013-07-05T17:52:35.40</time>
<name>1294</name>
<sym>Dot</sym>
</trkpt>
<trkpt lat="42.871105" lon="-2.114947">
<ele>1606.0</ele>
<desc>Speed 0.2 km/h Distance 7.28 km</desc>
<time>2013-07-05T17:52:36.39</time>
<name>1295</name>
<sym>Dot</sym>
</trkpt>
<trkpt lat="42.871105" lon="-2.114947">
<ele>1606.0</ele>
<desc>Speed 0.3 km/h Distance 7.28 km</desc>
<time>2013-07-05T17:52:38.38</time>
<name>1296</name>
<sym>Dot</sym>
</trkpt>
<trkpt lat="42.871107" lon="-2.114947">
<ele>1606.0</ele>
<desc>Speed 0.2 km/h Distance 7.28 km</desc>
<time>2013-07-05T17:52:39.38</time>
<name>1297</name>
<sym>Dot</sym>
</trkpt>
<trkpt lat="42.871107" lon="-2.114947">
<ele>1606.0</ele>
<desc>Speed 0.2 km/h Distance 7.28 km</desc>
<time>2013-07-05T17:52:40.37</time>
<name>1298</name>
<sym>Dot</sym>
</trkpt>
<trkpt lat="42.871107" lon="-2.114947">
<ele>1606.0</ele>
<desc>Speed 0.3 km/h Distance 7.28 km</desc>
<time>2013-07-05T17:52:41.36</time>
<name>1299</name>
<sym>Dot</sym>
</trkpt>
<trkpt lat="42.871107" lon="-2.114947">
<ele>1606.0</ele>
<desc>Speed 0.1 km/h Distance 7.28 km</desc>
<time>2013-07-05T17:52:42.35</time>
<name>1300</name>
<sym>Dot</sym>
</trkpt>
<trkpt lat="42.871107" lon="-2.114947">
<ele>1606.0</ele>
<desc>Speed 0.2 km/h Distance 7.28 km</desc>
<time>2013-07-05T17:52:43.34</time>
<name>1301</name>
<sym>Dot</sym>
</trkpt>
<trkpt lat="42.871107" lon="-2.114947">
<ele>1606.0</ele>
<desc>Speed 0.2 km/h Distance 7.28 km</desc>
<time>2013-07-05T17:52:44.33</time>
<name>1302</name>
<sym>Dot</sym>
</trkpt>
<trkpt lat="42.871107" lon="-2.114947">
<ele>1606.0</ele>
<desc>Speed 0.1 km/h Distance 7.28 km</desc>
<time>2013-07-05T17:52:45.32</time>
<name>1303</name>
<sym>Dot</sym>
</trkpt>
<trkpt lat="42.871107" lon="-2.114947">
<ele>1606.0</ele>
<desc>Speed 0.2 km/h Distance 7.28 km</desc>
<time>2013-07-05T17:52:46.31</time>
<name>1304</name>
<sym>Dot</sym>
</trkpt>
<trkpt lat="42.871107" lon="-2.114947">
<ele>1606.0</ele>
<desc>Speed 0.1 km/h Distance 7.28 km</desc>
<time>2013-07-05T17:52:47.30</time>
<name>1305</name>
<sym>Dot</sym>
</trkpt>
<trkpt lat="42.871107" lon="-2.114947">
<ele>1606.0</ele>
<desc>Speed 0.1 km/h Distance 7.28 km</desc>
<time>2013-07-05T17:52:48.31</time>
<name>1306</name>
<sym>Dot</sym>
</trkpt>
<trkpt lat="42.871107" lon="-2.114947">
<ele>1606.0</ele>
<desc>Speed 0.1 km/h Distance 7.28 km</desc>
<time>2013-07-05T17:52:49.29</time>
<name>1307</name>
<sym>Dot</sym>
</trkpt>
<trkpt lat="42.871105" lon="-2.114947">
<ele>1606.0</ele>
<desc>Speed 0.1 km/h Distance 7.28 km</desc>
<time>2013-07-05T17:52:50.29</time>
<name>1308</name>
<sym>Dot</sym>
</trkpt>
<trkpt lat="42.871105" lon="-2.114947">
<ele>1606.0</ele>
<desc>Speed 0.1 km/h Distance 7.28 km</desc>
<time>2013-07-05T17:52:51.28</time>
<name>1309</name>
<sym>Dot</sym>
</trkpt>
<trkpt lat="42.871105" lon="-2.114947">
<ele>1606.0</ele>
<desc>Speed 0.1 km/h Distance 7.28 km</desc>
<time>2013-07-05T17:52:52.28</time>
<name>1310</name>
<sym>Dot</sym>
</trkpt>
<trkpt lat="42.871105" lon="-2.114945">
<ele>1606.0</ele>
<desc>Speed 0.1 km/h Distance 7.28 km</desc>
<time>2013-07-05T17:52:53.27</time>
<name>1311</name>
<sym>Dot</sym>
</trkpt>
<trkpt lat="42.871105" lon="-2.114945">
<ele>1606.0</ele>
<desc>Speed 0.1 km/h Distance 7.28 km</desc>
<time>2013-07-05T17:52:54.26</time>
<name>1312</name>
<sym>Dot</sym>
</trkpt>
<trkpt lat="42.871105" lon="-2.114945">
<ele>1606.0</ele>
<desc>Speed 0.2 km/h Distance 7.28 km</desc>
<time>2013-07-05T17:52:55.25</time>
<name>1313</name>
<sym>Dot</sym>
</trkpt>
<trkpt lat="42.871105" lon="-2.114945">
<ele>1606.0</ele>
<desc>Speed 0.2 km/h Distance 7.28 km</desc>
<time>2013-07-05T17:52:56.24</time>
<name>1314</name>
<sym>Dot</sym>
</trkpt>
<trkpt lat="42.871105" lon="-2.114945">
<ele>1606.0</ele>
<desc>Speed 0.2 km/h Distance 7.28 km</desc>
<time>2013-07-05T17:52:57.24</time>
<name>1315</name>
<sym>Dot</sym>
</trkpt>
<trkpt lat="42.871105" lon="-2.114945">
<ele>1606.0</ele>
<desc>Speed 0.3 km/h Distance 7.28 km</desc>
<time>2013-07-05T17:52:58.23</time>
<name>1316</name>
<sym>Dot</sym>
</trkpt>
<trkpt lat="42.871105" lon="-2.114945">
<ele>1606.0</ele>
<desc>Speed 0.0 km/h Distance 7.28 km</desc>
<time>2013-07-05T17:52:59.22</time>
<name>1317</name>
<sym>Dot</sym>
</trkpt>
<trkpt lat="42.871105" lon="-2.114945">
<ele>1606.0</ele>
<desc>Speed 0.1 km/h Distance 7.28 km</desc>
<time>2013-07-05T17:53:00.21</time>
<name>1318</name>
<sym>Dot</sym>
</trkpt>
<trkpt lat="42.871105" lon="-2.114945">
<ele>1606.0</ele>
<desc>Speed 0.2 km/h Distance 7.28 km</desc>
<time>2013-07-05T17:53:01.21</time>
<name>1319</name>
<sym>Dot</sym>
</trkpt>
<trkpt lat="42.871105" lon="-2.114945">
<ele>1606.0</ele>
<desc>Speed 0.1 km/h Distance 7.28 km</desc>
<time>2013-07-05T17:53:02.21</time>
<name>1320</name>
<sym>Dot</sym>
</trkpt>
<trkpt lat="42.871105" lon="-2.114945">
<ele>1605.5</ele>
<desc>Speed 0.2 km/h Distance 7.28 km</desc>
<time>2013-07-05T17:53:03.20</time>
<name>1321</name>
<sym>Dot</sym>
</trkpt>
<trkpt lat="42.871105" lon="-2.114945">
<ele>1605.5</ele>
<desc>Speed 0.2 km/h Distance 7.28 km</desc>
<time>2013-07-05T17:53:04.19</time>
<name>1322</name>
<sym>Dot</sym>
</trkpt>
<trkpt lat="42.871105" lon="-2.114945">
<ele>1605.5</ele>
<desc>Speed 0.3 km/h Distance 7.28 km</desc>
<time>2013-07-05T17:53:05.18</time>
<name>1323</name>
<sym>Dot</sym>
</trkpt>
<trkpt lat="42.871105" lon="-2.114945">
<ele>1605.5</ele>
<desc>Speed 0.1 km/h Distance 7.28 km</desc>
<time>2013-07-05T17:53:06.17</time>
<name>1324</name>
<sym>Dot</sym>
</trkpt>
<trkpt lat="42.871105" lon="-2.114945">
<ele>1605.5</ele>
<desc>Speed 0.2 km/h Distance 7.28 km</desc>
<time>2013-07-05T17:53:07.17</time>
<name>1325</name>
<sym>Dot</sym>
</trkpt>
<trkpt lat="42.871105" lon="-2.114945">
<ele>1605.5</ele>
<desc>Speed 0.2 km/h Distance 7.28 km</desc>
<time>2013-07-05T17:53:08.16</time>
<name>1326</name>
<sym>Dot</sym>
</trkpt>
<trkpt lat="42.871105" lon="-2.114945">
<ele>1605.5</ele>
<desc>Speed 0.2 km/h Distance 7.28 km</desc>
<time>2013-07-05T17:53:09.15</time>
<name>1327</name>
<sym>Dot</sym>
</trkpt>
<trkpt lat="42.871105" lon="-2.114945">
<ele>1605.5</ele>
<desc>Speed 0.2 km/h Distance 7.28 km</desc>
<time>2013-07-05T17:53:10.15</time>
<name>1328</name>
<sym>Dot</sym>
</trkpt>
<trkpt lat="42.871105" lon="-2.114945">
<ele>1605.5</ele>
<desc>Speed 0.1 km/h Distance 7.28 km</desc>
<time>2013-07-05T17:53:11.14</time>
<name>1329</name>
<sym>Dot</sym>
</trkpt>
<trkpt lat="42.871105" lon="-2.114945">
<ele>1605.5</ele>
<desc>Speed 0.2 km/h Distance 7.28 km</desc>
<time>2013-07-05T17:53:12.14</time>
<name>1330</name>
<sym>Dot</sym>
</trkpt>
<trkpt lat="42.871105" lon="-2.114945">
<ele>1605.5</ele>
<desc>Speed 0.1 km/h Distance 7.28 km</desc>
<time>2013-07-05T17:53:13.13</time>
<name>1331</name>
<sym>Dot</sym>
</trkpt>
<trkpt lat="42.871105" lon="-2.114945">
<ele>1605.5</ele>
<desc>Speed 0.2 km/h Distance 7.28 km</desc>
<time>2013-07-05T17:53:14.12</time>
<name>1332</name>
<sym>Dot</sym>
</trkpt>
<trkpt lat="42.871105" lon="-2.114945">
<ele>1605.5</ele>
<desc>Speed 0.3 km/h Distance 7.28 km</desc>
<time>2013-07-05T17:53:15.11</time>
<name>1333</name>
<sym>Dot</sym>
</trkpt>
<trkpt lat="42.871105" lon="-2.114945">
<ele>1605.5</ele>
<desc>Speed 0.2 km/h Distance 7.28 km</desc>
<time>2013-07-05T17:53:16.10</time>
<name>1334</name>
<sym>Dot</sym>
</trkpt>
<trkpt lat="42.871105" lon="-2.114945">
<ele>1605.5</ele>
<desc>Speed 0.2 km/h Distance 7.28 km</desc>
<time>2013-07-05T17:53:17.09</time>
<name>1335</name>
<sym>Dot</sym>
</trkpt>
<trkpt lat="42.871105" lon="-2.114945">
<ele>1605.5</ele>
<desc>Speed 0.3 km/h Distance 7.28 km</desc>
<time>2013-07-05T17:53:18.08</time>
<name>1336</name>
<sym>Dot</sym>
</trkpt>
<trkpt lat="42.871105" lon="-2.114945">
<ele>1605.5</ele>
<desc>Speed 0.1 km/h Distance 7.28 km</desc>
<time>2013-07-05T17:53:19.07</time>
<name>1337</name>
<sym>Dot</sym>
</trkpt>
<trkpt lat="42.871105" lon="-2.114945">
<ele>1605.5</ele>
<desc>Speed 0.2 km/h Distance 7.28 km</desc>
<time>2013-07-05T17:53:20.07</time>
<name>1338</name>
<sym>Dot</sym>
</trkpt>
<trkpt lat="42.871105" lon="-2.114945">
<ele>1605.5</ele>
<desc>Speed 0.1 km/h Distance 7.28 km</desc>
<time>2013-07-05T17:53:21.06</time>
<name>1339</name>
<sym>Dot</sym>
</trkpt>
<trkpt lat="42.871105" lon="-2.114945">
<ele>1605.5</ele>
<desc>Speed 0.1 km/h Distance 7.28 km</desc>
<time>2013-07-05T17:53:22.05</time>
<name>1340</name>
<sym>Dot</sym>
</trkpt>
<trkpt lat="42.871105" lon="-2.114945">
<ele>1605.5</ele>
<desc>Speed 0.2 km/h Distance 7.28 km</desc>
<time>2013-07-05T17:53:23.04</time>
<name>1341</name>
<sym>Dot</sym>
</trkpt>
<trkpt lat="42.871105" lon="-2.114945">
<ele>1605.5</ele>
<desc>Speed 0.1 km/h Distance 7.28 km</desc>
<time>2013-07-05T17:53:24.04</time>
<name>1342</name>
<sym>Dot</sym>
</trkpt>
<trkpt lat="42.871105" lon="-2.114945">
<ele>1605.5</ele>
<desc>Speed 0.2 km/h Distance 7.28 km</desc>
<time>2013-07-05T17:53:25.04</time>
<name>1343</name>
<sym>Dot</sym>
</trkpt>
<trkpt lat="42.871105" lon="-2.114945">
<ele>1605.5</ele>
<desc>Speed 0.3 km/h Distance 7.28 km</desc>
<time>2013-07-05T17:53:26.25</time>
<name>1344</name>
<sym>Dot</sym>
</trkpt>
<trkpt lat="42.871105" lon="-2.114945">
<ele>1605.5</ele>
<desc>Speed 0.2 km/h Distance 7.28 km</desc>
<time>2013-07-05T17:53:28.03</time>
<name>1345</name>
<sym>Dot</sym>
</trkpt>
<trkpt lat="42.871105" lon="-2.114945">
<ele>1605.5</ele>
<desc>Speed 0.1 km/h Distance 7.28 km</desc>
<time>2013-07-05T17:53:29.02</time>
<name>1346</name>
<sym>Dot</sym>
</trkpt>
<trkpt lat="42.871105" lon="-2.114945">
<ele>1605.5</ele>
<desc>Speed 0.1 km/h Distance 7.28 km</desc>
<time>2013-07-05T17:53:30.04</time>
<name>1347</name>
<sym>Dot</sym>
</trkpt>
<trkpt lat="42.871105" lon="-2.114945">
<ele>1605.5</ele>
<desc>Speed 0.2 km/h Distance 7.28 km</desc>
<time>2013-07-05T17:53:31.01</time>
<name>1348</name>
<sym>Dot</sym>
</trkpt>
<trkpt lat="42.871105" lon="-2.114945">
<ele>1605.5</ele>
<desc>Speed 0.2 km/h Distance 7.28 km</desc>
<time>2013-07-05T17:53:32.00</time>
<name>1349</name>
<sym>Dot</sym>
</trkpt>
<trkpt lat="42.871105" lon="-2.114945">
<ele>1605.5</ele>
<desc>Speed 0.1 km/h Distance 7.28 km</desc>
<time>2013-07-05T17:53:33.00</time>
<name>1350</name>
<sym>Dot</sym>
</trkpt>
<trkpt lat="42.871105" lon="-2.114945">
<ele>1605.5</ele>
<desc>Speed 0.2 km/h Distance 7.28 km</desc>
<time>2013-07-05T17:53:33.99</time>
<name>1351</name>
<sym>Dot</sym>
</trkpt>
<trkpt lat="42.871105" lon="-2.114945">
<ele>1605.5</ele>
<desc>Speed 0.1 km/h Distance 7.28 km</desc>
<time>2013-07-05T17:53:34.98</time>
<name>1352</name>
<sym>Dot</sym>
</trkpt>
<trkpt lat="42.871105" lon="-2.114945">
<ele>1605.5</ele>
<desc>Speed 0.2 km/h Distance 7.28 km</desc>
<time>2013-07-05T17:53:35.98</time>
<name>1353</name>
<sym>Dot</sym>
</trkpt>
<trkpt lat="42.871105" lon="-2.114945">
<ele>1605.5</ele>
<desc>Speed 0.2 km/h Distance 7.28 km</desc>
<time>2013-07-05T17:53:36.97</time>
<name>1354</name>
<sym>Dot</sym>
</trkpt>
<trkpt lat="42.871105" lon="-2.114945">
<ele>1605.5</ele>
<desc>Speed 0.2 km/h Distance 7.28 km</desc>
<time>2013-07-05T17:53:37.96</time>
<name>1355</name>
<sym>Dot</sym>
</trkpt>
<trkpt lat="42.871105" lon="-2.114945">
<ele>1605.5</ele>
<desc>Speed 0.3 km/h Distance 7.28 km</desc>
<time>2013-07-05T17:53:38.95</time>
<name>1356</name>
<sym>Dot</sym>
</trkpt>
<trkpt lat="42.871105" lon="-2.114945">
<ele>1605.5</ele>
<desc>Speed 0.1 km/h Distance 7.28 km</desc>
<time>2013-07-05T17:53:39.94</time>
<name>1357</name>
<sym>Dot</sym>
</trkpt>
<trkpt lat="42.871105" lon="-2.114945">
<ele>1605.5</ele>
<desc>Speed 0.2 km/h Distance 7.28 km</desc>
<time>2013-07-05T17:53:40.94</time>
<name>1358</name>
<sym>Dot</sym>
</trkpt>
<trkpt lat="42.871105" lon="-2.114945">
<ele>1605.5</ele>
<desc>Speed 0.1 km/h Distance 7.28 km</desc>
<time>2013-07-05T17:53:41.93</time>
<name>1359</name>
<sym>Dot</sym>
</trkpt>
<trkpt lat="42.871105" lon="-2.114945">
<ele>1605.5</ele>
<desc>Speed 0.2 km/h Distance 7.28 km</desc>
<time>2013-07-05T17:53:42.92</time>
<name>1360</name>
<sym>Dot</sym>
</trkpt>
<trkpt lat="42.871105" lon="-2.114945">
<ele>1605.5</ele>
<desc>Speed 0.2 km/h Distance 7.28 km</desc>
<time>2013-07-05T17:53:43.91</time>
<name>1361</name>
<sym>Dot</sym>
</trkpt>
<trkpt lat="42.871105" lon="-2.114945">
<ele>1605.5</ele>
<desc>Speed 0.3 km/h Distance 7.28 km</desc>
<time>2013-07-05T17:53:44.90</time>
<name>1362</name>
<sym>Dot</sym>
</trkpt>
<trkpt lat="42.871105" lon="-2.114945">
<ele>1605.5</ele>
<desc>Speed 0.1 km/h Distance 7.28 km</desc>
<time>2013-07-05T17:53:45.89</time>
<name>1363</name>
<sym>Dot</sym>
</trkpt>
<trkpt lat="42.871105" lon="-2.114945">
<ele>1605.5</ele>
<desc>Speed 0.1 km/h Distance 7.28 km</desc>
<time>2013-07-05T17:53:46.88</time>
<name>1364</name>
<sym>Dot</sym>
</trkpt>
<trkpt lat="42.871105" lon="-2.114945">
<ele>1605.5</ele>
<desc>Speed 0.1 km/h Distance 7.28 km</desc>
<time>2013-07-05T17:53:47.87</time>
<name>1365</name>
<sym>Dot</sym>
</trkpt>
<trkpt lat="42.871105" lon="-2.114945">
<ele>1605.5</ele>
<desc>Speed 0.1 km/h Distance 7.28 km</desc>
<time>2013-07-05T17:53:48.86</time>
<name>1366</name>
<sym>Dot</sym>
</trkpt>
<trkpt lat="42.871105" lon="-2.114943">
<ele>1605.5</ele>
<desc>Speed 0.0 km/h Distance 7.28 km</desc>
<time>2013-07-05T17:53:49.85</time>
<name>1367</name>
<sym>Dot</sym>
</trkpt>
<trkpt lat="42.871105" lon="-2.114943">
<ele>1605.5</ele>
<desc>Speed 0.2 km/h Distance 7.28 km</desc>
<time>2013-07-05T17:53:50.84</time>
<name>1368</name>
<sym>Dot</sym>
</trkpt>
<trkpt lat="42.871105" lon="-2.114943">
<ele>1605.5</ele>
<desc>Speed 0.3 km/h Distance 7.28 km</desc>
<time>2013-07-05T17:53:51.84</time>
<name>1369</name>
<sym>Dot</sym>
</trkpt>
<trkpt lat="42.871105" lon="-2.114943">
<ele>1605.5</ele>
<desc>Speed 0.2 km/h Distance 7.28 km</desc>
<time>2013-07-05T17:53:52.83</time>
<name>1370</name>
<sym>Dot</sym>
</trkpt>
<trkpt lat="42.871105" lon="-2.114943">
<ele>1605.5</ele>
<desc>Speed 0.2 km/h Distance 7.28 km</desc>
<time>2013-07-05T17:53:53.82</time>
<name>1371</name>
<sym>Dot</sym>
</trkpt>
<trkpt lat="42.871105" lon="-2.114943">
<ele>1605.5</ele>
<desc>Speed 0.2 km/h Distance 7.28 km</desc>
<time>2013-07-05T17:53:54.81</time>
<name>1372</name>
<sym>Dot</sym>
</trkpt>
<trkpt lat="42.871105" lon="-2.114943">
<ele>1605.5</ele>
<desc>Speed 0.1 km/h Distance 7.28 km</desc>
<time>2013-07-05T17:53:55.80</time>
<name>1373</name>
<sym>Dot</sym>
</trkpt>
<trkpt lat="42.871105" lon="-2.114943">
<ele>1605.5</ele>
<desc>Speed 0.1 km/h Distance 7.28 km</desc>
<time>2013-07-05T17:53:56.79</time>
<name>1374</name>
<sym>Dot</sym>
</trkpt>
<trkpt lat="42.871103" lon="-2.114943">
<ele>1605.5</ele>
<desc>Speed 0.2 km/h Distance 7.28 km</desc>
<time>2013-07-05T17:53:57.78</time>
<name>1375</name>
<sym>Dot</sym>
</trkpt>
<trkpt lat="42.871103" lon="-2.114943">
<ele>1605.5</ele>
<desc>Speed 0.2 km/h Distance 7.28 km</desc>
<time>2013-07-05T17:53:58.77</time>
<name>1376</name>
<sym>Dot</sym>
</trkpt>
<trkpt lat="42.871103" lon="-2.114943">
<ele>1605.5</ele>
<desc>Speed 0.2 km/h Distance 7.28 km</desc>
<time>2013-07-05T17:53:59.76</time>
<name>1377</name>
<sym>Dot</sym>
</trkpt>
<trkpt lat="42.871103" lon="-2.114943">
<ele>1605.5</ele>
<desc>Speed 0.1 km/h Distance 7.28 km</desc>
<time>2013-07-05T17:54:00.75</time>
<name>1378</name>
<sym>Dot</sym>
</trkpt>
<trkpt lat="42.871103" lon="-2.114943">
<ele>1605.5</ele>
<desc>Speed 0.1 km/h Distance 7.28 km</desc>
<time>2013-07-05T17:54:01.74</time>
<name>1379</name>
<sym>Dot</sym>
</trkpt>
<trkpt lat="42.871103" lon="-2.114943">
<ele>1605.5</ele>
<desc>Speed 0.1 km/h Distance 7.28 km</desc>
<time>2013-07-05T17:54:02.73</time>
<name>1380</name>
<sym>Dot</sym>
</trkpt>
<trkpt lat="42.871103" lon="-2.114943">
<ele>1605.5</ele>
<desc>Speed 0.2 km/h Distance 7.28 km</desc>
<time>2013-07-05T17:54:03.72</time>
<name>1381</name>
<sym>Dot</sym>
</trkpt>
<trkpt lat="42.871103" lon="-2.114943">
<ele>1605.5</ele>
<desc>Speed 0.1 km/h Distance 7.28 km</desc>
<time>2013-07-05T17:54:04.71</time>
<name>1382</name>
<sym>Dot</sym>
</trkpt>
<trkpt lat="42.871103" lon="-2.114943">
<ele>1605.5</ele>
<desc>Speed 0.2 km/h Distance 7.28 km</desc>
<time>2013-07-05T17:54:05.70</time>
<name>1383</name>
<sym>Dot</sym>
</trkpt>
<trkpt lat="42.871103" lon="-2.114943">
<ele>1605.5</ele>
<desc>Speed 0.3 km/h Distance 7.28 km</desc>
<time>2013-07-05T17:54:06.69</time>
<name>1384</name>
<sym>Dot</sym>
</trkpt>
<trkpt lat="42.871103" lon="-2.114943">
<ele>1605.5</ele>
<desc>Speed 0.0 km/h Distance 7.28 km</desc>
<time>2013-07-05T17:54:07.68</time>
<name>1385</name>
<sym>Dot</sym>
</trkpt>
<trkpt lat="42.871103" lon="-2.114943">
<ele>1605.5</ele>
<desc>Speed 0.2 km/h Distance 7.28 km</desc>
<time>2013-07-05T17:54:08.67</time>
<name>1386</name>
<sym>Dot</sym>
</trkpt>
<trkpt lat="42.871103" lon="-2.114943">
<ele>1605.5</ele>
<desc>Speed 0.1 km/h Distance 7.28 km</desc>
<time>2013-07-05T17:54:09.66</time>
<name>1387</name>
<sym>Dot</sym>
</trkpt>
<trkpt lat="42.871103" lon="-2.114943">
<ele>1605.5</ele>
<desc>Speed 0.2 km/h Distance 7.28 km</desc>
<time>2013-07-05T17:54:10.65</time>
<name>1388</name>
<sym>Dot</sym>
</trkpt>
<trkpt lat="42.871103" lon="-2.114943">
<ele>1605.5</ele>
<desc>Speed 0.2 km/h Distance 7.28 km</desc>
<time>2013-07-05T17:54:11.64</time>
<name>1389</name>
<sym>Dot</sym>
</trkpt>
<trkpt lat="42.871103" lon="-2.114943">
<ele>1605.5</ele>
<desc>Speed 0.3 km/h Distance 7.28 km</desc>
<time>2013-07-05T17:54:12.64</time>
<name>1390</name>
<sym>Dot</sym>
</trkpt>
<trkpt lat="42.871103" lon="-2.114943">
<ele>1605.5</ele>
<desc>Speed 0.0 km/h Distance 7.28 km</desc>
<time>2013-07-05T17:54:13.63</time>
<name>1391</name>
<sym>Dot</sym>
</trkpt>
<trkpt lat="42.871103" lon="-2.114943">
<ele>1605.5</ele>
<desc>Speed 0.1 km/h Distance 7.28 km</desc>
<time>2013-07-05T17:54:14.62</time>
<name>1392</name>
<sym>Dot</sym>
</trkpt>
<trkpt lat="42.871103" lon="-2.114943">
<ele>1605.5</ele>
<desc>Speed 0.1 km/h Distance 7.28 km</desc>
<time>2013-07-05T17:54:15.61</time>
<name>1393</name>
<sym>Dot</sym>
</trkpt>
<trkpt lat="42.871103" lon="-2.114943">
<ele>1605.5</ele>
<desc>Speed 0.2 km/h Distance 7.28 km</desc>
<time>2013-07-05T17:54:16.61</time>
<name>1394</name>
<sym>Dot</sym>
</trkpt>
<trkpt lat="42.871103" lon="-2.114943">
<ele>1605.5</ele>
<desc>Speed 0.1 km/h Distance 7.28 km</desc>
<time>2013-07-05T17:54:17.60</time>
<name>1395</name>
<sym>Dot</sym>
</trkpt>
<trkpt lat="42.871103" lon="-2.114943">
<ele>1605.5</ele>
<desc>Speed 0.2 km/h Distance 7.28 km</desc>
<time>2013-07-05T17:54:18.59</time>
<name>1396</name>
<sym>Dot</sym>
</trkpt>
<trkpt lat="42.871103" lon="-2.114943">
<ele>1605.5</ele>
<desc>Speed 0.3 km/h Distance 7.28 km</desc>
<time>2013-07-05T17:54:19.58</time>
<name>1397</name>
<sym>Dot</sym>
</trkpt>
<trkpt lat="42.871103" lon="-2.114943">
<ele>1605.5</ele>
<desc>Speed 0.2 km/h Distance 7.28 km</desc>
<time>2013-07-05T17:54:20.57</time>
<name>1398</name>
<sym>Dot</sym>
</trkpt>
<trkpt lat="42.871103" lon="-2.114943">
<ele>1605.5</ele>
<desc>Speed 0.1 km/h Distance 7.28 km</desc>
<time>2013-07-05T17:54:21.56</time>
<name>1399</name>
<sym>Dot</sym>
</trkpt>
<trkpt lat="42.871103" lon="-2.114943">
<ele>1605.5</ele>
<desc>Speed 0.1 km/h Distance 7.28 km</desc>
<time>2013-07-05T17:54:22.55</time>
<name>1400</name>
<sym>Dot</sym>
</trkpt>
<trkpt lat="42.871103" lon="-2.114943">
<ele>1605.5</ele>
<desc>Speed 0.2 km/h Distance 7.28 km</desc>
<time>2013-07-05T17:54:23.55</time>
<name>1401</name>
<sym>Dot</sym>
</trkpt>
<trkpt lat="42.871103" lon="-2.114943">
<ele>1605.5</ele>
<desc>Speed 0.2 km/h Distance 7.28 km</desc>
<time>2013-07-05T17:54:24.54</time>
<name>1402</name>
<sym>Dot</sym>
</trkpt>
<trkpt lat="42.871103" lon="-2.114943">
<ele>1605.5</ele>
<desc>Speed 0.0 km/h Distance 7.28 km</desc>
<time>2013-07-05T17:54:25.53</time>
<name>1403</name>
<sym>Dot</sym>
</trkpt>
<trkpt lat="42.871103" lon="-2.114943">
<ele>1605.5</ele>
<desc>Speed 0.3 km/h Distance 7.28 km</desc>
<time>2013-07-05T17:54:26.52</time>
<name>1404</name>
<sym>Dot</sym>
</trkpt>
<trkpt lat="42.871103" lon="-2.114943">
<ele>1605.5</ele>
<desc>Speed 0.2 km/h Distance 7.28 km</desc>
<time>2013-07-05T17:54:27.51</time>
<name>1405</name>
<sym>Dot</sym>
</trkpt>
<trkpt lat="42.871103" lon="-2.114943">
<ele>1605.5</ele>
<desc>Speed 0.1 km/h Distance 7.28 km</desc>
<time>2013-07-05T17:54:28.50</time>
<name>1406</name>
<sym>Dot</sym>
</trkpt>
<trkpt lat="42.871103" lon="-2.114943">
<ele>1605.5</ele>
<desc>Speed 0.1 km/h Distance 7.28 km</desc>
<time>2013-07-05T17:54:29.49</time>
<name>1407</name>
<sym>Dot</sym>
</trkpt>
<trkpt lat="42.871103" lon="-2.114943">
<ele>1605.5</ele>
<desc>Speed 0.3 km/h Distance 7.28 km</desc>
<time>2013-07-05T17:54:30.48</time>
<name>1408</name>
<sym>Dot</sym>
</trkpt>
<trkpt lat="42.871103" lon="-2.114943">
<ele>1605.5</ele>
<desc>Speed 0.2 km/h Distance 7.28 km</desc>
<time>2013-07-05T17:54:31.48</time>
<name>1409</name>
<sym>Dot</sym>
</trkpt>
<trkpt lat="42.871103" lon="-2.114943">
<ele>1605.5</ele>
<desc>Speed 0.3 km/h Distance 7.28 km</desc>
<time>2013-07-05T17:54:32.47</time>
<name>1410</name>
<sym>Dot</sym>
</trkpt>
<trkpt lat="42.871103" lon="-2.114943">
<ele>1605.5</ele>
<desc>Speed 0.1 km/h Distance 7.28 km</desc>
<time>2013-07-05T17:54:33.46</time>
<name>1411</name>
<sym>Dot</sym>
</trkpt>
<trkpt lat="42.871103" lon="-2.114943">
<ele>1605.5</ele>
<desc>Speed 0.1 km/h Distance 7.28 km</desc>
<time>2013-07-05T17:54:34.45</time>
<name>1412</name>
<sym>Dot</sym>
</trkpt>
<trkpt lat="42.871103" lon="-2.114943">
<ele>1605.5</ele>
<desc>Speed 0.1 km/h Distance 7.28 km</desc>
<time>2013-07-05T17:54:35.44</time>
<name>1413</name>
<sym>Dot</sym>
</trkpt>
<trkpt lat="42.871103" lon="-2.114943">
<ele>1605.5</ele>
<desc>Speed 0.2 km/h Distance 7.28 km</desc>
<time>2013-07-05T17:54:36.43</time>
<name>1414</name>
<sym>Dot</sym>
</trkpt>
<trkpt lat="42.871103" lon="-2.114943">
<ele>1605.5</ele>
<desc>Speed 0.1 km/h Distance 7.28 km</desc>
<time>2013-07-05T17:54:37.42</time>
<name>1415</name>
<sym>Dot</sym>
</trkpt>
<trkpt lat="42.871103" lon="-2.114943">
<ele>1605.5</ele>
<desc>Speed 0.2 km/h Distance 7.28 km</desc>
<time>2013-07-05T17:54:38.41</time>
<name>1416</name>
<sym>Dot</sym>
</trkpt>
<trkpt lat="42.871103" lon="-2.114943">
<ele>1605.5</ele>
<desc>Speed 0.1 km/h Distance 7.28 km</desc>
<time>2013-07-05T17:54:39.41</time>
<name>1417</name>
<sym>Dot</sym>
</trkpt>
<trkpt lat="42.871103" lon="-2.114943">
<ele>1605.5</ele>
<desc>Speed 0.2 km/h Distance 7.28 km</desc>
<time>2013-07-05T17:54:40.40</time>
<name>1418</name>
<sym>Dot</sym>
</trkpt>
<trkpt lat="42.871103" lon="-2.114943">
<ele>1605.5</ele>
<desc>Speed 0.1 km/h Distance 7.28 km</desc>
<time>2013-07-05T17:54:41.39</time>
<name>1419</name>
<sym>Dot</sym>
</trkpt>
<trkpt lat="42.871103" lon="-2.114943">
<ele>1605.5</ele>
<desc>Speed 0.1 km/h Distance 7.28 km</desc>
<time>2013-07-05T17:54:42.38</time>
<name>1420</name>
<sym>Dot</sym>
</trkpt>
<trkpt lat="42.871103" lon="-2.114943">
<ele>1605.5</ele>
<desc>Speed 0.2 km/h Distance 7.28 km</desc>
<time>2013-07-05T17:54:43.37</time>
<name>1421</name>
<sym>Dot</sym>
</trkpt>
<trkpt lat="42.871103" lon="-2.114943">
<ele>1605.5</ele>
<desc>Speed 0.0 km/h Distance 7.28 km</desc>
<time>2013-07-05T17:54:44.36</time>
<name>1422</name>
<sym>Dot</sym>
</trkpt>
<trkpt lat="42.871103" lon="-2.114943">
<ele>1605.5</ele>
<desc>Speed 0.1 km/h Distance 7.28 km</desc>
<time>2013-07-05T17:54:45.35</time>
<name>1423</name>
<sym>Dot</sym>
</trkpt>
<trkpt lat="42.871103" lon="-2.114943">
<ele>1605.5</ele>
<desc>Speed 0.1 km/h Distance 7.28 km</desc>
<time>2013-07-05T17:54:46.34</time>
<name>1424</name>
<sym>Dot</sym>
</trkpt>
<trkpt lat="42.871103" lon="-2.114943">
<ele>1605.5</ele>
<desc>Speed 0.2 km/h Distance 7.28 km</desc>
<time>2013-07-05T17:54:47.33</time>
<name>1425</name>
<sym>Dot</sym>
</trkpt>
<trkpt lat="42.871103" lon="-2.114943">
<ele>1605.5</ele>
<desc>Speed 0.2 km/h Distance 7.28 km</desc>
<time>2013-07-05T17:54:48.32</time>
<name>1426</name>
<sym>Dot</sym>
</trkpt>
<trkpt lat="42.871103" lon="-2.114943">
<ele>1605.5</ele>
<desc>Speed 0.1 km/h Distance 7.28 km</desc>
<time>2013-07-05T17:54:49.31</time>
<name>1427</name>
<sym>Dot</sym>
</trkpt>
<trkpt lat="42.871103" lon="-2.114943">
<ele>1605.5</ele>
<desc>Speed 0.1 km/h Distance 7.28 km</desc>
<time>2013-07-05T17:54:50.31</time>
<name>1428</name>
<sym>Dot</sym>
</trkpt>
<trkpt lat="42.871103" lon="-2.114943">
<ele>1605.5</ele>
<desc>Speed 0.2 km/h Distance 7.28 km</desc>
<time>2013-07-05T17:54:51.30</time>
<name>1429</name>
<sym>Dot</sym>
</trkpt>
<trkpt lat="42.871103" lon="-2.114943">
<ele>1605.5</ele>
<desc>Speed 0.2 km/h Distance 7.28 km</desc>
<time>2013-07-05T17:54:52.29</time>
<name>1430</name>
<sym>Dot</sym>
</trkpt>
<trkpt lat="42.871103" lon="-2.114943">
<ele>1605.5</ele>
<desc>Speed 0.1 km/h Distance 7.28 km</desc>
<time>2013-07-05T17:54:53.28</time>
<name>1431</name>
<sym>Dot</sym>
</trkpt>
<trkpt lat="42.871103" lon="-2.114943">
<ele>1605.5</ele>
<desc>Speed 0.2 km/h Distance 7.28 km</desc>
<time>2013-07-05T17:54:54.27</time>
<name>1432</name>
<sym>Dot</sym>
</trkpt>
<trkpt lat="42.871103" lon="-2.114943">
<ele>1605.5</ele>
<desc>Speed 0.0 km/h Distance 7.28 km</desc>
<time>2013-07-05T17:54:55.26</time>
<name>1433</name>
<sym>Dot</sym>
</trkpt>
<trkpt lat="42.871103" lon="-2.114943">
<ele>1605.5</ele>
<desc>Speed 0.1 km/h Distance 7.28 km</desc>
<time>2013-07-05T17:54:56.25</time>
<name>1434</name>
<sym>Dot</sym>
</trkpt>
<trkpt lat="42.871103" lon="-2.114943">
<ele>1605.5</ele>
<desc>Speed 0.2 km/h Distance 7.28 km</desc>
<time>2013-07-05T17:54:57.24</time>
<name>1435</name>
<sym>Dot</sym>
</trkpt>
<trkpt lat="42.871103" lon="-2.114943">
<ele>1605.5</ele>
<desc>Speed 0.1 km/h Distance 7.28 km</desc>
<time>2013-07-05T17:54:58.23</time>
<name>1436</name>
<sym>Dot</sym>
</trkpt>
<trkpt lat="42.871103" lon="-2.114943">
<ele>1605.5</ele>
<desc>Speed 0.1 km/h Distance 7.28 km</desc>
<time>2013-07-05T17:54:59.22</time>
<name>1437</name>
<sym>Dot</sym>
</trkpt>
<trkpt lat="42.871103" lon="-2.114943">
<ele>1605.5</ele>
<desc>Speed 0.3 km/h Distance 7.28 km</desc>
<time>2013-07-05T17:55:00.21</time>
<name>1438</name>
<sym>Dot</sym>
</trkpt>
<trkpt lat="42.871103" lon="-2.114943">
<ele>1605.5</ele>
<desc>Speed 0.2 km/h Distance 7.28 km</desc>
<time>2013-07-05T17:55:01.20</time>
<name>1439</name>
<sym>Dot</sym>
</trkpt>
<trkpt lat="42.871103" lon="-2.114943">
<ele>1605.5</ele>
<desc>Speed 0.2 km/h Distance 7.28 km</desc>
<time>2013-07-05T17:55:02.19</time>
<name>1440</name>
<sym>Dot</sym>
</trkpt>
<trkpt lat="42.871103" lon="-2.114943">
<ele>1605.5</ele>
<desc>Speed 0.1 km/h Distance 7.28 km</desc>
<time>2013-07-05T17:55:03.18</time>
<name>1441</name>
<sym>Dot</sym>
</trkpt>
<trkpt lat="42.871103" lon="-2.114943">
<ele>1605.5</ele>
<desc>Speed 0.2 km/h Distance 7.28 km</desc>
<time>2013-07-05T17:55:04.17</time>
<name>1442</name>
<sym>Dot</sym>
</trkpt>
<trkpt lat="42.871103" lon="-2.114943">
<ele>1605.5</ele>
<desc>Speed 0.2 km/h Distance 7.28 km</desc>
<time>2013-07-05T17:55:05.16</time>
<name>1443</name>
<sym>Dot</sym>
</trkpt>
<trkpt lat="42.871103" lon="-2.114943">
<ele>1605.5</ele>
<desc>Speed 0.0 km/h Distance 7.28 km</desc>
<time>2013-07-05T17:55:06.15</time>
<name>1444</name>
<sym>Dot</sym>
</trkpt>
<trkpt lat="42.871103" lon="-2.114943">
<ele>1605.5</ele>
<desc>Speed 0.2 km/h Distance 7.28 km</desc>
<time>2013-07-05T17:55:07.14</time>
<name>1445</name>
<sym>Dot</sym>
</trkpt>
<trkpt lat="42.871103" lon="-2.114943">
<ele>1605.5</ele>
<desc>Speed 0.2 km/h Distance 7.28 km</desc>
<time>2013-07-05T17:55:08.13</time>
<name>1446</name>
<sym>Dot</sym>
</trkpt>
<trkpt lat="42.871103" lon="-2.114943">
<ele>1605.5</ele>
<desc>Speed 0.0 km/h Distance 7.28 km</desc>
<time>2013-07-05T17:55:09.12</time>
<name>1447</name>
<sym>Dot</sym>
</trkpt>
<trkpt lat="42.871103" lon="-2.114943">
<ele>1605.5</ele>
<desc>Speed 0.1 km/h Distance 7.28 km</desc>
<time>2013-07-05T17:55:10.11</time>
<name>1448</name>
<sym>Dot</sym>
</trkpt>
<trkpt lat="42.871103" lon="-2.114943">
<ele>1605.5</ele>
<desc>Speed 0.2 km/h Distance 7.28 km</desc>
<time>2013-07-05T17:55:11.11</time>
<name>1449</name>
<sym>Dot</sym>
</trkpt>
<trkpt lat="42.871103" lon="-2.114943">
<ele>1605.5</ele>
<desc>Speed 0.3 km/h Distance 7.28 km</desc>
<time>2013-07-05T17:55:12.10</time>
<name>1450</name>
<sym>Dot</sym>
</trkpt>
<trkpt lat="42.871103" lon="-2.114943">
<ele>1605.5</ele>
<desc>Speed 0.2 km/h Distance 7.28 km</desc>
<time>2013-07-05T17:55:13.09</time>
<name>1451</name>
<sym>Dot</sym>
</trkpt>
<trkpt lat="42.871103" lon="-2.114943">
<ele>1605.5</ele>
<desc>Speed 0.1 km/h Distance 7.28 km</desc>
<time>2013-07-05T17:55:14.08</time>
<name>1452</name>
<sym>Dot</sym>
</trkpt>
<trkpt lat="42.871103" lon="-2.114943">
<ele>1605.5</ele>
<desc>Speed 0.2 km/h Distance 7.28 km</desc>
<time>2013-07-05T17:55:15.08</time>
<name>1453</name>
<sym>Dot</sym>
</trkpt>
<trkpt lat="42.871103" lon="-2.114943">
<ele>1605.5</ele>
<desc>Speed 0.1 km/h Distance 7.28 km</desc>
<time>2013-07-05T17:55:16.07</time>
<name>1454</name>
<sym>Dot</sym>
</trkpt>
<trkpt lat="42.871103" lon="-2.114943">
<ele>1605.5</ele>
<desc>Speed 0.0 km/h Distance 7.28 km</desc>
<time>2013-07-05T17:55:17.06</time>
<name>1455</name>
<sym>Dot</sym>
</trkpt>
<trkpt lat="42.871103" lon="-2.114943">
<ele>1605.5</ele>
<desc>Speed 0.3 km/h Distance 7.28 km</desc>
<time>2013-07-05T17:55:18.05</time>
<name>1456</name>
<sym>Dot</sym>
</trkpt>
<trkpt lat="42.871103" lon="-2.114943">
<ele>1605.5</ele>
<desc>Speed 0.3 km/h Distance 7.28 km</desc>
<time>2013-07-05T17:55:19.04</time>
<name>1457</name>
<sym>Dot</sym>
</trkpt>
<trkpt lat="42.871103" lon="-2.114943">
<ele>1605.5</ele>
<desc>Speed 0.1 km/h Distance 7.28 km</desc>
<time>2013-07-05T17:55:20.03</time>
<name>1458</name>
<sym>Dot</sym>
</trkpt>
<trkpt lat="42.871103" lon="-2.114943">
<ele>1605.5</ele>
<desc>Speed 0.1 km/h Distance 7.28 km</desc>
<time>2013-07-05T17:55:21.02</time>
<name>1459</name>
<sym>Dot</sym>
</trkpt>
<trkpt lat="42.871103" lon="-2.114943">
<ele>1605.5</ele>
<desc>Speed 0.0 km/h Distance 7.28 km</desc>
<time>2013-07-05T17:55:22.01</time>
<name>1460</name>
<sym>Dot</sym>
</trkpt>
<trkpt lat="42.871103" lon="-2.114943">
<ele>1605.5</ele>
<desc>Speed 0.0 km/h Distance 7.28 km</desc>
<time>2013-07-05T17:55:23.00</time>
<name>1461</name>
<sym>Dot</sym>
</trkpt>
<trkpt lat="42.871103" lon="-2.114943">
<ele>1605.5</ele>
<desc>Speed 0.3 km/h Distance 7.28 km</desc>
<time>2013-07-05T17:55:24.00</time>
<name>1462</name>
<sym>Dot</sym>
</trkpt>
<trkpt lat="42.871103" lon="-2.114943">
<ele>1605.5</ele>
<desc>Speed 0.1 km/h Distance 7.28 km</desc>
<time>2013-07-05T17:55:24.99</time>
<name>1463</name>
<sym>Dot</sym>
</trkpt>
<trkpt lat="42.871103" lon="-2.114943">
<ele>1605.5</ele>
<desc>Speed 0.1 km/h Distance 7.28 km</desc>
<time>2013-07-05T17:55:25.99</time>
<name>1464</name>
<sym>Dot</sym>
</trkpt>
<trkpt lat="42.871103" lon="-2.114943">
<ele>1605.5</ele>
<desc>Speed 0.3 km/h Distance 7.28 km</desc>
<time>2013-07-05T17:55:26.98</time>
<name>1465</name>
<sym>Dot</sym>
</trkpt>
<trkpt lat="42.871103" lon="-2.114943">
<ele>1605.5</ele>
<desc>Speed 0.2 km/h Distance 7.28 km</desc>
<time>2013-07-05T17:55:27.97</time>
<name>1466</name>
<sym>Dot</sym>
</trkpt>
<trkpt lat="42.871103" lon="-2.114943">
<ele>1605.5</ele>
<desc>Speed 0.1 km/h Distance 7.28 km</desc>
<time>2013-07-05T17:55:28.96</time>
<name>1467</name>
<sym>Dot</sym>
</trkpt>
<trkpt lat="42.871103" lon="-2.114943">
<ele>1605.5</ele>
<desc>Speed 0.0 km/h Distance 7.28 km</desc>
<time>2013-07-05T17:55:29.95</time>
<name>1468</name>
<sym>Dot</sym>
</trkpt>
<trkpt lat="42.871103" lon="-2.114943">
<ele>1605.5</ele>
<desc>Speed 0.1 km/h Distance 7.28 km</desc>
<time>2013-07-05T17:55:30.95</time>
<name>1469</name>
<sym>Dot</sym>
</trkpt>
<trkpt lat="42.871103" lon="-2.114943">
<ele>1606.0</ele>
<desc>Speed 0.1 km/h Distance 7.28 km</desc>
<time>2013-07-05T17:55:31.94</time>
<name>1470</name>
<sym>Dot</sym>
</trkpt>
<trkpt lat="42.871103" lon="-2.114943">
<ele>1606.0</ele>
<desc>Speed 0.2 km/h Distance 7.28 km</desc>
<time>2013-07-05T17:55:32.93</time>
<name>1471</name>
<sym>Dot</sym>
</trkpt>
<trkpt lat="42.871103" lon="-2.114943">
<ele>1606.0</ele>
<desc>Speed 0.1 km/h Distance 7.28 km</desc>
<time>2013-07-05T17:55:33.92</time>
<name>1472</name>
<sym>Dot</sym>
</trkpt>
<trkpt lat="42.871103" lon="-2.114943">
<ele>1606.0</ele>
<desc>Speed 0.2 km/h Distance 7.28 km</desc>
<time>2013-07-05T17:55:34.91</time>
<name>1473</name>
<sym>Dot</sym>
</trkpt>
<trkpt lat="42.871103" lon="-2.114943">
<ele>1606.0</ele>
<desc>Speed 0.1 km/h Distance 7.28 km</desc>
<time>2013-07-05T17:55:35.90</time>
<name>1474</name>
<sym>Dot</sym>
</trkpt>
<trkpt lat="42.871103" lon="-2.114943">
<ele>1606.0</ele>
<desc>Speed 0.2 km/h Distance 7.28 km</desc>
<time>2013-07-05T17:55:36.89</time>
<name>1475</name>
<sym>Dot</sym>
</trkpt>
<trkpt lat="42.871103" lon="-2.114943">
<ele>1606.0</ele>
<desc>Speed 0.2 km/h Distance 7.28 km</desc>
<time>2013-07-05T17:55:37.88</time>
<name>1476</name>
<sym>Dot</sym>
</trkpt>
<trkpt lat="42.871103" lon="-2.114943">
<ele>1606.0</ele>
<desc>Speed 0.2 km/h Distance 7.28 km</desc>
<time>2013-07-05T17:55:38.87</time>
<name>1477</name>
<sym>Dot</sym>
</trkpt>
<trkpt lat="42.871103" lon="-2.114943">
<ele>1606.0</ele>
<desc>Speed 0.1 km/h Distance 7.28 km</desc>
<time>2013-07-05T17:55:39.86</time>
<name>1478</name>
<sym>Dot</sym>
</trkpt>
<trkpt lat="42.871103" lon="-2.114943">
<ele>1606.0</ele>
<desc>Speed 0.2 km/h Distance 7.28 km</desc>
<time>2013-07-05T17:55:40.85</time>
<name>1479</name>
<sym>Dot</sym>
</trkpt>
<trkpt lat="42.871103" lon="-2.114943">
<ele>1606.0</ele>
<desc>Speed 0.1 km/h Distance 7.28 km</desc>
<time>2013-07-05T17:55:41.84</time>
<name>1480</name>
<sym>Dot</sym>
</trkpt>
<trkpt lat="42.871103" lon="-2.114943">
<ele>1606.0</ele>
<desc>Speed 0.2 km/h Distance 7.28 km</desc>
<time>2013-07-05T17:55:42.83</time>
<name>1481</name>
<sym>Dot</sym>
</trkpt>
<trkpt lat="42.871103" lon="-2.114943">
<ele>1606.0</ele>
<desc>Speed 0.3 km/h Distance 7.28 km</desc>
<time>2013-07-05T17:55:43.83</time>
<name>1482</name>
<sym>Dot</sym>
</trkpt>
<trkpt lat="42.871103" lon="-2.114943">
<ele>1606.0</ele>
<desc>Speed 0.1 km/h Distance 7.28 km</desc>
<time>2013-07-05T17:55:44.82</time>
<name>1483</name>
<sym>Dot</sym>
</trkpt>
<trkpt lat="42.871103" lon="-2.114943">
<ele>1606.0</ele>
<desc>Speed 0.1 km/h Distance 7.28 km</desc>
<time>2013-07-05T17:55:45.81</time>
<name>1484</name>
<sym>Dot</sym>
</trkpt>
<trkpt lat="42.871103" lon="-2.114943">
<ele>1606.0</ele>
<desc>Speed 0.3 km/h Distance 7.28 km</desc>
<time>2013-07-05T17:55:46.80</time>
<name>1485</name>
<sym>Dot</sym>
</trkpt>
<trkpt lat="42.871103" lon="-2.114943">
<ele>1606.0</ele>
<desc>Speed 0.3 km/h Distance 7.28 km</desc>
<time>2013-07-05T17:55:47.79</time>
<name>1486</name>
<sym>Dot</sym>
</trkpt>
<trkpt lat="42.871103" lon="-2.114943">
<ele>1606.0</ele>
<desc>Speed 0.1 km/h Distance 7.28 km</desc>
<time>2013-07-05T17:55:48.78</time>
<name>1487</name>
<sym>Dot</sym>
</trkpt>
<trkpt lat="42.871103" lon="-2.114943">
<ele>1606.0</ele>
<desc>Speed 0.0 km/h Distance 7.28 km</desc>
<time>2013-07-05T17:55:49.77</time>
<name>1488</name>
<sym>Dot</sym>
</trkpt>
<trkpt lat="42.871103" lon="-2.114943">
<ele>1606.0</ele>
<desc>Speed 0.1 km/h Distance 7.28 km</desc>
<time>2013-07-05T17:55:50.77</time>
<name>1489</name>
<sym>Dot</sym>
</trkpt>
<trkpt lat="42.871103" lon="-2.114943">
<ele>1606.0</ele>
<desc>Speed 0.1 km/h Distance 7.28 km</desc>
<time>2013-07-05T17:55:51.76</time>
<name>1490</name>
<sym>Dot</sym>
</trkpt>
<trkpt lat="42.871103" lon="-2.114943">
<ele>1606.0</ele>
<desc>Speed 0.1 km/h Distance 7.28 km</desc>
<time>2013-07-05T17:55:52.75</time>
<name>1491</name>
<sym>Dot</sym>
</trkpt>
<trkpt lat="42.871103" lon="-2.114943">
<ele>1606.0</ele>
<desc>Speed 0.2 km/h Distance 7.28 km</desc>
<time>2013-07-05T17:55:53.75</time>
<name>1492</name>
<sym>Dot</sym>
</trkpt>
<trkpt lat="42.871103" lon="-2.114943">
<ele>1606.0</ele>
<desc>Speed 0.2 km/h Distance 7.28 km</desc>
<time>2013-07-05T17:55:54.74</time>
<name>1493</name>
<sym>Dot</sym>
</trkpt>
<trkpt lat="42.871105" lon="-2.114943">
<ele>1606.0</ele>
<desc>Speed 0.2 km/h Distance 7.28 km</desc>
<time>2013-07-05T17:55:55.73</time>
<name>1494</name>
<sym>Dot</sym>
</trkpt>
<trkpt lat="42.871105" lon="-2.114943">
<ele>1606.0</ele>
<desc>Speed 0.1 km/h Distance 7.28 km</desc>
<time>2013-07-05T17:55:56.72</time>
<name>1495</name>
<sym>Dot</sym>
</trkpt>
<trkpt lat="42.871105" lon="-2.114943">
<ele>1606.0</ele>
<desc>Speed 0.1 km/h Distance 7.28 km</desc>
<time>2013-07-05T17:55:57.72</time>
<name>1496</name>
<sym>Dot</sym>
</trkpt>
<trkpt lat="42.871105" lon="-2.114943">
<ele>1606.0</ele>
<desc>Speed 0.2 km/h Distance 7.28 km</desc>
<time>2013-07-05T17:55:58.71</time>
<name>1497</name>
<sym>Dot</sym>
</trkpt>
<trkpt lat="42.871105" lon="-2.114943">
<ele>1606.0</ele>
<desc>Speed 0.2 km/h Distance 7.28 km</desc>
<time>2013-07-05T17:55:59.70</time>
<name>1498</name>
<sym>Dot</sym>
</trkpt>
<trkpt lat="42.871105" lon="-2.114943">
<ele>1606.0</ele>
<desc>Speed 0.1 km/h Distance 7.28 km</desc>
<time>2013-07-05T17:56:00.69</time>
<name>1499</name>
<sym>Dot</sym>
</trkpt>
<trkpt lat="42.871105" lon="-2.114943">
<ele>1606.0</ele>
<desc>Speed 0.1 km/h Distance 7.28 km</desc>
<time>2013-07-05T17:56:01.68</time>
<name>1500</name>
<sym>Dot</sym>
</trkpt>
<trkpt lat="42.871105" lon="-2.114943">
<ele>1606.0</ele>
<desc>Speed 0.2 km/h Distance 7.28 km</desc>
<time>2013-07-05T17:56:02.67</time>
<name>1501</name>
<sym>Dot</sym>
</trkpt>
<trkpt lat="42.871105" lon="-2.114943">
<ele>1606.0</ele>
<desc>Speed 0.1 km/h Distance 7.28 km</desc>
<time>2013-07-05T17:56:03.66</time>
<name>1502</name>
<sym>Dot</sym>
</trkpt>
<trkpt lat="42.871105" lon="-2.114943">
<ele>1606.0</ele>
<desc>Speed 0.1 km/h Distance 7.28 km</desc>
<time>2013-07-05T17:56:04.65</time>
<name>1503</name>
<sym>Dot</sym>
</trkpt>
<trkpt lat="42.871105" lon="-2.114943">
<ele>1606.0</ele>
<desc>Speed 0.2 km/h Distance 7.28 km</desc>
<time>2013-07-05T17:56:05.64</time>
<name>1504</name>
<sym>Dot</sym>
</trkpt>
<trkpt lat="42.871105" lon="-2.114943">
<ele>1606.0</ele>
<desc>Speed 0.2 km/h Distance 7.28 km</desc>
<time>2013-07-05T17:56:06.63</time>
<name>1505</name>
<sym>Dot</sym>
</trkpt>
<trkpt lat="42.871105" lon="-2.114943">
<ele>1606.0</ele>
<desc>Speed 0.2 km/h Distance 7.28 km</desc>
<time>2013-07-05T17:56:07.62</time>
<name>1506</name>
<sym>Dot</sym>
</trkpt>
<trkpt lat="42.871105" lon="-2.114943">
<ele>1606.0</ele>
<desc>Speed 0.2 km/h Distance 7.28 km</desc>
<time>2013-07-05T17:56:08.61</time>
<name>1507</name>
<sym>Dot</sym>
</trkpt>
<trkpt lat="42.871105" lon="-2.114943">
<ele>1606.0</ele>
<desc>Speed 0.2 km/h Distance 7.28 km</desc>
<time>2013-07-05T17:56:09.60</time>
<name>1508</name>
<sym>Dot</sym>
</trkpt>
<trkpt lat="42.871105" lon="-2.114943">
<ele>1606.0</ele>
<desc>Speed 0.1 km/h Distance 7.28 km</desc>
<time>2013-07-05T17:56:10.59</time>
<name>1509</name>
<sym>Dot</sym>
</trkpt>
<trkpt lat="42.871105" lon="-2.114943">
<ele>1606.0</ele>
<desc>Speed 0.0 km/h Distance 7.28 km</desc>
<time>2013-07-05T17:56:11.58</time>
<name>1510</name>
<sym>Dot</sym>
</trkpt>
<trkpt lat="42.871105" lon="-2.114943">
<ele>1606.0</ele>
<desc>Speed 0.1 km/h Distance 7.28 km</desc>
<time>2013-07-05T17:56:12.57</time>
<name>1511</name>
<sym>Dot</sym>
</trkpt>
<trkpt lat="42.871105" lon="-2.114943">
<ele>1606.0</ele>
<desc>Speed 0.2 km/h Distance 7.28 km</desc>
<time>2013-07-05T17:56:13.56</time>
<name>1512</name>
<sym>Dot</sym>
</trkpt>
<trkpt lat="42.871105" lon="-2.114943">
<ele>1606.0</ele>
<desc>Speed 0.2 km/h Distance 7.28 km</desc>
<time>2013-07-05T17:56:14.55</time>
<name>1513</name>
<sym>Dot</sym>
</trkpt>
<trkpt lat="42.871105" lon="-2.114943">
<ele>1606.0</ele>
<desc>Speed 0.1 km/h Distance 7.28 km</desc>
<time>2013-07-05T17:56:15.54</time>
<name>1514</name>
<sym>Dot</sym>
</trkpt>
<trkpt lat="42.871105" lon="-2.114943">
<ele>1606.0</ele>
<desc>Speed 0.2 km/h Distance 7.28 km</desc>
<time>2013-07-05T17:56:16.54</time>
<name>1515</name>
<sym>Dot</sym>
</trkpt>
<trkpt lat="42.871105" lon="-2.114943">
<ele>1606.0</ele>
<desc>Speed 0.1 km/h Distance 7.28 km</desc>
<time>2013-07-05T17:56:17.53</time>
<name>1516</name>
<sym>Dot</sym>
</trkpt>
<trkpt lat="42.871105" lon="-2.114943">
<ele>1606.0</ele>
<desc>Speed 0.2 km/h Distance 7.28 km</desc>
<time>2013-07-05T17:56:18.52</time>
<name>1517</name>
<sym>Dot</sym>
</trkpt>
<trkpt lat="42.871105" lon="-2.114943">
<ele>1606.0</ele>
<desc>Speed 0.2 km/h Distance 7.28 km</desc>
<time>2013-07-05T17:56:19.51</time>
<name>1518</name>
<sym>Dot</sym>
</trkpt>
<trkpt lat="42.871105" lon="-2.114943">
<ele>1606.0</ele>
<desc>Speed 0.1 km/h Distance 7.28 km</desc>
<time>2013-07-05T17:56:20.50</time>
<name>1519</name>
<sym>Dot</sym>
</trkpt>
<trkpt lat="42.871105" lon="-2.114943">
<ele>1606.0</ele>
<desc>Speed 0.2 km/h Distance 7.28 km</desc>
<time>2013-07-05T17:56:21.49</time>
<name>1520</name>
<sym>Dot</sym>
</trkpt>
<trkpt lat="42.871105" lon="-2.114943">
<ele>1606.0</ele>
<desc>Speed 0.1 km/h Distance 7.28 km</desc>
<time>2013-07-05T17:56:22.48</time>
<name>1521</name>
<sym>Dot</sym>
</trkpt>
<trkpt lat="42.871105" lon="-2.114943">
<ele>1606.0</ele>
<desc>Speed 0.2 km/h Distance 7.28 km</desc>
<time>2013-07-05T17:56:23.47</time>
<name>1522</name>
<sym>Dot</sym>
</trkpt>
<trkpt lat="42.871105" lon="-2.114943">
<ele>1606.0</ele>
<desc>Speed 0.3 km/h Distance 7.28 km</desc>
<time>2013-07-05T17:56:24.46</time>
<name>1523</name>
<sym>Dot</sym>
</trkpt>
<trkpt lat="42.871105" lon="-2.114943">
<ele>1606.0</ele>
<desc>Speed 0.2 km/h Distance 7.28 km</desc>
<time>2013-07-05T17:56:25.45</time>
<name>1524</name>
<sym>Dot</sym>
</trkpt>
<trkpt lat="42.871105" lon="-2.114943">
<ele>1606.0</ele>
<desc>Speed 0.2 km/h Distance 7.28 km</desc>
<time>2013-07-05T17:56:26.44</time>
<name>1525</name>
<sym>Dot</sym>
</trkpt>
<trkpt lat="42.871105" lon="-2.114943">
<ele>1606.0</ele>
<desc>Speed 0.2 km/h Distance 7.28 km</desc>
<time>2013-07-05T17:56:27.43</time>
<name>1526</name>
<sym>Dot</sym>
</trkpt>
<trkpt lat="42.871105" lon="-2.114943">
<ele>1606.0</ele>
<desc>Speed 0.2 km/h Distance 7.28 km</desc>
<time>2013-07-05T17:56:28.42</time>
<name>1527</name>
<sym>Dot</sym>
</trkpt>
<trkpt lat="42.871105" lon="-2.114943">
<ele>1606.0</ele>
<desc>Speed 0.1 km/h Distance 7.28 km</desc>
<time>2013-07-05T17:56:29.41</time>
<name>1528</name>
<sym>Dot</sym>
</trkpt>
<trkpt lat="42.871105" lon="-2.114943">
<ele>1606.0</ele>
<desc>Speed 0.1 km/h Distance 7.28 km</desc>
<time>2013-07-05T17:56:30.40</time>
<name>1529</name>
<sym>Dot</sym>
</trkpt>
<trkpt lat="42.871105" lon="-2.114943">
<ele>1606.0</ele>
<desc>Speed 0.2 km/h Distance 7.28 km</desc>
<time>2013-07-05T17:56:31.39</time>
<name>1530</name>
<sym>Dot</sym>
</trkpt>
<trkpt lat="42.871105" lon="-2.114943">
<ele>1606.0</ele>
<desc>Speed 0.2 km/h Distance 7.28 km</desc>
<time>2013-07-05T17:56:32.38</time>
<name>1531</name>
<sym>Dot</sym>
</trkpt>
<trkpt lat="42.871105" lon="-2.114943">
<ele>1606.0</ele>
<desc>Speed 0.0 km/h Distance 7.28 km</desc>
<time>2013-07-05T17:56:33.37</time>
<name>1532</name>
<sym>Dot</sym>
</trkpt>
<trkpt lat="42.871105" lon="-2.114943">
<ele>1606.0</ele>
<desc>Speed 0.2 km/h Distance 7.28 km</desc>
<time>2013-07-05T17:56:34.37</time>
<name>1533</name>
<sym>Dot</sym>
</trkpt>
<trkpt lat="42.871105" lon="-2.114943">
<ele>1606.0</ele>
<desc>Speed 0.1 km/h Distance 7.28 km</desc>
<time>2013-07-05T17:56:35.36</time>
<name>1534</name>
<sym>Dot</sym>
</trkpt>
<trkpt lat="42.871105" lon="-2.114943">
<ele>1606.0</ele>
<desc>Speed 0.2 km/h Distance 7.28 km</desc>
<time>2013-07-05T17:56:36.35</time>
<name>1535</name>
<sym>Dot</sym>
</trkpt>
<trkpt lat="42.871105" lon="-2.114943">
<ele>1606.0</ele>
<desc>Speed 0.2 km/h Distance 7.28 km</desc>
<time>2013-07-05T17:56:37.35</time>
<name>1536</name>
<sym>Dot</sym>
</trkpt>
<trkpt lat="42.871105" lon="-2.114943">
<ele>1606.0</ele>
<desc>Speed 0.1 km/h Distance 7.28 km</desc>
<time>2013-07-05T17:56:38.34</time>
<name>1537</name>
<sym>Dot</sym>
</trkpt>
<trkpt lat="42.871105" lon="-2.114943">
<ele>1606.0</ele>
<desc>Speed 0.1 km/h Distance 7.28 km</desc>
<time>2013-07-05T17:56:39.33</time>
<name>1538</name>
<sym>Dot</sym>
</trkpt>
<trkpt lat="42.871105" lon="-2.114943">
<ele>1606.0</ele>
<desc>Speed 0.2 km/h Distance 7.28 km</desc>
<time>2013-07-05T17:56:40.32</time>
<name>1539</name>
<sym>Dot</sym>
</trkpt>
<trkpt lat="42.871105" lon="-2.114943">
<ele>1606.0</ele>
<desc>Speed 0.1 km/h Distance 7.28 km</desc>
<time>2013-07-05T17:56:41.31</time>
<name>1540</name>
<sym>Dot</sym>
</trkpt>
<trkpt lat="42.871105" lon="-2.114943">
<ele>1606.0</ele>
<desc>Speed 0.0 km/h Distance 7.28 km</desc>
<time>2013-07-05T17:56:42.30</time>
<name>1541</name>
<sym>Dot</sym>
</trkpt>
<trkpt lat="42.871105" lon="-2.114943">
<ele>1606.0</ele>
<desc>Speed 0.1 km/h Distance 7.28 km</desc>
<time>2013-07-05T17:56:43.29</time>
<name>1542</name>
<sym>Dot</sym>
</trkpt>
<trkpt lat="42.871105" lon="-2.114943">
<ele>1606.0</ele>
<desc>Speed 0.2 km/h Distance 7.28 km</desc>
<time>2013-07-05T17:56:44.28</time>
<name>1543</name>
<sym>Dot</sym>
</trkpt>
<trkpt lat="42.871105" lon="-2.114943">
<ele>1606.0</ele>
<desc>Speed 0.2 km/h Distance 7.28 km</desc>
<time>2013-07-05T17:56:45.28</time>
<name>1544</name>
<sym>Dot</sym>
</trkpt>
<trkpt lat="42.871105" lon="-2.114943">
<ele>1606.0</ele>
<desc>Speed 0.1 km/h Distance 7.28 km</desc>
<time>2013-07-05T17:56:46.27</time>
<name>1545</name>
<sym>Dot</sym>
</trkpt>
<trkpt lat="42.871105" lon="-2.114943">
<ele>1606.0</ele>
<desc>Speed 0.3 km/h Distance 7.28 km</desc>
<time>2013-07-05T17:56:47.26</time>
<name>1546</name>
<sym>Dot</sym>
</trkpt>
<trkpt lat="42.871105" lon="-2.114943">
<ele>1606.0</ele>
<desc>Speed 0.1 km/h Distance 7.28 km</desc>
<time>2013-07-05T17:56:48.25</time>
<name>1547</name>
<sym>Dot</sym>
</trkpt>
<trkpt lat="42.871105" lon="-2.114943">
<ele>1606.0</ele>
<desc>Speed 0.2 km/h Distance 7.28 km</desc>
<time>2013-07-05T17:56:49.24</time>
<name>1548</name>
<sym>Dot</sym>
</trkpt>
<trkpt lat="42.871105" lon="-2.114943">
<ele>1606.0</ele>
<desc>Speed 0.2 km/h Distance 7.28 km</desc>
<time>2013-07-05T17:56:50.24</time>
<name>1549</name>
<sym>Dot</sym>
</trkpt>
<trkpt lat="42.871105" lon="-2.114943">
<ele>1606.0</ele>
<desc>Speed 0.2 km/h Distance 7.28 km</desc>
<time>2013-07-05T17:56:51.23</time>
<name>1550</name>
<sym>Dot</sym>
</trkpt>
<trkpt lat="42.871105" lon="-2.114943">
<ele>1606.0</ele>
<desc>Speed 0.1 km/h Distance 7.28 km</desc>
<time>2013-07-05T17:56:52.22</time>
<name>1551</name>
<sym>Dot</sym>
</trkpt>
<trkpt lat="42.871105" lon="-2.114943">
<ele>1606.0</ele>
<desc>Speed 0.2 km/h Distance 7.28 km</desc>
<time>2013-07-05T17:56:53.21</time>
<name>1552</name>
<sym>Dot</sym>
</trkpt>
<trkpt lat="42.871105" lon="-2.114943">
<ele>1606.0</ele>
<desc>Speed 0.3 km/h Distance 7.28 km</desc>
<time>2013-07-05T17:56:54.20</time>
<name>1553</name>
<sym>Dot</sym>
</trkpt>
<trkpt lat="42.871105" lon="-2.114943">
<ele>1606.0</ele>
<desc>Speed 0.1 km/h Distance 7.28 km</desc>
<time>2013-07-05T17:56:55.19</time>
<name>1554</name>
<sym>Dot</sym>
</trkpt>
<trkpt lat="42.871105" lon="-2.114943">
<ele>1606.0</ele>
<desc>Speed 0.1 km/h Distance 7.28 km</desc>
<time>2013-07-05T17:56:56.18</time>
<name>1555</name>
<sym>Dot</sym>
</trkpt>
<trkpt lat="42.871105" lon="-2.114943">
<ele>1606.0</ele>
<desc>Speed 0.2 km/h Distance 7.28 km</desc>
<time>2013-07-05T17:56:57.17</time>
<name>1556</name>
<sym>Dot</sym>
</trkpt>
<trkpt lat="42.871105" lon="-2.114943">
<ele>1606.0</ele>
<desc>Speed 0.2 km/h Distance 7.28 km</desc>
<time>2013-07-05T17:56:58.16</time>
<name>1557</name>
<sym>Dot</sym>
</trkpt>
<trkpt lat="42.871105" lon="-2.114943">
<ele>1606.0</ele>
<desc>Speed 0.1 km/h Distance 7.28 km</desc>
<time>2013-07-05T17:56:59.15</time>
<name>1558</name>
<sym>Dot</sym>
</trkpt>
<trkpt lat="42.871105" lon="-2.114943">
<ele>1606.0</ele>
<desc>Speed 0.1 km/h Distance 7.28 km</desc>
<time>2013-07-05T17:57:00.14</time>
<name>1559</name>
<sym>Dot</sym>
</trkpt>
<trkpt lat="42.871105" lon="-2.114943">
<ele>1606.0</ele>
<desc>Speed 0.1 km/h Distance 7.28 km</desc>
<time>2013-07-05T17:57:01.14</time>
<name>1560</name>
<sym>Dot</sym>
</trkpt>
<trkpt lat="42.871105" lon="-2.114943">
<ele>1606.0</ele>
<desc>Speed 0.3 km/h Distance 7.28 km</desc>
<time>2013-07-05T17:57:02.13</time>
<name>1561</name>
<sym>Dot</sym>
</trkpt>
<trkpt lat="42.871105" lon="-2.114943">
<ele>1606.0</ele>
<desc>Speed 0.1 km/h Distance 7.28 km</desc>
<time>2013-07-05T17:57:03.12</time>
<name>1562</name>
<sym>Dot</sym>
</trkpt>
<trkpt lat="42.871105" lon="-2.114943">
<ele>1606.0</ele>
<desc>Speed 0.3 km/h Distance 7.28 km</desc>
<time>2013-07-05T17:57:04.11</time>
<name>1563</name>
<sym>Dot</sym>
</trkpt>
<trkpt lat="42.871105" lon="-2.114943">
<ele>1606.0</ele>
<desc>Speed 0.3 km/h Distance 7.28 km</desc>
<time>2013-07-05T17:57:05.10</time>
<name>1564</name>
<sym>Dot</sym>
</trkpt>
<trkpt lat="42.871105" lon="-2.114943">
<ele>1606.0</ele>
<desc>Speed 0.2 km/h Distance 7.28 km</desc>
<time>2013-07-05T17:57:06.09</time>
<name>1565</name>
<sym>Dot</sym>
</trkpt>
<trkpt lat="42.871105" lon="-2.114943">
<ele>1606.0</ele>
<desc>Speed 0.2 km/h Distance 7.28 km</desc>
<time>2013-07-05T17:57:07.08</time>
<name>1566</name>
<sym>Dot</sym>
</trkpt>
<trkpt lat="42.871105" lon="-2.114943">
<ele>1606.0</ele>
<desc>Speed 0.2 km/h Distance 7.28 km</desc>
<time>2013-07-05T17:57:08.07</time>
<name>1567</name>
<sym>Dot</sym>
</trkpt>
<trkpt lat="42.871105" lon="-2.114943">
<ele>1606.0</ele>
<desc>Speed 0.2 km/h Distance 7.28 km</desc>
<time>2013-07-05T17:57:09.06</time>
<name>1568</name>
<sym>Dot</sym>
</trkpt>
<trkpt lat="42.871105" lon="-2.114943">
<ele>1606.0</ele>
<desc>Speed 0.2 km/h Distance 7.28 km</desc>
<time>2013-07-05T17:57:10.05</time>
<name>1569</name>
<sym>Dot</sym>
</trkpt>
<trkpt lat="42.871105" lon="-2.114943">
<ele>1606.0</ele>
<desc>Speed 0.2 km/h Distance 7.28 km</desc>
<time>2013-07-05T17:57:11.04</time>
<name>1570</name>
<sym>Dot</sym>
</trkpt>
<trkpt lat="42.871105" lon="-2.114943">
<ele>1606.0</ele>
<desc>Speed 0.2 km/h Distance 7.28 km</desc>
<time>2013-07-05T17:57:12.03</time>
<name>1571</name>
<sym>Dot</sym>
</trkpt>
<trkpt lat="42.871105" lon="-2.114943">
<ele>1606.0</ele>
<desc>Speed 0.1 km/h Distance 7.28 km</desc>
<time>2013-07-05T17:57:13.02</time>
<name>1572</name>
<sym>Dot</sym>
</trkpt>
<trkpt lat="42.871105" lon="-2.114943">
<ele>1606.0</ele>
<desc>Speed 0.1 km/h Distance 7.28 km</desc>
<time>2013-07-05T17:57:14.01</time>
<name>1573</name>
<sym>Dot</sym>
</trkpt>
<trkpt lat="42.871105" lon="-2.114943">
<ele>1606.0</ele>
<desc>Speed 0.2 km/h Distance 7.28 km</desc>
<time>2013-07-05T17:57:15.00</time>
<name>1574</name>
<sym>Dot</sym>
</trkpt>
<trkpt lat="42.871105" lon="-2.114943">
<ele>1606.0</ele>
<desc>Speed 0.2 km/h Distance 7.28 km</desc>
<time>2013-07-05T17:57:15.99</time>
<name>1575</name>
<sym>Dot</sym>
</trkpt>
<trkpt lat="42.871105" lon="-2.114943">
<ele>1606.0</ele>
<desc>Speed 0.2 km/h Distance 7.28 km</desc>
<time>2013-07-05T17:57:16.98</time>
<name>1576</name>
<sym>Dot</sym>
</trkpt>
<trkpt lat="42.871105" lon="-2.114943">
<ele>1606.0</ele>
<desc>Speed 0.2 km/h Distance 7.28 km</desc>
<time>2013-07-05T17:57:17.97</time>
<name>1577</name>
<sym>Dot</sym>
</trkpt>
<trkpt lat="42.871105" lon="-2.114943">
<ele>1606.0</ele>
<desc>Speed 0.2 km/h Distance 7.28 km</desc>
<time>2013-07-05T17:57:18.96</time>
<name>1578</name>
<sym>Dot</sym>
</trkpt>
<trkpt lat="42.871105" lon="-2.114943">
<ele>1606.0</ele>
<desc>Speed 0.2 km/h Distance 7.28 km</desc>
<time>2013-07-05T17:57:19.96</time>
<name>1579</name>
<sym>Dot</sym>
</trkpt>
<trkpt lat="42.871105" lon="-2.114943">
<ele>1606.0</ele>
<desc>Speed 0.2 km/h Distance 7.28 km</desc>
<time>2013-07-05T17:57:20.95</time>
<name>1580</name>
<sym>Dot</sym>
</trkpt>
<trkpt lat="42.871105" lon="-2.114943">
<ele>1606.0</ele>
<desc>Speed 0.1 km/h Distance 7.28 km</desc>
<time>2013-07-05T17:57:21.94</time>
<name>1581</name>
<sym>Dot</sym>
</trkpt>
<trkpt lat="42.871105" lon="-2.114943">
<ele>1606.0</ele>
<desc>Speed 0.2 km/h Distance 7.28 km</desc>
<time>2013-07-05T17:57:22.94</time>
<name>1582</name>
<sym>Dot</sym>
</trkpt>
<trkpt lat="42.871105" lon="-2.114943">
<ele>1606.0</ele>
<desc>Speed 0.2 km/h Distance 7.28 km</desc>
<time>2013-07-05T17:57:23.93</time>
<name>1583</name>
<sym>Dot</sym>
</trkpt>
<trkpt lat="42.871105" lon="-2.114943">
<ele>1606.0</ele>
<desc>Speed 0.2 km/h Distance 7.28 km</desc>
<time>2013-07-05T17:57:24.93</time>
<name>1584</name>
<sym>Dot</sym>
</trkpt>
<trkpt lat="42.871105" lon="-2.114943">
<ele>1606.0</ele>
<desc>Speed 0.1 km/h Distance 7.28 km</desc>
<time>2013-07-05T17:57:25.92</time>
<name>1585</name>
<sym>Dot</sym>
</trkpt>
<trkpt lat="42.871105" lon="-2.114943">
<ele>1606.0</ele>
<desc>Speed 0.1 km/h Distance 7.28 km</desc>
<time>2013-07-05T17:57:26.91</time>
<name>1586</name>
<sym>Dot</sym>
</trkpt>
<trkpt lat="42.871105" lon="-2.114943">
<ele>1606.0</ele>
<desc>Speed 0.2 km/h Distance 7.28 km</desc>
<time>2013-07-05T17:57:27.90</time>
<name>1587</name>
<sym>Dot</sym>
</trkpt>
<trkpt lat="42.871105" lon="-2.114943">
<ele>1606.0</ele>
<desc>Speed 0.1 km/h Distance 7.28 km</desc>
<time>2013-07-05T17:57:28.90</time>
<name>1588</name>
<sym>Dot</sym>
</trkpt>
<trkpt lat="42.871105" lon="-2.114943">
<ele>1606.0</ele>
<desc>Speed 0.2 km/h Distance 7.28 km</desc>
<time>2013-07-05T17:57:29.90</time>
<name>1589</name>
<sym>Dot</sym>
</trkpt>
<trkpt lat="42.871105" lon="-2.114943">
<ele>1606.0</ele>
<desc>Speed 0.2 km/h Distance 7.28 km</desc>
<time>2013-07-05T17:57:30.89</time>
<name>1590</name>
<sym>Dot</sym>
</trkpt>
<trkpt lat="42.871105" lon="-2.114943">
<ele>1606.0</ele>
<desc>Speed 0.1 km/h Distance 7.28 km</desc>
<time>2013-07-05T17:57:31.88</time>
<name>1591</name>
<sym>Dot</sym>
</trkpt>
<trkpt lat="42.871105" lon="-2.114943">
<ele>1606.0</ele>
<desc>Speed 0.1 km/h Distance 7.28 km</desc>
<time>2013-07-05T17:57:32.87</time>
<name>1592</name>
<sym>Dot</sym>
</trkpt>
<trkpt lat="42.871105" lon="-2.114943">
<ele>1606.0</ele>
<desc>Speed 0.2 km/h Distance 7.28 km</desc>
<time>2013-07-05T17:57:33.86</time>
<name>1593</name>
<sym>Dot</sym>
</trkpt>
<trkpt lat="42.871105" lon="-2.114943">
<ele>1606.0</ele>
<desc>Speed 0.2 km/h Distance 7.28 km</desc>
<time>2013-07-05T17:57:34.85</time>
<name>1594</name>
<sym>Dot</sym>
</trkpt>
<trkpt lat="42.871105" lon="-2.114943">
<ele>1606.0</ele>
<desc>Speed 0.2 km/h Distance 7.28 km</desc>
<time>2013-07-05T17:57:35.86</time>
<name>1595</name>
<sym>Dot</sym>
</trkpt>
<trkpt lat="42.871105" lon="-2.114943">
<ele>1606.0</ele>
<desc>Speed 0.1 km/h Distance 7.28 km</desc>
<time>2013-07-05T17:57:36.83</time>
<name>1596</name>
<sym>Dot</sym>
</trkpt>
<trkpt lat="42.871105" lon="-2.114943">
<ele>1606.0</ele>
<desc>Speed 0.2 km/h Distance 7.28 km</desc>
<time>2013-07-05T17:57:37.82</time>
<name>1597</name>
<sym>Dot</sym>
</trkpt>
<trkpt lat="42.871105" lon="-2.114943">
<ele>1606.0</ele>
<desc>Speed 0.1 km/h Distance 7.28 km</desc>
<time>2013-07-05T17:57:38.81</time>
<name>1598</name>
<sym>Dot</sym>
</trkpt>
<trkpt lat="42.871105" lon="-2.114943">
<ele>1606.0</ele>
<desc>Speed 0.2 km/h Distance 7.28 km</desc>
<time>2013-07-05T17:57:39.80</time>
<name>1599</name>
<sym>Dot</sym>
</trkpt>
<trkpt lat="42.871105" lon="-2.114943">
<ele>1606.0</ele>
<desc>Speed 0.1 km/h Distance 7.28 km</desc>
<time>2013-07-05T17:57:40.79</time>
<name>1600</name>
<sym>Dot</sym>
</trkpt>
<trkpt lat="42.871105" lon="-2.114943">
<ele>1606.0</ele>
<desc>Speed 0.1 km/h Distance 7.28 km</desc>
<time>2013-07-05T17:57:41.78</time>
<name>1601</name>
<sym>Dot</sym>
</trkpt>
<trkpt lat="42.871105" lon="-2.114943">
<ele>1606.0</ele>
<desc>Speed 0.1 km/h Distance 7.28 km</desc>
<time>2013-07-05T17:57:42.77</time>
<name>1602</name>
<sym>Dot</sym>
</trkpt>
<trkpt lat="42.871105" lon="-2.114943">
<ele>1606.0</ele>
<desc>Speed 0.1 km/h Distance 7.28 km</desc>
<time>2013-07-05T17:57:43.76</time>
<name>1603</name>
<sym>Dot</sym>
</trkpt>
<trkpt lat="42.871105" lon="-2.114943">
<ele>1606.0</ele>
<desc>Speed 0.2 km/h Distance 7.28 km</desc>
<time>2013-07-05T17:57:44.75</time>
<name>1604</name>
<sym>Dot</sym>
</trkpt>
<trkpt lat="42.871105" lon="-2.114943">
<ele>1606.0</ele>
<desc>Speed 0.1 km/h Distance 7.28 km</desc>
<time>2013-07-05T17:57:45.74</time>
<name>1605</name>
<sym>Dot</sym>
</trkpt>
<trkpt lat="42.871105" lon="-2.114943">
<ele>1606.0</ele>
<desc>Speed 0.2 km/h Distance 7.28 km</desc>
<time>2013-07-05T17:57:46.73</time>
<name>1606</name>
<sym>Dot</sym>
</trkpt>
<trkpt lat="42.871105" lon="-2.114943">
<ele>1606.0</ele>
<desc>Speed 0.2 km/h Distance 7.28 km</desc>
<time>2013-07-05T17:57:47.72</time>
<name>1607</name>
<sym>Dot</sym>
</trkpt>
<trkpt lat="42.871105" lon="-2.114943">
<ele>1606.0</ele>
<desc>Speed 0.2 km/h Distance 7.28 km</desc>
<time>2013-07-05T17:57:48.71</time>
<name>1608</name>
<sym>Dot</sym>
</trkpt>
<trkpt lat="42.871105" lon="-2.114943">
<ele>1606.0</ele>
<desc>Speed 0.1 km/h Distance 7.28 km</desc>
<time>2013-07-05T17:57:49.71</time>
<name>1609</name>
<sym>Dot</sym>
</trkpt>
<trkpt lat="42.871105" lon="-2.114943">
<ele>1606.0</ele>
<desc>Speed 0.2 km/h Distance 7.28 km</desc>
<time>2013-07-05T17:57:50.70</time>
<name>1610</name>
<sym>Dot</sym>
</trkpt>
<trkpt lat="42.871105" lon="-2.114943">
<ele>1606.0</ele>
<desc>Speed 0.1 km/h Distance 7.28 km</desc>
<time>2013-07-05T17:57:51.69</time>
<name>1611</name>
<sym>Dot</sym>
</trkpt>
<trkpt lat="42.871105" lon="-2.114943">
<ele>1606.0</ele>
<desc>Speed 0.1 km/h Distance 7.28 km</desc>
<time>2013-07-05T17:57:52.68</time>
<name>1612</name>
<sym>Dot</sym>
</trkpt>
<trkpt lat="42.871105" lon="-2.114943">
<ele>1606.0</ele>
<desc>Speed 0.1 km/h Distance 7.28 km</desc>
<time>2013-07-05T17:57:53.67</time>
<name>1613</name>
<sym>Dot</sym>
</trkpt>
<trkpt lat="42.871105" lon="-2.114943">
<ele>1606.0</ele>
<desc>Speed 0.2 km/h Distance 7.28 km</desc>
<time>2013-07-05T17:57:54.66</time>
<name>1614</name>
<sym>Dot</sym>
</trkpt>
<trkpt lat="42.871105" lon="-2.114943">
<ele>1606.0</ele>
<desc>Speed 0.3 km/h Distance 7.28 km</desc>
<time>2013-07-05T17:57:55.65</time>
<name>1615</name>
<sym>Dot</sym>
</trkpt>
<trkpt lat="42.871105" lon="-2.114943">
<ele>1606.0</ele>
<desc>Speed 0.1 km/h Distance 7.28 km</desc>
<time>2013-07-05T17:57:56.64</time>
<name>1616</name>
<sym>Dot</sym>
</trkpt>
<trkpt lat="42.871105" lon="-2.114943">
<ele>1606.0</ele>
<desc>Speed 0.2 km/h Distance 7.28 km</desc>
<time>2013-07-05T17:57:57.63</time>
<name>1617</name>
<sym>Dot</sym>
</trkpt>
<trkpt lat="42.871105" lon="-2.114943">
<ele>1606.0</ele>
<desc>Speed 0.1 km/h Distance 7.28 km</desc>
<time>2013-07-05T17:57:58.62</time>
<name>1618</name>
<sym>Dot</sym>
</trkpt>
<trkpt lat="42.871105" lon="-2.114943">
<ele>1606.0</ele>
<desc>Speed 0.1 km/h Distance 7.28 km</desc>
<time>2013-07-05T17:57:59.61</time>
<name>1619</name>
<sym>Dot</sym>
</trkpt>
<trkpt lat="42.871105" lon="-2.114943">
<ele>1606.0</ele>
<desc>Speed 0.3 km/h Distance 7.28 km</desc>
<time>2013-07-05T17:58:00.60</time>
<name>1620</name>
<sym>Dot</sym>
</trkpt>
<trkpt lat="42.871105" lon="-2.114943">
<ele>1606.0</ele>
<desc>Speed 0.1 km/h Distance 7.28 km</desc>
<time>2013-07-05T17:58:01.59</time>
<name>1621</name>
<sym>Dot</sym>
</trkpt>
<trkpt lat="42.871105" lon="-2.114943">
<ele>1606.0</ele>
<desc>Speed 0.2 km/h Distance 7.28 km</desc>
<time>2013-07-05T17:58:02.58</time>
<name>1622</name>
<sym>Dot</sym>
</trkpt>
<trkpt lat="42.871105" lon="-2.114943">
<ele>1606.0</ele>
<desc>Speed 0.1 km/h Distance 7.28 km</desc>
<time>2013-07-05T17:58:03.58</time>
<name>1623</name>
<sym>Dot</sym>
</trkpt>
<trkpt lat="42.871105" lon="-2.114943">
<ele>1606.0</ele>
<desc>Speed 0.0 km/h Distance 7.28 km</desc>
<time>2013-07-05T17:58:04.57</time>
<name>1624</name>
<sym>Dot</sym>
</trkpt>
<trkpt lat="42.871105" lon="-2.114943">
<ele>1606.0</ele>
<desc>Speed 0.3 km/h Distance 7.28 km</desc>
<time>2013-07-05T17:58:05.56</time>
<name>1625</name>
<sym>Dot</sym>
</trkpt>
<trkpt lat="42.871105" lon="-2.114943">
<ele>1606.0</ele>
<desc>Speed 0.1 km/h Distance 7.28 km</desc>
<time>2013-07-05T17:58:06.55</time>
<name>1626</name>
<sym>Dot</sym>
</trkpt>
<trkpt lat="42.871105" lon="-2.114943">
<ele>1606.0</ele>
<desc>Speed 0.2 km/h Distance 7.28 km</desc>
<time>2013-07-05T17:58:07.54</time>
<name>1627</name>
<sym>Dot</sym>
</trkpt>
<trkpt lat="42.871105" lon="-2.114943">
<ele>1606.0</ele>
<desc>Speed 0.2 km/h Distance 7.28 km</desc>
<time>2013-07-05T17:58:08.53</time>
<name>1628</name>
<sym>Dot</sym>
</trkpt>
<trkpt lat="42.871105" lon="-2.114943">
<ele>1606.0</ele>
<desc>Speed 0.1 km/h Distance 7.28 km</desc>
<time>2013-07-05T17:58:09.52</time>
<name>1629</name>
<sym>Dot</sym>
</trkpt>
<trkpt lat="42.871105" lon="-2.114943">
<ele>1606.0</ele>
<desc>Speed 0.1 km/h Distance 7.28 km</desc>
<time>2013-07-05T17:58:10.51</time>
<name>1630</name>
<sym>Dot</sym>
</trkpt>
<trkpt lat="42.871105" lon="-2.114943">
<ele>1606.0</ele>
<desc>Speed 0.2 km/h Distance 7.28 km</desc>
<time>2013-07-05T17:58:11.50</time>
<name>1631</name>
<sym>Dot</sym>
</trkpt>
<trkpt lat="42.871105" lon="-2.114943">
<ele>1606.0</ele>
<desc>Speed 0.1 km/h Distance 7.28 km</desc>
<time>2013-07-05T17:58:12.49</time>
<name>1632</name>
<sym>Dot</sym>
</trkpt>
<trkpt lat="42.871105" lon="-2.114943">
<ele>1606.0</ele>
<desc>Speed 0.2 km/h Distance 7.28 km</desc>
<time>2013-07-05T17:58:13.48</time>
<name>1633</name>
<sym>Dot</sym>
</trkpt>
<trkpt lat="42.871105" lon="-2.114943">
<ele>1606.0</ele>
<desc>Speed 0.3 km/h Distance 7.28 km</desc>
<time>2013-07-05T17:58:14.47</time>
<name>1634</name>
<sym>Dot</sym>
</trkpt>
<trkpt lat="42.871105" lon="-2.114943">
<ele>1606.0</ele>
<desc>Speed 0.1 km/h Distance 7.28 km</desc>
<time>2013-07-05T17:58:15.46</time>
<name>1635</name>
<sym>Dot</sym>
</trkpt>
<trkpt lat="42.871105" lon="-2.114943">
<ele>1606.0</ele>
<desc>Speed 0.1 km/h Distance 7.28 km</desc>
<time>2013-07-05T17:58:16.45</time>
<name>1636</name>
<sym>Dot</sym>
</trkpt>
<trkpt lat="42.871105" lon="-2.114943">
<ele>1606.0</ele>
<desc>Speed 0.2 km/h Distance 7.28 km</desc>
<time>2013-07-05T17:58:17.44</time>
<name>1637</name>
<sym>Dot</sym>
</trkpt>
<trkpt lat="42.871105" lon="-2.114943">
<ele>1606.0</ele>
<desc>Speed 0.2 km/h Distance 7.28 km</desc>
<time>2013-07-05T17:58:18.43</time>
<name>1638</name>
<sym>Dot</sym>
</trkpt>
<trkpt lat="42.871105" lon="-2.114943">
<ele>1606.0</ele>
<desc>Speed 0.2 km/h Distance 7.28 km</desc>
<time>2013-07-05T17:58:19.42</time>
<name>1639</name>
<sym>Dot</sym>
</trkpt>
<trkpt lat="42.871105" lon="-2.114943">
<ele>1606.0</ele>
<desc>Speed 0.2 km/h Distance 7.28 km</desc>
<time>2013-07-05T17:58:20.41</time>
<name>1640</name>
<sym>Dot</sym>
</trkpt>
<trkpt lat="42.871105" lon="-2.114943">
<ele>1606.0</ele>
<desc>Speed 0.1 km/h Distance 7.28 km</desc>
<time>2013-07-05T17:58:21.40</time>
<name>1641</name>
<sym>Dot</sym>
</trkpt>
<trkpt lat="42.871105" lon="-2.114943">
<ele>1606.0</ele>
<desc>Speed 0.1 km/h Distance 7.28 km</desc>
<time>2013-07-05T17:58:22.39</time>
<name>1642</name>
<sym>Dot</sym>
</trkpt>
<trkpt lat="42.871105" lon="-2.114943">
<ele>1606.0</ele>
<desc>Speed 0.1 km/h Distance 7.28 km</desc>
<time>2013-07-05T17:58:23.38</time>
<name>1643</name>
<sym>Dot</sym>
</trkpt>
<trkpt lat="42.871105" lon="-2.114943">
<ele>1606.0</ele>
<desc>Speed 0.3 km/h Distance 7.28 km</desc>
<time>2013-07-05T17:58:24.38</time>
<name>1644</name>
<sym>Dot</sym>
</trkpt>
<trkpt lat="42.871105" lon="-2.114943">
<ele>1606.0</ele>
<desc>Speed 0.1 km/h Distance 7.28 km</desc>
<time>2013-07-05T17:58:25.37</time>
<name>1645</name>
<sym>Dot</sym>
</trkpt>
<trkpt lat="42.871105" lon="-2.114943">
<ele>1606.0</ele>
<desc>Speed 0.2 km/h Distance 7.28 km</desc>
<time>2013-07-05T17:58:26.36</time>
<name>1646</name>
<sym>Dot</sym>
</trkpt>
<trkpt lat="42.871105" lon="-2.114943">
<ele>1606.0</ele>
<desc>Speed 0.3 km/h Distance 7.28 km</desc>
<time>2013-07-05T17:58:27.35</time>
<name>1647</name>
<sym>Dot</sym>
</trkpt>
<trkpt lat="42.871105" lon="-2.114943">
<ele>1606.0</ele>
<desc>Speed 0.0 km/h Distance 7.28 km</desc>
<time>2013-07-05T17:58:28.34</time>
<name>1648</name>
<sym>Dot</sym>
</trkpt>
<trkpt lat="42.871105" lon="-2.114943">
<ele>1606.0</ele>
<desc>Speed 0.1 km/h Distance 7.28 km</desc>
<time>2013-07-05T17:58:29.33</time>
<name>1649</name>
<sym>Dot</sym>
</trkpt>
<trkpt lat="42.871105" lon="-2.114943">
<ele>1606.0</ele>
<desc>Speed 0.2 km/h Distance 7.28 km</desc>
<time>2013-07-05T17:58:30.32</time>
<name>1650</name>
<sym>Dot</sym>
</trkpt>
<trkpt lat="42.871105" lon="-2.114943">
<ele>1606.0</ele>
<desc>Speed 0.2 km/h Distance 7.28 km</desc>
<time>2013-07-05T17:58:31.31</time>
<name>1651</name>
<sym>Dot</sym>
</trkpt>
<trkpt lat="42.871105" lon="-2.114943">
<ele>1606.0</ele>
<desc>Speed 0.2 km/h Distance 7.28 km</desc>
<time>2013-07-05T17:58:32.31</time>
<name>1652</name>
<sym>Dot</sym>
</trkpt>
<trkpt lat="42.871105" lon="-2.114943">
<ele>1606.0</ele>
<desc>Speed 0.1 km/h Distance 7.28 km</desc>
<time>2013-07-05T17:58:33.30</time>
<name>1653</name>
<sym>Dot</sym>
</trkpt>
<trkpt lat="42.871105" lon="-2.114943">
<ele>1606.0</ele>
<desc>Speed 0.1 km/h Distance 7.28 km</desc>
<time>2013-07-05T17:58:34.29</time>
<name>1654</name>
<sym>Dot</sym>
</trkpt>
<trkpt lat="42.871105" lon="-2.114943">
<ele>1606.0</ele>
<desc>Speed 0.3 km/h Distance 7.28 km</desc>
<time>2013-07-05T17:58:35.29</time>
<name>1655</name>
<sym>Dot</sym>
</trkpt>
<trkpt lat="42.871105" lon="-2.114943">
<ele>1606.0</ele>
<desc>Speed 0.1 km/h Distance 7.28 km</desc>
<time>2013-07-05T17:58:36.28</time>
<name>1656</name>
<sym>Dot</sym>
</trkpt>
<trkpt lat="42.871105" lon="-2.114943">
<ele>1606.0</ele>
<desc>Speed 0.1 km/h Distance 7.28 km</desc>
<time>2013-07-05T17:58:37.28</time>
<name>1657</name>
<sym>Dot</sym>
</trkpt>
<trkpt lat="42.871105" lon="-2.114943">
<ele>1606.0</ele>
<desc>Speed 0.3 km/h Distance 7.28 km</desc>
<time>2013-07-05T17:58:38.27</time>
<name>1658</name>
<sym>Dot</sym>
</trkpt>
<trkpt lat="42.871105" lon="-2.114943">
<ele>1606.0</ele>
<desc>Speed 0.3 km/h Distance 7.28 km</desc>
<time>2013-07-05T17:58:39.26</time>
<name>1659</name>
<sym>Dot</sym>
</trkpt>
<trkpt lat="42.871105" lon="-2.114943">
<ele>1606.0</ele>
<desc>Speed 0.2 km/h Distance 7.28 km</desc>
<time>2013-07-05T17:58:40.25</time>
<name>1660</name>
<sym>Dot</sym>
</trkpt>
<trkpt lat="42.871105" lon="-2.114943">
<ele>1606.0</ele>
<desc>Speed 0.2 km/h Distance 7.28 km</desc>
<time>2013-07-05T17:58:41.24</time>
<name>1661</name>
<sym>Dot</sym>
</trkpt>
<trkpt lat="42.871105" lon="-2.114943">
<ele>1606.0</ele>
<desc>Speed 0.2 km/h Distance 7.28 km</desc>
<time>2013-07-05T17:58:42.23</time>
<name>1662</name>
<sym>Dot</sym>
</trkpt>
<trkpt lat="42.871105" lon="-2.114943">
<ele>1606.0</ele>
<desc>Speed 0.1 km/h Distance 7.28 km</desc>
<time>2013-07-05T17:58:43.22</time>
<name>1663</name>
<sym>Dot</sym>
</trkpt>
<trkpt lat="42.871105" lon="-2.114943">
<ele>1606.0</ele>
<desc>Speed 0.2 km/h Distance 7.28 km</desc>
<time>2013-07-05T17:58:44.21</time>
<name>1664</name>
<sym>Dot</sym>
</trkpt>
<trkpt lat="42.871105" lon="-2.114943">
<ele>1606.0</ele>
<desc>Speed 0.1 km/h Distance 7.28 km</desc>
<time>2013-07-05T17:58:45.20</time>
<name>1665</name>
<sym>Dot</sym>
</trkpt>
<trkpt lat="42.871105" lon="-2.114943">
<ele>1606.0</ele>
<desc>Speed 0.1 km/h Distance 7.28 km</desc>
<time>2013-07-05T17:58:46.19</time>
<name>1666</name>
<sym>Dot</sym>
</trkpt>
<trkpt lat="42.871105" lon="-2.114943">
<ele>1606.0</ele>
<desc>Speed 0.2 km/h Distance 7.28 km</desc>
<time>2013-07-05T17:58:47.18</time>
<name>1667</name>
<sym>Dot</sym>
</trkpt>
<trkpt lat="42.871105" lon="-2.114943">
<ele>1606.0</ele>
<desc>Speed 0.2 km/h Distance 7.28 km</desc>
<time>2013-07-05T17:58:48.17</time>
<name>1668</name>
<sym>Dot</sym>
</trkpt>
<trkpt lat="42.871105" lon="-2.114943">
<ele>1606.0</ele>
<desc>Speed 0.2 km/h Distance 7.28 km</desc>
<time>2013-07-05T17:58:49.17</time>
<name>1669</name>
<sym>Dot</sym>
</trkpt>
<trkpt lat="42.871105" lon="-2.114943">
<ele>1606.0</ele>
<desc>Speed 0.2 km/h Distance 7.28 km</desc>
<time>2013-07-05T17:58:50.16</time>
<name>1670</name>
<sym>Dot</sym>
</trkpt>
<trkpt lat="42.871105" lon="-2.114943">
<ele>1606.0</ele>
<desc>Speed 0.1 km/h Distance 7.28 km</desc>
<time>2013-07-05T17:58:51.16</time>
<name>1671</name>
<sym>Dot</sym>
</trkpt>
<trkpt lat="42.871105" lon="-2.114943">
<ele>1606.0</ele>
<desc>Speed 0.1 km/h Distance 7.28 km</desc>
<time>2013-07-05T17:58:52.15</time>
<name>1672</name>
<sym>Dot</sym>
</trkpt>
<trkpt lat="42.871105" lon="-2.114943">
<ele>1605.5</ele>
<desc>Speed 0.2 km/h Distance 7.28 km</desc>
<time>2013-07-05T17:58:53.14</time>
<name>1673</name>
<sym>Dot</sym>
</trkpt>
<trkpt lat="42.871105" lon="-2.114945">
<ele>1605.5</ele>
<desc>Speed 0.1 km/h Distance 7.28 km</desc>
<time>2013-07-05T17:58:54.13</time>
<name>1674</name>
<sym>Dot</sym>
</trkpt>
<trkpt lat="42.871105" lon="-2.114945">
<ele>1605.5</ele>
<desc>Speed 0.1 km/h Distance 7.28 km</desc>
<time>2013-07-05T17:58:55.13</time>
<name>1675</name>
<sym>Dot</sym>
</trkpt>
<trkpt lat="42.871105" lon="-2.114945">
<ele>1605.5</ele>
<desc>Speed 0.2 km/h Distance 7.28 km</desc>
<time>2013-07-05T17:58:56.12</time>
<name>1676</name>
<sym>Dot</sym>
</trkpt>
<trkpt lat="42.871105" lon="-2.114945">
<ele>1605.5</ele>
<desc>Speed 0.2 km/h Distance 7.28 km</desc>
<time>2013-07-05T17:58:57.11</time>
<name>1677</name>
<sym>Dot</sym>
</trkpt>
<trkpt lat="42.871105" lon="-2.114945">
<ele>1605.5</ele>
<desc>Speed 0.2 km/h Distance 7.28 km</desc>
<time>2013-07-05T17:58:58.10</time>
<name>1678</name>
<sym>Dot</sym>
</trkpt>
<trkpt lat="42.871105" lon="-2.114945">
<ele>1605.5</ele>
<desc>Speed 0.1 km/h Distance 7.28 km</desc>
<time>2013-07-05T17:58:59.09</time>
<name>1679</name>
<sym>Dot</sym>
</trkpt>
<trkpt lat="42.871105" lon="-2.114945">
<ele>1605.5</ele>
<desc>Speed 0.1 km/h Distance 7.28 km</desc>
<time>2013-07-05T17:59:00.08</time>
<name>1680</name>
<sym>Dot</sym>
</trkpt>
<trkpt lat="42.871105" lon="-2.114945">
<ele>1605.5</ele>
<desc>Speed 0.1 km/h Distance 7.28 km</desc>
<time>2013-07-05T17:59:01.07</time>
<name>1681</name>
<sym>Dot</sym>
</trkpt>
<trkpt lat="42.871105" lon="-2.114945">
<ele>1605.5</ele>
<desc>Speed 0.1 km/h Distance 7.28 km</desc>
<time>2013-07-05T17:59:02.06</time>
<name>1682</name>
<sym>Dot</sym>
</trkpt>
<trkpt lat="42.871105" lon="-2.114945">
<ele>1605.5</ele>
<desc>Speed 0.2 km/h Distance 7.28 km</desc>
<time>2013-07-05T17:59:03.05</time>
<name>1683</name>
<sym>Dot</sym>
</trkpt>
<trkpt lat="42.871105" lon="-2.114945">
<ele>1605.5</ele>
<desc>Speed 0.1 km/h Distance 7.28 km</desc>
<time>2013-07-05T17:59:04.05</time>
<name>1684</name>
<sym>Dot</sym>
</trkpt>
<trkpt lat="42.871105" lon="-2.114945">
<ele>1605.5</ele>
<desc>Speed 0.2 km/h Distance 7.28 km</desc>
<time>2013-07-05T17:59:05.04</time>
<name>1685</name>
<sym>Dot</sym>
</trkpt>
<trkpt lat="42.871105" lon="-2.114945">
<ele>1605.5</ele>
<desc>Speed 0.1 km/h Distance 7.28 km</desc>
<time>2013-07-05T17:59:06.03</time>
<name>1686</name>
<sym>Dot</sym>
</trkpt>
<trkpt lat="42.871105" lon="-2.114945">
<ele>1605.5</ele>
<desc>Speed 0.2 km/h Distance 7.28 km</desc>
<time>2013-07-05T17:59:07.03</time>
<name>1687</name>
<sym>Dot</sym>
</trkpt>
<trkpt lat="42.871105" lon="-2.114945">
<ele>1605.5</ele>
<desc>Speed 0.2 km/h Distance 7.28 km</desc>
<time>2013-07-05T17:59:08.03</time>
<name>1688</name>
<sym>Dot</sym>
</trkpt>
<trkpt lat="42.871105" lon="-2.114945">
<ele>1605.5</ele>
<desc>Speed 0.1 km/h Distance 7.28 km</desc>
<time>2013-07-05T17:59:09.02</time>
<name>1689</name>
<sym>Dot</sym>
</trkpt>
<trkpt lat="42.871105" lon="-2.114945">
<ele>1605.5</ele>
<desc>Speed 0.2 km/h Distance 7.28 km</desc>
<time>2013-07-05T17:59:10.01</time>
<name>1690</name>
<sym>Dot</sym>
</trkpt>
<trkpt lat="42.871105" lon="-2.114945">
<ele>1605.5</ele>
<desc>Speed 0.3 km/h Distance 7.28 km</desc>
<time>2013-07-05T17:59:11.00</time>
<name>1691</name>
<sym>Dot</sym>
</trkpt>
<trkpt lat="42.871105" lon="-2.114945">
<ele>1605.5</ele>
<desc>Speed 0.1 km/h Distance 7.28 km</desc>
<time>2013-07-05T17:59:12.00</time>
<name>1692</name>
<sym>Dot</sym>
</trkpt>
<trkpt lat="42.871105" lon="-2.114945">
<ele>1605.5</ele>
<desc>Speed 0.1 km/h Distance 7.28 km</desc>
<time>2013-07-05T17:59:12.99</time>
<name>1693</name>
<sym>Dot</sym>
</trkpt>
<trkpt lat="42.871105" lon="-2.114945">
<ele>1605.5</ele>
<desc>Speed 0.2 km/h Distance 7.28 km</desc>
<time>2013-07-05T17:59:13.98</time>
<name>1694</name>
<sym>Dot</sym>
</trkpt>
<trkpt lat="42.871105" lon="-2.114945">
<ele>1605.5</ele>
<desc>Speed 0.2 km/h Distance 7.28 km</desc>
<time>2013-07-05T17:59:14.97</time>
<name>1695</name>
<sym>Dot</sym>
</trkpt>
<trkpt lat="42.871105" lon="-2.114945">
<ele>1605.5</ele>
<desc>Speed 0.2 km/h Distance 7.28 km</desc>
<time>2013-07-05T17:59:15.96</time>
<name>1696</name>
<sym>Dot</sym>
</trkpt>
<trkpt lat="42.871105" lon="-2.114945">
<ele>1605.5</ele>
<desc>Speed 0.2 km/h Distance 7.28 km</desc>
<time>2013-07-05T17:59:16.95</time>
<name>1697</name>
<sym>Dot</sym>
</trkpt>
<trkpt lat="42.871105" lon="-2.114945">
<ele>1605.5</ele>
<desc>Speed 0.2 km/h Distance 7.28 km</desc>
<time>2013-07-05T17:59:17.94</time>
<name>1698</name>
<sym>Dot</sym>
</trkpt>
<trkpt lat="42.871105" lon="-2.114945">
<ele>1605.5</ele>
<desc>Speed 0.2 km/h Distance 7.28 km</desc>
<time>2013-07-05T17:59:18.93</time>
<name>1699</name>
<sym>Dot</sym>
</trkpt>
<trkpt lat="42.871105" lon="-2.114945">
<ele>1605.5</ele>
<desc>Speed 0.1 km/h Distance 7.28 km</desc>
<time>2013-07-05T17:59:19.93</time>
<name>1700</name>
<sym>Dot</sym>
</trkpt>
<trkpt lat="42.871105" lon="-2.114945">
<ele>1605.5</ele>
<desc>Speed 0.2 km/h Distance 7.28 km</desc>
<time>2013-07-05T17:59:20.92</time>
<name>1701</name>
<sym>Dot</sym>
</trkpt>
<trkpt lat="42.871105" lon="-2.114945">
<ele>1605.5</ele>
<desc>Speed 0.1 km/h Distance 7.28 km</desc>
<time>2013-07-05T17:59:21.91</time>
<name>1702</name>
<sym>Dot</sym>
</trkpt>
<trkpt lat="42.871105" lon="-2.114945">
<ele>1605.5</ele>
<desc>Speed 0.2 km/h Distance 7.28 km</desc>
<time>2013-07-05T17:59:22.90</time>
<name>1703</name>
<sym>Dot</sym>
</trkpt>
<trkpt lat="42.871105" lon="-2.114945">
<ele>1605.5</ele>
<desc>Speed 0.2 km/h Distance 7.28 km</desc>
<time>2013-07-05T17:59:23.90</time>
<name>1704</name>
<sym>Dot</sym>
</trkpt>
<trkpt lat="42.871105" lon="-2.114945">
<ele>1605.5</ele>
<desc>Speed 0.2 km/h Distance 7.28 km</desc>
<time>2013-07-05T17:59:24.89</time>
<name>1705</name>
<sym>Dot</sym>
</trkpt>
<trkpt lat="42.871105" lon="-2.114945">
<ele>1605.5</ele>
<desc>Speed 0.3 km/h Distance 7.28 km</desc>
<time>2013-07-05T17:59:25.88</time>
<name>1706</name>
<sym>Dot</sym>
</trkpt>
<trkpt lat="42.871105" lon="-2.114945">
<ele>1605.5</ele>
<desc>Speed 0.1 km/h Distance 7.28 km</desc>
<time>2013-07-05T17:59:26.87</time>
<name>1707</name>
<sym>Dot</sym>
</trkpt>
<trkpt lat="42.871105" lon="-2.114945">
<ele>1605.5</ele>
<desc>Speed 0.2 km/h Distance 7.28 km</desc>
<time>2013-07-05T17:59:27.86</time>
<name>1708</name>
<sym>Dot</sym>
</trkpt>
<trkpt lat="42.871105" lon="-2.114945">
<ele>1605.5</ele>
<desc>Speed 0.2 km/h Distance 7.28 km</desc>
<time>2013-07-05T17:59:28.85</time>
<name>1709</name>
<sym>Dot</sym>
</trkpt>
<trkpt lat="42.871105" lon="-2.114945">
<ele>1605.5</ele>
<desc>Speed 0.2 km/h Distance 7.28 km</desc>
<time>2013-07-05T17:59:29.84</time>
<name>1710</name>
<sym>Dot</sym>
</trkpt>
<trkpt lat="42.871105" lon="-2.114945">
<ele>1605.5</ele>
<desc>Speed 0.2 km/h Distance 7.28 km</desc>
<time>2013-07-05T17:59:30.84</time>
<name>1711</name>
<sym>Dot</sym>
</trkpt>
<trkpt lat="42.871105" lon="-2.114945">
<ele>1605.5</ele>
<desc>Speed 0.2 km/h Distance 7.28 km</desc>
<time>2013-07-05T17:59:31.83</time>
<name>1712</name>
<sym>Dot</sym>
</trkpt>
<trkpt lat="42.871105" lon="-2.114945">
<ele>1605.5</ele>
<desc>Speed 0.1 km/h Distance 7.28 km</desc>
<time>2013-07-05T17:59:32.83</time>
<name>1713</name>
<sym>Dot</sym>
</trkpt>
<trkpt lat="42.871105" lon="-2.114945">
<ele>1605.5</ele>
<desc>Speed 0.2 km/h Distance 7.28 km</desc>
<time>2013-07-05T17:59:33.82</time>
<name>1714</name>
<sym>Dot</sym>
</trkpt>
<trkpt lat="42.871105" lon="-2.114945">
<ele>1605.5</ele>
<desc>Speed 0.1 km/h Distance 7.28 km</desc>
<time>2013-07-05T17:59:34.82</time>
<name>1715</name>
<sym>Dot</sym>
</trkpt>
<trkpt lat="42.871105" lon="-2.114945">
<ele>1605.5</ele>
<desc>Speed 0.1 km/h Distance 7.28 km</desc>
<time>2013-07-05T17:59:36.30</time>
<name>1716</name>
<sym>Dot</sym>
</trkpt>
<trkpt lat="42.871105" lon="-2.114945">
<ele>1605.5</ele>
<desc>Speed 0.2 km/h Distance 7.28 km</desc>
<time>2013-07-05T17:59:36.82</time>
<name>1717</name>
<sym>Dot</sym>
</trkpt>
<trkpt lat="42.871105" lon="-2.114945">
<ele>1605.5</ele>
<desc>Speed 0.1 km/h Distance 7.28 km</desc>
<time>2013-07-05T17:59:37.80</time>
<name>1718</name>
<sym>Dot</sym>
</trkpt>
<trkpt lat="42.871105" lon="-2.114945">
<ele>1605.5</ele>
<desc>Speed 0.2 km/h Distance 7.28 km</desc>
<time>2013-07-05T17:59:38.79</time>
<name>1719</name>
<sym>Dot</sym>
</trkpt>
<trkpt lat="42.871105" lon="-2.114945">
<ele>1605.5</ele>
<desc>Speed 0.2 km/h Distance 7.28 km</desc>
<time>2013-07-05T17:59:39.79</time>
<name>1720</name>
<sym>Dot</sym>
</trkpt>
<trkpt lat="42.871105" lon="-2.114945">
<ele>1605.5</ele>
<desc>Speed 0.1 km/h Distance 7.28 km</desc>
<time>2013-07-05T17:59:40.78</time>
<name>1721</name>
<sym>Dot</sym>
</trkpt>
<trkpt lat="42.871105" lon="-2.114945">
<ele>1605.5</ele>
<desc>Speed 0.3 km/h Distance 7.28 km</desc>
<time>2013-07-05T17:59:41.78</time>
<name>1722</name>
<sym>Dot</sym>
</trkpt>
<trkpt lat="42.871105" lon="-2.114945">
<ele>1605.5</ele>
<desc>Speed 0.1 km/h Distance 7.28 km</desc>
<time>2013-07-05T17:59:42.77</time>
<name>1723</name>
<sym>Dot</sym>
</trkpt>
<trkpt lat="42.871105" lon="-2.114945">
<ele>1605.5</ele>
<desc>Speed 0.1 km/h Distance 7.28 km</desc>
<time>2013-07-05T17:59:43.76</time>
<name>1724</name>
<sym>Dot</sym>
</trkpt>
<trkpt lat="42.871105" lon="-2.114945">
<ele>1605.5</ele>
<desc>Speed 0.2 km/h Distance 7.28 km</desc>
<time>2013-07-05T17:59:44.76</time>
<name>1725</name>
<sym>Dot</sym>
</trkpt>
<trkpt lat="42.871105" lon="-2.114945">
<ele>1605.5</ele>
<desc>Speed 0.2 km/h Distance 7.28 km</desc>
<time>2013-07-05T17:59:45.75</time>
<name>1726</name>
<sym>Dot</sym>
</trkpt>
<trkpt lat="42.871105" lon="-2.114945">
<ele>1605.5</ele>
<desc>Speed 0.2 km/h Distance 7.28 km</desc>
<time>2013-07-05T17:59:46.74</time>
<name>1727</name>
<sym>Dot</sym>
</trkpt>
<trkpt lat="42.871105" lon="-2.114945">
<ele>1605.5</ele>
<desc>Speed 0.1 km/h Distance 7.28 km</desc>
<time>2013-07-05T17:59:47.74</time>
<name>1728</name>
<sym>Dot</sym>
</trkpt>
<trkpt lat="42.871105" lon="-2.114945">
<ele>1605.5</ele>
<desc>Speed 0.2 km/h Distance 7.28 km</desc>
<time>2013-07-05T17:59:48.75</time>
<name>1729</name>
<sym>Dot</sym>
</trkpt>
<trkpt lat="42.871105" lon="-2.114945">
<ele>1605.5</ele>
<desc>Speed 0.1 km/h Distance 7.28 km</desc>
<time>2013-07-05T17:59:49.72</time>
<name>1730</name>
<sym>Dot</sym>
</trkpt>
<trkpt lat="42.871105" lon="-2.114945">
<ele>1605.5</ele>
<desc>Speed 0.2 km/h Distance 7.28 km</desc>
<time>2013-07-05T17:59:50.71</time>
<name>1731</name>
<sym>Dot</sym>
</trkpt>
<trkpt lat="42.871105" lon="-2.114945">
<ele>1605.5</ele>
<desc>Speed 0.3 km/h Distance 7.28 km</desc>
<time>2013-07-05T17:59:51.70</time>
<name>1732</name>
<sym>Dot</sym>
</trkpt>
<trkpt lat="42.871105" lon="-2.114945">
<ele>1605.5</ele>
<desc>Speed 0.1 km/h Distance 7.28 km</desc>
<time>2013-07-05T17:59:52.69</time>
<name>1733</name>
<sym>Dot</sym>
</trkpt>
<trkpt lat="42.871105" lon="-2.114945">
<ele>1605.5</ele>
<desc>Speed 0.1 km/h Distance 7.28 km</desc>
<time>2013-07-05T17:59:53.68</time>
<name>1734</name>
<sym>Dot</sym>
</trkpt>
<trkpt lat="42.871105" lon="-2.114945">
<ele>1605.5</ele>
<desc>Speed 0.3 km/h Distance 7.28 km</desc>
<time>2013-07-05T17:59:54.67</time>
<name>1735</name>
<sym>Dot</sym>
</trkpt>
<trkpt lat="42.871105" lon="-2.114945">
<ele>1605.5</ele>
<desc>Speed 0.1 km/h Distance 7.28 km</desc>
<time>2013-07-05T17:59:55.66</time>
<name>1736</name>
<sym>Dot</sym>
</trkpt>
<trkpt lat="42.871105" lon="-2.114945">
<ele>1605.5</ele>
<desc>Speed 0.2 km/h Distance 7.28 km</desc>
<time>2013-07-05T17:59:56.65</time>
<name>1737</name>
<sym>Dot</sym>
</trkpt>
<trkpt lat="42.871105" lon="-2.114945">
<ele>1605.5</ele>
<desc>Speed 0.1 km/h Distance 7.28 km</desc>
<time>2013-07-05T17:59:57.64</time>
<name>1738</name>
<sym>Dot</sym>
</trkpt>
<trkpt lat="42.871105" lon="-2.114945">
<ele>1605.5</ele>
<desc>Speed 0.1 km/h Distance 7.28 km</desc>
<time>2013-07-05T17:59:58.63</time>
<name>1739</name>
<sym>Dot</sym>
</trkpt>
<trkpt lat="42.871105" lon="-2.114945">
<ele>1605.5</ele>
<desc>Speed 0.2 km/h Distance 7.28 km</desc>
<time>2013-07-05T17:59:59.62</time>
<name>1740</name>
<sym>Dot</sym>
</trkpt>
<trkpt lat="42.871105" lon="-2.114945">
<ele>1605.5</ele>
<desc>Speed 0.2 km/h Distance 7.28 km</desc>
<time>2013-07-05T18:00:00.62</time>
<name>1741</name>
<sym>Dot</sym>
</trkpt>
<trkpt lat="42.871105" lon="-2.114945">
<ele>1605.5</ele>
<desc>Speed 0.0 km/h Distance 7.28 km</desc>
<time>2013-07-05T18:00:01.61</time>
<name>1742</name>
<sym>Dot</sym>
</trkpt>
<trkpt lat="42.871105" lon="-2.114945">
<ele>1605.5</ele>
<desc>Speed 0.2 km/h Distance 7.28 km</desc>
<time>2013-07-05T18:00:02.60</time>
<name>1743</name>
<sym>Dot</sym>
</trkpt>
<trkpt lat="42.871105" lon="-2.114945">
<ele>1605.5</ele>
<desc>Speed 0.1 km/h Distance 7.28 km</desc>
<time>2013-07-05T18:00:03.59</time>
<name>1744</name>
<sym>Dot</sym>
</trkpt>
<trkpt lat="42.871105" lon="-2.114945">
<ele>1605.5</ele>
<desc>Speed 0.2 km/h Distance 7.28 km</desc>
<time>2013-07-05T18:00:04.58</time>
<name>1745</name>
<sym>Dot</sym>
</trkpt>
<trkpt lat="42.871105" lon="-2.114945">
<ele>1605.5</ele>
<desc>Speed 0.1 km/h Distance 7.28 km</desc>
<time>2013-07-05T18:00:05.57</time>
<name>1746</name>
<sym>Dot</sym>
</trkpt>
<trkpt lat="42.871105" lon="-2.114945">
<ele>1605.5</ele>
<desc>Speed 0.1 km/h Distance 7.28 km</desc>
<time>2013-07-05T18:00:06.57</time>
<name>1747</name>
<sym>Dot</sym>
</trkpt>
<trkpt lat="42.871105" lon="-2.114945">
<ele>1605.5</ele>
<desc>Speed 0.2 km/h Distance 7.28 km</desc>
<time>2013-07-05T18:00:07.56</time>
<name>1748</name>
<sym>Dot</sym>
</trkpt>
<trkpt lat="42.871105" lon="-2.114945">
<ele>1605.5</ele>
<desc>Speed 0.2 km/h Distance 7.28 km</desc>
<time>2013-07-05T18:00:08.55</time>
<name>1749</name>
<sym>Dot</sym>
</trkpt>
<trkpt lat="42.871105" lon="-2.114945">
<ele>1605.5</ele>
<desc>Speed 0.2 km/h Distance 7.28 km</desc>
<time>2013-07-05T18:00:09.54</time>
<name>1750</name>
<sym>Dot</sym>
</trkpt>
<trkpt lat="42.871105" lon="-2.114943">
<ele>1605.5</ele>
<desc>Speed 0.2 km/h Distance 7.28 km</desc>
<time>2013-07-05T18:00:10.53</time>
<name>1751</name>
<sym>Dot</sym>
</trkpt>
<trkpt lat="42.871105" lon="-2.114943">
<ele>1605.5</ele>
<desc>Speed 0.1 km/h Distance 7.28 km</desc>
<time>2013-07-05T18:00:11.52</time>
<name>1752</name>
<sym>Dot</sym>
</trkpt>
<trkpt lat="42.871105" lon="-2.114943">
<ele>1605.5</ele>
<desc>Speed 0.1 km/h Distance 7.28 km</desc>
<time>2013-07-05T18:00:12.51</time>
<name>1753</name>
<sym>Dot</sym>
</trkpt>
<trkpt lat="42.871105" lon="-2.114943">
<ele>1605.5</ele>
<desc>Speed 0.1 km/h Distance 7.28 km</desc>
<time>2013-07-05T18:00:13.50</time>
<name>1754</name>
<sym>Dot</sym>
</trkpt>
<trkpt lat="42.871105" lon="-2.114943">
<ele>1605.5</ele>
<desc>Speed 0.2 km/h Distance 7.28 km</desc>
<time>2013-07-05T18:00:14.49</time>
<name>1755</name>
<sym>Dot</sym>
</trkpt>
<trkpt lat="42.871105" lon="-2.114943">
<ele>1605.5</ele>
<desc>Speed 0.1 km/h Distance 7.28 km</desc>
<time>2013-07-05T18:00:15.48</time>
<name>1756</name>
<sym>Dot</sym>
</trkpt>
<trkpt lat="42.871105" lon="-2.114943">
<ele>1605.5</ele>
<desc>Speed 0.2 km/h Distance 7.28 km</desc>
<time>2013-07-05T18:00:16.47</time>
<name>1757</name>
<sym>Dot</sym>
</trkpt>
<trkpt lat="42.871103" lon="-2.114943">
<ele>1605.5</ele>
<desc>Speed 0.2 km/h Distance 7.28 km</desc>
<time>2013-07-05T18:00:17.46</time>
<name>1758</name>
<sym>Dot</sym>
</trkpt>
<trkpt lat="42.871103" lon="-2.114943">
<ele>1605.5</ele>
<desc>Speed 0.0 km/h Distance 7.28 km</desc>
<time>2013-07-05T18:00:18.45</time>
<name>1759</name>
<sym>Dot</sym>
</trkpt>
<trkpt lat="42.871103" lon="-2.114943">
<ele>1605.5</ele>
<desc>Speed 0.1 km/h Distance 7.28 km</desc>
<time>2013-07-05T18:00:19.44</time>
<name>1760</name>
<sym>Dot</sym>
</trkpt>
<trkpt lat="42.871103" lon="-2.114943">
<ele>1605.5</ele>
<desc>Speed 0.1 km/h Distance 7.28 km</desc>
<time>2013-07-05T18:00:20.43</time>
<name>1761</name>
<sym>Dot</sym>
</trkpt>
<trkpt lat="42.871103" lon="-2.114943">
<ele>1605.5</ele>
<desc>Speed 0.1 km/h Distance 7.28 km</desc>
<time>2013-07-05T18:00:21.42</time>
<name>1762</name>
<sym>Dot</sym>
</trkpt>
<trkpt lat="42.871103" lon="-2.114943">
<ele>1605.5</ele>
<desc>Speed 0.1 km/h Distance 7.28 km</desc>
<time>2013-07-05T18:00:22.41</time>
<name>1763</name>
<sym>Dot</sym>
</trkpt>
<trkpt lat="42.871103" lon="-2.114943">
<ele>1605.5</ele>
<desc>Speed 0.1 km/h Distance 7.28 km</desc>
<time>2013-07-05T18:00:23.40</time>
<name>1764</name>
<sym>Dot</sym>
</trkpt>
<trkpt lat="42.871103" lon="-2.114943">
<ele>1605.5</ele>
<desc>Speed 0.1 km/h Distance 7.28 km</desc>
<time>2013-07-05T18:00:24.39</time>
<name>1765</name>
<sym>Dot</sym>
</trkpt>
<trkpt lat="42.871103" lon="-2.114943">
<ele>1605.5</ele>
<desc>Speed 0.3 km/h Distance 7.28 km</desc>
<time>2013-07-05T18:00:25.38</time>
<name>1766</name>
<sym>Dot</sym>
</trkpt>
<trkpt lat="42.871103" lon="-2.114943">
<ele>1605.5</ele>
<desc>Speed 0.1 km/h Distance 7.28 km</desc>
<time>2013-07-05T18:00:26.37</time>
<name>1767</name>
<sym>Dot</sym>
</trkpt>
<trkpt lat="42.871103" lon="-2.114943">
<ele>1605.5</ele>
<desc>Speed 0.1 km/h Distance 7.28 km</desc>
<time>2013-07-05T18:00:27.36</time>
<name>1768</name>
<sym>Dot</sym>
</trkpt>
<trkpt lat="42.871103" lon="-2.114942">
<ele>1605.5</ele>
<desc>Speed 0.2 km/h Distance 7.28 km</desc>
<time>2013-07-05T18:00:28.35</time>
<name>1769</name>
<sym>Dot</sym>
</trkpt>
<trkpt lat="42.871103" lon="-2.114942">
<ele>1605.5</ele>
<desc>Speed 0.1 km/h Distance 7.28 km</desc>
<time>2013-07-05T18:00:29.34</time>
<name>1770</name>
<sym>Dot</sym>
</trkpt>
<trkpt lat="42.871103" lon="-2.114942">
<ele>1605.5</ele>
<desc>Speed 0.2 km/h Distance 7.28 km</desc>
<time>2013-07-05T18:00:30.33</time>
<name>1771</name>
<sym>Dot</sym>
</trkpt>
<trkpt lat="42.871103" lon="-2.114942">
<ele>1605.5</ele>
<desc>Speed 0.2 km/h Distance 7.28 km</desc>
<time>2013-07-05T18:00:31.32</time>
<name>1772</name>
<sym>Dot</sym>
</trkpt>
<trkpt lat="42.871103" lon="-2.114942">
<ele>1605.5</ele>
<desc>Speed 0.1 km/h Distance 7.28 km</desc>
<time>2013-07-05T18:00:32.32</time>
<name>1773</name>
<sym>Dot</sym>
</trkpt>
<trkpt lat="42.871103" lon="-2.114942">
<ele>1605.5</ele>
<desc>Speed 0.1 km/h Distance 7.28 km</desc>
<time>2013-07-05T18:00:33.31</time>
<name>1774</name>
<sym>Dot</sym>
</trkpt>
<trkpt lat="42.871103" lon="-2.114942">
<ele>1605.5</ele>
<desc>Speed 0.1 km/h Distance 7.28 km</desc>
<time>2013-07-05T18:00:34.30</time>
<name>1775</name>
<sym>Dot</sym>
</trkpt>
<trkpt lat="42.871103" lon="-2.114942">
<ele>1605.5</ele>
<desc>Speed 0.1 km/h Distance 7.28 km</desc>
<time>2013-07-05T18:00:35.29</time>
<name>1776</name>
<sym>Dot</sym>
</trkpt>
<trkpt lat="42.871103" lon="-2.114942">
<ele>1605.5</ele>
<desc>Speed 0.0 km/h Distance 7.28 km</desc>
<time>2013-07-05T18:00:36.48</time>
<name>1777</name>
<sym>Dot</sym>
</trkpt>
<trkpt lat="42.871103" lon="-2.114942">
<ele>1605.5</ele>
<desc>Speed 0.1 km/h Distance 7.28 km</desc>
<time>2013-07-05T18:00:37.27</time>
<name>1778</name>
<sym>Dot</sym>
</trkpt>
<trkpt lat="42.871103" lon="-2.114942">
<ele>1605.5</ele>
<desc>Speed 0.1 km/h Distance 7.28 km</desc>
<time>2013-07-05T18:00:38.27</time>
<name>1779</name>
<sym>Dot</sym>
</trkpt>
<trkpt lat="42.871103" lon="-2.114942">
<ele>1605.5</ele>
<desc>Speed 0.1 km/h Distance 7.28 km</desc>
<time>2013-07-05T18:00:39.26</time>
<name>1780</name>
<sym>Dot</sym>
</trkpt>
<trkpt lat="42.871103" lon="-2.114942">
<ele>1605.5</ele>
<desc>Speed 0.2 km/h Distance 7.28 km</desc>
<time>2013-07-05T18:00:40.26</time>
<name>1781</name>
<sym>Dot</sym>
</trkpt>
<trkpt lat="42.871103" lon="-2.114942">
<ele>1605.5</ele>
<desc>Speed 0.1 km/h Distance 7.28 km</desc>
<time>2013-07-05T18:00:42.25</time>
<name>1782</name>
<sym>Dot</sym>
</trkpt>
<trkpt lat="42.871103" lon="-2.114942">
<ele>1605.0</ele>
<desc>Speed 0.2 km/h Distance 7.28 km</desc>
<time>2013-07-05T18:00:43.24</time>
<name>1783</name>
<sym>Dot</sym>
</trkpt>
<trkpt lat="42.871103" lon="-2.114942">
<ele>1605.0</ele>
<desc>Speed 0.2 km/h Distance 7.28 km</desc>
<time>2013-07-05T18:00:44.23</time>
<name>1784</name>
<sym>Dot</sym>
</trkpt>
<trkpt lat="42.871103" lon="-2.114942">
<ele>1605.0</ele>
<desc>Speed 0.2 km/h Distance 7.28 km</desc>
<time>2013-07-05T18:00:45.22</time>
<name>1785</name>
<sym>Dot</sym>
</trkpt>
<trkpt lat="42.871103" lon="-2.114942">
<ele>1605.0</ele>
<desc>Speed 0.2 km/h Distance 7.28 km</desc>
<time>2013-07-05T18:00:46.21</time>
<name>1786</name>
<sym>Dot</sym>
</trkpt>
<trkpt lat="42.871103" lon="-2.114940">
<ele>1605.0</ele>
<desc>Speed 0.2 km/h Distance 7.28 km</desc>
<time>2013-07-05T18:00:47.20</time>
<name>1787</name>
<sym>Dot</sym>
</trkpt>
<trkpt lat="42.871103" lon="-2.114940">
<ele>1605.0</ele>
<desc>Speed 0.0 km/h Distance 7.28 km</desc>
<time>2013-07-05T18:00:48.20</time>
<name>1788</name>
<sym>Dot</sym>
</trkpt>
<trkpt lat="42.871103" lon="-2.114940">
<ele>1605.0</ele>
<desc>Speed 0.2 km/h Distance 7.28 km</desc>
<time>2013-07-05T18:00:49.19</time>
<name>1789</name>
<sym>Dot</sym>
</trkpt>
<trkpt lat="42.871102" lon="-2.114940">
<ele>1605.0</ele>
<desc>Speed 0.2 km/h Distance 7.28 km</desc>
<time>2013-07-05T18:00:50.18</time>
<name>1790</name>
<sym>Dot</sym>
</trkpt>
<trkpt lat="42.871102" lon="-2.114940">
<ele>1605.0</ele>
<desc>Speed 0.1 km/h Distance 7.28 km</desc>
<time>2013-07-05T18:00:51.17</time>
<name>1791</name>
<sym>Dot</sym>
</trkpt>
<trkpt lat="42.871102" lon="-2.114940">
<ele>1605.0</ele>
<desc>Speed 0.2 km/h Distance 7.28 km</desc>
<time>2013-07-05T18:00:52.16</time>
<name>1792</name>
<sym>Dot</sym>
</trkpt>
<trkpt lat="42.871102" lon="-2.114940">
<ele>1605.0</ele>
<desc>Speed 0.2 km/h Distance 7.28 km</desc>
<time>2013-07-05T18:00:53.15</time>
<name>1793</name>
<sym>Dot</sym>
</trkpt>
<trkpt lat="42.871102" lon="-2.114940">
<ele>1605.0</ele>
<desc>Speed 0.2 km/h Distance 7.28 km</desc>
<time>2013-07-05T18:00:54.14</time>
<name>1794</name>
<sym>Dot</sym>
</trkpt>
<trkpt lat="42.871102" lon="-2.114940">
<ele>1605.0</ele>
<desc>Speed 0.2 km/h Distance 7.28 km</desc>
<time>2013-07-05T18:00:55.13</time>
<name>1795</name>
<sym>Dot</sym>
</trkpt>
<trkpt lat="42.871102" lon="-2.114940">
<ele>1605.0</ele>
<desc>Speed 0.0 km/h Distance 7.28 km</desc>
<time>2013-07-05T18:00:56.12</time>
<name>1796</name>
<sym>Dot</sym>
</trkpt>
<trkpt lat="42.871102" lon="-2.114940">
<ele>1605.0</ele>
<desc>Speed 0.1 km/h Distance 7.28 km</desc>
<time>2013-07-05T18:00:57.11</time>
<name>1797</name>
<sym>Dot</sym>
</trkpt>
<trkpt lat="42.871102" lon="-2.114940">
<ele>1605.0</ele>
<desc>Speed 0.3 km/h Distance 7.28 km</desc>
<time>2013-07-05T18:00:58.10</time>
<name>1798</name>
<sym>Dot</sym>
</trkpt>
<trkpt lat="42.871102" lon="-2.114940">
<ele>1605.0</ele>
<desc>Speed 0.1 km/h Distance 7.28 km</desc>
<time>2013-07-05T18:00:59.09</time>
<name>1799</name>
<sym>Dot</sym>
</trkpt>
<trkpt lat="42.871102" lon="-2.114940">
<ele>1605.0</ele>
<desc>Speed 0.1 km/h Distance 7.28 km</desc>
<time>2013-07-05T18:01:00.08</time>
<name>1800</name>
<sym>Dot</sym>
</trkpt>
<trkpt lat="42.871102" lon="-2.114940">
<ele>1605.0</ele>
<desc>Speed 0.2 km/h Distance 7.28 km</desc>
<time>2013-07-05T18:01:01.07</time>
<name>1801</name>
<sym>Dot</sym>
</trkpt>
<trkpt lat="42.871102" lon="-2.114940">
<ele>1605.0</ele>
<desc>Speed 0.2 km/h Distance 7.28 km</desc>
<time>2013-07-05T18:01:02.06</time>
<name>1802</name>
<sym>Dot</sym>
</trkpt>
<trkpt lat="42.871102" lon="-2.114940">
<ele>1605.0</ele>
<desc>Speed 0.1 km/h Distance 7.28 km</desc>
<time>2013-07-05T18:01:03.05</time>
<name>1803</name>
<sym>Dot</sym>
</trkpt>
<trkpt lat="42.871102" lon="-2.114940">
<ele>1605.0</ele>
<desc>Speed 0.2 km/h Distance 7.28 km</desc>
<time>2013-07-05T18:01:04.04</time>
<name>1804</name>
<sym>Dot</sym>
</trkpt>
<trkpt lat="42.871102" lon="-2.114940">
<ele>1605.0</ele>
<desc>Speed 0.2 km/h Distance 7.28 km</desc>
<time>2013-07-05T18:01:05.03</time>
<name>1805</name>
<sym>Dot</sym>
</trkpt>
<trkpt lat="42.871102" lon="-2.114940">
<ele>1605.0</ele>
<desc>Speed 0.2 km/h Distance 7.28 km</desc>
<time>2013-07-05T18:01:06.02</time>
<name>1806</name>
<sym>Dot</sym>
</trkpt>
<trkpt lat="42.871102" lon="-2.114940">
<ele>1605.0</ele>
<desc>Speed 0.1 km/h Distance 7.28 km</desc>
<time>2013-07-05T18:01:07.01</time>
<name>1807</name>
<sym>Dot</sym>
</trkpt>
<trkpt lat="42.871102" lon="-2.114940">
<ele>1605.0</ele>
<desc>Speed 0.2 km/h Distance 7.28 km</desc>
<time>2013-07-05T18:01:08.00</time>
<name>1808</name>
<sym>Dot</sym>
</trkpt>
<trkpt lat="42.871102" lon="-2.114938">
<ele>1605.0</ele>
<desc>Speed 0.2 km/h Distance 7.28 km</desc>
<time>2013-07-05T18:01:08.99</time>
<name>1809</name>
<sym>Dot</sym>
</trkpt>
<trkpt lat="42.871102" lon="-2.114938">
<ele>1605.0</ele>
<desc>Speed 0.2 km/h Distance 7.28 km</desc>
<time>2013-07-05T18:01:09.98</time>
<name>1810</name>
<sym>Dot</sym>
</trkpt>
<trkpt lat="42.871102" lon="-2.114938">
<ele>1605.0</ele>
<desc>Speed 0.2 km/h Distance 7.28 km</desc>
<time>2013-07-05T18:01:10.97</time>
<name>1811</name>
<sym>Dot</sym>
</trkpt>
<trkpt lat="42.871102" lon="-2.114938">
<ele>1605.0</ele>
<desc>Speed 0.1 km/h Distance 7.28 km</desc>
<time>2013-07-05T18:01:11.96</time>
<name>1812</name>
<sym>Dot</sym>
</trkpt>
<trkpt lat="42.871102" lon="-2.114938">
<ele>1605.0</ele>
<desc>Speed 0.1 km/h Distance 7.28 km</desc>
<time>2013-07-05T18:01:12.95</time>
<name>1813</name>
<sym>Dot</sym>
</trkpt>
<trkpt lat="42.871102" lon="-2.114938">
<ele>1605.0</ele>
<desc>Speed 0.2 km/h Distance 7.28 km</desc>
<time>2013-07-05T18:01:13.95</time>
<name>1814</name>
<sym>Dot</sym>
</trkpt>
<trkpt lat="42.871102" lon="-2.114938">
<ele>1605.0</ele>
<desc>Speed 0.3 km/h Distance 7.28 km</desc>
<time>2013-07-05T18:01:14.94</time>
<name>1815</name>
<sym>Dot</sym>
</trkpt>
<trkpt lat="42.871102" lon="-2.114938">
<ele>1605.0</ele>
<desc>Speed 0.2 km/h Distance 7.28 km</desc>
<time>2013-07-05T18:01:15.93</time>
<name>1816</name>
<sym>Dot</sym>
</trkpt>
<trkpt lat="42.871102" lon="-2.114938">
<ele>1605.0</ele>
<desc>Speed 0.2 km/h Distance 7.28 km</desc>
<time>2013-07-05T18:01:16.92</time>
<name>1817</name>
<sym>Dot</sym>
</trkpt>
<trkpt lat="42.871102" lon="-2.114938">
<ele>1605.0</ele>
<desc>Speed 0.2 km/h Distance 7.28 km</desc>
<time>2013-07-05T18:01:17.92</time>
<name>1818</name>
<sym>Dot</sym>
</trkpt>
<trkpt lat="42.871102" lon="-2.114938">
<ele>1605.0</ele>
<desc>Speed 0.1 km/h Distance 7.28 km</desc>
<time>2013-07-05T18:01:18.91</time>
<name>1819</name>
<sym>Dot</sym>
</trkpt>
<trkpt lat="42.871102" lon="-2.114938">
<ele>1605.0</ele>
<desc>Speed 0.2 km/h Distance 7.28 km</desc>
<time>2013-07-05T18:01:19.90</time>
<name>1820</name>
<sym>Dot</sym>
</trkpt>
<trkpt lat="42.871102" lon="-2.114938">
<ele>1605.0</ele>
<desc>Speed 0.1 km/h Distance 7.28 km</desc>
<time>2013-07-05T18:01:20.89</time>
<name>1821</name>
<sym>Dot</sym>
</trkpt>
<trkpt lat="42.871102" lon="-2.114938">
<ele>1605.0</ele>
<desc>Speed 0.1 km/h Distance 7.28 km</desc>
<time>2013-07-05T18:01:21.89</time>
<name>1822</name>
<sym>Dot</sym>
</trkpt>
<trkpt lat="42.871100" lon="-2.114938">
<ele>1605.0</ele>
<desc>Speed 0.2 km/h Distance 7.28 km</desc>
<time>2013-07-05T18:01:23.05</time>
<name>1823</name>
<sym>Dot</sym>
</trkpt>
<trkpt lat="42.871100" lon="-2.114938">
<ele>1605.0</ele>
<desc>Speed 0.2 km/h Distance 7.28 km</desc>
<time>2013-07-05T18:01:23.88</time>
<name>1824</name>
<sym>Dot</sym>
</trkpt>
<trkpt lat="42.871100" lon="-2.114938">
<ele>1605.0</ele>
<desc>Speed 0.1 km/h Distance 7.28 km</desc>
<time>2013-07-05T18:01:24.87</time>
<name>1825</name>
<sym>Dot</sym>
</trkpt>
<trkpt lat="42.871100" lon="-2.114938">
<ele>1605.0</ele>
<desc>Speed 0.1 km/h Distance 7.28 km</desc>
<time>2013-07-05T18:01:25.86</time>
<name>1826</name>
<sym>Dot</sym>
</trkpt>
<trkpt lat="42.871100" lon="-2.114938">
<ele>1605.0</ele>
<desc>Speed 0.2 km/h Distance 7.28 km</desc>
<time>2013-07-05T18:01:26.87</time>
<name>1827</name>
<sym>Dot</sym>
</trkpt>
<trkpt lat="42.871100" lon="-2.114938">
<ele>1605.0</ele>
<desc>Speed 0.1 km/h Distance 7.28 km</desc>
<time>2013-07-05T18:01:27.84</time>
<name>1828</name>
<sym>Dot</sym>
</trkpt>
<trkpt lat="42.871100" lon="-2.114938">
<ele>1605.0</ele>
<desc>Speed 0.1 km/h Distance 7.28 km</desc>
<time>2013-07-05T18:01:28.84</time>
<name>1829</name>
<sym>Dot</sym>
</trkpt>
<trkpt lat="42.871100" lon="-2.114938">
<ele>1605.0</ele>
<desc>Speed 0.2 km/h Distance 7.28 km</desc>
<time>2013-07-05T18:01:29.84</time>
<name>1830</name>
<sym>Dot</sym>
</trkpt>
<trkpt lat="42.871100" lon="-2.114938">
<ele>1605.0</ele>
<desc>Speed 0.2 km/h Distance 7.28 km</desc>
<time>2013-07-05T18:01:30.83</time>
<name>1831</name>
<sym>Dot</sym>
</trkpt>
<trkpt lat="42.871100" lon="-2.114938">
<ele>1605.0</ele>
<desc>Speed 0.1 km/h Distance 7.28 km</desc>
<time>2013-07-05T18:01:31.82</time>
<name>1832</name>
<sym>Dot</sym>
</trkpt>
<trkpt lat="42.871100" lon="-2.114937">
<ele>1605.0</ele>
<desc>Speed 0.1 km/h Distance 7.28 km</desc>
<time>2013-07-05T18:01:32.81</time>
<name>1833</name>
<sym>Dot</sym>
</trkpt>
<trkpt lat="42.871100" lon="-2.114937">
<ele>1605.0</ele>
<desc>Speed 0.0 km/h Distance 7.28 km</desc>
<time>2013-07-05T18:01:33.80</time>
<name>1834</name>
<sym>Dot</sym>
</trkpt>
<trkpt lat="42.871100" lon="-2.114937">
<ele>1605.0</ele>
<desc>Speed 0.3 km/h Distance 7.28 km</desc>
<time>2013-07-05T18:01:34.79</time>
<name>1835</name>
<sym>Dot</sym>
</trkpt>
<trkpt lat="42.871100" lon="-2.114937">
<ele>1605.0</ele>
<desc>Speed 0.0 km/h Distance 7.28 km</desc>
<time>2013-07-05T18:01:35.78</time>
<name>1836</name>
<sym>Dot</sym>
</trkpt>
<trkpt lat="42.871100" lon="-2.114937">
<ele>1605.0</ele>
<desc>Speed 0.1 km/h Distance 7.28 km</desc>
<time>2013-07-05T18:01:36.77</time>
<name>1837</name>
<sym>Dot</sym>
</trkpt>
<trkpt lat="42.871100" lon="-2.114937">
<ele>1605.0</ele>
<desc>Speed 0.2 km/h Distance 7.28 km</desc>
<time>2013-07-05T18:01:37.77</time>
<name>1838</name>
<sym>Dot</sym>
</trkpt>
<trkpt lat="42.871100" lon="-2.114937">
<ele>1605.0</ele>
<desc>Speed 0.2 km/h Distance 7.28 km</desc>
<time>2013-07-05T18:01:38.76</time>
<name>1839</name>
<sym>Dot</sym>
</trkpt>
<trkpt lat="42.871100" lon="-2.114937">
<ele>1605.0</ele>
<desc>Speed 0.1 km/h Distance 7.28 km</desc>
<time>2013-07-05T18:01:39.76</time>
<name>1840</name>
<sym>Dot</sym>
</trkpt>
<trkpt lat="42.871100" lon="-2.114937">
<ele>1605.0</ele>
<desc>Speed 0.1 km/h Distance 7.28 km</desc>
<time>2013-07-05T18:01:40.75</time>
<name>1841</name>
<sym>Dot</sym>
</trkpt>
<trkpt lat="42.871100" lon="-2.114937">
<ele>1605.0</ele>
<desc>Speed 0.3 km/h Distance 7.28 km</desc>
<time>2013-07-05T18:01:41.75</time>
<name>1842</name>
<sym>Dot</sym>
</trkpt>
<trkpt lat="42.871100" lon="-2.114937">
<ele>1605.0</ele>
<desc>Speed 0.2 km/h Distance 7.28 km</desc>
<time>2013-07-05T18:01:42.74</time>
<name>1843</name>
<sym>Dot</sym>
</trkpt>
<trkpt lat="42.871100" lon="-2.114937">
<ele>1605.0</ele>
<desc>Speed 0.2 km/h Distance 7.28 km</desc>
<time>2013-07-05T18:01:43.74</time>
<name>1844</name>
<sym>Dot</sym>
</trkpt>
<trkpt lat="42.871100" lon="-2.114937">
<ele>1605.0</ele>
<desc>Speed 0.3 km/h Distance 7.28 km</desc>
<time>2013-07-05T18:01:44.73</time>
<name>1845</name>
<sym>Dot</sym>
</trkpt>
<trkpt lat="42.871100" lon="-2.114937">
<ele>1605.0</ele>
<desc>Speed 0.2 km/h Distance 7.28 km</desc>
<time>2013-07-05T18:01:45.72</time>
<name>1846</name>
<sym>Dot</sym>
</trkpt>
<trkpt lat="42.871100" lon="-2.114937">
<ele>1605.0</ele>
<desc>Speed 0.1 km/h Distance 7.28 km</desc>
<time>2013-07-05T18:01:46.71</time>
<name>1847</name>
<sym>Dot</sym>
</trkpt>
<trkpt lat="42.871100" lon="-2.114937">
<ele>1605.0</ele>
<desc>Speed 0.2 km/h Distance 7.28 km</desc>
<time>2013-07-05T18:01:47.71</time>
<name>1848</name>
<sym>Dot</sym>
</trkpt>
<trkpt lat="42.871100" lon="-2.114937">
<ele>1605.0</ele>
<desc>Speed 0.1 km/h Distance 7.28 km</desc>
<time>2013-07-05T18:01:48.70</time>
<name>1849</name>
<sym>Dot</sym>
</trkpt>
<trkpt lat="42.871100" lon="-2.114937">
<ele>1605.0</ele>
<desc>Speed 0.1 km/h Distance 7.28 km</desc>
<time>2013-07-05T18:01:49.69</time>
<name>1850</name>
<sym>Dot</sym>
</trkpt>
<trkpt lat="42.871100" lon="-2.114937">
<ele>1605.0</ele>
<desc>Speed 0.2 km/h Distance 7.28 km</desc>
<time>2013-07-05T18:01:50.68</time>
<name>1851</name>
<sym>Dot</sym>
</trkpt>
<trkpt lat="42.871100" lon="-2.114937">
<ele>1605.0</ele>
<desc>Speed 0.3 km/h Distance 7.28 km</desc>
<time>2013-07-05T18:01:51.68</time>
<name>1852</name>
<sym>Dot</sym>
</trkpt>
<trkpt lat="42.871100" lon="-2.114937">
<ele>1605.0</ele>
<desc>Speed 0.2 km/h Distance 7.28 km</desc>
<time>2013-07-05T18:01:52.67</time>
<name>1853</name>
<sym>Dot</sym>
</trkpt>
<trkpt lat="42.871100" lon="-2.114937">
<ele>1605.0</ele>
<desc>Speed 0.2 km/h Distance 7.28 km</desc>
<time>2013-07-05T18:01:53.66</time>
<name>1854</name>
<sym>Dot</sym>
</trkpt>
<trkpt lat="42.871100" lon="-2.114937">
<ele>1605.0</ele>
<desc>Speed 0.2 km/h Distance 7.28 km</desc>
<time>2013-07-05T18:01:54.66</time>
<name>1855</name>
<sym>Dot</sym>
</trkpt>
<trkpt lat="42.871100" lon="-2.114937">
<ele>1605.0</ele>
<desc>Speed 0.2 km/h Distance 7.28 km</desc>
<time>2013-07-05T18:01:55.65</time>
<name>1856</name>
<sym>Dot</sym>
</trkpt>
<trkpt lat="42.871100" lon="-2.114937">
<ele>1605.0</ele>
<desc>Speed 0.2 km/h Distance 7.28 km</desc>
<time>2013-07-05T18:01:56.64</time>
<name>1857</name>
<sym>Dot</sym>
</trkpt>
<trkpt lat="42.871100" lon="-2.114937">
<ele>1605.0</ele>
<desc>Speed 0.1 km/h Distance 7.28 km</desc>
<time>2013-07-05T18:01:57.63</time>
<name>1858</name>
<sym>Dot</sym>
</trkpt>
<trkpt lat="42.871100" lon="-2.114937">
<ele>1605.0</ele>
<desc>Speed 0.1 km/h Distance 7.28 km</desc>
<time>2013-07-05T18:01:58.62</time>
<name>1859</name>
<sym>Dot</sym>
</trkpt>
<trkpt lat="42.871100" lon="-2.114937">
<ele>1605.0</ele>
<desc>Speed 0.2 km/h Distance 7.28 km</desc>
<time>2013-07-05T18:01:59.62</time>
<name>1860</name>
<sym>Dot</sym>
</trkpt>
<trkpt lat="42.871100" lon="-2.114937">
<ele>1605.0</ele>
<desc>Speed 0.2 km/h Distance 7.28 km</desc>
<time>2013-07-05T18:02:00.61</time>
<name>1861</name>
<sym>Dot</sym>
</trkpt>
<trkpt lat="42.871100" lon="-2.114937">
<ele>1605.0</ele>
<desc>Speed 0.1 km/h Distance 7.28 km</desc>
<time>2013-07-05T18:02:01.61</time>
<name>1862</name>
<sym>Dot</sym>
</trkpt>
<trkpt lat="42.871100" lon="-2.114937">
<ele>1605.0</ele>
<desc>Speed 0.1 km/h Distance 7.28 km</desc>
<time>2013-07-05T18:02:02.60</time>
<name>1863</name>
<sym>Dot</sym>
</trkpt>
<trkpt lat="42.871100" lon="-2.114937">
<ele>1605.0</ele>
<desc>Speed 0.2 km/h Distance 7.28 km</desc>
<time>2013-07-05T18:02:03.59</time>
<name>1864</name>
<sym>Dot</sym>
</trkpt>
<trkpt lat="42.871100" lon="-2.114937">
<ele>1605.0</ele>
<desc>Speed 0.1 km/h Distance 7.28 km</desc>
<time>2013-07-05T18:02:04.58</time>
<name>1865</name>
<sym>Dot</sym>
</trkpt>
<trkpt lat="42.871100" lon="-2.114937">
<ele>1605.0</ele>
<desc>Speed 0.1 km/h Distance 7.28 km</desc>
<time>2013-07-05T18:02:05.57</time>
<name>1866</name>
<sym>Dot</sym>
</trkpt>
<trkpt lat="42.871100" lon="-2.114937">
<ele>1605.0</ele>
<desc>Speed 0.2 km/h Distance 7.28 km</desc>
<time>2013-07-05T18:02:06.56</time>
<name>1867</name>
<sym>Dot</sym>
</trkpt>
<trkpt lat="42.871100" lon="-2.114937">
<ele>1605.0</ele>
<desc>Speed 0.2 km/h Distance 7.28 km</desc>
<time>2013-07-05T18:02:07.55</time>
<name>1868</name>
<sym>Dot</sym>
</trkpt>
<trkpt lat="42.871100" lon="-2.114937">
<ele>1605.0</ele>
<desc>Speed 0.2 km/h Distance 7.28 km</desc>
<time>2013-07-05T18:02:08.54</time>
<name>1869</name>
<sym>Dot</sym>
</trkpt>
<trkpt lat="42.871100" lon="-2.114937">
<ele>1605.0</ele>
<desc>Speed 0.1 km/h Distance 7.28 km</desc>
<time>2013-07-05T18:02:09.53</time>
<name>1870</name>
<sym>Dot</sym>
</trkpt>
<trkpt lat="42.871100" lon="-2.114937">
<ele>1605.0</ele>
<desc>Speed 0.3 km/h Distance 7.28 km</desc>
<time>2013-07-05T18:02:10.52</time>
<name>1871</name>
<sym>Dot</sym>
</trkpt>
<trkpt lat="42.871100" lon="-2.114937">
<ele>1605.0</ele>
<desc>Speed 0.3 km/h Distance 7.28 km</desc>
<time>2013-07-05T18:02:11.51</time>
<name>1872</name>
<sym>Dot</sym>
</trkpt>
<trkpt lat="42.871100" lon="-2.114937">
<ele>1605.0</ele>
<desc>Speed 0.0 km/h Distance 7.28 km</desc>
<time>2013-07-05T18:02:12.50</time>
<name>1873</name>
<sym>Dot</sym>
</trkpt>
<trkpt lat="42.871100" lon="-2.114937">
<ele>1605.0</ele>
<desc>Speed 0.1 km/h Distance 7.28 km</desc>
<time>2013-07-05T18:02:13.49</time>
<name>1874</name>
<sym>Dot</sym>
</trkpt>
<trkpt lat="42.871100" lon="-2.114937">
<ele>1605.0</ele>
<desc>Speed 0.1 km/h Distance 7.28 km</desc>
<time>2013-07-05T18:02:14.48</time>
<name>1875</name>
<sym>Dot</sym>
</trkpt>
<trkpt lat="42.871100" lon="-2.114937">
<ele>1605.0</ele>
<desc>Speed 0.1 km/h Distance 7.28 km</desc>
<time>2013-07-05T18:02:15.47</time>
<name>1876</name>
<sym>Dot</sym>
</trkpt>
<trkpt lat="42.871100" lon="-2.114937">
<ele>1605.0</ele>
<desc>Speed 0.2 km/h Distance 7.28 km</desc>
<time>2013-07-05T18:02:16.46</time>
<name>1877</name>
<sym>Dot</sym>
</trkpt>
<trkpt lat="42.871100" lon="-2.114937">
<ele>1605.0</ele>
<desc>Speed 0.0 km/h Distance 7.28 km</desc>
<time>2013-07-05T18:02:17.45</time>
<name>1878</name>
<sym>Dot</sym>
</trkpt>
<trkpt lat="42.871100" lon="-2.114937">
<ele>1605.0</ele>
<desc>Speed 0.2 km/h Distance 7.28 km</desc>
<time>2013-07-05T18:02:18.44</time>
<name>1879</name>
<sym>Dot</sym>
</trkpt>
<trkpt lat="42.871100" lon="-2.114937">
<ele>1605.0</ele>
<desc>Speed 0.2 km/h Distance 7.28 km</desc>
<time>2013-07-05T18:02:19.43</time>
<name>1880</name>
<sym>Dot</sym>
</trkpt>
<trkpt lat="42.871100" lon="-2.114937">
<ele>1605.0</ele>
<desc>Speed 0.2 km/h Distance 7.28 km</desc>
<time>2013-07-05T18:02:20.42</time>
<name>1881</name>
<sym>Dot</sym>
</trkpt>
<trkpt lat="42.871100" lon="-2.114937">
<ele>1605.0</ele>
<desc>Speed 0.1 km/h Distance 7.28 km</desc>
<time>2013-07-05T18:02:21.41</time>
<name>1882</name>
<sym>Dot</sym>
</trkpt>
<trkpt lat="42.871100" lon="-2.114937">
<ele>1605.0</ele>
<desc>Speed 0.2 km/h Distance 7.28 km</desc>
<time>2013-07-05T18:02:22.40</time>
<name>1883</name>
<sym>Dot</sym>
</trkpt>
<trkpt lat="42.871100" lon="-2.114937">
<ele>1605.0</ele>
<desc>Speed 0.3 km/h Distance 7.28 km</desc>
<time>2013-07-05T18:02:23.39</time>
<name>1884</name>
<sym>Dot</sym>
</trkpt>
<trkpt lat="42.871100" lon="-2.114937">
<ele>1605.0</ele>
<desc>Speed 0.2 km/h Distance 7.28 km</desc>
<time>2013-07-05T18:02:24.38</time>
<name>1885</name>
<sym>Dot</sym>
</trkpt>
<trkpt lat="42.871100" lon="-2.114937">
<ele>1605.0</ele>
<desc>Speed 0.2 km/h Distance 7.28 km</desc>
<time>2013-07-05T18:02:25.37</time>
<name>1886</name>
<sym>Dot</sym>
</trkpt>
<trkpt lat="42.871100" lon="-2.114937">
<ele>1605.0</ele>
<desc>Speed 0.2 km/h Distance 7.28 km</desc>
<time>2013-07-05T18:02:26.36</time>
<name>1887</name>
<sym>Dot</sym>
</trkpt>
<trkpt lat="42.871100" lon="-2.114937">
<ele>1605.0</ele>
<desc>Speed 0.1 km/h Distance 7.28 km</desc>
<time>2013-07-05T18:02:27.35</time>
<name>1888</name>
<sym>Dot</sym>
</trkpt>
<trkpt lat="42.871100" lon="-2.114937">
<ele>1605.0</ele>
<desc>Speed 0.1 km/h Distance 7.28 km</desc>
<time>2013-07-05T18:02:28.35</time>
<name>1889</name>
<sym>Dot</sym>
</trkpt>
<trkpt lat="42.871100" lon="-2.114937">
<ele>1605.0</ele>
<desc>Speed 0.1 km/h Distance 7.28 km</desc>
<time>2013-07-05T18:02:29.35</time>
<name>1890</name>
<sym>Dot</sym>
</trkpt>
<trkpt lat="42.871100" lon="-2.114937">
<ele>1605.0</ele>
<desc>Speed 0.2 km/h Distance 7.28 km</desc>
<time>2013-07-05T18:02:30.33</time>
<name>1891</name>
<sym>Dot</sym>
</trkpt>
<trkpt lat="42.871100" lon="-2.114937">
<ele>1605.0</ele>
<desc>Speed 0.3 km/h Distance 7.28 km</desc>
<time>2013-07-05T18:02:31.32</time>
<name>1892</name>
<sym>Dot</sym>
</trkpt>
<trkpt lat="42.871100" lon="-2.114937">
<ele>1605.0</ele>
<desc>Speed 0.2 km/h Distance 7.28 km</desc>
<time>2013-07-05T18:02:32.31</time>
<name>1893</name>
<sym>Dot</sym>
</trkpt>
<trkpt lat="42.871100" lon="-2.114937">
<ele>1605.0</ele>
<desc>Speed 0.2 km/h Distance 7.28 km</desc>
<time>2013-07-05T18:02:33.30</time>
<name>1894</name>
<sym>Dot</sym>
</trkpt>
<trkpt lat="42.871100" lon="-2.114937">
<ele>1605.0</ele>
<desc>Speed 0.1 km/h Distance 7.28 km</desc>
<time>2013-07-05T18:02:34.29</time>
<name>1895</name>
<sym>Dot</sym>
</trkpt>
<trkpt lat="42.871100" lon="-2.114937">
<ele>1605.0</ele>
<desc>Speed 0.2 km/h Distance 7.28 km</desc>
<time>2013-07-05T18:02:35.28</time>
<name>1896</name>
<sym>Dot</sym>
</trkpt>
<trkpt lat="42.871100" lon="-2.114937">
<ele>1605.0</ele>
<desc>Speed 0.3 km/h Distance 7.28 km</desc>
<time>2013-07-05T18:02:36.27</time>
<name>1897</name>
<sym>Dot</sym>
</trkpt>
<trkpt lat="42.871100" lon="-2.114937">
<ele>1605.0</ele>
<desc>Speed 0.2 km/h Distance 7.28 km</desc>
<time>2013-07-05T18:02:37.26</time>
<name>1898</name>
<sym>Dot</sym>
</trkpt>
<trkpt lat="42.871100" lon="-2.114937">
<ele>1605.0</ele>
<desc>Speed 0.2 km/h Distance 7.28 km</desc>
<time>2013-07-05T18:02:38.25</time>
<name>1899</name>
<sym>Dot</sym>
</trkpt>
<trkpt lat="42.871100" lon="-2.114937">
<ele>1605.0</ele>
<desc>Speed 0.1 km/h Distance 7.28 km</desc>
<time>2013-07-05T18:02:39.24</time>
<name>1900</name>
<sym>Dot</sym>
</trkpt>
<trkpt lat="42.871100" lon="-2.114937">
<ele>1605.0</ele>
<desc>Speed 0.2 km/h Distance 7.28 km</desc>
<time>2013-07-05T18:02:40.23</time>
<name>1901</name>
<sym>Dot</sym>
</trkpt>
<trkpt lat="42.871100" lon="-2.114937">
<ele>1605.0</ele>
<desc>Speed 0.2 km/h Distance 7.28 km</desc>
<time>2013-07-05T18:02:41.22</time>
<name>1902</name>
<sym>Dot</sym>
</trkpt>
<trkpt lat="42.871100" lon="-2.114937">
<ele>1605.0</ele>
<desc>Speed 0.2 km/h Distance 7.28 km</desc>
<time>2013-07-05T18:02:42.21</time>
<name>1903</name>
<sym>Dot</sym>
</trkpt>
<trkpt lat="42.871100" lon="-2.114937">
<ele>1605.0</ele>
<desc>Speed 0.3 km/h Distance 7.28 km</desc>
<time>2013-07-05T18:02:43.21</time>
<name>1904</name>
<sym>Dot</sym>
</trkpt>
<trkpt lat="42.871100" lon="-2.114937">
<ele>1605.0</ele>
<desc>Speed 0.1 km/h Distance 7.28 km</desc>
<time>2013-07-05T18:02:44.20</time>
<name>1905</name>
<sym>Dot</sym>
</trkpt>
<trkpt lat="42.871100" lon="-2.114937">
<ele>1605.0</ele>
<desc>Speed 0.1 km/h Distance 7.28 km</desc>
<time>2013-07-05T18:02:45.19</time>
<name>1906</name>
<sym>Dot</sym>
</trkpt>
<trkpt lat="42.871100" lon="-2.114937">
<ele>1605.0</ele>
<desc>Speed 0.1 km/h Distance 7.28 km</desc>
<time>2013-07-05T18:02:46.18</time>
<name>1907</name>
<sym>Dot</sym>
</trkpt>
<trkpt lat="42.871100" lon="-2.114937">
<ele>1605.0</ele>
<desc>Speed 0.1 km/h Distance 7.28 km</desc>
<time>2013-07-05T18:02:47.18</time>
<name>1908</name>
<sym>Dot</sym>
</trkpt>
<trkpt lat="42.871100" lon="-2.114937">
<ele>1605.0</ele>
<desc>Speed 0.2 km/h Distance 7.28 km</desc>
<time>2013-07-05T18:02:48.17</time>
<name>1909</name>
<sym>Dot</sym>
</trkpt>
<trkpt lat="42.871102" lon="-2.114937">
<ele>1605.0</ele>
<desc>Speed 0.2 km/h Distance 7.28 km</desc>
<time>2013-07-05T18:02:49.17</time>
<name>1910</name>
<sym>Dot</sym>
</trkpt>
<trkpt lat="42.871102" lon="-2.114937">
<ele>1605.0</ele>
<desc>Speed 0.2 km/h Distance 7.28 km</desc>
<time>2013-07-05T18:02:50.16</time>
<name>1911</name>
<sym>Dot</sym>
</trkpt>
<trkpt lat="42.871102" lon="-2.114937">
<ele>1605.0</ele>
<desc>Speed 0.2 km/h Distance 7.28 km</desc>
<time>2013-07-05T18:02:51.15</time>
<name>1912</name>
<sym>Dot</sym>
</trkpt>
<trkpt lat="42.871102" lon="-2.114937">
<ele>1605.0</ele>
<desc>Speed 0.1 km/h Distance 7.28 km</desc>
<time>2013-07-05T18:02:52.14</time>
<name>1913</name>
<sym>Dot</sym>
</trkpt>
<trkpt lat="42.871102" lon="-2.114937">
<ele>1605.0</ele>
<desc>Speed 0.2 km/h Distance 7.28 km</desc>
<time>2013-07-05T18:02:53.13</time>
<name>1914</name>
<sym>Dot</sym>
</trkpt>
<trkpt lat="42.871102" lon="-2.114937">
<ele>1605.0</ele>
<desc>Speed 0.2 km/h Distance 7.28 km</desc>
<time>2013-07-05T18:02:54.12</time>
<name>1915</name>
<sym>Dot</sym>
</trkpt>
<trkpt lat="42.871102" lon="-2.114937">
<ele>1605.0</ele>
<desc>Speed 0.2 km/h Distance 7.28 km</desc>
<time>2013-07-05T18:02:55.11</time>
<name>1916</name>
<sym>Dot</sym>
</trkpt>
<trkpt lat="42.871102" lon="-2.114937">
<ele>1605.0</ele>
<desc>Speed 0.1 km/h Distance 7.28 km</desc>
<time>2013-07-05T18:02:56.10</time>
<name>1917</name>
<sym>Dot</sym>
</trkpt>
<trkpt lat="42.871102" lon="-2.114937">
<ele>1605.0</ele>
<desc>Speed 0.3 km/h Distance 7.28 km</desc>
<time>2013-07-05T18:02:57.09</time>
<name>1918</name>
<sym>Dot</sym>
</trkpt>
<trkpt lat="42.871102" lon="-2.114937">
<ele>1605.0</ele>
<desc>Speed 0.1 km/h Distance 7.28 km</desc>
<time>2013-07-05T18:02:58.08</time>
<name>1919</name>
<sym>Dot</sym>
</trkpt>
<trkpt lat="42.871102" lon="-2.114937">
<ele>1605.0</ele>
<desc>Speed 0.2 km/h Distance 7.28 km</desc>
<time>2013-07-05T18:02:59.07</time>
<name>1920</name>
<sym>Dot</sym>
</trkpt>
<trkpt lat="42.871102" lon="-2.114937">
<ele>1605.0</ele>
<desc>Speed 0.2 km/h Distance 7.28 km</desc>
<time>2013-07-05T18:03:00.06</time>
<name>1921</name>
<sym>Dot</sym>
</trkpt>
<trkpt lat="42.871102" lon="-2.114937">
<ele>1605.0</ele>
<desc>Speed 0.1 km/h Distance 7.28 km</desc>
<time>2013-07-05T18:03:01.05</time>
<name>1922</name>
<sym>Dot</sym>
</trkpt>
<trkpt lat="42.871102" lon="-2.114937">
<ele>1605.0</ele>
<desc>Speed 0.2 km/h Distance 7.28 km</desc>
<time>2013-07-05T18:03:02.04</time>
<name>1923</name>
<sym>Dot</sym>
</trkpt>
<trkpt lat="42.871102" lon="-2.114937">
<ele>1605.0</ele>
<desc>Speed 0.1 km/h Distance 7.28 km</desc>
<time>2013-07-05T18:03:03.03</time>
<name>1924</name>
<sym>Dot</sym>
</trkpt>
<trkpt lat="42.871102" lon="-2.114937">
<ele>1605.0</ele>
<desc>Speed 0.1 km/h Distance 7.28 km</desc>
<time>2013-07-05T18:03:04.02</time>
<name>1925</name>
<sym>Dot</sym>
</trkpt>
<trkpt lat="42.871102" lon="-2.114937">
<ele>1605.0</ele>
<desc>Speed 0.2 km/h Distance 7.28 km</desc>
<time>2013-07-05T18:03:05.01</time>
<name>1926</name>
<sym>Dot</sym>
</trkpt>
<trkpt lat="42.871102" lon="-2.114937">
<ele>1605.0</ele>
<desc>Speed 0.1 km/h Distance 7.28 km</desc>
<time>2013-07-05T18:03:06.00</time>
<name>1927</name>
<sym>Dot</sym>
</trkpt>
<trkpt lat="42.871102" lon="-2.114937">
<ele>1605.0</ele>
<desc>Speed 0.2 km/h Distance 7.28 km</desc>
<time>2013-07-05T18:03:06.99</time>
<name>1928</name>
<sym>Dot</sym>
</trkpt>
<trkpt lat="42.871102" lon="-2.114937">
<ele>1605.5</ele>
<desc>Speed 0.1 km/h Distance 7.28 km</desc>
<time>2013-07-05T18:03:07.98</time>
<name>1929</name>
<sym>Dot</sym>
</trkpt>
<trkpt lat="42.871102" lon="-2.114937">
<ele>1605.5</ele>
<desc>Speed 0.2 km/h Distance 7.28 km</desc>
<time>2013-07-05T18:03:08.97</time>
<name>1930</name>
<sym>Dot</sym>
</trkpt>
<trkpt lat="42.871102" lon="-2.114937">
<ele>1605.5</ele>
<desc>Speed 0.1 km/h Distance 7.28 km</desc>
<time>2013-07-05T18:03:09.96</time>
<name>1931</name>
<sym>Dot</sym>
</trkpt>
<trkpt lat="42.871102" lon="-2.114937">
<ele>1605.5</ele>
<desc>Speed 0.2 km/h Distance 7.28 km</desc>
<time>2013-07-05T18:03:10.95</time>
<name>1932</name>
<sym>Dot</sym>
</trkpt>
<trkpt lat="42.871102" lon="-2.114937">
<ele>1605.5</ele>
<desc>Speed 0.1 km/h Distance 7.28 km</desc>
<time>2013-07-05T18:03:11.94</time>
<name>1933</name>
<sym>Dot</sym>
</trkpt>
<trkpt lat="42.871102" lon="-2.114937">
<ele>1605.5</ele>
<desc>Speed 0.1 km/h Distance 7.28 km</desc>
<time>2013-07-05T18:03:12.93</time>
<name>1934</name>
<sym>Dot</sym>
</trkpt>
<trkpt lat="42.871102" lon="-2.114937">
<ele>1605.5</ele>
<desc>Speed 0.1 km/h Distance 7.28 km</desc>
<time>2013-07-05T18:03:13.92</time>
<name>1935</name>
<sym>Dot</sym>
</trkpt>
<trkpt lat="42.871102" lon="-2.114937">
<ele>1605.5</ele>
<desc>Speed 0.3 km/h Distance 7.28 km</desc>
<time>2013-07-05T18:03:14.91</time>
<name>1936</name>
<sym>Dot</sym>
</trkpt>
<trkpt lat="42.871102" lon="-2.114937">
<ele>1605.5</ele>
<desc>Speed 0.2 km/h Distance 7.28 km</desc>
<time>2013-07-05T18:03:15.90</time>
<name>1937</name>
<sym>Dot</sym>
</trkpt>
<trkpt lat="42.871102" lon="-2.114937">
<ele>1605.5</ele>
<desc>Speed 0.1 km/h Distance 7.28 km</desc>
<time>2013-07-05T18:03:16.89</time>
<name>1938</name>
<sym>Dot</sym>
</trkpt>
<trkpt lat="42.871102" lon="-2.114937">
<ele>1605.5</ele>
<desc>Speed 0.1 km/h Distance 7.28 km</desc>
<time>2013-07-05T18:03:17.88</time>
<name>1939</name>
<sym>Dot</sym>
</trkpt>
<trkpt lat="42.871102" lon="-2.114937">
<ele>1605.5</ele>
<desc>Speed 0.1 km/h Distance 7.28 km</desc>
<time>2013-07-05T18:03:18.87</time>
<name>1940</name>
<sym>Dot</sym>
</trkpt>
<trkpt lat="42.871102" lon="-2.114937">
<ele>1605.5</ele>
<desc>Speed 0.2 km/h Distance 7.28 km</desc>
<time>2013-07-05T18:03:19.86</time>
<name>1941</name>
<sym>Dot</sym>
</trkpt>
<trkpt lat="42.871102" lon="-2.114937">
<ele>1605.5</ele>
<desc>Speed 0.2 km/h Distance 7.28 km</desc>
<time>2013-07-05T18:03:20.86</time>
<name>1942</name>
<sym>Dot</sym>
</trkpt>
<trkpt lat="42.871102" lon="-2.114937">
<ele>1605.5</ele>
<desc>Speed 0.2 km/h Distance 7.28 km</desc>
<time>2013-07-05T18:03:22.04</time>
<name>1943</name>
<sym>Dot</sym>
</trkpt>
<trkpt lat="42.871102" lon="-2.114937">
<ele>1605.5</ele>
<desc>Speed 0.2 km/h Distance 7.28 km</desc>
<time>2013-07-05T18:03:22.85</time>
<name>1944</name>
<sym>Dot</sym>
</trkpt>
<trkpt lat="42.871102" lon="-2.114937">
<ele>1605.5</ele>
<desc>Speed 0.2 km/h Distance 7.28 km</desc>
<time>2013-07-05T18:03:23.84</time>
<name>1945</name>
<sym>Dot</sym>
</trkpt>
<trkpt lat="42.871102" lon="-2.114937">
<ele>1605.5</ele>
<desc>Speed 0.1 km/h Distance 7.28 km</desc>
<time>2013-07-05T18:03:24.83</time>
<name>1946</name>
<sym>Dot</sym>
</trkpt>
<trkpt lat="42.871102" lon="-2.114937">
<ele>1605.5</ele>
<desc>Speed 0.1 km/h Distance 7.28 km</desc>
<time>2013-07-05T18:03:25.83</time>
<name>1947</name>
<sym>Dot</sym>
</trkpt>
<trkpt lat="42.871102" lon="-2.114937">
<ele>1605.5</ele>
<desc>Speed 0.2 km/h Distance 7.28 km</desc>
<time>2013-07-05T18:03:26.81</time>
<name>1948</name>
<sym>Dot</sym>
</trkpt>
<trkpt lat="42.871102" lon="-2.114937">
<ele>1605.5</ele>
<desc>Speed 0.1 km/h Distance 7.28 km</desc>
<time>2013-07-05T18:03:27.81</time>
<name>1949</name>
<sym>Dot</sym>
</trkpt>
<trkpt lat="42.871102" lon="-2.114937">
<ele>1605.5</ele>
<desc>Speed 0.1 km/h Distance 7.28 km</desc>
<time>2013-07-05T18:03:28.80</time>
<name>1950</name>
<sym>Dot</sym>
</trkpt>
<trkpt lat="42.871102" lon="-2.114937">
<ele>1605.5</ele>
<desc>Speed 0.1 km/h Distance 7.28 km</desc>
<time>2013-07-05T18:03:29.79</time>
<name>1951</name>
<sym>Dot</sym>
</trkpt>
<trkpt lat="42.871102" lon="-2.114937">
<ele>1605.5</ele>
<desc>Speed 0.1 km/h Distance 7.28 km</desc>
<time>2013-07-05T18:03:30.78</time>
<name>1952</name>
<sym>Dot</sym>
</trkpt>
<trkpt lat="42.871102" lon="-2.114937">
<ele>1605.5</ele>
<desc>Speed 0.1 km/h Distance 7.28 km</desc>
<time>2013-07-05T18:03:31.77</time>
<name>1953</name>
<sym>Dot</sym>
</trkpt>
<trkpt lat="42.871102" lon="-2.114935">
<ele>1605.5</ele>
<desc>Speed 0.1 km/h Distance 7.28 km</desc>
<time>2013-07-05T18:03:32.76</time>
<name>1954</name>
<sym>Dot</sym>
</trkpt>
<trkpt lat="42.871102" lon="-2.114935">
<ele>1605.5</ele>
<desc>Speed 0.1 km/h Distance 7.28 km</desc>
<time>2013-07-05T18:03:33.76</time>
<name>1955</name>
<sym>Dot</sym>
</trkpt>
<trkpt lat="42.871102" lon="-2.114935">
<ele>1605.5</ele>
<desc>Speed 0.1 km/h Distance 7.28 km</desc>
<time>2013-07-05T18:03:34.75</time>
<name>1956</name>
<sym>Dot</sym>
</trkpt>
<trkpt lat="42.871102" lon="-2.114935">
<ele>1605.5</ele>
<desc>Speed 0.1 km/h Distance 7.28 km</desc>
<time>2013-07-05T18:03:35.74</time>
<name>1957</name>
<sym>Dot</sym>
</trkpt>
<trkpt lat="42.871102" lon="-2.114935">
<ele>1605.5</ele>
<desc>Speed 0.1 km/h Distance 7.28 km</desc>
<time>2013-07-05T18:03:36.73</time>
<name>1958</name>
<sym>Dot</sym>
</trkpt>
<trkpt lat="42.871102" lon="-2.114935">
<ele>1605.5</ele>
<desc>Speed 0.2 km/h Distance 7.28 km</desc>
<time>2013-07-05T18:03:37.72</time>
<name>1959</name>
<sym>Dot</sym>
</trkpt>
<trkpt lat="42.871102" lon="-2.114935">
<ele>1605.5</ele>
<desc>Speed 0.1 km/h Distance 7.28 km</desc>
<time>2013-07-05T18:03:38.71</time>
<name>1960</name>
<sym>Dot</sym>
</trkpt>
<trkpt lat="42.871102" lon="-2.114935">
<ele>1605.5</ele>
<desc>Speed 0.2 km/h Distance 7.28 km</desc>
<time>2013-07-05T18:03:39.70</time>
<name>1961</name>
<sym>Dot</sym>
</trkpt>
<trkpt lat="42.871102" lon="-2.114935">
<ele>1605.5</ele>
<desc>Speed 0.2 km/h Distance 7.28 km</desc>
<time>2013-07-05T18:03:40.69</time>
<name>1962</name>
<sym>Dot</sym>
</trkpt>
<trkpt lat="42.871102" lon="-2.114935">
<ele>1605.5</ele>
<desc>Speed 0.2 km/h Distance 7.28 km</desc>
<time>2013-07-05T18:03:41.68</time>
<name>1963</name>
<sym>Dot</sym>
</trkpt>
<trkpt lat="42.871102" lon="-2.114935">
<ele>1605.5</ele>
<desc>Speed 0.2 km/h Distance 7.28 km</desc>
<time>2013-07-05T18:03:42.67</time>
<name>1964</name>
<sym>Dot</sym>
</trkpt>
<trkpt lat="42.871102" lon="-2.114935">
<ele>1605.5</ele>
<desc>Speed 0.2 km/h Distance 7.28 km</desc>
<time>2013-07-05T18:03:43.66</time>
<name>1965</name>
<sym>Dot</sym>
</trkpt>
<trkpt lat="42.871102" lon="-2.114935">
<ele>1605.5</ele>
<desc>Speed 0.2 km/h Distance 7.28 km</desc>
<time>2013-07-05T18:03:44.66</time>
<name>1966</name>
<sym>Dot</sym>
</trkpt>
<trkpt lat="42.871102" lon="-2.114935">
<ele>1605.5</ele>
<desc>Speed 0.2 km/h Distance 7.28 km</desc>
<time>2013-07-05T18:03:45.65</time>
<name>1967</name>
<sym>Dot</sym>
</trkpt>
<trkpt lat="42.871102" lon="-2.114935">
<ele>1605.5</ele>
<desc>Speed 0.1 km/h Distance 7.28 km</desc>
<time>2013-07-05T18:03:46.65</time>
<name>1968</name>
<sym>Dot</sym>
</trkpt>
<trkpt lat="42.871102" lon="-2.114935">
<ele>1605.5</ele>
<desc>Speed 0.2 km/h Distance 7.28 km</desc>
<time>2013-07-05T18:03:47.64</time>
<name>1969</name>
<sym>Dot</sym>
</trkpt>
<trkpt lat="42.871102" lon="-2.114935">
<ele>1605.5</ele>
<desc>Speed 0.2 km/h Distance 7.28 km</desc>
<time>2013-07-05T18:03:48.63</time>
<name>1970</name>
<sym>Dot</sym>
</trkpt>
<trkpt lat="42.871102" lon="-2.114935">
<ele>1605.5</ele>
<desc>Speed 0.2 km/h Distance 7.28 km</desc>
<time>2013-07-05T18:03:49.62</time>
<name>1971</name>
<sym>Dot</sym>
</trkpt>
<trkpt lat="42.871102" lon="-2.114935">
<ele>1605.5</ele>
<desc>Speed 0.2 km/h Distance 7.28 km</desc>
<time>2013-07-05T18:03:50.61</time>
<name>1972</name>
<sym>Dot</sym>
</trkpt>
<trkpt lat="42.871102" lon="-2.114935">
<ele>1605.5</ele>
<desc>Speed 0.1 km/h Distance 7.28 km</desc>
<time>2013-07-05T18:03:51.60</time>
<name>1973</name>
<sym>Dot</sym>
</trkpt>
<trkpt lat="42.871102" lon="-2.114935">
<ele>1605.5</ele>
<desc>Speed 0.2 km/h Distance 7.28 km</desc>
<time>2013-07-05T18:03:52.59</time>
<name>1974</name>
<sym>Dot</sym>
</trkpt>
<trkpt lat="42.871102" lon="-2.114935">
<ele>1605.5</ele>
<desc>Speed 0.2 km/h Distance 7.28 km</desc>
<time>2013-07-05T18:03:53.59</time>
<name>1975</name>
<sym>Dot</sym>
</trkpt>
<trkpt lat="42.871102" lon="-2.114935">
<ele>1605.5</ele>
<desc>Speed 0.2 km/h Distance 7.28 km</desc>
<time>2013-07-05T18:03:54.58</time>
<name>1976</name>
<sym>Dot</sym>
</trkpt>
<trkpt lat="42.871103" lon="-2.114930">
<ele>1605.5</ele>
<desc>Speed 1.5 km/h Distance 7.28 km</desc>
<time>2013-07-05T18:03:55.57</time>
<name>1977</name>
<sym>Dot</sym>
</trkpt>
<trkpt lat="42.871107" lon="-2.114928">
<ele>1606.0</ele>
<desc>Speed 1.8 km/h Distance 7.28 km</desc>
<time>2013-07-05T18:03:56.56</time>
<name>1978</name>
<sym>Dot</sym>
</trkpt>
<trkpt lat="42.871108" lon="-2.114925">
<ele>1606.0</ele>
<desc>Speed 0.9 km/h Distance 7.28 km</desc>
<time>2013-07-05T18:03:57.55</time>
<name>1979</name>
<sym>Dot</sym>
</trkpt>
<trkpt lat="42.871107" lon="-2.114925">
<ele>1606.0</ele>
<desc>Speed 0.4 km/h Distance 7.28 km</desc>
<time>2013-07-05T18:03:58.54</time>
<name>1980</name>
<sym>Dot</sym>
</trkpt>
<trkpt lat="42.871107" lon="-2.114925">
<ele>1606.0</ele>
<desc>Speed 0.3 km/h Distance 7.28 km</desc>
<time>2013-07-05T18:03:59.53</time>
<name>1981</name>
<sym>Dot</sym>
</trkpt>
<trkpt lat="42.871107" lon="-2.114925">
<ele>1606.0</ele>
<desc>Speed 0.2 km/h Distance 7.28 km</desc>
<time>2013-07-05T18:04:00.52</time>
<name>1982</name>
<sym>Dot</sym>
</trkpt>
<trkpt lat="42.871107" lon="-2.114925">
<ele>1606.0</ele>
<desc>Speed 0.5 km/h Distance 7.28 km</desc>
<time>2013-07-05T18:04:01.51</time>
<name>1983</name>
<sym>Dot</sym>
</trkpt>
<trkpt lat="42.871107" lon="-2.114925">
<ele>1606.0</ele>
<desc>Speed 0.4 km/h Distance 7.28 km</desc>
<time>2013-07-05T18:04:02.50</time>
<name>1984</name>
<sym>Dot</sym>
</trkpt>
<trkpt lat="42.871107" lon="-2.114925">
<ele>1606.0</ele>
<desc>Speed 0.3 km/h Distance 7.28 km</desc>
<time>2013-07-05T18:04:03.50</time>
<name>1985</name>
<sym>Dot</sym>
</trkpt>
<trkpt lat="42.871110" lon="-2.114922">
<ele>1606.5</ele>
<desc>Speed 1.6 km/h Distance 7.28 km</desc>
<time>2013-07-05T18:04:04.49</time>
<name>1986</name>
<sym>Dot</sym>
</trkpt>
<trkpt lat="42.871115" lon="-2.114913">
<ele>1606.5</ele>
<desc>Speed 3.6 km/h Distance 7.28 km</desc>
<time>2013-07-05T18:04:05.48</time>
<name>1987</name>
<sym>Dot</sym>
</trkpt>
<trkpt lat="42.871120" lon="-2.114903">
<ele>1606.0</ele>
<desc>Speed 3.5 km/h Distance 7.29 km</desc>
<time>2013-07-05T18:04:06.47</time>
<name>1988</name>
<sym>Dot</sym>
</trkpt>
<trkpt lat="42.871127" lon="-2.114895">
<ele>1605.5</ele>
<desc>Speed 3.3 km/h Distance 7.29 km</desc>
<time>2013-07-05T18:04:07.45</time>
<name>1989</name>
<sym>Dot</sym>
</trkpt>
<trkpt lat="42.871133" lon="-2.114887">
<ele>1605.5</ele>
<desc>Speed 4.0 km/h Distance 7.29 km</desc>
<time>2013-07-05T18:04:08.45</time>
<name>1990</name>
<sym>Dot</sym>
</trkpt>
<trkpt lat="42.871140" lon="-2.114875">
<ele>1605.5</ele>
<desc>Speed 4.2 km/h Distance 7.29 km</desc>
<time>2013-07-05T18:04:09.44</time>
<name>1991</name>
<sym>Dot</sym>
</trkpt>
<trkpt lat="42.871140" lon="-2.114860">
<ele>1605.5</ele>
<desc>Speed 4.2 km/h Distance 7.29 km</desc>
<time>2013-07-05T18:04:10.43</time>
<name>1992</name>
<sym>Dot</sym>
</trkpt>
<trkpt lat="42.871150" lon="-2.114868">
<ele>1605.5</ele>
<desc>Speed 4.6 km/h Distance 7.29 km</desc>
<time>2013-07-05T18:04:11.43</time>
<name>1993</name>
<sym>Dot</sym>
</trkpt>
<trkpt lat="42.871143" lon="-2.114873">
<ele>1605.5</ele>
<desc>Speed 3.5 km/h Distance 7.29 km</desc>
<time>2013-07-05T18:04:12.42</time>
<name>1994</name>
<sym>Dot</sym>
</trkpt>
<trkpt lat="42.871143" lon="-2.114870">
<ele>1605.5</ele>
<desc>Speed 0.8 km/h Distance 7.29 km</desc>
<time>2013-07-05T18:04:13.40</time>
<name>1995</name>
<sym>Dot</sym>
</trkpt>
<trkpt lat="42.871138" lon="-2.114872">
<ele>1605.5</ele>
<desc>Speed 2.0 km/h Distance 7.29 km</desc>
<time>2013-07-05T18:04:14.41</time>
<name>1996</name>
<sym>Dot</sym>
</trkpt>
<trkpt lat="42.871138" lon="-2.114868">
<ele>1606.5</ele>
<desc>Speed 0.8 km/h Distance 7.29 km</desc>
<time>2013-07-05T18:04:15.39</time>
<name>1997</name>
<sym>Dot</sym>
</trkpt>
<trkpt lat="42.871148" lon="-2.114858">
<ele>1605.0</ele>
<desc>Speed 4.9 km/h Distance 7.29 km</desc>
<time>2013-07-05T18:04:17.39</time>
<name>1998</name>
<sym>Dot</sym>
</trkpt>
<trkpt lat="42.871148" lon="-2.114858">
<ele>1605.0</ele>
<desc>Speed 0.3 km/h Distance 7.29 km</desc>
<time>2013-07-05T18:04:18.38</time>
<name>1999</name>
<sym>Dot</sym>
</trkpt>
<trkpt lat="42.871142" lon="-2.114858">
<ele>1605.0</ele>
<desc>Speed 1.9 km/h Distance 7.30 km</desc>
<time>2013-07-05T18:04:19.38</time>
<name>2000</name>
<sym>Dot</sym>
</trkpt>
<trkpt lat="42.871140" lon="-2.114855">
<ele>1605.0</ele>
<desc>Speed 0.8 km/h Distance 7.30 km</desc>
<time>2013-07-05T18:04:20.37</time>
<name>2001</name>
<sym>Dot</sym>
</trkpt>
<trkpt lat="42.871143" lon="-2.114857">
<ele>1604.5</ele>
<desc>Speed 2.5 km/h Distance 7.30 km</desc>
<time>2013-07-05T18:04:21.45</time>
<name>2002</name>
<sym>Dot</sym>
</trkpt>
<trkpt lat="42.871140" lon="-2.114862">
<ele>1605.5</ele>
<desc>Speed 1.8 km/h Distance 7.30 km</desc>
<time>2013-07-05T18:04:22.36</time>
<name>2003</name>
<sym>Dot</sym>
</trkpt>
<trkpt lat="42.871140" lon="-2.114862">
<ele>1605.5</ele>
<desc>Speed 0.3 km/h Distance 7.30 km</desc>
<time>2013-07-05T18:04:23.35</time>
<name>2004</name>
<sym>Dot</sym>
</trkpt>
<trkpt lat="42.871140" lon="-2.114862">
<ele>1605.5</ele>
<desc>Speed 0.1 km/h Distance 7.30 km</desc>
<time>2013-07-05T18:04:24.34</time>
<name>2005</name>
<sym>Dot</sym>
</trkpt>
<trkpt lat="42.871138" lon="-2.114862">
<ele>1605.5</ele>
<desc>Speed 0.1 km/h Distance 7.30 km</desc>
<time>2013-07-05T18:04:25.33</time>
<name>2006</name>
<sym>Dot</sym>
</trkpt>
<trkpt lat="42.871138" lon="-2.114862">
<ele>1605.5</ele>
<desc>Speed 0.3 km/h Distance 7.30 km</desc>
<time>2013-07-05T18:04:26.33</time>
<name>2007</name>
<sym>Dot</sym>
</trkpt>
<trkpt lat="42.871140" lon="-2.114863">
<ele>1605.5</ele>
<desc>Speed 0.3 km/h Distance 7.30 km</desc>
<time>2013-07-05T18:04:27.32</time>
<name>2008</name>
<sym>Dot</sym>
</trkpt>
<trkpt lat="42.871140" lon="-2.114863">
<ele>1605.5</ele>
<desc>Speed 0.0 km/h Distance 7.30 km</desc>
<time>2013-07-05T18:04:28.30</time>
<name>2009</name>
<sym>Dot</sym>
</trkpt>
<trkpt lat="42.871140" lon="-2.114863">
<ele>1605.5</ele>
<desc>Speed 0.1 km/h Distance 7.30 km</desc>
<time>2013-07-05T18:04:29.30</time>
<name>2010</name>
<sym>Dot</sym>
</trkpt>
<trkpt lat="42.871140" lon="-2.114863">
<ele>1605.5</ele>
<desc>Speed 0.2 km/h Distance 7.30 km</desc>
<time>2013-07-05T18:04:30.30</time>
<name>2011</name>
<sym>Dot</sym>
</trkpt>
<trkpt lat="42.871140" lon="-2.114863">
<ele>1605.5</ele>
<desc>Speed 0.2 km/h Distance 7.30 km</desc>
<time>2013-07-05T18:04:31.28</time>
<name>2012</name>
<sym>Dot</sym>
</trkpt>
<trkpt lat="42.871140" lon="-2.114863">
<ele>1605.5</ele>
<desc>Speed 0.1 km/h Distance 7.30 km</desc>
<time>2013-07-05T18:04:32.27</time>
<name>2013</name>
<sym>Dot</sym>
</trkpt>
<trkpt lat="42.871140" lon="-2.114863">
<ele>1605.5</ele>
<desc>Speed 0.1 km/h Distance 7.30 km</desc>
<time>2013-07-05T18:04:33.26</time>
<name>2014</name>
<sym>Dot</sym>
</trkpt>
<trkpt lat="42.871140" lon="-2.114863">
<ele>1605.5</ele>
<desc>Speed 0.2 km/h Distance 7.30 km</desc>
<time>2013-07-05T18:04:34.26</time>
<name>2015</name>
<sym>Dot</sym>
</trkpt>
<trkpt lat="42.871140" lon="-2.114863">
<ele>1605.5</ele>
<desc>Speed 0.1 km/h Distance 7.30 km</desc>
<time>2013-07-05T18:04:35.25</time>
<name>2016</name>
<sym>Dot</sym>
</trkpt>
<trkpt lat="42.871140" lon="-2.114863">
<ele>1605.5</ele>
<desc>Speed 0.2 km/h Distance 7.30 km</desc>
<time>2013-07-05T18:04:36.24</time>
<name>2017</name>
<sym>Dot</sym>
</trkpt>
<trkpt lat="42.871140" lon="-2.114863">
<ele>1605.5</ele>
<desc>Speed 0.1 km/h Distance 7.30 km</desc>
<time>2013-07-05T18:04:37.23</time>
<name>2018</name>
<sym>Dot</sym>
</trkpt>
<trkpt lat="42.871140" lon="-2.114863">
<ele>1605.5</ele>
<desc>Speed 0.0 km/h Distance 7.30 km</desc>
<time>2013-07-05T18:04:38.22</time>
<name>2019</name>
<sym>Dot</sym>
</trkpt>
<trkpt lat="42.871140" lon="-2.114863">
<ele>1605.5</ele>
<desc>Speed 0.3 km/h Distance 7.30 km</desc>
<time>2013-07-05T18:04:39.21</time>
<name>2020</name>
<sym>Dot</sym>
</trkpt>
<trkpt lat="42.871140" lon="-2.114863">
<ele>1605.5</ele>
<desc>Speed 0.1 km/h Distance 7.30 km</desc>
<time>2013-07-05T18:04:40.20</time>
<name>2021</name>
<sym>Dot</sym>
</trkpt>
<trkpt lat="42.871138" lon="-2.114862">
<ele>1606.5</ele>
<desc>Speed 1.3 km/h Distance 7.30 km</desc>
<time>2013-07-05T18:04:41.20</time>
<name>2022</name>
<sym>Dot</sym>
</trkpt>
<trkpt lat="42.871138" lon="-2.114857">
<ele>1606.0</ele>
<desc>Speed 1.8 km/h Distance 7.30 km</desc>
<time>2013-07-05T18:04:42.19</time>
<name>2023</name>
<sym>Dot</sym>
</trkpt>
<trkpt lat="42.871140" lon="-2.114860">
<ele>1606.5</ele>
<desc>Speed 1.0 km/h Distance 7.30 km</desc>
<time>2013-07-05T18:04:43.18</time>
<name>2024</name>
<sym>Dot</sym>
</trkpt>
<trkpt lat="42.871142" lon="-2.114862">
<ele>1606.5</ele>
<desc>Speed 0.7 km/h Distance 7.30 km</desc>
<time>2013-07-05T18:04:44.17</time>
<name>2025</name>
<sym>Dot</sym>
</trkpt>
<trkpt lat="42.871143" lon="-2.114860">
<ele>1606.0</ele>
<desc>Speed 0.8 km/h Distance 7.30 km</desc>
<time>2013-07-05T18:04:45.17</time>
<name>2026</name>
<sym>Dot</sym>
</trkpt>
<trkpt lat="42.871143" lon="-2.114860">
<ele>1606.0</ele>
<desc>Speed 0.1 km/h Distance 7.30 km</desc>
<time>2013-07-05T18:04:46.21</time>
<name>2027</name>
<sym>Dot</sym>
</trkpt>
<trkpt lat="42.871143" lon="-2.114860">
<ele>1606.0</ele>
<desc>Speed 0.1 km/h Distance 7.30 km</desc>
<time>2013-07-05T18:04:47.17</time>
<name>2028</name>
<sym>Dot</sym>
</trkpt>
<trkpt lat="42.871143" lon="-2.114860">
<ele>1605.5</ele>
<desc>Speed 0.1 km/h Distance 7.30 km</desc>
<time>2013-07-05T18:04:48.16</time>
<name>2029</name>
<sym>Dot</sym>
</trkpt>
<trkpt lat="42.871143" lon="-2.114860">
<ele>1605.5</ele>
<desc>Speed 0.1 km/h Distance 7.30 km</desc>
<time>2013-07-05T18:04:49.15</time>
<name>2030</name>
<sym>Dot</sym>
</trkpt>
<trkpt lat="42.871143" lon="-2.114860">
<ele>1605.5</ele>
<desc>Speed 0.2 km/h Distance 7.30 km</desc>
<time>2013-07-05T18:04:50.13</time>
<name>2031</name>
<sym>Dot</sym>
</trkpt>
<trkpt lat="42.871143" lon="-2.114860">
<ele>1605.5</ele>
<desc>Speed 0.0 km/h Distance 7.30 km</desc>
<time>2013-07-05T18:04:51.13</time>
<name>2032</name>
<sym>Dot</sym>
</trkpt>
<trkpt lat="42.871143" lon="-2.114860">
<ele>1605.5</ele>
<desc>Speed 0.2 km/h Distance 7.30 km</desc>
<time>2013-07-05T18:04:52.13</time>
<name>2033</name>
<sym>Dot</sym>
</trkpt>
<trkpt lat="42.871143" lon="-2.114860">
<ele>1605.5</ele>
<desc>Speed 0.6 km/h Distance 7.30 km</desc>
<time>2013-07-05T18:04:53.12</time>
<name>2034</name>
<sym>Dot</sym>
</trkpt>
<trkpt lat="42.871143" lon="-2.114858">
<ele>1605.5</ele>
<desc>Speed 0.4 km/h Distance 7.30 km</desc>
<time>2013-07-05T18:04:54.12</time>
<name>2035</name>
<sym>Dot</sym>
</trkpt>
<trkpt lat="42.871143" lon="-2.114858">
<ele>1605.5</ele>
<desc>Speed 0.1 km/h Distance 7.30 km</desc>
<time>2013-07-05T18:04:55.11</time>
<name>2036</name>
<sym>Dot</sym>
</trkpt>
<trkpt lat="42.871143" lon="-2.114858">
<ele>1605.0</ele>
<desc>Speed 0.0 km/h Distance 7.30 km</desc>
<time>2013-07-05T18:04:56.09</time>
<name>2037</name>
<sym>Dot</sym>
</trkpt>
<trkpt lat="42.871145" lon="-2.114858">
<ele>1605.0</ele>
<desc>Speed 0.3 km/h Distance 7.30 km</desc>
<time>2013-07-05T18:04:57.09</time>
<name>2038</name>
<sym>Dot</sym>
</trkpt>
<trkpt lat="42.871145" lon="-2.114858">
<ele>1605.0</ele>
<desc>Speed 0.1 km/h Distance 7.30 km</desc>
<time>2013-07-05T18:04:58.08</time>
<name>2039</name>
<sym>Dot</sym>
</trkpt>
<trkpt lat="42.871145" lon="-2.114858">
<ele>1605.0</ele>
<desc>Speed 0.3 km/h Distance 7.30 km</desc>
<time>2013-07-05T18:04:59.06</time>
<name>2040</name>
<sym>Dot</sym>
</trkpt>
<trkpt lat="42.871145" lon="-2.114858">
<ele>1605.0</ele>
<desc>Speed 0.2 km/h Distance 7.30 km</desc>
<time>2013-07-05T18:05:00.05</time>
<name>2041</name>
<sym>Dot</sym>
</trkpt>
<trkpt lat="42.871145" lon="-2.114858">
<ele>1605.0</ele>
<desc>Speed 0.0 km/h Distance 7.30 km</desc>
<time>2013-07-05T18:05:01.05</time>
<name>2042</name>
<sym>Dot</sym>
</trkpt>
<trkpt lat="42.871145" lon="-2.114858">
<ele>1605.0</ele>
<desc>Speed 0.0 km/h Distance 7.30 km</desc>
<time>2013-07-05T18:05:02.04</time>
<name>2043</name>
<sym>Dot</sym>
</trkpt>
<trkpt lat="42.871145" lon="-2.114858">
<ele>1605.0</ele>
<desc>Speed 0.7 km/h Distance 7.30 km</desc>
<time>2013-07-05T18:05:03.04</time>
<name>2044</name>
<sym>Dot</sym>
</trkpt>
<trkpt lat="42.871143" lon="-2.114858">
<ele>1605.0</ele>
<desc>Speed 0.1 km/h Distance 7.30 km</desc>
<time>2013-07-05T18:05:04.04</time>
<name>2045</name>
<sym>Dot</sym>
</trkpt>
<trkpt lat="42.871143" lon="-2.114858">
<ele>1605.0</ele>
<desc>Speed 0.1 km/h Distance 7.30 km</desc>
<time>2013-07-05T18:05:05.02</time>
<name>2046</name>
<sym>Dot</sym>
</trkpt>
<trkpt lat="42.871143" lon="-2.114858">
<ele>1605.0</ele>
<desc>Speed 0.0 km/h Distance 7.30 km</desc>
<time>2013-07-05T18:05:06.02</time>
<name>2047</name>
<sym>Dot</sym>
</trkpt>
<trkpt lat="42.871143" lon="-2.114858">
<ele>1605.0</ele>
<desc>Speed 0.3 km/h Distance 7.30 km</desc>
<time>2013-07-05T18:05:07.03</time>
<name>2048</name>
<sym>Dot</sym>
</trkpt>
<trkpt lat="42.871145" lon="-2.114862">
<ele>1605.5</ele>
<desc>Speed 0.8 km/h Distance 7.30 km</desc>
<time>2013-07-05T18:05:08.01</time>
<name>2049</name>
<sym>Dot</sym>
</trkpt>
<trkpt lat="42.871147" lon="-2.114863">
<ele>1605.5</ele>
<desc>Speed 0.3 km/h Distance 7.30 km</desc>
<time>2013-07-05T18:05:09.00</time>
<name>2050</name>
<sym>Dot</sym>
</trkpt>
<trkpt lat="42.871148" lon="-2.114865">
<ele>1605.5</ele>
<desc>Speed 0.1 km/h Distance 7.30 km</desc>
<time>2013-07-05T18:05:09.99</time>
<name>2051</name>
<sym>Dot</sym>
</trkpt>
<trkpt lat="42.871150" lon="-2.114865">
<ele>1606.0</ele>
<desc>Speed 0.2 km/h Distance 7.30 km</desc>
<time>2013-07-05T18:05:10.98</time>
<name>2052</name>
<sym>Dot</sym>
</trkpt>
<trkpt lat="42.871150" lon="-2.114867">
<ele>1606.0</ele>
<desc>Speed 0.1 km/h Distance 7.30 km</desc>
<time>2013-07-05T18:05:11.97</time>
<name>2053</name>
<sym>Dot</sym>
</trkpt>
<trkpt lat="42.871152" lon="-2.114867">
<ele>1606.0</ele>
<desc>Speed 0.0 km/h Distance 7.30 km</desc>
<time>2013-07-05T18:05:12.97</time>
<name>2054</name>
<sym>Dot</sym>
</trkpt>
<trkpt lat="42.871153" lon="-2.114867">
<ele>1606.5</ele>
<desc>Speed 0.0 km/h Distance 7.30 km</desc>
<time>2013-07-05T18:05:13.96</time>
<name>2055</name>
<sym>Dot</sym>
</trkpt>
<trkpt lat="42.871155" lon="-2.114867">
<ele>1606.5</ele>
<desc>Speed 0.1 km/h Distance 7.30 km</desc>
<time>2013-07-05T18:05:14.95</time>
<name>2056</name>
<sym>Dot</sym>
</trkpt>
<trkpt lat="42.871155" lon="-2.114868">
<ele>1606.5</ele>
<desc>Speed 0.1 km/h Distance 7.30 km</desc>
<time>2013-07-05T18:05:15.94</time>
<name>2057</name>
<sym>Dot</sym>
</trkpt>
<trkpt lat="42.871157" lon="-2.114868">
<ele>1606.5</ele>
<desc>Speed 0.2 km/h Distance 7.30 km</desc>
<time>2013-07-05T18:05:16.93</time>
<name>2058</name>
<sym>Dot</sym>
</trkpt>
<trkpt lat="42.871157" lon="-2.114868">
<ele>1607.0</ele>
<desc>Speed 0.2 km/h Distance 7.30 km</desc>
<time>2013-07-05T18:05:17.92</time>
<name>2059</name>
<sym>Dot</sym>
</trkpt>
<trkpt lat="42.871157" lon="-2.114868">
<ele>1607.0</ele>
<desc>Speed 0.1 km/h Distance 7.30 km</desc>
<time>2013-07-05T18:05:18.91</time>
<name>2060</name>
<sym>Dot</sym>
</trkpt>
<trkpt lat="42.871162" lon="-2.114867">
<ele>1607.0</ele>
<desc>Speed 1.7 km/h Distance 7.30 km</desc>
<time>2013-07-05T18:05:19.91</time>
<name>2061</name>
<sym>Dot</sym>
</trkpt>
<trkpt lat="42.871172" lon="-2.114865">
<ele>1606.5</ele>
<desc>Speed 3.8 km/h Distance 7.30 km</desc>
<time>2013-07-05T18:05:20.90</time>
<name>2062</name>
<sym>Dot</sym>
</trkpt>
<trkpt lat="42.871182" lon="-2.114863">
<ele>1606.5</ele>
<desc>Speed 3.7 km/h Distance 7.30 km</desc>
<time>2013-07-05T18:05:21.90</time>
<name>2063</name>
<sym>Dot</sym>
</trkpt>
<trkpt lat="42.871190" lon="-2.114862">
<ele>1606.5</ele>
<desc>Speed 3.1 km/h Distance 7.30 km</desc>
<time>2013-07-05T18:05:22.89</time>
<name>2064</name>
<sym>Dot</sym>
</trkpt>
<trkpt lat="42.871195" lon="-2.114862">
<ele>1606.5</ele>
<desc>Speed 2.2 km/h Distance 7.31 km</desc>
<time>2013-07-05T18:05:23.88</time>
<name>2065</name>
<sym>Dot</sym>
</trkpt>
<trkpt lat="42.871200" lon="-2.114860">
<ele>1606.5</ele>
<desc>Speed 2.2 km/h Distance 7.31 km</desc>
<time>2013-07-05T18:05:24.87</time>
<name>2066</name>
<sym>Dot</sym>
</trkpt>
<trkpt lat="42.871205" lon="-2.114862">
<ele>1606.5</ele>
<desc>Speed 1.8 km/h Distance 7.31 km</desc>
<time>2013-07-05T18:05:25.86</time>
<name>2067</name>
<sym>Dot</sym>
</trkpt>
<trkpt lat="42.871208" lon="-2.114860">
<ele>1606.0</ele>
<desc>Speed 1.5 km/h Distance 7.31 km</desc>
<time>2013-07-05T18:05:26.86</time>
<name>2068</name>
<sym>Dot</sym>
</trkpt>
<trkpt lat="42.871212" lon="-2.114862">
<ele>1606.0</ele>
<desc>Speed 1.1 km/h Distance 7.31 km</desc>
<time>2013-07-05T18:05:27.85</time>
<name>2069</name>
<sym>Dot</sym>
</trkpt>
<trkpt lat="42.871213" lon="-2.114857">
<ele>1606.0</ele>
<desc>Speed 1.4 km/h Distance 7.31 km</desc>
<time>2013-07-05T18:05:28.84</time>
<name>2070</name>
<sym>Dot</sym>
</trkpt>
<trkpt lat="42.871215" lon="-2.114857">
<ele>1606.0</ele>
<desc>Speed 0.0 km/h Distance 7.31 km</desc>
<time>2013-07-05T18:05:29.83</time>
<name>2071</name>
<sym>Dot</sym>
</trkpt>
<trkpt lat="42.871218" lon="-2.114858">
<ele>1606.0</ele>
<desc>Speed 1.3 km/h Distance 7.31 km</desc>
<time>2013-07-05T18:05:30.83</time>
<name>2072</name>
<sym>Dot</sym>
</trkpt>
<trkpt lat="42.871218" lon="-2.114858">
<ele>1606.0</ele>
<desc>Speed 0.1 km/h Distance 7.31 km</desc>
<time>2013-07-05T18:05:31.82</time>
<name>2073</name>
<sym>Dot</sym>
</trkpt>
<trkpt lat="42.871218" lon="-2.114858">
<ele>1606.5</ele>
<desc>Speed 0.5 km/h Distance 7.31 km</desc>
<time>2013-07-05T18:05:32.81</time>
<name>2074</name>
<sym>Dot</sym>
</trkpt>
<trkpt lat="42.871218" lon="-2.114858">
<ele>1606.5</ele>
<desc>Speed 0.1 km/h Distance 7.31 km</desc>
<time>2013-07-05T18:05:33.80</time>
<name>2075</name>
<sym>Dot</sym>
</trkpt>
<trkpt lat="42.871220" lon="-2.114857">
<ele>1606.5</ele>
<desc>Speed 0.8 km/h Distance 7.31 km</desc>
<time>2013-07-05T18:05:34.79</time>
<name>2076</name>
<sym>Dot</sym>
</trkpt>
<trkpt lat="42.871220" lon="-2.114855">
<ele>1606.0</ele>
<desc>Speed 0.4 km/h Distance 7.31 km</desc>
<time>2013-07-05T18:05:35.78</time>
<name>2077</name>
<sym>Dot</sym>
</trkpt>
<trkpt lat="42.871220" lon="-2.114855">
<ele>1606.0</ele>
<desc>Speed 0.6 km/h Distance 7.31 km</desc>
<time>2013-07-05T18:05:36.77</time>
<name>2078</name>
<sym>Dot</sym>
</trkpt>
<trkpt lat="42.871220" lon="-2.114855">
<ele>1606.0</ele>
<desc>Speed 0.5 km/h Distance 7.31 km</desc>
<time>2013-07-05T18:05:37.77</time>
<name>2079</name>
<sym>Dot</sym>
</trkpt>
<trkpt lat="42.871220" lon="-2.114855">
<ele>1606.0</ele>
<desc>Speed 0.2 km/h Distance 7.31 km</desc>
<time>2013-07-05T18:05:38.77</time>
<name>2080</name>
<sym>Dot</sym>
</trkpt>
<trkpt lat="42.871220" lon="-2.114853">
<ele>1606.0</ele>
<desc>Speed 0.2 km/h Distance 7.31 km</desc>
<time>2013-07-05T18:05:39.76</time>
<name>2081</name>
<sym>Dot</sym>
</trkpt>
<trkpt lat="42.871220" lon="-2.114853">
<ele>1606.0</ele>
<desc>Speed 0.3 km/h Distance 7.31 km</desc>
<time>2013-07-05T18:05:40.74</time>
<name>2082</name>
<sym>Dot</sym>
</trkpt>
<trkpt lat="42.871220" lon="-2.114853">
<ele>1606.0</ele>
<desc>Speed 0.2 km/h Distance 7.31 km</desc>
<time>2013-07-05T18:05:41.74</time>
<name>2083</name>
<sym>Dot</sym>
</trkpt>
<trkpt lat="42.871220" lon="-2.114853">
<ele>1606.0</ele>
<desc>Speed 0.1 km/h Distance 7.31 km</desc>
<time>2013-07-05T18:05:42.73</time>
<name>2084</name>
<sym>Dot</sym>
</trkpt>
<trkpt lat="42.871222" lon="-2.114853">
<ele>1606.0</ele>
<desc>Speed 0.2 km/h Distance 7.31 km</desc>
<time>2013-07-05T18:05:43.72</time>
<name>2085</name>
<sym>Dot</sym>
</trkpt>
<trkpt lat="42.871222" lon="-2.114853">
<ele>1606.0</ele>
<desc>Speed 0.1 km/h Distance 7.31 km</desc>
<time>2013-07-05T18:05:44.72</time>
<name>2086</name>
<sym>Dot</sym>
</trkpt>
<trkpt lat="42.871222" lon="-2.114853">
<ele>1606.0</ele>
<desc>Speed 0.4 km/h Distance 7.31 km</desc>
<time>2013-07-05T18:05:45.72</time>
<name>2087</name>
<sym>Dot</sym>
</trkpt>
<trkpt lat="42.871222" lon="-2.114848">
<ele>1606.0</ele>
<desc>Speed 1.2 km/h Distance 7.31 km</desc>
<time>2013-07-05T18:05:46.71</time>
<name>2088</name>
<sym>Dot</sym>
</trkpt>
<trkpt lat="42.871218" lon="-2.114847">
<ele>1606.5</ele>
<desc>Speed 0.8 km/h Distance 7.31 km</desc>
<time>2013-07-05T18:05:47.71</time>
<name>2089</name>
<sym>Dot</sym>
</trkpt>
<trkpt lat="42.871218" lon="-2.114850">
<ele>1606.5</ele>
<desc>Speed 1.0 km/h Distance 7.31 km</desc>
<time>2013-07-05T18:05:48.71</time>
<name>2090</name>
<sym>Dot</sym>
</trkpt>
<trkpt lat="42.871220" lon="-2.114850">
<ele>1606.5</ele>
<desc>Speed 0.3 km/h Distance 7.31 km</desc>
<time>2013-07-05T18:05:49.70</time>
<name>2091</name>
<sym>Dot</sym>
</trkpt>
<trkpt lat="42.871220" lon="-2.114850">
<ele>1606.5</ele>
<desc>Speed 0.4 km/h Distance 7.31 km</desc>
<time>2013-07-05T18:05:50.68</time>
<name>2092</name>
<sym>Dot</sym>
</trkpt>
<trkpt lat="42.871220" lon="-2.114850">
<ele>1606.5</ele>
<desc>Speed 0.1 km/h Distance 7.31 km</desc>
<time>2013-07-05T18:05:51.67</time>
<name>2093</name>
<sym>Dot</sym>
</trkpt>
<trkpt lat="42.871218" lon="-2.114852">
<ele>1606.5</ele>
<desc>Speed 1.2 km/h Distance 7.31 km</desc>
<time>2013-07-05T18:05:52.66</time>
<name>2094</name>
<sym>Dot</sym>
</trkpt>
<trkpt lat="42.871223" lon="-2.114847">
<ele>1606.0</ele>
<desc>Speed 2.2 km/h Distance 7.31 km</desc>
<time>2013-07-05T18:05:53.65</time>
<name>2095</name>
<sym>Dot</sym>
</trkpt>
<trkpt lat="42.871227" lon="-2.114838">
<ele>1606.0</ele>
<desc>Speed 2.4 km/h Distance 7.31 km</desc>
<time>2013-07-05T18:05:54.64</time>
<name>2096</name>
<sym>Dot</sym>
</trkpt>
<trkpt lat="42.871228" lon="-2.114837">
<ele>1606.5</ele>
<desc>Speed 0.7 km/h Distance 7.31 km</desc>
<time>2013-07-05T18:05:55.64</time>
<name>2097</name>
<sym>Dot</sym>
</trkpt>
<trkpt lat="42.871228" lon="-2.114837">
<ele>1606.0</ele>
<desc>Speed 0.6 km/h Distance 7.31 km</desc>
<time>2013-07-05T18:05:56.62</time>
<name>2098</name>
<sym>Dot</sym>
</trkpt>
<trkpt lat="42.871233" lon="-2.114835">
<ele>1605.5</ele>
<desc>Speed 1.9 km/h Distance 7.31 km</desc>
<time>2013-07-05T18:05:57.62</time>
<name>2099</name>
<sym>Dot</sym>
</trkpt>
<trkpt lat="42.871232" lon="-2.114838">
<ele>1605.5</ele>
<desc>Speed 1.1 km/h Distance 7.31 km</desc>
<time>2013-07-05T18:05:58.60</time>
<name>2100</name>
<sym>Dot</sym>
</trkpt>
<trkpt lat="42.871222" lon="-2.114842">
<ele>1605.5</ele>
<desc>Speed 4.4 km/h Distance 7.31 km</desc>
<time>2013-07-05T18:05:59.59</time>
<name>2101</name>
<sym>Dot</sym>
</trkpt>
<trkpt lat="42.871212" lon="-2.114840">
<ele>1606.0</ele>
<desc>Speed 3.7 km/h Distance 7.32 km</desc>
<time>2013-07-05T18:06:00.58</time>
<name>2102</name>
<sym>Dot</sym>
</trkpt>
<trkpt lat="42.871212" lon="-2.114842">
<ele>1606.0</ele>
<desc>Speed 0.9 km/h Distance 7.32 km</desc>
<time>2013-07-05T18:06:01.57</time>
<name>2103</name>
<sym>Dot</sym>
</trkpt>
<trkpt lat="42.871278" lon="-2.114810">
<ele>1607.0</ele>
<desc>Speed 15.2 km/h Distance 7.32 km</desc>
<time>2013-07-05T18:06:03.57</time>
<name>2104</name>
<sym>Dot</sym>
</trkpt>
<trkpt lat="42.871313" lon="-2.114795">
<ele>1606.0</ele>
<desc>Speed 14.1 km/h Distance 7.33 km</desc>
<time>2013-07-05T18:06:04.56</time>
<name>2105</name>
<sym>Dot</sym>
</trkpt>
<trkpt lat="42.871357" lon="-2.114778">
<ele>1605.5</ele>
<desc>Speed 17.1 km/h Distance 7.33 km</desc>
<time>2013-07-05T18:06:05.55</time>
<name>2106</name>
<sym>Dot</sym>
</trkpt>
<trkpt lat="42.871400" lon="-2.114768">
<ele>1605.0</ele>
<desc>Speed 16.9 km/h Distance 7.34 km</desc>
<time>2013-07-05T18:06:06.54</time>
<name>2107</name>
<sym>Dot</sym>
</trkpt>
<trkpt lat="42.871428" lon="-2.114760">
<ele>1605.0</ele>
<desc>Speed 11.3 km/h Distance 7.34 km</desc>
<time>2013-07-05T18:06:07.53</time>
<name>2108</name>
<sym>Dot</sym>
</trkpt>
<trkpt lat="42.871467" lon="-2.114772">
<ele>1605.0</ele>
<desc>Speed 15.6 km/h Distance 7.35 km</desc>
<time>2013-07-05T18:06:08.52</time>
<name>2109</name>
<sym>Dot</sym>
</trkpt>
<trkpt lat="42.871502" lon="-2.114740">
<ele>1605.0</ele>
<desc>Speed 16.9 km/h Distance 7.35 km</desc>
<time>2013-07-05T18:06:09.51</time>
<name>2110</name>
<sym>Dot</sym>
</trkpt>
<trkpt lat="42.871537" lon="-2.114688">
<ele>1603.5</ele>
<desc>Speed 20.5 km/h Distance 7.36 km</desc>
<time>2013-07-05T18:06:10.51</time>
<name>2111</name>
<sym>Dot</sym>
</trkpt>
<trkpt lat="42.871493" lon="-2.114155">
<ele>1603.5</ele>
<desc>Speed 44.6 km/h Distance 7.40 km</desc>
<time>2013-07-05T18:06:21.21</time>
<name>2112</name>
<sym>Dot</sym>
</trkpt>
<trkpt lat="42.871602" lon="-2.114082">
<ele>1605.0</ele>
<desc>Speed 10.7 km/h Distance 7.41 km</desc>
<time>2013-07-05T18:06:26.21</time>
<name>2113</name>
<sym>Dot</sym>
</trkpt>
<trkpt lat="42.871793" lon="-2.114155">
<ele>1602.5</ele>
<desc>Speed 31.7 km/h Distance 7.43 km</desc>
<time>2013-07-05T18:06:29.20</time>
<name>2114</name>
<sym>Dot</sym>
</trkpt>
<trkpt lat="42.871865" lon="-2.114113">
<ele>1604.0</ele>
<desc>Speed 35.5 km/h Distance 7.44 km</desc>
<time>2013-07-05T18:06:30.20</time>
<name>2115</name>
<sym>Dot</sym>
</trkpt>
<trkpt lat="42.871922" lon="-2.114025">
<ele>1603.0</ele>
<desc>Speed 33.5 km/h Distance 7.45 km</desc>
<time>2013-07-05T18:06:31.19</time>
<name>2116</name>
<sym>Dot</sym>
</trkpt>
<trkpt lat="42.871948" lon="-2.113910">
<ele>1603.0</ele>
<desc>Speed 36.6 km/h Distance 7.46 km</desc>
<time>2013-07-05T18:06:32.18</time>
<name>2117</name>
<sym>Dot</sym>
</trkpt>
<trkpt lat="42.871953" lon="-2.113782">
<ele>1601.0</ele>
<desc>Speed 40.4 km/h Distance 7.47 km</desc>
<time>2013-07-05T18:06:33.18</time>
<name>2118</name>
<sym>Dot</sym>
</trkpt>
<trkpt lat="42.872000" lon="-2.113498">
<ele>1600.5</ele>
<desc>Speed 41.9 km/h Distance 7.50 km</desc>
<time>2013-07-05T18:06:35.17</time>
<name>2119</name>
<sym>Dot</sym>
</trkpt>
<trkpt lat="42.872040" lon="-2.113375">
<ele>1600.5</ele>
<desc>Speed 39.5 km/h Distance 7.51 km</desc>
<time>2013-07-05T18:06:36.16</time>
<name>2120</name>
<sym>Dot</sym>
</trkpt>
<trkpt lat="42.872065" lon="-2.113250">
<ele>1601.5</ele>
<desc>Speed 39.5 km/h Distance 7.52 km</desc>
<time>2013-07-05T18:06:37.15</time>
<name>2121</name>
<sym>Dot</sym>
</trkpt>
<trkpt lat="42.872052" lon="-2.113115">
<ele>1600.5</ele>
<desc>Speed 39.5 km/h Distance 7.53 km</desc>
<time>2013-07-05T18:06:38.15</time>
<name>2122</name>
<sym>Dot</sym>
</trkpt>
<trkpt lat="42.871943" lon="-2.112802">
<ele>1598.0</ele>
<desc>Speed 53.5 km/h Distance 7.56 km</desc>
<time>2013-07-05T18:06:40.14</time>
<name>2123</name>
<sym>Dot</sym>
</trkpt>
<trkpt lat="42.871908" lon="-2.112638">
<ele>1599.0</ele>
<desc>Speed 55.2 km/h Distance 7.57 km</desc>
<time>2013-07-05T18:06:41.14</time>
<name>2124</name>
<sym>Dot</sym>
</trkpt>
<trkpt lat="42.872027" lon="-2.112315">
<ele>1599.5</ele>
<desc>Speed 35.2 km/h Distance 7.60 km</desc>
<time>2013-07-05T18:06:44.17</time>
<name>2125</name>
<sym>Dot</sym>
</trkpt>
<trkpt lat="42.872040" lon="-2.112188">
<ele>1600.5</ele>
<desc>Speed 39.7 km/h Distance 7.61 km</desc>
<time>2013-07-05T18:06:45.17</time>
<name>2126</name>
<sym>Dot</sym>
</trkpt>
<trkpt lat="42.872030" lon="-2.112048">
<ele>1601.0</ele>
<desc>Speed 44.0 km/h Distance 7.62 km</desc>
<time>2013-07-05T18:06:46.16</time>
<name>2127</name>
<sym>Dot</sym>
</trkpt>
<trkpt lat="42.872027" lon="-2.111923">
<ele>1602.0</ele>
<desc>Speed 40.1 km/h Distance 7.63 km</desc>
<time>2013-07-05T18:06:47.15</time>
<name>2128</name>
<sym>Dot</sym>
</trkpt>
<trkpt lat="42.872045" lon="-2.111807">
<ele>1602.0</ele>
<desc>Speed 35.6 km/h Distance 7.64 km</desc>
<time>2013-07-05T18:06:48.15</time>
<name>2129</name>
<sym>Dot</sym>
</trkpt>
<trkpt lat="42.872083" lon="-2.111705">
<ele>1601.0</ele>
<desc>Speed 34.1 km/h Distance 7.65 km</desc>
<time>2013-07-05T18:06:49.14</time>
<name>2130</name>
<sym>Dot</sym>
</trkpt>
<trkpt lat="42.872125" lon="-2.111607">
<ele>1601.0</ele>
<desc>Speed 33.3 km/h Distance 7.66 km</desc>
<time>2013-07-05T18:06:50.14</time>
<name>2131</name>
<sym>Dot</sym>
</trkpt>
<trkpt lat="42.872168" lon="-2.111510">
<ele>1600.5</ele>
<desc>Speed 34.3 km/h Distance 7.67 km</desc>
<time>2013-07-05T18:06:51.13</time>
<name>2132</name>
<sym>Dot</sym>
</trkpt>
<trkpt lat="42.872205" lon="-2.111412">
<ele>1601.5</ele>
<desc>Speed 33.5 km/h Distance 7.68 km</desc>
<time>2013-07-05T18:06:52.13</time>
<name>2133</name>
<sym>Dot</sym>
</trkpt>
<trkpt lat="42.872232" lon="-2.111320">
<ele>1601.5</ele>
<desc>Speed 30.6 km/h Distance 7.69 km</desc>
<time>2013-07-05T18:06:53.12</time>
<name>2134</name>
<sym>Dot</sym>
</trkpt>
<trkpt lat="42.872263" lon="-2.111233">
<ele>1601.0</ele>
<desc>Speed 28.6 km/h Distance 7.70 km</desc>
<time>2013-07-05T18:06:54.12</time>
<name>2135</name>
<sym>Dot</sym>
</trkpt>
<trkpt lat="42.872298" lon="-2.111132">
<ele>1599.5</ele>
<desc>Speed 32.1 km/h Distance 7.71 km</desc>
<time>2013-07-05T18:06:55.11</time>
<name>2136</name>
<sym>Dot</sym>
</trkpt>
<trkpt lat="42.872385" lon="-2.110870">
<ele>1597.0</ele>
<desc>Speed 43.9 km/h Distance 7.73 km</desc>
<time>2013-07-05T18:06:57.11</time>
<name>2137</name>
<sym>Dot</sym>
</trkpt>
<trkpt lat="42.872413" lon="-2.110715">
<ele>1597.5</ele>
<desc>Speed 47.3 km/h Distance 7.74 km</desc>
<time>2013-07-05T18:06:58.10</time>
<name>2138</name>
<sym>Dot</sym>
</trkpt>
<trkpt lat="42.872528" lon="-2.110338">
<ele>1598.5</ele>
<desc>Speed 25.1 km/h Distance 7.77 km</desc>
<time>2013-07-05T18:07:02.15</time>
<name>2139</name>
<sym>Dot</sym>
</trkpt>
<trkpt lat="42.872565" lon="-2.110263">
<ele>1597.5</ele>
<desc>Speed 27.0 km/h Distance 7.78 km</desc>
<time>2013-07-05T18:07:03.15</time>
<name>2140</name>
<sym>Dot</sym>
</trkpt>
<trkpt lat="42.872605" lon="-2.110183">
<ele>1596.5</ele>
<desc>Speed 29.8 km/h Distance 7.79 km</desc>
<time>2013-07-05T18:07:04.13</time>
<name>2141</name>
<sym>Dot</sym>
</trkpt>
<trkpt lat="42.872648" lon="-2.110097">
<ele>1596.0</ele>
<desc>Speed 31.4 km/h Distance 7.80 km</desc>
<time>2013-07-05T18:07:05.12</time>
<name>2142</name>
<sym>Dot</sym>
</trkpt>
<trkpt lat="42.872687" lon="-2.110000">
<ele>1596.5</ele>
<desc>Speed 32.9 km/h Distance 7.81 km</desc>
<time>2013-07-05T18:07:06.12</time>
<name>2143</name>
<sym>Dot</sym>
</trkpt>
<trkpt lat="42.872702" lon="-2.109882">
<ele>1595.5</ele>
<desc>Speed 35.6 km/h Distance 7.82 km</desc>
<time>2013-07-05T18:07:07.11</time>
<name>2144</name>
<sym>Dot</sym>
</trkpt>
<trkpt lat="42.872713" lon="-2.109760">
<ele>1595.5</ele>
<desc>Speed 35.9 km/h Distance 7.83 km</desc>
<time>2013-07-05T18:07:08.11</time>
<name>2145</name>
<sym>Dot</sym>
</trkpt>
<trkpt lat="42.872727" lon="-2.109640">
<ele>1595.5</ele>
<desc>Speed 35.7 km/h Distance 7.84 km</desc>
<time>2013-07-05T18:07:09.09</time>
<name>2146</name>
<sym>Dot</sym>
</trkpt>
<trkpt lat="42.872752" lon="-2.109530">
<ele>1595.5</ele>
<desc>Speed 34.1 km/h Distance 7.85 km</desc>
<time>2013-07-05T18:07:10.09</time>
<name>2147</name>
<sym>Dot</sym>
</trkpt>
<trkpt lat="42.872795" lon="-2.109438">
<ele>1597.5</ele>
<desc>Speed 31.9 km/h Distance 7.86 km</desc>
<time>2013-07-05T18:07:11.08</time>
<name>2148</name>
<sym>Dot</sym>
</trkpt>
<trkpt lat="42.872830" lon="-2.109340">
<ele>1598.5</ele>
<desc>Speed 32.3 km/h Distance 7.86 km</desc>
<time>2013-07-05T18:07:12.07</time>
<name>2149</name>
<sym>Dot</sym>
</trkpt>
<trkpt lat="42.872850" lon="-2.109245">
<ele>1598.5</ele>
<desc>Speed 29.9 km/h Distance 7.87 km</desc>
<time>2013-07-05T18:07:13.06</time>
<name>2150</name>
<sym>Dot</sym>
</trkpt>
<trkpt lat="42.872865" lon="-2.109153">
<ele>1598.0</ele>
<desc>Speed 27.5 km/h Distance 7.88 km</desc>
<time>2013-07-05T18:07:14.06</time>
<name>2151</name>
<sym>Dot</sym>
</trkpt>
<trkpt lat="42.872877" lon="-2.109068">
<ele>1598.0</ele>
<desc>Speed 25.4 km/h Distance 7.89 km</desc>
<time>2013-07-05T18:07:15.05</time>
<name>2152</name>
<sym>Dot</sym>
</trkpt>
<trkpt lat="42.872883" lon="-2.108998">
<ele>1598.0</ele>
<desc>Speed 21.1 km/h Distance 7.89 km</desc>
<time>2013-07-05T18:07:16.05</time>
<name>2153</name>
<sym>Dot</sym>
</trkpt>
<trkpt lat="42.872902" lon="-2.108933">
<ele>1599.0</ele>
<desc>Speed 20.7 km/h Distance 7.90 km</desc>
<time>2013-07-05T18:07:17.03</time>
<name>2154</name>
<sym>Dot</sym>
</trkpt>
<trkpt lat="42.872920" lon="-2.108860">
<ele>1599.0</ele>
<desc>Speed 22.8 km/h Distance 7.91 km</desc>
<time>2013-07-05T18:07:18.03</time>
<name>2155</name>
<sym>Dot</sym>
</trkpt>
<trkpt lat="42.872932" lon="-2.108768">
<ele>1599.0</ele>
<desc>Speed 28.2 km/h Distance 7.91 km</desc>
<time>2013-07-05T18:07:19.02</time>
<name>2156</name>
<sym>Dot</sym>
</trkpt>
<trkpt lat="42.872935" lon="-2.108662">
<ele>1599.0</ele>
<desc>Speed 32.5 km/h Distance 7.92 km</desc>
<time>2013-07-05T18:07:20.01</time>
<name>2157</name>
<sym>Dot</sym>
</trkpt>
<trkpt lat="42.872933" lon="-2.108550">
<ele>1599.5</ele>
<desc>Speed 33.4 km/h Distance 7.93 km</desc>
<time>2013-07-05T18:07:21.01</time>
<name>2158</name>
<sym>Dot</sym>
</trkpt>
<trkpt lat="42.872955" lon="-2.108460">
<ele>1601.0</ele>
<desc>Speed 27.6 km/h Distance 7.94 km</desc>
<time>2013-07-05T18:07:22.00</time>
<name>2159</name>
<sym>Dot</sym>
</trkpt>
<trkpt lat="42.872992" lon="-2.108395">
<ele>1601.5</ele>
<desc>Speed 24.2 km/h Distance 7.95 km</desc>
<time>2013-07-05T18:07:22.99</time>
<name>2160</name>
<sym>Dot</sym>
</trkpt>
<trkpt lat="42.873053" lon="-2.108357">
<ele>1601.0</ele>
<desc>Speed 26.6 km/h Distance 7.95 km</desc>
<time>2013-07-05T18:07:23.98</time>
<name>2161</name>
<sym>Dot</sym>
</trkpt>
<trkpt lat="42.873113" lon="-2.108335">
<ele>1601.5</ele>
<desc>Speed 25.2 km/h Distance 7.96 km</desc>
<time>2013-07-05T18:07:24.97</time>
<name>2162</name>
<sym>Dot</sym>
</trkpt>
<trkpt lat="42.873180" lon="-2.108295">
<ele>1602.0</ele>
<desc>Speed 28.5 km/h Distance 7.97 km</desc>
<time>2013-07-05T18:07:25.96</time>
<name>2163</name>
<sym>Dot</sym>
</trkpt>
<trkpt lat="42.873235" lon="-2.108245">
<ele>1603.5</ele>
<desc>Speed 26.6 km/h Distance 7.97 km</desc>
<time>2013-07-05T18:07:26.97</time>
<name>2164</name>
<sym>Dot</sym>
</trkpt>
<trkpt lat="42.873278" lon="-2.108192">
<ele>1602.5</ele>
<desc>Speed 22.8 km/h Distance 7.98 km</desc>
<time>2013-07-05T18:07:27.95</time>
<name>2165</name>
<sym>Dot</sym>
</trkpt>
<trkpt lat="42.873325" lon="-2.108150">
<ele>1603.0</ele>
<desc>Speed 22.1 km/h Distance 7.99 km</desc>
<time>2013-07-05T18:07:28.94</time>
<name>2166</name>
<sym>Dot</sym>
</trkpt>
<trkpt lat="42.873378" lon="-2.108112">
<ele>1602.0</ele>
<desc>Speed 24.0 km/h Distance 7.99 km</desc>
<time>2013-07-05T18:07:29.95</time>
<name>2167</name>
<sym>Dot</sym>
</trkpt>
<trkpt lat="42.873437" lon="-2.108065">
<ele>1600.5</ele>
<desc>Speed 26.9 km/h Distance 8.00 km</desc>
<time>2013-07-05T18:07:30.94</time>
<name>2168</name>
<sym>Dot</sym>
</trkpt>
<trkpt lat="42.873488" lon="-2.107995">
<ele>1601.5</ele>
<desc>Speed 29.2 km/h Distance 8.01 km</desc>
<time>2013-07-05T18:07:31.94</time>
<name>2169</name>
<sym>Dot</sym>
</trkpt>
<trkpt lat="42.873587" lon="-2.107783">
<ele>1602.5</ele>
<desc>Speed 36.2 km/h Distance 8.03 km</desc>
<time>2013-07-05T18:07:33.94</time>
<name>2170</name>
<sym>Dot</sym>
</trkpt>
<trkpt lat="42.873618" lon="-2.107667">
<ele>1603.5</ele>
<desc>Speed 35.7 km/h Distance 8.04 km</desc>
<time>2013-07-05T18:07:34.92</time>
<name>2171</name>
<sym>Dot</sym>
</trkpt>
<trkpt lat="42.873642" lon="-2.107555">
<ele>1604.5</ele>
<desc>Speed 33.8 km/h Distance 8.05 km</desc>
<time>2013-07-05T18:07:35.91</time>
<name>2172</name>
<sym>Dot</sym>
</trkpt>
<trkpt lat="42.873663" lon="-2.107448">
<ele>1605.5</ele>
<desc>Speed 31.7 km/h Distance 8.06 km</desc>
<time>2013-07-05T18:07:36.92</time>
<name>2173</name>
<sym>Dot</sym>
</trkpt>
<trkpt lat="42.873683" lon="-2.107340">
<ele>1606.0</ele>
<desc>Speed 32.6 km/h Distance 8.07 km</desc>
<time>2013-07-05T18:07:37.91</time>
<name>2174</name>
<sym>Dot</sym>
</trkpt>
<trkpt lat="42.873707" lon="-2.107228">
<ele>1605.5</ele>
<desc>Speed 33.8 km/h Distance 8.08 km</desc>
<time>2013-07-05T18:07:38.89</time>
<name>2175</name>
<sym>Dot</sym>
</trkpt>
<trkpt lat="42.873728" lon="-2.106943">
<ele>1605.5</ele>
<desc>Speed 41.8 km/h Distance 8.10 km</desc>
<time>2013-07-05T18:07:40.88</time>
<name>2176</name>
<sym>Dot</sym>
</trkpt>
<trkpt lat="42.873735" lon="-2.106797">
<ele>1606.5</ele>
<desc>Speed 43.3 km/h Distance 8.11 km</desc>
<time>2013-07-05T18:07:41.88</time>
<name>2177</name>
<sym>Dot</sym>
</trkpt>
<trkpt lat="42.873740" lon="-2.106657">
<ele>1606.5</ele>
<desc>Speed 41.3 km/h Distance 8.12 km</desc>
<time>2013-07-05T18:07:42.87</time>
<name>2178</name>
<sym>Dot</sym>
</trkpt>
<trkpt lat="42.873735" lon="-2.106537">
<ele>1608.5</ele>
<desc>Speed 35.3 km/h Distance 8.13 km</desc>
<time>2013-07-05T18:07:43.86</time>
<name>2179</name>
<sym>Dot</sym>
</trkpt>
<trkpt lat="42.873717" lon="-2.106435">
<ele>1609.5</ele>
<desc>Speed 31.6 km/h Distance 8.14 km</desc>
<time>2013-07-05T18:07:44.86</time>
<name>2180</name>
<sym>Dot</sym>
</trkpt>
<trkpt lat="42.873677" lon="-2.106325">
<ele>1610.0</ele>
<desc>Speed 36.6 km/h Distance 8.15 km</desc>
<time>2013-07-05T18:07:45.85</time>
<name>2181</name>
<sym>Dot</sym>
</trkpt>
<trkpt lat="42.873525" lon="-2.106080">
<ele>1608.0</ele>
<desc>Speed 50.1 km/h Distance 8.18 km</desc>
<time>2013-07-05T18:07:47.84</time>
<name>2182</name>
<sym>Dot</sym>
</trkpt>
<trkpt lat="42.873477" lon="-2.105925">
<ele>1608.0</ele>
<desc>Speed 49.9 km/h Distance 8.19 km</desc>
<time>2013-07-05T18:07:48.83</time>
<name>2183</name>
<sym>Dot</sym>
</trkpt>
<trkpt lat="42.873460" lon="-2.105773">
<ele>1608.0</ele>
<desc>Speed 45.0 km/h Distance 8.21 km</desc>
<time>2013-07-05T18:07:49.83</time>
<name>2184</name>
<sym>Dot</sym>
</trkpt>
<trkpt lat="42.873585" lon="-2.105417">
<ele>1607.0</ele>
<desc>Speed 15.9 km/h Distance 8.24 km</desc>
<time>2013-07-05T18:07:55.06</time>
<name>2185</name>
<sym>Dot</sym>
</trkpt>
<trkpt lat="42.873630" lon="-2.105398">
<ele>1606.0</ele>
<desc>Speed 17.5 km/h Distance 8.24 km</desc>
<time>2013-07-05T18:07:56.05</time>
<name>2186</name>
<sym>Dot</sym>
</trkpt>
<trkpt lat="42.873688" lon="-2.105392">
<ele>1604.5</ele>
<desc>Speed 22.5 km/h Distance 8.25 km</desc>
<time>2013-07-05T18:07:57.06</time>
<name>2187</name>
<sym>Dot</sym>
</trkpt>
<trkpt lat="42.873753" lon="-2.105375">
<ele>1604.5</ele>
<desc>Speed 25.6 km/h Distance 8.26 km</desc>
<time>2013-07-05T18:07:58.06</time>
<name>2188</name>
<sym>Dot</sym>
</trkpt>
<trkpt lat="42.873802" lon="-2.105317">
<ele>1604.0</ele>
<desc>Speed 25.7 km/h Distance 8.26 km</desc>
<time>2013-07-05T18:07:59.04</time>
<name>2189</name>
<sym>Dot</sym>
</trkpt>
<trkpt lat="42.873845" lon="-2.105228">
<ele>1604.5</ele>
<desc>Speed 30.6 km/h Distance 8.27 km</desc>
<time>2013-07-05T18:08:00.03</time>
<name>2190</name>
<sym>Dot</sym>
</trkpt>
<trkpt lat="42.873865" lon="-2.105105">
<ele>1606.0</ele>
<desc>Speed 36.8 km/h Distance 8.28 km</desc>
<time>2013-07-05T18:08:01.03</time>
<name>2191</name>
<sym>Dot</sym>
</trkpt>
<trkpt lat="42.873853" lon="-2.104970">
<ele>1607.5</ele>
<desc>Speed 39.9 km/h Distance 8.29 km</desc>
<time>2013-07-05T18:08:02.02</time>
<name>2192</name>
<sym>Dot</sym>
</trkpt>
<trkpt lat="42.873832" lon="-2.104835">
<ele>1608.0</ele>
<desc>Speed 40.2 km/h Distance 8.31 km</desc>
<time>2013-07-05T18:08:03.03</time>
<name>2193</name>
<sym>Dot</sym>
</trkpt>
<trkpt lat="42.873815" lon="-2.104702">
<ele>1610.0</ele>
<desc>Speed 40.0 km/h Distance 8.32 km</desc>
<time>2013-07-05T18:08:04.01</time>
<name>2194</name>
<sym>Dot</sym>
</trkpt>
<trkpt lat="42.873807" lon="-2.104577">
<ele>1611.0</ele>
<desc>Speed 37.2 km/h Distance 8.33 km</desc>
<time>2013-07-05T18:08:05.01</time>
<name>2195</name>
<sym>Dot</sym>
</trkpt>
<trkpt lat="42.873805" lon="-2.104458">
<ele>1612.0</ele>
<desc>Speed 34.7 km/h Distance 8.34 km</desc>
<time>2013-07-05T18:08:06.00</time>
<name>2196</name>
<sym>Dot</sym>
</trkpt>
<trkpt lat="42.873813" lon="-2.104340">
<ele>1612.0</ele>
<desc>Speed 34.6 km/h Distance 8.35 km</desc>
<time>2013-07-05T18:08:06.99</time>
<name>2197</name>
<sym>Dot</sym>
</trkpt>
<trkpt lat="42.873827" lon="-2.104218">
<ele>1613.0</ele>
<desc>Speed 36.5 km/h Distance 8.36 km</desc>
<time>2013-07-05T18:08:07.99</time>
<name>2198</name>
<sym>Dot</sym>
</trkpt>
<trkpt lat="42.873845" lon="-2.104088">
<ele>1613.0</ele>
<desc>Speed 38.6 km/h Distance 8.37 km</desc>
<time>2013-07-05T18:08:08.98</time>
<name>2199</name>
<sym>Dot</sym>
</trkpt>
<trkpt lat="42.873867" lon="-2.103958">
<ele>1614.0</ele>
<desc>Speed 39.5 km/h Distance 8.38 km</desc>
<time>2013-07-05T18:08:09.98</time>
<name>2200</name>
<sym>Dot</sym>
</trkpt>
<trkpt lat="42.873887" lon="-2.103833">
<ele>1615.5</ele>
<desc>Speed 37.5 km/h Distance 8.39 km</desc>
<time>2013-07-05T18:08:10.97</time>
<name>2201</name>
<sym>Dot</sym>
</trkpt>
<trkpt lat="42.873903" lon="-2.103718">
<ele>1618.0</ele>
<desc>Speed 34.1 km/h Distance 8.40 km</desc>
<time>2013-07-05T18:08:11.97</time>
<name>2202</name>
<sym>Dot</sym>
</trkpt>
<trkpt lat="42.873918" lon="-2.103615">
<ele>1619.0</ele>
<desc>Speed 30.7 km/h Distance 8.41 km</desc>
<time>2013-07-05T18:08:12.96</time>
<name>2203</name>
<sym>Dot</sym>
</trkpt>
<trkpt lat="42.873938" lon="-2.103523">
<ele>1619.0</ele>
<desc>Speed 28.1 km/h Distance 8.41 km</desc>
<time>2013-07-05T18:08:13.95</time>
<name>2204</name>
<sym>Dot</sym>
</trkpt>
<trkpt lat="42.873972" lon="-2.103443">
<ele>1618.5</ele>
<desc>Speed 26.9 km/h Distance 8.42 km</desc>
<time>2013-07-05T18:08:14.95</time>
<name>2205</name>
<sym>Dot</sym>
</trkpt>
<trkpt lat="42.874022" lon="-2.103368">
<ele>1617.5</ele>
<desc>Speed 29.0 km/h Distance 8.43 km</desc>
<time>2013-07-05T18:08:15.95</time>
<name>2206</name>
<sym>Dot</sym>
</trkpt>
<trkpt lat="42.874082" lon="-2.103298">
<ele>1618.0</ele>
<desc>Speed 31.1 km/h Distance 8.44 km</desc>
<time>2013-07-05T18:08:16.94</time>
<name>2207</name>
<sym>Dot</sym>
</trkpt>
<trkpt lat="42.874142" lon="-2.103232">
<ele>1619.5</ele>
<desc>Speed 30.2 km/h Distance 8.45 km</desc>
<time>2013-07-05T18:08:17.93</time>
<name>2208</name>
<sym>Dot</sym>
</trkpt>
<trkpt lat="42.874198" lon="-2.103175">
<ele>1621.0</ele>
<desc>Speed 27.6 km/h Distance 8.45 km</desc>
<time>2013-07-05T18:08:18.93</time>
<name>2209</name>
<sym>Dot</sym>
</trkpt>
<trkpt lat="42.874252" lon="-2.103128">
<ele>1622.5</ele>
<desc>Speed 24.3 km/h Distance 8.46 km</desc>
<time>2013-07-05T18:08:19.92</time>
<name>2210</name>
<sym>Dot</sym>
</trkpt>
<trkpt lat="42.874307" lon="-2.103088">
<ele>1623.5</ele>
<desc>Speed 24.7 km/h Distance 8.47 km</desc>
<time>2013-07-05T18:08:20.92</time>
<name>2211</name>
<sym>Dot</sym>
</trkpt>
<trkpt lat="42.874362" lon="-2.103052">
<ele>1624.5</ele>
<desc>Speed 24.9 km/h Distance 8.48 km</desc>
<time>2013-07-05T18:08:21.92</time>
<name>2212</name>
<sym>Dot</sym>
</trkpt>
<trkpt lat="42.874415" lon="-2.103037">
<ele>1624.0</ele>
<desc>Speed 21.2 km/h Distance 8.48 km</desc>
<time>2013-07-05T18:08:22.91</time>
<name>2213</name>
<sym>Dot</sym>
</trkpt>
<trkpt lat="42.874460" lon="-2.103052">
<ele>1624.0</ele>
<desc>Speed 18.7 km/h Distance 8.49 km</desc>
<time>2013-07-05T18:08:23.90</time>
<name>2214</name>
<sym>Dot</sym>
</trkpt>
<trkpt lat="42.874488" lon="-2.103122">
<ele>1626.0</ele>
<desc>Speed 23.1 km/h Distance 8.49 km</desc>
<time>2013-07-05T18:08:24.90</time>
<name>2215</name>
<sym>Dot</sym>
</trkpt>
<trkpt lat="42.874488" lon="-2.103217">
<ele>1626.5</ele>
<desc>Speed 27.9 km/h Distance 8.50 km</desc>
<time>2013-07-05T18:08:25.89</time>
<name>2216</name>
<sym>Dot</sym>
</trkpt>
<trkpt lat="42.874460" lon="-2.103320">
<ele>1627.5</ele>
<desc>Speed 32.0 km/h Distance 8.51 km</desc>
<time>2013-07-05T18:08:26.89</time>
<name>2217</name>
<sym>Dot</sym>
</trkpt>
<trkpt lat="42.874305" lon="-2.103508">
<ele>1630.0</ele>
<desc>Speed 42.2 km/h Distance 8.53 km</desc>
<time>2013-07-05T18:08:28.88</time>
<name>2218</name>
<sym>Dot</sym>
</trkpt>
<trkpt lat="42.874220" lon="-2.103583">
<ele>1631.5</ele>
<desc>Speed 40.8 km/h Distance 8.54 km</desc>
<time>2013-07-05T18:08:29.87</time>
<name>2219</name>
<sym>Dot</sym>
</trkpt>
<trkpt lat="42.874145" lon="-2.103660">
<ele>1632.0</ele>
<desc>Speed 37.5 km/h Distance 8.56 km</desc>
<time>2013-07-05T18:08:30.86</time>
<name>2220</name>
<sym>Dot</sym>
</trkpt>
<trkpt lat="42.874093" lon="-2.103748">
<ele>1632.0</ele>
<desc>Speed 34.1 km/h Distance 8.56 km</desc>
<time>2013-07-05T18:08:31.86</time>
<name>2221</name>
<sym>Dot</sym>
</trkpt>
<trkpt lat="42.874052" lon="-2.103867">
<ele>1631.5</ele>
<desc>Speed 38.8 km/h Distance 8.57 km</desc>
<time>2013-07-05T18:08:32.86</time>
<name>2222</name>
<sym>Dot</sym>
</trkpt>
<trkpt lat="42.874027" lon="-2.103992">
<ele>1631.5</ele>
<desc>Speed 38.7 km/h Distance 8.59 km</desc>
<time>2013-07-05T18:08:33.85</time>
<name>2223</name>
<sym>Dot</sym>
</trkpt>
<trkpt lat="42.874025" lon="-2.104105">
<ele>1631.0</ele>
<desc>Speed 33.5 km/h Distance 8.59 km</desc>
<time>2013-07-05T18:08:34.85</time>
<name>2224</name>
<sym>Dot</sym>
</trkpt>
<trkpt lat="42.874030" lon="-2.104207">
<ele>1632.0</ele>
<desc>Speed 30.5 km/h Distance 8.60 km</desc>
<time>2013-07-05T18:08:35.85</time>
<name>2225</name>
<sym>Dot</sym>
</trkpt>
<trkpt lat="42.874045" lon="-2.104297">
<ele>1632.0</ele>
<desc>Speed 27.4 km/h Distance 8.61 km</desc>
<time>2013-07-05T18:08:36.84</time>
<name>2226</name>
<sym>Dot</sym>
</trkpt>
<trkpt lat="42.874050" lon="-2.104388">
<ele>1631.5</ele>
<desc>Speed 27.8 km/h Distance 8.62 km</desc>
<time>2013-07-05T18:08:37.84</time>
<name>2227</name>
<sym>Dot</sym>
</trkpt>
<trkpt lat="42.874048" lon="-2.104493">
<ele>1631.0</ele>
<desc>Speed 30.9 km/h Distance 8.63 km</desc>
<time>2013-07-05T18:08:38.83</time>
<name>2228</name>
<sym>Dot</sym>
</trkpt>
<trkpt lat="42.874043" lon="-2.104608">
<ele>1631.0</ele>
<desc>Speed 34.2 km/h Distance 8.64 km</desc>
<time>2013-07-05T18:08:39.82</time>
<name>2229</name>
<sym>Dot</sym>
</trkpt>
<trkpt lat="42.874037" lon="-2.104730">
<ele>1631.5</ele>
<desc>Speed 36.0 km/h Distance 8.65 km</desc>
<time>2013-07-05T18:08:40.82</time>
<name>2230</name>
<sym>Dot</sym>
</trkpt>
<trkpt lat="42.874028" lon="-2.104848">
<ele>1633.0</ele>
<desc>Speed 35.4 km/h Distance 8.66 km</desc>
<time>2013-07-05T18:08:41.82</time>
<name>2231</name>
<sym>Dot</sym>
</trkpt>
<trkpt lat="42.874017" lon="-2.104960">
<ele>1634.0</ele>
<desc>Speed 33.3 km/h Distance 8.66 km</desc>
<time>2013-07-05T18:08:42.81</time>
<name>2232</name>
<sym>Dot</sym>
</trkpt>
<trkpt lat="42.874005" lon="-2.105067">
<ele>1635.0</ele>
<desc>Speed 32.1 km/h Distance 8.67 km</desc>
<time>2013-07-05T18:08:43.80</time>
<name>2233</name>
<sym>Dot</sym>
</trkpt>
<trkpt lat="42.873993" lon="-2.105178">
<ele>1635.0</ele>
<desc>Speed 33.9 km/h Distance 8.68 km</desc>
<time>2013-07-05T18:08:44.80</time>
<name>2234</name>
<sym>Dot</sym>
</trkpt>
<trkpt lat="42.873982" lon="-2.105300">
<ele>1635.0</ele>
<desc>Speed 36.3 km/h Distance 8.69 km</desc>
<time>2013-07-05T18:08:45.79</time>
<name>2235</name>
<sym>Dot</sym>
</trkpt>
<trkpt lat="42.873972" lon="-2.105422">
<ele>1636.5</ele>
<desc>Speed 36.3 km/h Distance 8.70 km</desc>
<time>2013-07-05T18:08:46.79</time>
<name>2236</name>
<sym>Dot</sym>
</trkpt>
<trkpt lat="42.873970" lon="-2.105533">
<ele>1638.0</ele>
<desc>Speed 33.3 km/h Distance 8.71 km</desc>
<time>2013-07-05T18:08:47.79</time>
<name>2237</name>
<sym>Dot</sym>
</trkpt>
<trkpt lat="42.873973" lon="-2.105632">
<ele>1640.0</ele>
<desc>Speed 29.2 km/h Distance 8.72 km</desc>
<time>2013-07-05T18:08:48.78</time>
<name>2238</name>
<sym>Dot</sym>
</trkpt>
<trkpt lat="42.873983" lon="-2.105713">
<ele>1641.0</ele>
<desc>Speed 24.2 km/h Distance 8.73 km</desc>
<time>2013-07-05T18:08:49.78</time>
<name>2239</name>
<sym>Dot</sym>
</trkpt>
<trkpt lat="42.874000" lon="-2.105780">
<ele>1641.5</ele>
<desc>Speed 21.1 km/h Distance 8.73 km</desc>
<time>2013-07-05T18:08:50.78</time>
<name>2240</name>
<sym>Dot</sym>
</trkpt>
<trkpt lat="42.874037" lon="-2.105840">
<ele>1642.0</ele>
<desc>Speed 23.3 km/h Distance 8.74 km</desc>
<time>2013-07-05T18:08:51.78</time>
<name>2241</name>
<sym>Dot</sym>
</trkpt>
<trkpt lat="42.874078" lon="-2.105892">
<ele>1643.0</ele>
<desc>Speed 22.2 km/h Distance 8.75 km</desc>
<time>2013-07-05T18:08:52.77</time>
<name>2242</name>
<sym>Dot</sym>
</trkpt>
<trkpt lat="42.874127" lon="-2.105932">
<ele>1644.5</ele>
<desc>Speed 22.5 km/h Distance 8.75 km</desc>
<time>2013-07-05T18:08:53.76</time>
<name>2243</name>
<sym>Dot</sym>
</trkpt>
<trkpt lat="42.874178" lon="-2.105940">
<ele>1645.0</ele>
<desc>Speed 20.9 km/h Distance 8.76 km</desc>
<time>2013-07-05T18:08:54.76</time>
<name>2244</name>
<sym>Dot</sym>
</trkpt>
<trkpt lat="42.874213" lon="-2.105918">
<ele>1645.5</ele>
<desc>Speed 15.6 km/h Distance 8.76 km</desc>
<time>2013-07-05T18:08:55.76</time>
<name>2245</name>
<sym>Dot</sym>
</trkpt>
<trkpt lat="42.874247" lon="-2.105875">
<ele>1646.0</ele>
<desc>Speed 18.3 km/h Distance 8.77 km</desc>
<time>2013-07-05T18:08:56.74</time>
<name>2246</name>
<sym>Dot</sym>
</trkpt>
<trkpt lat="42.874288" lon="-2.105823">
<ele>1648.0</ele>
<desc>Speed 22.4 km/h Distance 8.77 km</desc>
<time>2013-07-05T18:08:57.73</time>
<name>2247</name>
<sym>Dot</sym>
</trkpt>
<trkpt lat="42.874318" lon="-2.105750">
<ele>1647.0</ele>
<desc>Speed 24.2 km/h Distance 8.78 km</desc>
<time>2013-07-05T18:08:58.72</time>
<name>2248</name>
<sym>Dot</sym>
</trkpt>
<trkpt lat="42.874350" lon="-2.105655">
<ele>1647.0</ele>
<desc>Speed 30.8 km/h Distance 8.79 km</desc>
<time>2013-07-05T18:08:59.72</time>
<name>2249</name>
<sym>Dot</sym>
</trkpt>
<trkpt lat="42.874390" lon="-2.105387">
<ele>1647.0</ele>
<desc>Speed 43.1 km/h Distance 8.81 km</desc>
<time>2013-07-05T18:09:01.71</time>
<name>2250</name>
<sym>Dot</sym>
</trkpt>
<trkpt lat="42.874385" lon="-2.105225">
<ele>1649.0</ele>
<desc>Speed 47.9 km/h Distance 8.82 km</desc>
<time>2013-07-05T18:09:02.70</time>
<name>2251</name>
<sym>Dot</sym>
</trkpt>
<trkpt lat="42.874313" lon="-2.105080">
<ele>1650.0</ele>
<desc>Speed 51.4 km/h Distance 8.84 km</desc>
<time>2013-07-05T18:09:03.70</time>
<name>2252</name>
<sym>Dot</sym>
</trkpt>
<trkpt lat="42.874223" lon="-2.104943">
<ele>1649.0</ele>
<desc>Speed 54.8 km/h Distance 8.85 km</desc>
<time>2013-07-05T18:09:04.68</time>
<name>2253</name>
<sym>Dot</sym>
</trkpt>
<trkpt lat="42.874107" lon="-2.104817">
<ele>1648.0</ele>
<desc>Speed 59.1 km/h Distance 8.87 km</desc>
<time>2013-07-05T18:09:05.68</time>
<name>2254</name>
<sym>Dot</sym>
</trkpt>
<trkpt lat="42.873977" lon="-2.104715">
<ele>1649.0</ele>
<desc>Speed 60.6 km/h Distance 8.89 km</desc>
<time>2013-07-05T18:09:06.68</time>
<name>2255</name>
<sym>Dot</sym>
</trkpt>
<trkpt lat="42.873828" lon="-2.104627">
<ele>1648.5</ele>
<desc>Speed 64.7 km/h Distance 8.90 km</desc>
<time>2013-07-05T18:09:07.67</time>
<name>2256</name>
<sym>Dot</sym>
</trkpt>
<trkpt lat="42.873688" lon="-2.104563">
<ele>1648.5</ele>
<desc>Speed 60.2 km/h Distance 8.92 km</desc>
<time>2013-07-05T18:09:08.66</time>
<name>2257</name>
<sym>Dot</sym>
</trkpt>
<trkpt lat="42.873547" lon="-2.104572">
<ele>1648.0</ele>
<desc>Speed 56.9 km/h Distance 8.94 km</desc>
<time>2013-07-05T18:09:09.66</time>
<name>2258</name>
<sym>Dot</sym>
</trkpt>
<trkpt lat="42.873407" lon="-2.104640">
<ele>1647.5</ele>
<desc>Speed 58.0 km/h Distance 8.95 km</desc>
<time>2013-07-05T18:09:10.65</time>
<name>2259</name>
<sym>Dot</sym>
</trkpt>
<trkpt lat="42.873330" lon="-2.104785">
<ele>1647.5</ele>
<desc>Speed 51.4 km/h Distance 8.97 km</desc>
<time>2013-07-05T18:09:11.64</time>
<name>2260</name>
<sym>Dot</sym>
</trkpt>
<trkpt lat="42.873255" lon="-2.104937">
<ele>1647.0</ele>
<desc>Speed 50.8 km/h Distance 8.98 km</desc>
<time>2013-07-05T18:09:12.63</time>
<name>2261</name>
<sym>Dot</sym>
</trkpt>
<trkpt lat="42.873202" lon="-2.105083">
<ele>1647.0</ele>
<desc>Speed 47.9 km/h Distance 9.00 km</desc>
<time>2013-07-05T18:09:13.64</time>
<name>2262</name>
<sym>Dot</sym>
</trkpt>
<trkpt lat="42.873258" lon="-2.105445">
<ele>1649.5</ele>
<desc>Speed 13.0 km/h Distance 9.03 km</desc>
<time>2013-07-05T18:09:18.96</time>
<name>2263</name>
<sym>Dot</sym>
</trkpt>
<trkpt lat="42.873265" lon="-2.105475">
<ele>1649.5</ele>
<desc>Speed 8.4 km/h Distance 9.03 km</desc>
<time>2013-07-05T18:09:19.95</time>
<name>2264</name>
<sym>Dot</sym>
</trkpt>
<trkpt lat="42.873293" lon="-2.105500">
<ele>1650.5</ele>
<desc>Speed 13.5 km/h Distance 9.03 km</desc>
<time>2013-07-05T18:09:20.95</time>
<name>2265</name>
<sym>Dot</sym>
</trkpt>
<trkpt lat="42.873330" lon="-2.105517">
<ele>1650.5</ele>
<desc>Speed 15.1 km/h Distance 9.04 km</desc>
<time>2013-07-05T18:09:21.94</time>
<name>2266</name>
<sym>Dot</sym>
</trkpt>
<trkpt lat="42.873372" lon="-2.105528">
<ele>1651.5</ele>
<desc>Speed 17.1 km/h Distance 9.04 km</desc>
<time>2013-07-05T18:09:22.94</time>
<name>2267</name>
<sym>Dot</sym>
</trkpt>
<trkpt lat="42.873413" lon="-2.105540">
<ele>1653.0</ele>
<desc>Speed 16.5 km/h Distance 9.05 km</desc>
<time>2013-07-05T18:09:23.92</time>
<name>2268</name>
<sym>Dot</sym>
</trkpt>
<trkpt lat="42.873453" lon="-2.105545">
<ele>1654.0</ele>
<desc>Speed 14.9 km/h Distance 9.05 km</desc>
<time>2013-07-05T18:09:24.91</time>
<name>2269</name>
<sym>Dot</sym>
</trkpt>
<trkpt lat="42.873490" lon="-2.105545">
<ele>1654.5</ele>
<desc>Speed 14.3 km/h Distance 9.05 km</desc>
<time>2013-07-05T18:09:25.90</time>
<name>2270</name>
<sym>Dot</sym>
</trkpt>
<trkpt lat="42.873532" lon="-2.105533">
<ele>1653.5</ele>
<desc>Speed 15.7 km/h Distance 9.06 km</desc>
<time>2013-07-05T18:09:26.90</time>
<name>2271</name>
<sym>Dot</sym>
</trkpt>
<trkpt lat="42.873573" lon="-2.105513">
<ele>1653.0</ele>
<desc>Speed 17.4 km/h Distance 9.06 km</desc>
<time>2013-07-05T18:09:27.89</time>
<name>2272</name>
<sym>Dot</sym>
</trkpt>
<trkpt lat="42.873622" lon="-2.105480">
<ele>1652.0</ele>
<desc>Speed 21.4 km/h Distance 9.07 km</desc>
<time>2013-07-05T18:09:28.89</time>
<name>2273</name>
<sym>Dot</sym>
</trkpt>
<trkpt lat="42.873670" lon="-2.105442">
<ele>1650.5</ele>
<desc>Speed 22.2 km/h Distance 9.08 km</desc>
<time>2013-07-05T18:09:29.89</time>
<name>2274</name>
<sym>Dot</sym>
</trkpt>
<trkpt lat="42.873732" lon="-2.105420">
<ele>1650.5</ele>
<desc>Speed 25.5 km/h Distance 9.08 km</desc>
<time>2013-07-05T18:09:30.89</time>
<name>2275</name>
<sym>Dot</sym>
</trkpt>
<trkpt lat="42.873788" lon="-2.105412">
<ele>1651.0</ele>
<desc>Speed 22.6 km/h Distance 9.09 km</desc>
<time>2013-07-05T18:09:31.88</time>
<name>2276</name>
<sym>Dot</sym>
</trkpt>
<trkpt lat="42.873852" lon="-2.105415">
<ele>1652.5</ele>
<desc>Speed 25.5 km/h Distance 9.10 km</desc>
<time>2013-07-05T18:09:32.88</time>
<name>2277</name>
<sym>Dot</sym>
</trkpt>
<trkpt lat="42.873910" lon="-2.105422">
<ele>1653.5</ele>
<desc>Speed 22.1 km/h Distance 9.10 km</desc>
<time>2013-07-05T18:09:33.88</time>
<name>2278</name>
<sym>Dot</sym>
</trkpt>
<trkpt lat="42.873967" lon="-2.105422">
<ele>1654.0</ele>
<desc>Speed 22.7 km/h Distance 9.11 km</desc>
<time>2013-07-05T18:09:34.87</time>
<name>2279</name>
<sym>Dot</sym>
</trkpt>
<trkpt lat="42.874038" lon="-2.105425">
<ele>1654.0</ele>
<desc>Speed 28.3 km/h Distance 9.12 km</desc>
<time>2013-07-05T18:09:35.87</time>
<name>2280</name>
<sym>Dot</sym>
</trkpt>
<trkpt lat="42.874103" lon="-2.105400">
<ele>1654.0</ele>
<desc>Speed 27.3 km/h Distance 9.13 km</desc>
<time>2013-07-05T18:09:36.86</time>
<name>2281</name>
<sym>Dot</sym>
</trkpt>
<trkpt lat="42.874172" lon="-2.105408">
<ele>1655.0</ele>
<desc>Speed 27.1 km/h Distance 9.13 km</desc>
<time>2013-07-05T18:09:37.85</time>
<name>2282</name>
<sym>Dot</sym>
</trkpt>
<trkpt lat="42.874235" lon="-2.105418">
<ele>1655.0</ele>
<desc>Speed 25.1 km/h Distance 9.14 km</desc>
<time>2013-07-05T18:09:38.85</time>
<name>2283</name>
<sym>Dot</sym>
</trkpt>
<trkpt lat="42.874307" lon="-2.105430">
<ele>1655.0</ele>
<desc>Speed 27.3 km/h Distance 9.15 km</desc>
<time>2013-07-05T18:09:39.84</time>
<name>2284</name>
<sym>Dot</sym>
</trkpt>
<trkpt lat="42.874380" lon="-2.105435">
<ele>1655.0</ele>
<desc>Speed 27.9 km/h Distance 9.16 km</desc>
<time>2013-07-05T18:09:40.83</time>
<name>2285</name>
<sym>Dot</sym>
</trkpt>
<trkpt lat="42.874453" lon="-2.105437">
<ele>1655.5</ele>
<desc>Speed 27.7 km/h Distance 9.16 km</desc>
<time>2013-07-05T18:09:41.83</time>
<name>2286</name>
<sym>Dot</sym>
</trkpt>
<trkpt lat="42.874528" lon="-2.105433">
<ele>1655.5</ele>
<desc>Speed 28.7 km/h Distance 9.17 km</desc>
<time>2013-07-05T18:09:42.81</time>
<name>2287</name>
<sym>Dot</sym>
</trkpt>
<trkpt lat="42.874603" lon="-2.105430">
<ele>1655.5</ele>
<desc>Speed 30.2 km/h Distance 9.18 km</desc>
<time>2013-07-05T18:09:43.81</time>
<name>2288</name>
<sym>Dot</sym>
</trkpt>
<trkpt lat="42.874682" lon="-2.105420">
<ele>1655.5</ele>
<desc>Speed 31.1 km/h Distance 9.19 km</desc>
<time>2013-07-05T18:09:44.80</time>
<name>2289</name>
<sym>Dot</sym>
</trkpt>
<trkpt lat="42.874762" lon="-2.105407">
<ele>1656.0</ele>
<desc>Speed 31.9 km/h Distance 9.20 km</desc>
<time>2013-07-05T18:09:45.80</time>
<name>2290</name>
<sym>Dot</sym>
</trkpt>
<trkpt lat="42.874828" lon="-2.105398">
<ele>1656.0</ele>
<desc>Speed 31.9 km/h Distance 9.21 km</desc>
<time>2013-07-05T18:09:46.79</time>
<name>2291</name>
<sym>Dot</sym>
</trkpt>
<trkpt lat="42.874903" lon="-2.105380">
<ele>1655.0</ele>
<desc>Speed 29.8 km/h Distance 9.22 km</desc>
<time>2013-07-05T18:09:47.80</time>
<name>2292</name>
<sym>Dot</sym>
</trkpt>
<trkpt lat="42.874983" lon="-2.105362">
<ele>1654.0</ele>
<desc>Speed 31.6 km/h Distance 9.22 km</desc>
<time>2013-07-05T18:09:48.79</time>
<name>2293</name>
<sym>Dot</sym>
</trkpt>
<trkpt lat="42.875067" lon="-2.105355">
<ele>1653.0</ele>
<desc>Speed 32.6 km/h Distance 9.23 km</desc>
<time>2013-07-05T18:09:49.79</time>
<name>2294</name>
<sym>Dot</sym>
</trkpt>
<trkpt lat="42.875160" lon="-2.105352">
<ele>1653.5</ele>
<desc>Speed 35.9 km/h Distance 9.24 km</desc>
<time>2013-07-05T18:09:50.78</time>
<name>2295</name>
<sym>Dot</sym>
</trkpt>
<trkpt lat="42.875237" lon="-2.105355">
<ele>1653.5</ele>
<desc>Speed 29.6 km/h Distance 9.25 km</desc>
<time>2013-07-05T18:09:51.79</time>
<name>2296</name>
<sym>Dot</sym>
</trkpt>
<trkpt lat="42.875315" lon="-2.105353">
<ele>1653.5</ele>
<desc>Speed 30.6 km/h Distance 9.26 km</desc>
<time>2013-07-05T18:09:52.77</time>
<name>2297</name>
<sym>Dot</sym>
</trkpt>
<trkpt lat="42.875382" lon="-2.105345">
<ele>1653.0</ele>
<desc>Speed 27.0 km/h Distance 9.27 km</desc>
<time>2013-07-05T18:09:53.77</time>
<name>2298</name>
<sym>Dot</sym>
</trkpt>
<trkpt lat="42.875452" lon="-2.105350">
<ele>1651.5</ele>
<desc>Speed 27.5 km/h Distance 9.28 km</desc>
<time>2013-07-05T18:09:54.77</time>
<name>2299</name>
<sym>Dot</sym>
</trkpt>
<trkpt lat="42.875527" lon="-2.105357">
<ele>1650.5</ele>
<desc>Speed 29.9 km/h Distance 9.28 km</desc>
<time>2013-07-05T18:09:55.76</time>
<name>2300</name>
<sym>Dot</sym>
</trkpt>
<trkpt lat="42.875607" lon="-2.105368">
<ele>1649.0</ele>
<desc>Speed 31.4 km/h Distance 9.29 km</desc>
<time>2013-07-05T18:09:56.76</time>
<name>2301</name>
<sym>Dot</sym>
</trkpt>
<trkpt lat="42.875680" lon="-2.105388">
<ele>1647.0</ele>
<desc>Speed 30.7 km/h Distance 9.30 km</desc>
<time>2013-07-05T18:09:57.76</time>
<name>2302</name>
<sym>Dot</sym>
</trkpt>
<trkpt lat="42.875747" lon="-2.105398">
<ele>1645.0</ele>
<desc>Speed 28.6 km/h Distance 9.31 km</desc>
<time>2013-07-05T18:09:58.75</time>
<name>2303</name>
<sym>Dot</sym>
</trkpt>
<trkpt lat="42.875810" lon="-2.105400">
<ele>1644.0</ele>
<desc>Speed 26.4 km/h Distance 9.32 km</desc>
<time>2013-07-05T18:09:59.74</time>
<name>2304</name>
<sym>Dot</sym>
</trkpt>
<trkpt lat="42.875873" lon="-2.105395">
<ele>1643.0</ele>
<desc>Speed 25.1 km/h Distance 9.32 km</desc>
<time>2013-07-05T18:10:00.74</time>
<name>2305</name>
<sym>Dot</sym>
</trkpt>
<trkpt lat="42.875933" lon="-2.105382">
<ele>1641.5</ele>
<desc>Speed 25.2 km/h Distance 9.33 km</desc>
<time>2013-07-05T18:10:01.73</time>
<name>2306</name>
<sym>Dot</sym>
</trkpt>
<trkpt lat="42.875998" lon="-2.105355">
<ele>1640.0</ele>
<desc>Speed 28.0 km/h Distance 9.34 km</desc>
<time>2013-07-05T18:10:02.72</time>
<name>2307</name>
<sym>Dot</sym>
</trkpt>
<trkpt lat="42.876072" lon="-2.105293">
<ele>1639.0</ele>
<desc>Speed 34.7 km/h Distance 9.35 km</desc>
<time>2013-07-05T18:10:03.72</time>
<name>2308</name>
<sym>Dot</sym>
</trkpt>
<trkpt lat="42.876140" lon="-2.105222">
<ele>1638.0</ele>
<desc>Speed 34.4 km/h Distance 9.36 km</desc>
<time>2013-07-05T18:10:04.73</time>
<name>2309</name>
<sym>Dot</sym>
</trkpt>
<trkpt lat="42.876200" lon="-2.105138">
<ele>1638.0</ele>
<desc>Speed 34.1 km/h Distance 9.37 km</desc>
<time>2013-07-05T18:10:05.71</time>
<name>2310</name>
<sym>Dot</sym>
</trkpt>
<trkpt lat="42.876252" lon="-2.105053">
<ele>1637.5</ele>
<desc>Speed 32.3 km/h Distance 9.38 km</desc>
<time>2013-07-05T18:10:06.71</time>
<name>2311</name>
<sym>Dot</sym>
</trkpt>
<trkpt lat="42.876295" lon="-2.104965">
<ele>1637.5</ele>
<desc>Speed 31.4 km/h Distance 9.38 km</desc>
<time>2013-07-05T18:10:07.70</time>
<name>2312</name>
<sym>Dot</sym>
</trkpt>
<trkpt lat="42.876333" lon="-2.104870">
<ele>1636.5</ele>
<desc>Speed 32.6 km/h Distance 9.39 km</desc>
<time>2013-07-05T18:10:08.70</time>
<name>2313</name>
<sym>Dot</sym>
</trkpt>
<trkpt lat="42.876368" lon="-2.104762">
<ele>1635.0</ele>
<desc>Speed 35.5 km/h Distance 9.40 km</desc>
<time>2013-07-05T18:10:09.69</time>
<name>2314</name>
<sym>Dot</sym>
</trkpt>
<trkpt lat="42.876397" lon="-2.104637">
<ele>1634.0</ele>
<desc>Speed 38.3 km/h Distance 9.41 km</desc>
<time>2013-07-05T18:10:10.68</time>
<name>2315</name>
<sym>Dot</sym>
</trkpt>
<trkpt lat="42.876417" lon="-2.104503">
<ele>1633.0</ele>
<desc>Speed 40.1 km/h Distance 9.42 km</desc>
<time>2013-07-05T18:10:11.68</time>
<name>2316</name>
<sym>Dot</sym>
</trkpt>
<trkpt lat="42.876430" lon="-2.104368">
<ele>1632.5</ele>
<desc>Speed 40.1 km/h Distance 9.44 km</desc>
<time>2013-07-05T18:10:12.67</time>
<name>2317</name>
<sym>Dot</sym>
</trkpt>
<trkpt lat="42.876430" lon="-2.104097">
<ele>1631.0</ele>
<desc>Speed 40.1 km/h Distance 9.46 km</desc>
<time>2013-07-05T18:10:14.67</time>
<name>2318</name>
<sym>Dot</sym>
</trkpt>
<trkpt lat="42.876410" lon="-2.103955">
<ele>1630.5</ele>
<desc>Speed 41.9 km/h Distance 9.47 km</desc>
<time>2013-07-05T18:10:15.67</time>
<name>2319</name>
<sym>Dot</sym>
</trkpt>
<trkpt lat="42.876372" lon="-2.103808">
<ele>1629.0</ele>
<desc>Speed 45.1 km/h Distance 9.48 km</desc>
<time>2013-07-05T18:10:16.65</time>
<name>2320</name>
<sym>Dot</sym>
</trkpt>
<trkpt lat="42.876305" lon="-2.103663">
<ele>1627.0</ele>
<desc>Speed 49.5 km/h Distance 9.50 km</desc>
<time>2013-07-05T18:10:17.65</time>
<name>2321</name>
<sym>Dot</sym>
</trkpt>
<trkpt lat="42.876217" lon="-2.103543">
<ele>1625.5</ele>
<desc>Speed 49.9 km/h Distance 9.51 km</desc>
<time>2013-07-05T18:10:18.64</time>
<name>2322</name>
<sym>Dot</sym>
</trkpt>
<trkpt lat="42.876107" lon="-2.103450">
<ele>1626.0</ele>
<desc>Speed 52.3 km/h Distance 9.52 km</desc>
<time>2013-07-05T18:10:19.64</time>
<name>2323</name>
<sym>Dot</sym>
</trkpt>
<trkpt lat="42.875985" lon="-2.103373">
<ele>1626.0</ele>
<desc>Speed 53.9 km/h Distance 9.54 km</desc>
<time>2013-07-05T18:10:20.63</time>
<name>2324</name>
<sym>Dot</sym>
</trkpt>
<trkpt lat="42.875867" lon="-2.103313">
<ele>1627.5</ele>
<desc>Speed 50.3 km/h Distance 9.55 km</desc>
<time>2013-07-05T18:10:21.62</time>
<name>2325</name>
<sym>Dot</sym>
</trkpt>
<trkpt lat="42.875758" lon="-2.103267">
<ele>1629.5</ele>
<desc>Speed 46.3 km/h Distance 9.57 km</desc>
<time>2013-07-05T18:10:22.62</time>
<name>2326</name>
<sym>Dot</sym>
</trkpt>
<trkpt lat="42.875650" lon="-2.103245">
<ele>1628.0</ele>
<desc>Speed 44.1 km/h Distance 9.58 km</desc>
<time>2013-07-05T18:10:23.63</time>
<name>2327</name>
<sym>Dot</sym>
</trkpt>
<trkpt lat="42.875553" lon="-2.103243">
<ele>1628.0</ele>
<desc>Speed 38.6 km/h Distance 9.59 km</desc>
<time>2013-07-05T18:10:24.61</time>
<name>2328</name>
<sym>Dot</sym>
</trkpt>
<trkpt lat="42.875440" lon="-2.103248">
<ele>1627.0</ele>
<desc>Speed 45.5 km/h Distance 9.60 km</desc>
<time>2013-07-05T18:10:25.60</time>
<name>2329</name>
<sym>Dot</sym>
</trkpt>
<trkpt lat="42.875318" lon="-2.103267">
<ele>1626.0</ele>
<desc>Speed 49.2 km/h Distance 9.62 km</desc>
<time>2013-07-05T18:10:26.60</time>
<name>2330</name>
<sym>Dot</sym>
</trkpt>
<trkpt lat="42.875195" lon="-2.103313">
<ele>1626.0</ele>
<desc>Speed 51.7 km/h Distance 9.63 km</desc>
<time>2013-07-05T18:10:27.59</time>
<name>2331</name>
<sym>Dot</sym>
</trkpt>
<trkpt lat="42.875083" lon="-2.103383">
<ele>1627.5</ele>
<desc>Speed 49.0 km/h Distance 9.64 km</desc>
<time>2013-07-05T18:10:28.59</time>
<name>2332</name>
<sym>Dot</sym>
</trkpt>
<trkpt lat="42.874982" lon="-2.103448">
<ele>1628.5</ele>
<desc>Speed 45.7 km/h Distance 9.66 km</desc>
<time>2013-07-05T18:10:29.58</time>
<name>2333</name>
<sym>Dot</sym>
</trkpt>
<trkpt lat="42.874885" lon="-2.103507">
<ele>1629.5</ele>
<desc>Speed 42.8 km/h Distance 9.67 km</desc>
<time>2013-07-05T18:10:30.58</time>
<name>2334</name>
<sym>Dot</sym>
</trkpt>
<trkpt lat="42.874790" lon="-2.103560">
<ele>1629.5</ele>
<desc>Speed 41.9 km/h Distance 9.68 km</desc>
<time>2013-07-05T18:10:31.57</time>
<name>2335</name>
<sym>Dot</sym>
</trkpt>
<trkpt lat="42.874693" lon="-2.103618">
<ele>1629.5</ele>
<desc>Speed 42.9 km/h Distance 9.69 km</desc>
<time>2013-07-05T18:10:32.56</time>
<name>2336</name>
<sym>Dot</sym>
</trkpt>
<trkpt lat="42.874595" lon="-2.103688">
<ele>1629.0</ele>
<desc>Speed 45.3 km/h Distance 9.70 km</desc>
<time>2013-07-05T18:10:33.55</time>
<name>2337</name>
<sym>Dot</sym>
</trkpt>
<trkpt lat="42.874493" lon="-2.103762">
<ele>1629.0</ele>
<desc>Speed 46.3 km/h Distance 9.72 km</desc>
<time>2013-07-05T18:10:34.55</time>
<name>2338</name>
<sym>Dot</sym>
</trkpt>
<trkpt lat="42.874392" lon="-2.103830">
<ele>1629.5</ele>
<desc>Speed 45.5 km/h Distance 9.73 km</desc>
<time>2013-07-05T18:10:35.54</time>
<name>2339</name>
<sym>Dot</sym>
</trkpt>
<trkpt lat="42.874293" lon="-2.103892">
<ele>1630.5</ele>
<desc>Speed 44.1 km/h Distance 9.74 km</desc>
<time>2013-07-05T18:10:36.54</time>
<name>2340</name>
<sym>Dot</sym>
</trkpt>
<trkpt lat="42.874197" lon="-2.103952">
<ele>1630.5</ele>
<desc>Speed 42.8 km/h Distance 9.75 km</desc>
<time>2013-07-05T18:10:37.54</time>
<name>2341</name>
<sym>Dot</sym>
</trkpt>
<trkpt lat="42.874107" lon="-2.104020">
<ele>1631.0</ele>
<desc>Speed 41.8 km/h Distance 9.76 km</desc>
<time>2013-07-05T18:10:38.53</time>
<name>2342</name>
<sym>Dot</sym>
</trkpt>
<trkpt lat="42.874022" lon="-2.104097">
<ele>1631.0</ele>
<desc>Speed 41.0 km/h Distance 9.78 km</desc>
<time>2013-07-05T18:10:39.53</time>
<name>2343</name>
<sym>Dot</sym>
</trkpt>
<trkpt lat="42.873937" lon="-2.104177">
<ele>1631.5</ele>
<desc>Speed 41.8 km/h Distance 9.79 km</desc>
<time>2013-07-05T18:10:40.53</time>
<name>2344</name>
<sym>Dot</sym>
</trkpt>
<trkpt lat="42.873848" lon="-2.104257">
<ele>1633.0</ele>
<desc>Speed 43.1 km/h Distance 9.80 km</desc>
<time>2013-07-05T18:10:41.52</time>
<name>2345</name>
<sym>Dot</sym>
</trkpt>
<trkpt lat="42.873767" lon="-2.104347">
<ele>1634.5</ele>
<desc>Speed 42.7 km/h Distance 9.81 km</desc>
<time>2013-07-05T18:10:42.51</time>
<name>2346</name>
<sym>Dot</sym>
</trkpt>
<trkpt lat="42.873703" lon="-2.104448">
<ele>1634.5</ele>
<desc>Speed 39.3 km/h Distance 9.82 km</desc>
<time>2013-07-05T18:10:43.51</time>
<name>2347</name>
<sym>Dot</sym>
</trkpt>
<trkpt lat="42.873658" lon="-2.104570">
<ele>1635.0</ele>
<desc>Speed 39.8 km/h Distance 9.83 km</desc>
<time>2013-07-05T18:10:44.50</time>
<name>2348</name>
<sym>Dot</sym>
</trkpt>
<trkpt lat="42.873623" lon="-2.104680">
<ele>1636.0</ele>
<desc>Speed 35.6 km/h Distance 9.84 km</desc>
<time>2013-07-05T18:10:45.50</time>
<name>2349</name>
<sym>Dot</sym>
</trkpt>
<trkpt lat="42.873615" lon="-2.104905">
<ele>1639.0</ele>
<desc>Speed 21.2 km/h Distance 9.86 km</desc>
<time>2013-07-05T18:10:48.85</time>
<name>2350</name>
<sym>Dot</sym>
</trkpt>
<trkpt lat="42.873627" lon="-2.104968">
<ele>1641.0</ele>
<desc>Speed 19.7 km/h Distance 9.87 km</desc>
<time>2013-07-05T18:10:49.85</time>
<name>2351</name>
<sym>Dot</sym>
</trkpt>
<trkpt lat="42.873637" lon="-2.105027">
<ele>1641.5</ele>
<desc>Speed 17.5 km/h Distance 9.87 km</desc>
<time>2013-07-05T18:10:50.85</time>
<name>2352</name>
<sym>Dot</sym>
</trkpt>
<trkpt lat="42.873647" lon="-2.105080">
<ele>1641.5</ele>
<desc>Speed 16.7 km/h Distance 9.88 km</desc>
<time>2013-07-05T18:10:51.84</time>
<name>2353</name>
<sym>Dot</sym>
</trkpt>
<trkpt lat="42.873658" lon="-2.105143">
<ele>1641.0</ele>
<desc>Speed 19.7 km/h Distance 9.88 km</desc>
<time>2013-07-05T18:10:52.84</time>
<name>2354</name>
<sym>Dot</sym>
</trkpt>
<trkpt lat="42.873657" lon="-2.105338">
<ele>1638.0</ele>
<desc>Speed 29.7 km/h Distance 9.90 km</desc>
<time>2013-07-05T18:10:54.83</time>
<name>2355</name>
<sym>Dot</sym>
</trkpt>
<trkpt lat="42.873637" lon="-2.105440">
<ele>1636.5</ele>
<desc>Speed 30.9 km/h Distance 9.90 km</desc>
<time>2013-07-05T18:10:55.81</time>
<name>2356</name>
<sym>Dot</sym>
</trkpt>
<trkpt lat="42.873595" lon="-2.105553">
<ele>1637.0</ele>
<desc>Speed 37.3 km/h Distance 9.92 km</desc>
<time>2013-07-05T18:10:56.81</time>
<name>2357</name>
<sym>Dot</sym>
</trkpt>
<trkpt lat="42.873543" lon="-2.105662">
<ele>1638.5</ele>
<desc>Speed 37.9 km/h Distance 9.93 km</desc>
<time>2013-07-05T18:10:57.80</time>
<name>2358</name>
<sym>Dot</sym>
</trkpt>
<trkpt lat="42.873487" lon="-2.105762">
<ele>1639.5</ele>
<desc>Speed 37.0 km/h Distance 9.94 km</desc>
<time>2013-07-05T18:10:58.79</time>
<name>2359</name>
<sym>Dot</sym>
</trkpt>
<trkpt lat="42.873440" lon="-2.105865">
<ele>1639.5</ele>
<desc>Speed 36.3 km/h Distance 9.95 km</desc>
<time>2013-07-05T18:10:59.79</time>
<name>2360</name>
<sym>Dot</sym>
</trkpt>
<trkpt lat="42.873413" lon="-2.105973">
<ele>1639.5</ele>
<desc>Speed 33.5 km/h Distance 9.96 km</desc>
<time>2013-07-05T18:11:00.78</time>
<name>2361</name>
<sym>Dot</sym>
</trkpt>
<trkpt lat="42.873415" lon="-2.106092">
<ele>1639.5</ele>
<desc>Speed 35.0 km/h Distance 9.96 km</desc>
<time>2013-07-05T18:11:01.78</time>
<name>2362</name>
<sym>Dot</sym>
</trkpt>
<trkpt lat="42.873430" lon="-2.106197">
<ele>1640.5</ele>
<desc>Speed 31.4 km/h Distance 9.97 km</desc>
<time>2013-07-05T18:11:02.78</time>
<name>2363</name>
<sym>Dot</sym>
</trkpt>
<trkpt lat="42.873448" lon="-2.106283">
<ele>1640.5</ele>
<desc>Speed 26.4 km/h Distance 9.98 km</desc>
<time>2013-07-05T18:11:03.77</time>
<name>2364</name>
<sym>Dot</sym>
</trkpt>
<trkpt lat="42.873477" lon="-2.106353">
<ele>1640.0</ele>
<desc>Speed 23.3 km/h Distance 9.99 km</desc>
<time>2013-07-05T18:11:04.76</time>
<name>2365</name>
<sym>Dot</sym>
</trkpt>
<trkpt lat="42.873512" lon="-2.106407">
<ele>1641.0</ele>
<desc>Speed 21.2 km/h Distance 9.99 km</desc>
<time>2013-07-05T18:11:05.76</time>
<name>2366</name>
<sym>Dot</sym>
</trkpt>
<trkpt lat="42.873553" lon="-2.106443">
<ele>1641.5</ele>
<desc>Speed 19.3 km/h Distance 10.00 km</desc>
<time>2013-07-05T18:11:06.76</time>
<name>2367</name>
<sym>Dot</sym>
</trkpt>
<trkpt lat="42.873590" lon="-2.106475">
<ele>1640.5</ele>
<desc>Speed 17.9 km/h Distance 10.00 km</desc>
<time>2013-07-05T18:11:07.75</time>
<name>2368</name>
<sym>Dot</sym>
</trkpt>
<trkpt lat="42.873633" lon="-2.106505">
<ele>1639.5</ele>
<desc>Speed 19.2 km/h Distance 10.01 km</desc>
<time>2013-07-05T18:11:08.74</time>
<name>2369</name>
<sym>Dot</sym>
</trkpt>
<trkpt lat="42.873682" lon="-2.106533">
<ele>1639.0</ele>
<desc>Speed 20.7 km/h Distance 10.01 km</desc>
<time>2013-07-05T18:11:09.73</time>
<name>2370</name>
<sym>Dot</sym>
</trkpt>
<trkpt lat="42.873730" lon="-2.106552">
<ele>1638.5</ele>
<desc>Speed 20.9 km/h Distance 10.02 km</desc>
<time>2013-07-05T18:11:10.73</time>
<name>2371</name>
<sym>Dot</sym>
</trkpt>
<trkpt lat="42.873780" lon="-2.106565">
<ele>1638.5</ele>
<desc>Speed 20.2 km/h Distance 10.03 km</desc>
<time>2013-07-05T18:11:11.72</time>
<name>2372</name>
<sym>Dot</sym>
</trkpt>
<trkpt lat="42.873827" lon="-2.106572">
<ele>1638.5</ele>
<desc>Speed 18.5 km/h Distance 10.03 km</desc>
<time>2013-07-05T18:11:12.71</time>
<name>2373</name>
<sym>Dot</sym>
</trkpt>
<trkpt lat="42.873873" lon="-2.106573">
<ele>1638.0</ele>
<desc>Speed 17.8 km/h Distance 10.04 km</desc>
<time>2013-07-05T18:11:13.70</time>
<name>2374</name>
<sym>Dot</sym>
</trkpt>
<trkpt lat="42.873922" lon="-2.106572">
<ele>1637.5</ele>
<desc>Speed 19.4 km/h Distance 10.04 km</desc>
<time>2013-07-05T18:11:14.69</time>
<name>2375</name>
<sym>Dot</sym>
</trkpt>
<trkpt lat="42.873978" lon="-2.106558">
<ele>1636.5</ele>
<desc>Speed 22.4 km/h Distance 10.05 km</desc>
<time>2013-07-05T18:11:15.69</time>
<name>2376</name>
<sym>Dot</sym>
</trkpt>
<trkpt lat="42.874097" lon="-2.106428">
<ele>1635.5</ele>
<desc>Speed 31.5 km/h Distance 10.07 km</desc>
<time>2013-07-05T18:11:17.68</time>
<name>2377</name>
<sym>Dot</sym>
</trkpt>
<trkpt lat="42.874150" lon="-2.106180">
<ele>1635.5</ele>
<desc>Speed 38.7 km/h Distance 10.09 km</desc>
<time>2013-07-05T18:11:19.68</time>
<name>2378</name>
<sym>Dot</sym>
</trkpt>
<trkpt lat="42.874142" lon="-2.106047">
<ele>1635.5</ele>
<desc>Speed 39.3 km/h Distance 10.10 km</desc>
<time>2013-07-05T18:11:20.67</time>
<name>2379</name>
<sym>Dot</sym>
</trkpt>
<trkpt lat="42.874115" lon="-2.105898">
<ele>1634.0</ele>
<desc>Speed 45.2 km/h Distance 10.11 km</desc>
<time>2013-07-05T18:11:21.67</time>
<name>2380</name>
<sym>Dot</sym>
</trkpt>
<trkpt lat="42.874082" lon="-2.105745">
<ele>1634.0</ele>
<desc>Speed 47.3 km/h Distance 10.12 km</desc>
<time>2013-07-05T18:11:22.66</time>
<name>2381</name>
<sym>Dot</sym>
</trkpt>
<trkpt lat="42.874038" lon="-2.105587">
<ele>1634.0</ele>
<desc>Speed 50.0 km/h Distance 10.14 km</desc>
<time>2013-07-05T18:11:23.65</time>
<name>2382</name>
<sym>Dot</sym>
</trkpt>
<trkpt lat="42.874002" lon="-2.105428">
<ele>1635.5</ele>
<desc>Speed 49.1 km/h Distance 10.15 km</desc>
<time>2013-07-05T18:11:24.64</time>
<name>2383</name>
<sym>Dot</sym>
</trkpt>
<trkpt lat="42.873977" lon="-2.105273">
<ele>1637.5</ele>
<desc>Speed 47.1 km/h Distance 10.16 km</desc>
<time>2013-07-05T18:11:25.64</time>
<name>2384</name>
<sym>Dot</sym>
</trkpt>
<trkpt lat="42.873952" lon="-2.105128">
<ele>1639.5</ele>
<desc>Speed 44.4 km/h Distance 10.18 km</desc>
<time>2013-07-05T18:11:26.63</time>
<name>2385</name>
<sym>Dot</sym>
</trkpt>
<trkpt lat="42.873932" lon="-2.104987">
<ele>1639.5</ele>
<desc>Speed 42.3 km/h Distance 10.19 km</desc>
<time>2013-07-05T18:11:27.82</time>
<name>2386</name>
<sym>Dot</sym>
</trkpt>
<trkpt lat="42.873918" lon="-2.104715">
<ele>1637.5</ele>
<desc>Speed 44.0 km/h Distance 10.21 km</desc>
<time>2013-07-05T18:11:29.62</time>
<name>2387</name>
<sym>Dot</sym>
</trkpt>
<trkpt lat="42.873922" lon="-2.104553">
<ele>1636.5</ele>
<desc>Speed 47.6 km/h Distance 10.22 km</desc>
<time>2013-07-05T18:11:30.61</time>
<name>2388</name>
<sym>Dot</sym>
</trkpt>
<trkpt lat="42.873923" lon="-2.104388">
<ele>1637.5</ele>
<desc>Speed 48.9 km/h Distance 10.24 km</desc>
<time>2013-07-05T18:11:31.63</time>
<name>2389</name>
<sym>Dot</sym>
</trkpt>
<trkpt lat="42.873925" lon="-2.104225">
<ele>1637.5</ele>
<desc>Speed 48.1 km/h Distance 10.25 km</desc>
<time>2013-07-05T18:11:32.59</time>
<name>2390</name>
<sym>Dot</sym>
</trkpt>
<trkpt lat="42.873927" lon="-2.103963">
<ele>1637.5</ele>
<desc>Speed 36.5 km/h Distance 10.27 km</desc>
<time>2013-07-05T18:11:34.59</time>
<name>2391</name>
<sym>Dot</sym>
</trkpt>
<trkpt lat="42.873960" lon="-2.103777">
<ele>1638.0</ele>
<desc>Speed 28.5 km/h Distance 10.29 km</desc>
<time>2013-07-05T18:11:36.58</time>
<name>2392</name>
<sym>Dot</sym>
</trkpt>
<trkpt lat="42.873993" lon="-2.103682">
<ele>1638.5</ele>
<desc>Speed 31.6 km/h Distance 10.29 km</desc>
<time>2013-07-05T18:11:37.58</time>
<name>2393</name>
<sym>Dot</sym>
</trkpt>
<trkpt lat="42.874030" lon="-2.103580">
<ele>1638.0</ele>
<desc>Speed 33.9 km/h Distance 10.30 km</desc>
<time>2013-07-05T18:11:38.57</time>
<name>2394</name>
<sym>Dot</sym>
</trkpt>
<trkpt lat="42.874080" lon="-2.103488">
<ele>1639.0</ele>
<desc>Speed 34.5 km/h Distance 10.31 km</desc>
<time>2013-07-05T18:11:39.57</time>
<name>2395</name>
<sym>Dot</sym>
</trkpt>
<trkpt lat="42.874137" lon="-2.103412">
<ele>1640.5</ele>
<desc>Speed 32.8 km/h Distance 10.32 km</desc>
<time>2013-07-05T18:11:40.56</time>
<name>2396</name>
<sym>Dot</sym>
</trkpt>
<trkpt lat="42.874195" lon="-2.103343">
<ele>1641.5</ele>
<desc>Speed 30.7 km/h Distance 10.33 km</desc>
<time>2013-07-05T18:11:41.56</time>
<name>2397</name>
<sym>Dot</sym>
</trkpt>
<trkpt lat="42.874247" lon="-2.103278">
<ele>1643.0</ele>
<desc>Speed 28.9 km/h Distance 10.34 km</desc>
<time>2013-07-05T18:11:42.55</time>
<name>2398</name>
<sym>Dot</sym>
</trkpt>
<trkpt lat="42.874292" lon="-2.103205">
<ele>1644.5</ele>
<desc>Speed 29.0 km/h Distance 10.35 km</desc>
<time>2013-07-05T18:11:43.55</time>
<name>2399</name>
<sym>Dot</sym>
</trkpt>
<trkpt lat="42.874335" lon="-2.103122">
<ele>1644.5</ele>
<desc>Speed 30.1 km/h Distance 10.35 km</desc>
<time>2013-07-05T18:11:44.54</time>
<name>2400</name>
<sym>Dot</sym>
</trkpt>
<trkpt lat="42.874373" lon="-2.103030">
<ele>1644.0</ele>
<desc>Speed 31.4 km/h Distance 10.36 km</desc>
<time>2013-07-05T18:11:45.53</time>
<name>2401</name>
<sym>Dot</sym>
</trkpt>
<trkpt lat="42.874413" lon="-2.102930">
<ele>1644.0</ele>
<desc>Speed 33.6 km/h Distance 10.37 km</desc>
<time>2013-07-05T18:11:46.52</time>
<name>2402</name>
<sym>Dot</sym>
</trkpt>
<trkpt lat="42.874452" lon="-2.102822">
<ele>1644.0</ele>
<desc>Speed 35.7 km/h Distance 10.38 km</desc>
<time>2013-07-05T18:11:47.51</time>
<name>2403</name>
<sym>Dot</sym>
</trkpt>
<trkpt lat="42.874492" lon="-2.102713">
<ele>1644.5</ele>
<desc>Speed 35.9 km/h Distance 10.39 km</desc>
<time>2013-07-05T18:11:48.51</time>
<name>2404</name>
<sym>Dot</sym>
</trkpt>
<trkpt lat="42.874533" lon="-2.102615">
<ele>1645.5</ele>
<desc>Speed 33.3 km/h Distance 10.40 km</desc>
<time>2013-07-05T18:11:49.50</time>
<name>2405</name>
<sym>Dot</sym>
</trkpt>
<trkpt lat="42.874577" lon="-2.102530">
<ele>1646.0</ele>
<desc>Speed 30.3 km/h Distance 10.41 km</desc>
<time>2013-07-05T18:11:50.49</time>
<name>2406</name>
<sym>Dot</sym>
</trkpt>
<trkpt lat="42.874627" lon="-2.102462">
<ele>1646.0</ele>
<desc>Speed 27.9 km/h Distance 10.42 km</desc>
<time>2013-07-05T18:11:51.49</time>
<name>2407</name>
<sym>Dot</sym>
</trkpt>
<trkpt lat="42.874682" lon="-2.102405">
<ele>1646.0</ele>
<desc>Speed 27.5 km/h Distance 10.43 km</desc>
<time>2013-07-05T18:11:52.47</time>
<name>2408</name>
<sym>Dot</sym>
</trkpt>
<trkpt lat="42.874740" lon="-2.102357">
<ele>1646.5</ele>
<desc>Speed 27.4 km/h Distance 10.43 km</desc>
<time>2013-07-05T18:11:53.47</time>
<name>2409</name>
<sym>Dot</sym>
</trkpt>
<trkpt lat="42.874802" lon="-2.102317">
<ele>1648.0</ele>
<desc>Speed 27.2 km/h Distance 10.44 km</desc>
<time>2013-07-05T18:11:54.46</time>
<name>2410</name>
<sym>Dot</sym>
</trkpt>
<trkpt lat="42.874863" lon="-2.102282">
<ele>1649.5</ele>
<desc>Speed 26.9 km/h Distance 10.45 km</desc>
<time>2013-07-05T18:11:55.46</time>
<name>2411</name>
<sym>Dot</sym>
</trkpt>
<trkpt lat="42.874927" lon="-2.102248">
<ele>1650.5</ele>
<desc>Speed 26.8 km/h Distance 10.46 km</desc>
<time>2013-07-05T18:11:56.45</time>
<name>2412</name>
<sym>Dot</sym>
</trkpt>
<trkpt lat="42.874987" lon="-2.102215">
<ele>1652.0</ele>
<desc>Speed 26.3 km/h Distance 10.46 km</desc>
<time>2013-07-05T18:11:57.45</time>
<name>2413</name>
<sym>Dot</sym>
</trkpt>
<trkpt lat="42.875047" lon="-2.102180">
<ele>1653.0</ele>
<desc>Speed 26.1 km/h Distance 10.47 km</desc>
<time>2013-07-05T18:11:58.44</time>
<name>2414</name>
<sym>Dot</sym>
</trkpt>
<trkpt lat="42.875107" lon="-2.102132">
<ele>1654.0</ele>
<desc>Speed 27.6 km/h Distance 10.48 km</desc>
<time>2013-07-05T18:11:59.43</time>
<name>2415</name>
<sym>Dot</sym>
</trkpt>
<trkpt lat="42.875167" lon="-2.102075">
<ele>1655.0</ele>
<desc>Speed 29.6 km/h Distance 10.49 km</desc>
<time>2013-07-05T18:12:00.43</time>
<name>2416</name>
<sym>Dot</sym>
</trkpt>
<trkpt lat="42.875227" lon="-2.102015">
<ele>1656.0</ele>
<desc>Speed 30.0 km/h Distance 10.49 km</desc>
<time>2013-07-05T18:12:01.42</time>
<name>2417</name>
<sym>Dot</sym>
</trkpt>
<trkpt lat="42.875285" lon="-2.101955">
<ele>1657.5</ele>
<desc>Speed 29.3 km/h Distance 10.50 km</desc>
<time>2013-07-05T18:12:02.41</time>
<name>2418</name>
<sym>Dot</sym>
</trkpt>
<trkpt lat="42.875340" lon="-2.101895">
<ele>1659.0</ele>
<desc>Speed 28.4 km/h Distance 10.51 km</desc>
<time>2013-07-05T18:12:03.40</time>
<name>2419</name>
<sym>Dot</sym>
</trkpt>
<trkpt lat="42.875395" lon="-2.101830">
<ele>1660.5</ele>
<desc>Speed 29.2 km/h Distance 10.52 km</desc>
<time>2013-07-05T18:12:04.39</time>
<name>2420</name>
<sym>Dot</sym>
</trkpt>
<trkpt lat="42.875450" lon="-2.101758">
<ele>1661.5</ele>
<desc>Speed 30.7 km/h Distance 10.53 km</desc>
<time>2013-07-05T18:12:05.39</time>
<name>2421</name>
<sym>Dot</sym>
</trkpt>
<trkpt lat="42.875502" lon="-2.101678">
<ele>1662.5</ele>
<desc>Speed 31.7 km/h Distance 10.54 km</desc>
<time>2013-07-05T18:12:06.38</time>
<name>2422</name>
<sym>Dot</sym>
</trkpt>
<trkpt lat="42.875553" lon="-2.101593">
<ele>1664.0</ele>
<desc>Speed 32.6 km/h Distance 10.54 km</desc>
<time>2013-07-05T18:12:07.37</time>
<name>2423</name>
<sym>Dot</sym>
</trkpt>
<trkpt lat="42.875605" lon="-2.101510">
<ele>1666.0</ele>
<desc>Speed 32.0 km/h Distance 10.55 km</desc>
<time>2013-07-05T18:12:08.36</time>
<name>2424</name>
<sym>Dot</sym>
</trkpt>
<trkpt lat="42.875657" lon="-2.101433">
<ele>1668.0</ele>
<desc>Speed 30.7 km/h Distance 10.56 km</desc>
<time>2013-07-05T18:12:09.37</time>
<name>2425</name>
<sym>Dot</sym>
</trkpt>
<trkpt lat="42.875707" lon="-2.101365">
<ele>1669.5</ele>
<desc>Speed 29.0 km/h Distance 10.57 km</desc>
<time>2013-07-05T18:12:10.35</time>
<name>2426</name>
<sym>Dot</sym>
</trkpt>
<trkpt lat="42.875762" lon="-2.101302">
<ele>1671.0</ele>
<desc>Speed 28.8 km/h Distance 10.58 km</desc>
<time>2013-07-05T18:12:11.35</time>
<name>2427</name>
<sym>Dot</sym>
</trkpt>
<trkpt lat="42.875823" lon="-2.101245">
<ele>1672.5</ele>
<desc>Speed 29.9 km/h Distance 10.59 km</desc>
<time>2013-07-05T18:12:12.34</time>
<name>2428</name>
<sym>Dot</sym>
</trkpt>
<trkpt lat="42.875890" lon="-2.101192">
<ele>1674.0</ele>
<desc>Speed 31.0 km/h Distance 10.59 km</desc>
<time>2013-07-05T18:12:13.34</time>
<name>2429</name>
<sym>Dot</sym>
</trkpt>
<trkpt lat="42.875948" lon="-2.101147">
<ele>1674.5</ele>
<desc>Speed 27.0 km/h Distance 10.60 km</desc>
<time>2013-07-05T18:12:14.33</time>
<name>2430</name>
<sym>Dot</sym>
</trkpt>
<trkpt lat="42.876008" lon="-2.101100">
<ele>1672.5</ele>
<desc>Speed 27.4 km/h Distance 10.61 km</desc>
<time>2013-07-05T18:12:15.32</time>
<name>2431</name>
<sym>Dot</sym>
</trkpt>
<trkpt lat="42.876063" lon="-2.101093">
<ele>1674.0</ele>
<desc>Speed 21.9 km/h Distance 10.62 km</desc>
<time>2013-07-05T18:12:16.32</time>
<name>2432</name>
<sym>Dot</sym>
</trkpt>
<trkpt lat="42.876120" lon="-2.101100">
<ele>1674.5</ele>
<desc>Speed 22.7 km/h Distance 10.62 km</desc>
<time>2013-07-05T18:12:17.31</time>
<name>2433</name>
<sym>Dot</sym>
</trkpt>
<trkpt lat="42.876180" lon="-2.101115">
<ele>1675.0</ele>
<desc>Speed 24.7 km/h Distance 10.63 km</desc>
<time>2013-07-05T18:12:18.30</time>
<name>2434</name>
<sym>Dot</sym>
</trkpt>
<trkpt lat="42.876243" lon="-2.101133">
<ele>1676.5</ele>
<desc>Speed 25.5 km/h Distance 10.64 km</desc>
<time>2013-07-05T18:12:19.29</time>
<name>2435</name>
<sym>Dot</sym>
</trkpt>
<trkpt lat="42.876298" lon="-2.101135">
<ele>1677.0</ele>
<desc>Speed 21.9 km/h Distance 10.64 km</desc>
<time>2013-07-05T18:12:20.30</time>
<name>2436</name>
<sym>Dot</sym>
</trkpt>
<trkpt lat="42.876355" lon="-2.101112">
<ele>1679.5</ele>
<desc>Speed 23.3 km/h Distance 10.65 km</desc>
<time>2013-07-05T18:12:21.29</time>
<name>2437</name>
<sym>Dot</sym>
</trkpt>
<trkpt lat="42.876410" lon="-2.101078">
<ele>1681.0</ele>
<desc>Speed 24.5 km/h Distance 10.66 km</desc>
<time>2013-07-05T18:12:22.29</time>
<name>2438</name>
<sym>Dot</sym>
</trkpt>
<trkpt lat="42.876470" lon="-2.101017">
<ele>1683.0</ele>
<desc>Speed 30.7 km/h Distance 10.66 km</desc>
<time>2013-07-05T18:12:23.28</time>
<name>2439</name>
<sym>Dot</sym>
</trkpt>
<trkpt lat="42.876530" lon="-2.100952">
<ele>1684.5</ele>
<desc>Speed 31.0 km/h Distance 10.67 km</desc>
<time>2013-07-05T18:12:24.27</time>
<name>2440</name>
<sym>Dot</sym>
</trkpt>
<trkpt lat="42.876582" lon="-2.100852">
<ele>1684.5</ele>
<desc>Speed 35.8 km/h Distance 10.68 km</desc>
<time>2013-07-05T18:12:25.27</time>
<name>2441</name>
<sym>Dot</sym>
</trkpt>
<trkpt lat="42.876630" lon="-2.100733">
<ele>1686.0</ele>
<desc>Speed 39.8 km/h Distance 10.69 km</desc>
<time>2013-07-05T18:12:26.26</time>
<name>2442</name>
<sym>Dot</sym>
</trkpt>
<trkpt lat="42.876675" lon="-2.100615">
<ele>1687.0</ele>
<desc>Speed 38.8 km/h Distance 10.70 km</desc>
<time>2013-07-05T18:12:27.26</time>
<name>2443</name>
<sym>Dot</sym>
</trkpt>
<trkpt lat="42.876738" lon="-2.100543">
<ele>1688.0</ele>
<desc>Speed 32.8 km/h Distance 10.71 km</desc>
<time>2013-07-05T18:12:28.25</time>
<name>2444</name>
<sym>Dot</sym>
</trkpt>
<trkpt lat="42.876817" lon="-2.100500">
<ele>1689.5</ele>
<desc>Speed 33.3 km/h Distance 10.72 km</desc>
<time>2013-07-05T18:12:29.24</time>
<name>2445</name>
<sym>Dot</sym>
</trkpt>
<trkpt lat="42.876900" lon="-2.100510">
<ele>1691.0</ele>
<desc>Speed 33.2 km/h Distance 10.73 km</desc>
<time>2013-07-05T18:12:30.24</time>
<name>2446</name>
<sym>Dot</sym>
</trkpt>
<trkpt lat="42.876963" lon="-2.100535">
<ele>1691.0</ele>
<desc>Speed 26.5 km/h Distance 10.74 km</desc>
<time>2013-07-05T18:12:31.24</time>
<name>2447</name>
<sym>Dot</sym>
</trkpt>
<trkpt lat="42.877018" lon="-2.100595">
<ele>1691.0</ele>
<desc>Speed 28.0 km/h Distance 10.75 km</desc>
<time>2013-07-05T18:12:32.23</time>
<name>2448</name>
<sym>Dot</sym>
</trkpt>
<trkpt lat="42.877062" lon="-2.100643">
<ele>1691.0</ele>
<desc>Speed 28.0 km/h Distance 10.75 km</desc>
<time>2013-07-05T18:12:33.22</time>
<name>2449</name>
<sym>Dot</sym>
</trkpt>
<trkpt lat="42.877038" lon="-2.100832">
<ele>1690.5</ele>
<desc>Speed 41.6 km/h Distance 10.77 km</desc>
<time>2013-07-05T18:12:35.23</time>
<name>2450</name>
<sym>Dot</sym>
</trkpt>
<trkpt lat="42.876970" lon="-2.100955">
<ele>1692.0</ele>
<desc>Speed 39.2 km/h Distance 10.78 km</desc>
<time>2013-07-05T18:12:36.21</time>
<name>2451</name>
<sym>Dot</sym>
</trkpt>
<trkpt lat="42.876765" lon="-2.101190">
<ele>1692.5</ele>
<desc>Speed 46.7 km/h Distance 10.81 km</desc>
<time>2013-07-05T18:12:38.22</time>
<name>2452</name>
<sym>Dot</sym>
</trkpt>
<trkpt lat="42.876672" lon="-2.101272">
<ele>1693.0</ele>
<desc>Speed 46.7 km/h Distance 10.82 km</desc>
<time>2013-07-05T18:12:39.21</time>
<name>2453</name>
<sym>Dot</sym>
</trkpt>
<trkpt lat="42.876472" lon="-2.101173">
<ele>1694.0</ele>
<desc>Speed 57.8 km/h Distance 10.85 km</desc>
<time>2013-07-05T18:12:41.20</time>
<name>2454</name>
<sym>Dot</sym>
</trkpt>
<trkpt lat="42.876507" lon="-2.100658">
<ele>1695.0</ele>
<desc>Speed 34.7 km/h Distance 10.89 km</desc>
<time>2013-07-05T18:12:45.71</time>
<name>2455</name>
<sym>Dot</sym>
</trkpt>
<trkpt lat="42.876578" lon="-2.100595">
<ele>1694.0</ele>
<desc>Speed 32.5 km/h Distance 10.90 km</desc>
<time>2013-07-05T18:12:46.70</time>
<name>2456</name>
<sym>Dot</sym>
</trkpt>
<trkpt lat="42.876658" lon="-2.100560">
<ele>1695.5</ele>
<desc>Speed 32.0 km/h Distance 10.91 km</desc>
<time>2013-07-05T18:12:47.70</time>
<name>2457</name>
<sym>Dot</sym>
</trkpt>
<trkpt lat="42.876735" lon="-2.100538">
<ele>1696.0</ele>
<desc>Speed 29.5 km/h Distance 10.92 km</desc>
<time>2013-07-05T18:12:48.68</time>
<name>2458</name>
<sym>Dot</sym>
</trkpt>
<trkpt lat="42.876800" lon="-2.100523">
<ele>1697.0</ele>
<desc>Speed 28.6 km/h Distance 10.93 km</desc>
<time>2013-07-05T18:12:49.68</time>
<name>2459</name>
<sym>Dot</sym>
</trkpt>
<trkpt lat="42.876853" lon="-2.100533">
<ele>1697.0</ele>
<desc>Speed 26.5 km/h Distance 10.93 km</desc>
<time>2013-07-05T18:12:50.67</time>
<name>2460</name>
<sym>Dot</sym>
</trkpt>
<trkpt lat="42.876913" lon="-2.100592">
<ele>1698.5</ele>
<desc>Speed 24.6 km/h Distance 10.94 km</desc>
<time>2013-07-05T18:12:52.68</time>
<name>2461</name>
<sym>Dot</sym>
</trkpt>
<trkpt lat="42.876930" lon="-2.100667">
<ele>1697.0</ele>
<desc>Speed 26.0 km/h Distance 10.95 km</desc>
<time>2013-07-05T18:12:53.67</time>
<name>2462</name>
<sym>Dot</sym>
</trkpt>
<trkpt lat="42.876895" lon="-2.100890">
<ele>1697.0</ele>
<desc>Speed 35.6 km/h Distance 10.96 km</desc>
<time>2013-07-05T18:12:55.66</time>
<name>2463</name>
<sym>Dot</sym>
</trkpt>
<trkpt lat="42.876868" lon="-2.100985">
<ele>1697.5</ele>
<desc>Speed 31.0 km/h Distance 10.97 km</desc>
<time>2013-07-05T18:12:56.65</time>
<name>2464</name>
<sym>Dot</sym>
</trkpt>
<trkpt lat="42.876688" lon="-2.101103">
<ele>1700.0</ele>
<desc>Speed 41.5 km/h Distance 10.99 km</desc>
<time>2013-07-05T18:12:58.65</time>
<name>2465</name>
<sym>Dot</sym>
</trkpt>
<trkpt lat="42.876438" lon="-2.101055">
<ele>1704.5</ele>
<desc>Speed 49.2 km/h Distance 11.02 km</desc>
<time>2013-07-05T18:13:00.64</time>
<name>2466</name>
<sym>Dot</sym>
</trkpt>
<trkpt lat="42.876327" lon="-2.100988">
<ele>1705.5</ele>
<desc>Speed 48.4 km/h Distance 11.04 km</desc>
<time>2013-07-05T18:13:01.64</time>
<name>2467</name>
<sym>Dot</sym>
</trkpt>
<trkpt lat="42.876232" lon="-2.100938">
<ele>1707.0</ele>
<desc>Speed 48.4 km/h Distance 11.05 km</desc>
<time>2013-07-05T18:13:02.62</time>
<name>2468</name>
<sym>Dot</sym>
</trkpt>
<trkpt lat="42.876180" lon="-2.100558">
<ele>1708.5</ele>
<desc>Speed 50.5 km/h Distance 11.08 km</desc>
<time>2013-07-05T18:13:04.62</time>
<name>2469</name>
<sym>Dot</sym>
</trkpt>
<trkpt lat="42.876347" lon="-2.100140">
<ele>1711.0</ele>
<desc>Speed 26.9 km/h Distance 11.12 km</desc>
<time>2013-07-05T18:13:08.69</time>
<name>2470</name>
<sym>Dot</sym>
</trkpt>
<trkpt lat="42.876400" lon="-2.100077">
<ele>1711.0</ele>
<desc>Speed 27.0 km/h Distance 11.13 km</desc>
<time>2013-07-05T18:13:09.68</time>
<name>2471</name>
<sym>Dot</sym>
</trkpt>
<trkpt lat="42.876465" lon="-2.100030">
<ele>1710.0</ele>
<desc>Speed 28.2 km/h Distance 11.13 km</desc>
<time>2013-07-05T18:13:10.67</time>
<name>2472</name>
<sym>Dot</sym>
</trkpt>
<trkpt lat="42.876627" lon="-2.099977">
<ele>1712.0</ele>
<desc>Speed 36.8 km/h Distance 11.15 km</desc>
<time>2013-07-05T18:13:12.67</time>
<name>2473</name>
<sym>Dot</sym>
</trkpt>
<trkpt lat="42.876762" lon="-2.099843">
<ele>1715.5</ele>
<desc>Speed 17.9 km/h Distance 11.17 km</desc>
<time>2013-07-05T18:13:15.68</time>
<name>2474</name>
<sym>Dot</sym>
</trkpt>
<trkpt lat="42.876803" lon="-2.099812">
<ele>1715.0</ele>
<desc>Speed 17.6 km/h Distance 11.18 km</desc>
<time>2013-07-05T18:13:16.67</time>
<name>2475</name>
<sym>Dot</sym>
</trkpt>
<trkpt lat="42.876940" lon="-2.099815">
<ele>1714.0</ele>
<desc>Speed 27.9 km/h Distance 11.19 km</desc>
<time>2013-07-05T18:13:18.67</time>
<name>2476</name>
<sym>Dot</sym>
</trkpt>
<trkpt lat="42.877100" lon="-2.099837">
<ele>1716.5</ele>
<desc>Speed 30.0 km/h Distance 11.21 km</desc>
<time>2013-07-05T18:13:20.65</time>
<name>2477</name>
<sym>Dot</sym>
</trkpt>
<trkpt lat="42.877165" lon="-2.099845">
<ele>1719.0</ele>
<desc>Speed 25.2 km/h Distance 11.22 km</desc>
<time>2013-07-05T18:13:21.64</time>
<name>2478</name>
<sym>Dot</sym>
</trkpt>
<trkpt lat="42.877255" lon="-2.099838">
<ele>1718.0</ele>
<desc>Speed 18.7 km/h Distance 11.23 km</desc>
<time>2013-07-05T18:13:23.64</time>
<name>2479</name>
<sym>Dot</sym>
</trkpt>
<trkpt lat="42.877475" lon="-2.099947">
<ele>1717.5</ele>
<desc>Speed 40.2 km/h Distance 11.25 km</desc>
<time>2013-07-05T18:13:26.66</time>
<name>2480</name>
<sym>Dot</sym>
</trkpt>
<trkpt lat="42.877647" lon="-2.099987">
<ele>1719.5</ele>
<desc>Speed 19.7 km/h Distance 11.27 km</desc>
<time>2013-07-05T18:13:29.66</time>
<name>2481</name>
<sym>Dot</sym>
</trkpt>
<trkpt lat="42.877697" lon="-2.099988">
<ele>1719.0</ele>
<desc>Speed 20.3 km/h Distance 11.28 km</desc>
<time>2013-07-05T18:13:30.65</time>
<name>2482</name>
<sym>Dot</sym>
</trkpt>
<trkpt lat="42.877840" lon="-2.100030">
<ele>1719.5</ele>
<desc>Speed 32.5 km/h Distance 11.29 km</desc>
<time>2013-07-05T18:13:32.65</time>
<name>2483</name>
<sym>Dot</sym>
</trkpt>
<trkpt lat="42.877923" lon="-2.100052">
<ele>1720.5</ele>
<desc>Speed 34.1 km/h Distance 11.30 km</desc>
<time>2013-07-05T18:13:33.64</time>
<name>2484</name>
<sym>Dot</sym>
</trkpt>
<trkpt lat="42.877998" lon="-2.100065">
<ele>1721.5</ele>
<desc>Speed 31.0 km/h Distance 11.31 km</desc>
<time>2013-07-05T18:13:34.64</time>
<name>2485</name>
<sym>Dot</sym>
</trkpt>
<trkpt lat="42.878068" lon="-2.100065">
<ele>1722.5</ele>
<desc>Speed 28.8 km/h Distance 11.32 km</desc>
<time>2013-07-05T18:13:35.64</time>
<name>2486</name>
<sym>Dot</sym>
</trkpt>
<trkpt lat="42.878132" lon="-2.100048">
<ele>1722.5</ele>
<desc>Speed 28.2 km/h Distance 11.33 km</desc>
<time>2013-07-05T18:13:36.63</time>
<name>2487</name>
<sym>Dot</sym>
</trkpt>
<trkpt lat="42.878200" lon="-2.100047">
<ele>1722.0</ele>
<desc>Speed 28.4 km/h Distance 11.33 km</desc>
<time>2013-07-05T18:13:37.62</time>
<name>2488</name>
<sym>Dot</sym>
</trkpt>
<trkpt lat="42.878272" lon="-2.100053">
<ele>1721.5</ele>
<desc>Speed 29.8 km/h Distance 11.34 km</desc>
<time>2013-07-05T18:13:38.61</time>
<name>2489</name>
<sym>Dot</sym>
</trkpt>
<trkpt lat="42.878347" lon="-2.100058">
<ele>1721.0</ele>
<desc>Speed 31.4 km/h Distance 11.35 km</desc>
<time>2013-07-05T18:13:39.61</time>
<name>2490</name>
<sym>Dot</sym>
</trkpt>
<trkpt lat="42.878427" lon="-2.100060">
<ele>1721.0</ele>
<desc>Speed 32.4 km/h Distance 11.36 km</desc>
<time>2013-07-05T18:13:40.60</time>
<name>2491</name>
<sym>Dot</sym>
</trkpt>
<trkpt lat="42.878507" lon="-2.100058">
<ele>1721.0</ele>
<desc>Speed 32.4 km/h Distance 11.37 km</desc>
<time>2013-07-05T18:13:41.59</time>
<name>2492</name>
<sym>Dot</sym>
</trkpt>
<trkpt lat="42.878585" lon="-2.100047">
<ele>1721.0</ele>
<desc>Speed 32.3 km/h Distance 11.38 km</desc>
<time>2013-07-05T18:13:42.59</time>
<name>2493</name>
<sym>Dot</sym>
</trkpt>
<trkpt lat="42.878665" lon="-2.100032">
<ele>1721.0</ele>
<desc>Speed 32.6 km/h Distance 11.39 km</desc>
<time>2013-07-05T18:13:43.58</time>
<name>2494</name>
<sym>Dot</sym>
</trkpt>
<trkpt lat="42.878743" lon="-2.100017">
<ele>1721.0</ele>
<desc>Speed 32.6 km/h Distance 11.40 km</desc>
<time>2013-07-05T18:13:44.57</time>
<name>2495</name>
<sym>Dot</sym>
</trkpt>
<trkpt lat="42.878823" lon="-2.100008">
<ele>1721.5</ele>
<desc>Speed 32.9 km/h Distance 11.40 km</desc>
<time>2013-07-05T18:13:45.56</time>
<name>2496</name>
<sym>Dot</sym>
</trkpt>
<trkpt lat="42.878905" lon="-2.100000">
<ele>1721.5</ele>
<desc>Speed 33.1 km/h Distance 11.41 km</desc>
<time>2013-07-05T18:13:46.56</time>
<name>2497</name>
<sym>Dot</sym>
</trkpt>
<trkpt lat="42.878987" lon="-2.099988">
<ele>1722.0</ele>
<desc>Speed 33.2 km/h Distance 11.42 km</desc>
<time>2013-07-05T18:13:47.55</time>
<name>2498</name>
<sym>Dot</sym>
</trkpt>
<trkpt lat="42.879068" lon="-2.099978">
<ele>1722.5</ele>
<desc>Speed 33.0 km/h Distance 11.43 km</desc>
<time>2013-07-05T18:13:48.54</time>
<name>2499</name>
<sym>Dot</sym>
</trkpt>
<trkpt lat="42.879148" lon="-2.099972">
<ele>1723.5</ele>
<desc>Speed 32.1 km/h Distance 11.44 km</desc>
<time>2013-07-05T18:13:49.54</time>
<name>2500</name>
<sym>Dot</sym>
</trkpt>
<trkpt lat="42.879223" lon="-2.099963">
<ele>1724.5</ele>
<desc>Speed 30.1 km/h Distance 11.45 km</desc>
<time>2013-07-05T18:13:50.53</time>
<name>2501</name>
<sym>Dot</sym>
</trkpt>
<trkpt lat="42.879290" lon="-2.099957">
<ele>1725.0</ele>
<desc>Speed 26.9 km/h Distance 11.46 km</desc>
<time>2013-07-05T18:13:51.53</time>
<name>2502</name>
<sym>Dot</sym>
</trkpt>
<trkpt lat="42.879338" lon="-2.099935">
<ele>1723.0</ele>
<desc>Speed 20.6 km/h Distance 11.46 km</desc>
<time>2013-07-05T18:13:52.53</time>
<name>2503</name>
<sym>Dot</sym>
</trkpt>
<trkpt lat="42.879402" lon="-2.099922">
<ele>1722.5</ele>
<desc>Speed 25.7 km/h Distance 11.47 km</desc>
<time>2013-07-05T18:13:53.51</time>
<name>2504</name>
<sym>Dot</sym>
</trkpt>
<trkpt lat="42.879482" lon="-2.099907">
<ele>1723.5</ele>
<desc>Speed 32.6 km/h Distance 11.48 km</desc>
<time>2013-07-05T18:13:54.51</time>
<name>2505</name>
<sym>Dot</sym>
</trkpt>
<trkpt lat="42.879557" lon="-2.099893">
<ele>1723.5</ele>
<desc>Speed 30.6 km/h Distance 11.49 km</desc>
<time>2013-07-05T18:13:55.50</time>
<name>2506</name>
<sym>Dot</sym>
</trkpt>
<trkpt lat="42.879632" lon="-2.099890">
<ele>1724.0</ele>
<desc>Speed 30.1 km/h Distance 11.50 km</desc>
<time>2013-07-05T18:13:56.50</time>
<name>2507</name>
<sym>Dot</sym>
</trkpt>
<trkpt lat="42.879702" lon="-2.099897">
<ele>1724.5</ele>
<desc>Speed 28.2 km/h Distance 11.50 km</desc>
<time>2013-07-05T18:13:57.49</time>
<name>2508</name>
<sym>Dot</sym>
</trkpt>
<trkpt lat="42.879768" lon="-2.099903">
<ele>1725.0</ele>
<desc>Speed 26.8 km/h Distance 11.51 km</desc>
<time>2013-07-05T18:13:58.50</time>
<name>2509</name>
<sym>Dot</sym>
</trkpt>
<trkpt lat="42.879837" lon="-2.099905">
<ele>1725.0</ele>
<desc>Speed 27.1 km/h Distance 11.52 km</desc>
<time>2013-07-05T18:13:59.50</time>
<name>2510</name>
<sym>Dot</sym>
</trkpt>
<trkpt lat="42.879917" lon="-2.099910">
<ele>1725.5</ele>
<desc>Speed 32.8 km/h Distance 11.53 km</desc>
<time>2013-07-05T18:14:00.49</time>
<name>2511</name>
<sym>Dot</sym>
</trkpt>
<trkpt lat="42.879992" lon="-2.099925">
<ele>1725.5</ele>
<desc>Speed 30.9 km/h Distance 11.54 km</desc>
<time>2013-07-05T18:14:01.48</time>
<name>2512</name>
<sym>Dot</sym>
</trkpt>
<trkpt lat="42.880067" lon="-2.099950">
<ele>1725.0</ele>
<desc>Speed 30.9 km/h Distance 11.54 km</desc>
<time>2013-07-05T18:14:02.48</time>
<name>2513</name>
<sym>Dot</sym>
</trkpt>
<trkpt lat="42.880138" lon="-2.099980">
<ele>1725.5</ele>
<desc>Speed 30.2 km/h Distance 11.55 km</desc>
<time>2013-07-05T18:14:03.47</time>
<name>2514</name>
<sym>Dot</sym>
</trkpt>
<trkpt lat="42.880207" lon="-2.099995">
<ele>1725.0</ele>
<desc>Speed 27.8 km/h Distance 11.56 km</desc>
<time>2013-07-05T18:14:04.46</time>
<name>2515</name>
<sym>Dot</sym>
</trkpt>
<trkpt lat="42.880282" lon="-2.099983">
<ele>1725.0</ele>
<desc>Speed 30.7 km/h Distance 11.57 km</desc>
<time>2013-07-05T18:14:05.45</time>
<name>2516</name>
<sym>Dot</sym>
</trkpt>
<trkpt lat="42.880357" lon="-2.099945">
<ele>1725.0</ele>
<desc>Speed 32.0 km/h Distance 11.58 km</desc>
<time>2013-07-05T18:14:06.45</time>
<name>2517</name>
<sym>Dot</sym>
</trkpt>
<trkpt lat="42.880433" lon="-2.099905">
<ele>1724.5</ele>
<desc>Speed 33.0 km/h Distance 11.59 km</desc>
<time>2013-07-05T18:14:07.44</time>
<name>2518</name>
<sym>Dot</sym>
</trkpt>
<trkpt lat="42.880513" lon="-2.099865">
<ele>1724.0</ele>
<desc>Speed 33.9 km/h Distance 11.60 km</desc>
<time>2013-07-05T18:14:08.43</time>
<name>2519</name>
<sym>Dot</sym>
</trkpt>
<trkpt lat="42.880595" lon="-2.099832">
<ele>1723.5</ele>
<desc>Speed 34.5 km/h Distance 11.61 km</desc>
<time>2013-07-05T18:14:09.43</time>
<name>2520</name>
<sym>Dot</sym>
</trkpt>
<trkpt lat="42.880675" lon="-2.099800">
<ele>1724.5</ele>
<desc>Speed 33.1 km/h Distance 11.61 km</desc>
<time>2013-07-05T18:14:10.42</time>
<name>2521</name>
<sym>Dot</sym>
</trkpt>
<trkpt lat="42.880747" lon="-2.099768">
<ele>1725.5</ele>
<desc>Speed 29.9 km/h Distance 11.62 km</desc>
<time>2013-07-05T18:14:11.42</time>
<name>2522</name>
<sym>Dot</sym>
</trkpt>
<trkpt lat="42.880805" lon="-2.099733">
<ele>1726.5</ele>
<desc>Speed 26.0 km/h Distance 11.63 km</desc>
<time>2013-07-05T18:14:12.42</time>
<name>2523</name>
<sym>Dot</sym>
</trkpt>
<trkpt lat="42.880863" lon="-2.099708">
<ele>1726.5</ele>
<desc>Speed 24.2 km/h Distance 11.64 km</desc>
<time>2013-07-05T18:14:13.42</time>
<name>2524</name>
<sym>Dot</sym>
</trkpt>
<trkpt lat="42.880927" lon="-2.099687">
<ele>1726.0</ele>
<desc>Speed 25.8 km/h Distance 11.64 km</desc>
<time>2013-07-05T18:14:14.41</time>
<name>2525</name>
<sym>Dot</sym>
</trkpt>
<trkpt lat="42.880993" lon="-2.099667">
<ele>1724.5</ele>
<desc>Speed 27.5 km/h Distance 11.65 km</desc>
<time>2013-07-05T18:14:15.40</time>
<name>2526</name>
<sym>Dot</sym>
</trkpt>
<trkpt lat="42.881068" lon="-2.099648">
<ele>1722.5</ele>
<desc>Speed 30.5 km/h Distance 11.66 km</desc>
<time>2013-07-05T18:14:16.40</time>
<name>2527</name>
<sym>Dot</sym>
</trkpt>
<trkpt lat="42.881143" lon="-2.099633">
<ele>1721.0</ele>
<desc>Speed 30.8 km/h Distance 11.67 km</desc>
<time>2013-07-05T18:14:17.39</time>
<name>2528</name>
<sym>Dot</sym>
</trkpt>
<trkpt lat="42.881218" lon="-2.099625">
<ele>1720.5</ele>
<desc>Speed 30.2 km/h Distance 11.68 km</desc>
<time>2013-07-05T18:14:18.38</time>
<name>2529</name>
<sym>Dot</sym>
</trkpt>
<trkpt lat="42.881293" lon="-2.099618">
<ele>1719.5</ele>
<desc>Speed 29.7 km/h Distance 11.69 km</desc>
<time>2013-07-05T18:14:19.38</time>
<name>2530</name>
<sym>Dot</sym>
</trkpt>
<trkpt lat="42.881362" lon="-2.099605">
<ele>1718.0</ele>
<desc>Speed 28.0 km/h Distance 11.69 km</desc>
<time>2013-07-05T18:14:20.38</time>
<name>2531</name>
<sym>Dot</sym>
</trkpt>
<trkpt lat="42.881432" lon="-2.099583">
<ele>1716.5</ele>
<desc>Speed 28.6 km/h Distance 11.70 km</desc>
<time>2013-07-05T18:14:21.37</time>
<name>2532</name>
<sym>Dot</sym>
</trkpt>
<trkpt lat="42.881503" lon="-2.099557">
<ele>1714.5</ele>
<desc>Speed 30.2 km/h Distance 11.71 km</desc>
<time>2013-07-05T18:14:22.36</time>
<name>2533</name>
<sym>Dot</sym>
</trkpt>
<trkpt lat="42.881580" lon="-2.099532">
<ele>1713.0</ele>
<desc>Speed 32.0 km/h Distance 11.72 km</desc>
<time>2013-07-05T18:14:23.35</time>
<name>2534</name>
<sym>Dot</sym>
</trkpt>
<trkpt lat="42.881660" lon="-2.099505">
<ele>1711.5</ele>
<desc>Speed 33.0 km/h Distance 11.73 km</desc>
<time>2013-07-05T18:14:24.35</time>
<name>2535</name>
<sym>Dot</sym>
</trkpt>
<trkpt lat="42.881742" lon="-2.099475">
<ele>1711.0</ele>
<desc>Speed 33.5 km/h Distance 11.74 km</desc>
<time>2013-07-05T18:14:25.34</time>
<name>2536</name>
<sym>Dot</sym>
</trkpt>
<trkpt lat="42.881817" lon="-2.099438">
<ele>1711.0</ele>
<desc>Speed 32.1 km/h Distance 11.75 km</desc>
<time>2013-07-05T18:14:26.33</time>
<name>2537</name>
<sym>Dot</sym>
</trkpt>
<trkpt lat="42.881882" lon="-2.099388">
<ele>1710.5</ele>
<desc>Speed 30.0 km/h Distance 11.75 km</desc>
<time>2013-07-05T18:14:27.32</time>
<name>2538</name>
<sym>Dot</sym>
</trkpt>
<trkpt lat="42.881940" lon="-2.099335">
<ele>1710.0</ele>
<desc>Speed 28.2 km/h Distance 11.76 km</desc>
<time>2013-07-05T18:14:28.32</time>
<name>2539</name>
<sym>Dot</sym>
</trkpt>
<trkpt lat="42.881992" lon="-2.099280">
<ele>1708.5</ele>
<desc>Speed 26.8 km/h Distance 11.77 km</desc>
<time>2013-07-05T18:14:29.31</time>
<name>2540</name>
<sym>Dot</sym>
</trkpt>
<trkpt lat="42.882052" lon="-2.099227">
<ele>1706.5</ele>
<desc>Speed 28.6 km/h Distance 11.78 km</desc>
<time>2013-07-05T18:14:30.30</time>
<name>2541</name>
<sym>Dot</sym>
</trkpt>
<trkpt lat="42.882122" lon="-2.099175">
<ele>1705.0</ele>
<desc>Speed 32.0 km/h Distance 11.79 km</desc>
<time>2013-07-05T18:14:31.29</time>
<name>2542</name>
<sym>Dot</sym>
</trkpt>
<trkpt lat="42.882202" lon="-2.099127">
<ele>1704.5</ele>
<desc>Speed 35.2 km/h Distance 11.80 km</desc>
<time>2013-07-05T18:14:32.29</time>
<name>2543</name>
<sym>Dot</sym>
</trkpt>
<trkpt lat="42.882278" lon="-2.099083">
<ele>1705.5</ele>
<desc>Speed 33.8 km/h Distance 11.81 km</desc>
<time>2013-07-05T18:14:33.28</time>
<name>2544</name>
<sym>Dot</sym>
</trkpt>
<trkpt lat="42.882380" lon="-2.099068">
<ele>1705.5</ele>
<desc>Speed 21.7 km/h Distance 11.82 km</desc>
<time>2013-07-05T18:14:35.27</time>
<name>2545</name>
<sym>Dot</sym>
</trkpt>
<trkpt lat="42.882432" lon="-2.099060">
<ele>1705.0</ele>
<desc>Speed 21.1 km/h Distance 11.82 km</desc>
<time>2013-07-05T18:14:36.27</time>
<name>2546</name>
<sym>Dot</sym>
</trkpt>
<trkpt lat="42.882492" lon="-2.099047">
<ele>1703.0</ele>
<desc>Speed 23.9 km/h Distance 11.83 km</desc>
<time>2013-07-05T18:14:37.26</time>
<name>2547</name>
<sym>Dot</sym>
</trkpt>
<trkpt lat="42.882757" lon="-2.099017">
<ele>1704.0</ele>
<desc>Speed 34.5 km/h Distance 11.86 km</desc>
<time>2013-07-05T18:14:40.56</time>
<name>2548</name>
<sym>Dot</sym>
</trkpt>
<trkpt lat="42.882830" lon="-2.099002">
<ele>1705.5</ele>
<desc>Speed 29.5 km/h Distance 11.87 km</desc>
<time>2013-07-05T18:14:41.55</time>
<name>2549</name>
<sym>Dot</sym>
</trkpt>
<trkpt lat="42.882893" lon="-2.098985">
<ele>1707.5</ele>
<desc>Speed 24.8 km/h Distance 11.87 km</desc>
<time>2013-07-05T18:14:42.54</time>
<name>2550</name>
<sym>Dot</sym>
</trkpt>
<trkpt lat="42.882952" lon="-2.098967">
<ele>1708.0</ele>
<desc>Speed 23.7 km/h Distance 11.88 km</desc>
<time>2013-07-05T18:14:43.54</time>
<name>2551</name>
<sym>Dot</sym>
</trkpt>
<trkpt lat="42.883025" lon="-2.098942">
<ele>1708.0</ele>
<desc>Speed 29.9 km/h Distance 11.89 km</desc>
<time>2013-07-05T18:14:44.53</time>
<name>2552</name>
<sym>Dot</sym>
</trkpt>
<trkpt lat="42.883097" lon="-2.098908">
<ele>1707.5</ele>
<desc>Speed 30.3 km/h Distance 11.90 km</desc>
<time>2013-07-05T18:14:45.52</time>
<name>2553</name>
<sym>Dot</sym>
</trkpt>
<trkpt lat="42.883173" lon="-2.098870">
<ele>1707.5</ele>
<desc>Speed 32.5 km/h Distance 11.91 km</desc>
<time>2013-07-05T18:14:46.52</time>
<name>2554</name>
<sym>Dot</sym>
</trkpt>
<trkpt lat="42.883247" lon="-2.098828">
<ele>1708.0</ele>
<desc>Speed 31.7 km/h Distance 11.92 km</desc>
<time>2013-07-05T18:14:47.52</time>
<name>2555</name>
<sym>Dot</sym>
</trkpt>
<trkpt lat="42.883310" lon="-2.098785">
<ele>1709.5</ele>
<desc>Speed 28.2 km/h Distance 11.92 km</desc>
<time>2013-07-05T18:14:48.51</time>
<name>2556</name>
<sym>Dot</sym>
</trkpt>
<trkpt lat="42.883365" lon="-2.098742">
<ele>1710.0</ele>
<desc>Speed 25.7 km/h Distance 11.93 km</desc>
<time>2013-07-05T18:14:49.50</time>
<name>2557</name>
<sym>Dot</sym>
</trkpt>
<trkpt lat="42.883420" lon="-2.098705">
<ele>1710.0</ele>
<desc>Speed 25.2 km/h Distance 11.94 km</desc>
<time>2013-07-05T18:14:50.49</time>
<name>2558</name>
<sym>Dot</sym>
</trkpt>
<trkpt lat="42.883485" lon="-2.098675">
<ele>1708.5</ele>
<desc>Speed 27.8 km/h Distance 11.94 km</desc>
<time>2013-07-05T18:14:51.49</time>
<name>2559</name>
<sym>Dot</sym>
</trkpt>
<trkpt lat="42.883562" lon="-2.098652">
<ele>1707.5</ele>
<desc>Speed 31.2 km/h Distance 11.95 km</desc>
<time>2013-07-05T18:14:52.48</time>
<name>2560</name>
<sym>Dot</sym>
</trkpt>
<trkpt lat="42.883638" lon="-2.098622">
<ele>1707.5</ele>
<desc>Speed 32.0 km/h Distance 11.96 km</desc>
<time>2013-07-05T18:14:53.47</time>
<name>2561</name>
<sym>Dot</sym>
</trkpt>
<trkpt lat="42.883712" lon="-2.098590">
<ele>1708.0</ele>
<desc>Speed 30.6 km/h Distance 11.97 km</desc>
<time>2013-07-05T18:14:54.46</time>
<name>2562</name>
<sym>Dot</sym>
</trkpt>
<trkpt lat="42.883777" lon="-2.098563">
<ele>1708.5</ele>
<desc>Speed 27.3 km/h Distance 11.98 km</desc>
<time>2013-07-05T18:14:55.45</time>
<name>2563</name>
<sym>Dot</sym>
</trkpt>
<trkpt lat="42.883837" lon="-2.098540">
<ele>1708.5</ele>
<desc>Speed 24.5 km/h Distance 11.99 km</desc>
<time>2013-07-05T18:14:56.45</time>
<name>2564</name>
<sym>Dot</sym>
</trkpt>
<trkpt lat="42.883895" lon="-2.098513">
<ele>1708.0</ele>
<desc>Speed 25.2 km/h Distance 11.99 km</desc>
<time>2013-07-05T18:14:57.44</time>
<name>2565</name>
<sym>Dot</sym>
</trkpt>
<trkpt lat="42.883965" lon="-2.098480">
<ele>1706.5</ele>
<desc>Speed 29.4 km/h Distance 12.00 km</desc>
<time>2013-07-05T18:14:58.43</time>
<name>2566</name>
<sym>Dot</sym>
</trkpt>
<trkpt lat="42.884038" lon="-2.098443">
<ele>1705.5</ele>
<desc>Speed 31.4 km/h Distance 12.01 km</desc>
<time>2013-07-05T18:14:59.42</time>
<name>2567</name>
<sym>Dot</sym>
</trkpt>
<trkpt lat="42.884117" lon="-2.098405">
<ele>1704.5</ele>
<desc>Speed 33.0 km/h Distance 12.02 km</desc>
<time>2013-07-05T18:15:00.43</time>
<name>2568</name>
<sym>Dot</sym>
</trkpt>
<trkpt lat="42.884190" lon="-2.098363">
<ele>1704.5</ele>
<desc>Speed 32.1 km/h Distance 12.03 km</desc>
<time>2013-07-05T18:15:01.41</time>
<name>2569</name>
<sym>Dot</sym>
</trkpt>
<trkpt lat="42.884262" lon="-2.098323">
<ele>1704.0</ele>
<desc>Speed 30.7 km/h Distance 12.04 km</desc>
<time>2013-07-05T18:15:02.41</time>
<name>2570</name>
<sym>Dot</sym>
</trkpt>
<trkpt lat="42.884328" lon="-2.098282">
<ele>1704.0</ele>
<desc>Speed 29.2 km/h Distance 12.04 km</desc>
<time>2013-07-05T18:15:03.40</time>
<name>2571</name>
<sym>Dot</sym>
</trkpt>
<trkpt lat="42.884393" lon="-2.098240">
<ele>1703.5</ele>
<desc>Speed 29.2 km/h Distance 12.05 km</desc>
<time>2013-07-05T18:15:04.40</time>
<name>2572</name>
<sym>Dot</sym>
</trkpt>
<trkpt lat="42.884463" lon="-2.098198">
<ele>1703.0</ele>
<desc>Speed 30.1 km/h Distance 12.06 km</desc>
<time>2013-07-05T18:15:05.39</time>
<name>2573</name>
<sym>Dot</sym>
</trkpt>
<trkpt lat="42.884532" lon="-2.098155">
<ele>1703.0</ele>
<desc>Speed 30.3 km/h Distance 12.07 km</desc>
<time>2013-07-05T18:15:06.38</time>
<name>2574</name>
<sym>Dot</sym>
</trkpt>
<trkpt lat="42.884600" lon="-2.098120">
<ele>1703.0</ele>
<desc>Speed 28.9 km/h Distance 12.08 km</desc>
<time>2013-07-05T18:15:07.38</time>
<name>2575</name>
<sym>Dot</sym>
</trkpt>
<trkpt lat="42.884667" lon="-2.098083">
<ele>1703.0</ele>
<desc>Speed 28.8 km/h Distance 12.09 km</desc>
<time>2013-07-05T18:15:08.38</time>
<name>2576</name>
<sym>Dot</sym>
</trkpt>
<trkpt lat="42.884735" lon="-2.098043">
<ele>1702.5</ele>
<desc>Speed 29.3 km/h Distance 12.09 km</desc>
<time>2013-07-05T18:15:09.37</time>
<name>2577</name>
<sym>Dot</sym>
</trkpt>
<trkpt lat="42.884803" lon="-2.098003">
<ele>1702.5</ele>
<desc>Speed 29.8 km/h Distance 12.10 km</desc>
<time>2013-07-05T18:15:10.36</time>
<name>2578</name>
<sym>Dot</sym>
</trkpt>
<trkpt lat="42.884873" lon="-2.097968">
<ele>1702.5</ele>
<desc>Speed 29.2 km/h Distance 12.11 km</desc>
<time>2013-07-05T18:15:11.37</time>
<name>2579</name>
<sym>Dot</sym>
</trkpt>
<trkpt lat="42.884940" lon="-2.097938">
<ele>1703.0</ele>
<desc>Speed 27.8 km/h Distance 12.12 km</desc>
<time>2013-07-05T18:15:12.35</time>
<name>2580</name>
<sym>Dot</sym>
</trkpt>
<trkpt lat="42.885003" lon="-2.097913">
<ele>1703.0</ele>
<desc>Speed 26.2 km/h Distance 12.13 km</desc>
<time>2013-07-05T18:15:13.35</time>
<name>2581</name>
<sym>Dot</sym>
</trkpt>
<trkpt lat="42.885065" lon="-2.097890">
<ele>1702.5</ele>
<desc>Speed 25.7 km/h Distance 12.13 km</desc>
<time>2013-07-05T18:15:14.33</time>
<name>2582</name>
<sym>Dot</sym>
</trkpt>
<trkpt lat="42.885132" lon="-2.097867">
<ele>1701.5</ele>
<desc>Speed 27.6 km/h Distance 12.14 km</desc>
<time>2013-07-05T18:15:15.33</time>
<name>2583</name>
<sym>Dot</sym>
</trkpt>
<trkpt lat="42.885202" lon="-2.097837">
<ele>1701.0</ele>
<desc>Speed 29.4 km/h Distance 12.15 km</desc>
<time>2013-07-05T18:15:16.32</time>
<name>2584</name>
<sym>Dot</sym>
</trkpt>
<trkpt lat="42.885273" lon="-2.097800">
<ele>1701.5</ele>
<desc>Speed 30.7 km/h Distance 12.16 km</desc>
<time>2013-07-05T18:15:17.31</time>
<name>2585</name>
<sym>Dot</sym>
</trkpt>
<trkpt lat="42.885338" lon="-2.097760">
<ele>1702.0</ele>
<desc>Speed 29.3 km/h Distance 12.16 km</desc>
<time>2013-07-05T18:15:18.30</time>
<name>2586</name>
<sym>Dot</sym>
</trkpt>
<trkpt lat="42.885403" lon="-2.097727">
<ele>1703.0</ele>
<desc>Speed 27.5 km/h Distance 12.17 km</desc>
<time>2013-07-05T18:15:19.30</time>
<name>2587</name>
<sym>Dot</sym>
</trkpt>
<trkpt lat="42.885465" lon="-2.097705">
<ele>1704.0</ele>
<desc>Speed 25.5 km/h Distance 12.18 km</desc>
<time>2013-07-05T18:15:20.30</time>
<name>2588</name>
<sym>Dot</sym>
</trkpt>
<trkpt lat="42.885523" lon="-2.097683">
<ele>1704.0</ele>
<desc>Speed 24.2 km/h Distance 12.19 km</desc>
<time>2013-07-05T18:15:21.29</time>
<name>2589</name>
<sym>Dot</sym>
</trkpt>
<trkpt lat="42.885583" lon="-2.097657">
<ele>1703.5</ele>
<desc>Speed 25.2 km/h Distance 12.19 km</desc>
<time>2013-07-05T18:15:22.28</time>
<name>2590</name>
<sym>Dot</sym>
</trkpt>
<trkpt lat="42.885647" lon="-2.097620">
<ele>1702.5</ele>
<desc>Speed 27.5 km/h Distance 12.20 km</desc>
<time>2013-07-05T18:15:23.28</time>
<name>2591</name>
<sym>Dot</sym>
</trkpt>
<trkpt lat="42.885715" lon="-2.097578">
<ele>1701.5</ele>
<desc>Speed 30.2 km/h Distance 12.21 km</desc>
<time>2013-07-05T18:15:24.27</time>
<name>2592</name>
<sym>Dot</sym>
</trkpt>
<trkpt lat="42.885790" lon="-2.097543">
<ele>1702.0</ele>
<desc>Speed 31.1 km/h Distance 12.22 km</desc>
<time>2013-07-05T18:15:25.27</time>
<name>2593</name>
<sym>Dot</sym>
</trkpt>
<trkpt lat="42.885862" lon="-2.097515">
<ele>1703.5</ele>
<desc>Speed 29.6 km/h Distance 12.23 km</desc>
<time>2013-07-05T18:15:26.27</time>
<name>2594</name>
<sym>Dot</sym>
</trkpt>
<trkpt lat="42.885927" lon="-2.097485">
<ele>1704.5</ele>
<desc>Speed 27.3 km/h Distance 12.23 km</desc>
<time>2013-07-05T18:15:27.25</time>
<name>2595</name>
<sym>Dot</sym>
</trkpt>
<trkpt lat="42.885987" lon="-2.097450">
<ele>1705.5</ele>
<desc>Speed 25.7 km/h Distance 12.24 km</desc>
<time>2013-07-05T18:15:28.25</time>
<name>2596</name>
<sym>Dot</sym>
</trkpt>
<trkpt lat="42.886043" lon="-2.097410">
<ele>1705.5</ele>
<desc>Speed 25.7 km/h Distance 12.25 km</desc>
<time>2013-07-05T18:15:29.25</time>
<name>2597</name>
<sym>Dot</sym>
</trkpt>
<trkpt lat="42.886103" lon="-2.097368">
<ele>1705.5</ele>
<desc>Speed 26.4 km/h Distance 12.26 km</desc>
<time>2013-07-05T18:15:30.24</time>
<name>2598</name>
<sym>Dot</sym>
</trkpt>
<trkpt lat="42.886167" lon="-2.097327">
<ele>1705.5</ele>
<desc>Speed 28.2 km/h Distance 12.26 km</desc>
<time>2013-07-05T18:15:31.23</time>
<name>2599</name>
<sym>Dot</sym>
</trkpt>
<trkpt lat="42.886233" lon="-2.097282">
<ele>1706.0</ele>
<desc>Speed 29.6 km/h Distance 12.27 km</desc>
<time>2013-07-05T18:15:32.24</time>
<name>2600</name>
<sym>Dot</sym>
</trkpt>
<trkpt lat="42.886302" lon="-2.097233">
<ele>1706.5</ele>
<desc>Speed 30.2 km/h Distance 12.28 km</desc>
<time>2013-07-05T18:15:33.23</time>
<name>2601</name>
<sym>Dot</sym>
</trkpt>
<trkpt lat="42.886370" lon="-2.097188">
<ele>1707.0</ele>
<desc>Speed 29.9 km/h Distance 12.29 km</desc>
<time>2013-07-05T18:15:34.22</time>
<name>2602</name>
<sym>Dot</sym>
</trkpt>
<trkpt lat="42.886437" lon="-2.097147">
<ele>1708.0</ele>
<desc>Speed 29.0 km/h Distance 12.30 km</desc>
<time>2013-07-05T18:15:35.21</time>
<name>2603</name>
<sym>Dot</sym>
</trkpt>
<trkpt lat="42.886502" lon="-2.097107">
<ele>1709.0</ele>
<desc>Speed 28.3 km/h Distance 12.31 km</desc>
<time>2013-07-05T18:15:36.20</time>
<name>2604</name>
<sym>Dot</sym>
</trkpt>
<trkpt lat="42.886567" lon="-2.097063">
<ele>1709.5</ele>
<desc>Speed 28.2 km/h Distance 12.31 km</desc>
<time>2013-07-05T18:15:37.20</time>
<name>2605</name>
<sym>Dot</sym>
</trkpt>
<trkpt lat="42.886628" lon="-2.097013">
<ele>1709.5</ele>
<desc>Speed 28.6 km/h Distance 12.32 km</desc>
<time>2013-07-05T18:15:38.19</time>
<name>2606</name>
<sym>Dot</sym>
</trkpt>
<trkpt lat="42.886690" lon="-2.096965">
<ele>1709.5</ele>
<desc>Speed 28.7 km/h Distance 12.33 km</desc>
<time>2013-07-05T18:15:39.18</time>
<name>2607</name>
<sym>Dot</sym>
</trkpt>
<trkpt lat="42.886753" lon="-2.096918">
<ele>1709.5</ele>
<desc>Speed 29.3 km/h Distance 12.34 km</desc>
<time>2013-07-05T18:15:40.17</time>
<name>2608</name>
<sym>Dot</sym>
</trkpt>
<trkpt lat="42.886818" lon="-2.096865">
<ele>1709.5</ele>
<desc>Speed 30.5 km/h Distance 12.35 km</desc>
<time>2013-07-05T18:15:41.17</time>
<name>2609</name>
<sym>Dot</sym>
</trkpt>
<trkpt lat="42.886880" lon="-2.096803">
<ele>1709.5</ele>
<desc>Speed 30.3 km/h Distance 12.35 km</desc>
<time>2013-07-05T18:15:42.17</time>
<name>2610</name>
<sym>Dot</sym>
</trkpt>
<trkpt lat="42.886940" lon="-2.096740">
<ele>1709.0</ele>
<desc>Speed 30.3 km/h Distance 12.36 km</desc>
<time>2013-07-05T18:15:43.15</time>
<name>2611</name>
<sym>Dot</sym>
</trkpt>
<trkpt lat="42.887002" lon="-2.096673">
<ele>1708.5</ele>
<desc>Speed 31.2 km/h Distance 12.37 km</desc>
<time>2013-07-05T18:15:44.15</time>
<name>2612</name>
<sym>Dot</sym>
</trkpt>
<trkpt lat="42.887067" lon="-2.096610">
<ele>1708.0</ele>
<desc>Speed 31.8 km/h Distance 12.38 km</desc>
<time>2013-07-05T18:15:45.15</time>
<name>2613</name>
<sym>Dot</sym>
</trkpt>
<trkpt lat="42.887135" lon="-2.096547">
<ele>1708.0</ele>
<desc>Speed 32.0 km/h Distance 12.39 km</desc>
<time>2013-07-05T18:15:46.14</time>
<name>2614</name>
<sym>Dot</sym>
</trkpt>
<trkpt lat="42.887200" lon="-2.096485">
<ele>1708.5</ele>
<desc>Speed 31.3 km/h Distance 12.40 km</desc>
<time>2013-07-05T18:15:47.13</time>
<name>2615</name>
<sym>Dot</sym>
</trkpt>
<trkpt lat="42.887262" lon="-2.096422">
<ele>1708.5</ele>
<desc>Speed 30.0 km/h Distance 12.41 km</desc>
<time>2013-07-05T18:15:48.12</time>
<name>2616</name>
<sym>Dot</sym>
</trkpt>
<trkpt lat="42.887318" lon="-2.096358">
<ele>1708.0</ele>
<desc>Speed 29.5 km/h Distance 12.41 km</desc>
<time>2013-07-05T18:15:49.12</time>
<name>2617</name>
<sym>Dot</sym>
</trkpt>
<trkpt lat="42.887378" lon="-2.096293">
<ele>1707.5</ele>
<desc>Speed 30.5 km/h Distance 12.42 km</desc>
<time>2013-07-05T18:15:50.11</time>
<name>2618</name>
<sym>Dot</sym>
</trkpt>
<trkpt lat="42.887442" lon="-2.096227">
<ele>1707.5</ele>
<desc>Speed 31.7 km/h Distance 12.43 km</desc>
<time>2013-07-05T18:15:51.11</time>
<name>2619</name>
<sym>Dot</sym>
</trkpt>
<trkpt lat="42.887508" lon="-2.096163">
<ele>1707.5</ele>
<desc>Speed 32.5 km/h Distance 12.44 km</desc>
<time>2013-07-05T18:15:52.11</time>
<name>2620</name>
<sym>Dot</sym>
</trkpt>
<trkpt lat="42.887577" lon="-2.096105">
<ele>1707.5</ele>
<desc>Speed 32.1 km/h Distance 12.45 km</desc>
<time>2013-07-05T18:15:53.10</time>
<name>2621</name>
<sym>Dot</sym>
</trkpt>
<trkpt lat="42.887642" lon="-2.096048">
<ele>1708.0</ele>
<desc>Speed 30.8 km/h Distance 12.46 km</desc>
<time>2013-07-05T18:15:54.09</time>
<name>2622</name>
<sym>Dot</sym>
</trkpt>
<trkpt lat="42.887705" lon="-2.095995">
<ele>1708.5</ele>
<desc>Speed 29.7 km/h Distance 12.47 km</desc>
<time>2013-07-05T18:15:55.07</time>
<name>2623</name>
<sym>Dot</sym>
</trkpt>
<trkpt lat="42.887768" lon="-2.095940">
<ele>1707.5</ele>
<desc>Speed 29.9 km/h Distance 12.48 km</desc>
<time>2013-07-05T18:15:56.07</time>
<name>2624</name>
<sym>Dot</sym>
</trkpt>
<trkpt lat="42.887832" lon="-2.095878">
<ele>1706.5</ele>
<desc>Speed 31.4 km/h Distance 12.48 km</desc>
<time>2013-07-05T18:15:57.05</time>
<name>2625</name>
<sym>Dot</sym>
</trkpt>
<trkpt lat="42.887898" lon="-2.095815">
<ele>1706.0</ele>
<desc>Speed 32.9 km/h Distance 12.49 km</desc>
<time>2013-07-05T18:15:58.05</time>
<name>2626</name>
<sym>Dot</sym>
</trkpt>
<trkpt lat="42.887968" lon="-2.095750">
<ele>1706.0</ele>
<desc>Speed 33.8 km/h Distance 12.50 km</desc>
<time>2013-07-05T18:15:59.04</time>
<name>2627</name>
<sym>Dot</sym>
</trkpt>
<trkpt lat="42.888035" lon="-2.095683">
<ele>1706.0</ele>
<desc>Speed 32.9 km/h Distance 12.51 km</desc>
<time>2013-07-05T18:16:00.03</time>
<name>2628</name>
<sym>Dot</sym>
</trkpt>
<trkpt lat="42.888100" lon="-2.095620">
<ele>1706.0</ele>
<desc>Speed 32.0 km/h Distance 12.52 km</desc>
<time>2013-07-05T18:16:01.02</time>
<name>2629</name>
<sym>Dot</sym>
</trkpt>
<trkpt lat="42.888162" lon="-2.095553">
<ele>1705.5</ele>
<desc>Speed 31.5 km/h Distance 12.53 km</desc>
<time>2013-07-05T18:16:02.02</time>
<name>2630</name>
<sym>Dot</sym>
</trkpt>
<trkpt lat="42.888225" lon="-2.095485">
<ele>1705.0</ele>
<desc>Speed 31.9 km/h Distance 12.54 km</desc>
<time>2013-07-05T18:16:03.01</time>
<name>2631</name>
<sym>Dot</sym>
</trkpt>
<trkpt lat="42.888290" lon="-2.095415">
<ele>1704.0</ele>
<desc>Speed 32.8 km/h Distance 12.55 km</desc>
<time>2013-07-05T18:16:04.00</time>
<name>2632</name>
<sym>Dot</sym>
</trkpt>
<trkpt lat="42.888357" lon="-2.095345">
<ele>1703.5</ele>
<desc>Speed 33.5 km/h Distance 12.56 km</desc>
<time>2013-07-05T18:16:04.99</time>
<name>2633</name>
<sym>Dot</sym>
</trkpt>
<trkpt lat="42.888420" lon="-2.095268">
<ele>1703.0</ele>
<desc>Speed 33.7 km/h Distance 12.57 km</desc>
<time>2013-07-05T18:16:06.00</time>
<name>2634</name>
<sym>Dot</sym>
</trkpt>
<trkpt lat="42.888482" lon="-2.095192">
<ele>1703.0</ele>
<desc>Speed 33.2 km/h Distance 12.58 km</desc>
<time>2013-07-05T18:16:06.98</time>
<name>2635</name>
<sym>Dot</sym>
</trkpt>
<trkpt lat="42.888540" lon="-2.095117">
<ele>1703.0</ele>
<desc>Speed 32.2 km/h Distance 12.58 km</desc>
<time>2013-07-05T18:16:07.98</time>
<name>2636</name>
<sym>Dot</sym>
</trkpt>
<trkpt lat="42.888602" lon="-2.095047">
<ele>1703.0</ele>
<desc>Speed 31.4 km/h Distance 12.59 km</desc>
<time>2013-07-05T18:16:08.96</time>
<name>2637</name>
<sym>Dot</sym>
</trkpt>
<trkpt lat="42.888663" lon="-2.094980">
<ele>1703.0</ele>
<desc>Speed 31.4 km/h Distance 12.60 km</desc>
<time>2013-07-05T18:16:09.96</time>
<name>2638</name>
<sym>Dot</sym>
</trkpt>
<trkpt lat="42.888727" lon="-2.094920">
<ele>1702.5</ele>
<desc>Speed 30.8 km/h Distance 12.61 km</desc>
<time>2013-07-05T18:16:10.95</time>
<name>2639</name>
<sym>Dot</sym>
</trkpt>
<trkpt lat="42.888790" lon="-2.094865">
<ele>1702.0</ele>
<desc>Speed 30.2 km/h Distance 12.62 km</desc>
<time>2013-07-05T18:16:11.95</time>
<name>2640</name>
<sym>Dot</sym>
</trkpt>
<trkpt lat="42.888857" lon="-2.094817">
<ele>1702.0</ele>
<desc>Speed 29.9 km/h Distance 12.63 km</desc>
<time>2013-07-05T18:16:12.94</time>
<name>2641</name>
<sym>Dot</sym>
</trkpt>
<trkpt lat="42.888925" lon="-2.094772">
<ele>1702.0</ele>
<desc>Speed 30.2 km/h Distance 12.64 km</desc>
<time>2013-07-05T18:16:13.93</time>
<name>2642</name>
<sym>Dot</sym>
</trkpt>
<trkpt lat="42.888993" lon="-2.094723">
<ele>1702.0</ele>
<desc>Speed 30.5 km/h Distance 12.64 km</desc>
<time>2013-07-05T18:16:14.93</time>
<name>2643</name>
<sym>Dot</sym>
</trkpt>
<trkpt lat="42.889057" lon="-2.094672">
<ele>1702.0</ele>
<desc>Speed 30.1 km/h Distance 12.65 km</desc>
<time>2013-07-05T18:16:15.92</time>
<name>2644</name>
<sym>Dot</sym>
</trkpt>
<trkpt lat="42.889120" lon="-2.094618">
<ele>1702.0</ele>
<desc>Speed 29.8 km/h Distance 12.66 km</desc>
<time>2013-07-05T18:16:16.91</time>
<name>2645</name>
<sym>Dot</sym>
</trkpt>
<trkpt lat="42.889183" lon="-2.094567">
<ele>1701.5</ele>
<desc>Speed 29.6 km/h Distance 12.67 km</desc>
<time>2013-07-05T18:16:17.90</time>
<name>2646</name>
<sym>Dot</sym>
</trkpt>
<trkpt lat="42.889252" lon="-2.094523">
<ele>1701.0</ele>
<desc>Speed 30.3 km/h Distance 12.68 km</desc>
<time>2013-07-05T18:16:18.90</time>
<name>2647</name>
<sym>Dot</sym>
</trkpt>
<trkpt lat="42.889323" lon="-2.094483">
<ele>1699.5</ele>
<desc>Speed 31.4 km/h Distance 12.69 km</desc>
<time>2013-07-05T18:16:19.89</time>
<name>2648</name>
<sym>Dot</sym>
</trkpt>
<trkpt lat="42.889400" lon="-2.094445">
<ele>1698.5</ele>
<desc>Speed 32.4 km/h Distance 12.70 km</desc>
<time>2013-07-05T18:16:20.88</time>
<name>2649</name>
<sym>Dot</sym>
</trkpt>
<trkpt lat="42.889477" lon="-2.094408">
<ele>1698.0</ele>
<desc>Speed 32.6 km/h Distance 12.70 km</desc>
<time>2013-07-05T18:16:21.89</time>
<name>2650</name>
<sym>Dot</sym>
</trkpt>
<trkpt lat="42.889552" lon="-2.094368">
<ele>1697.0</ele>
<desc>Speed 31.7 km/h Distance 12.71 km</desc>
<time>2013-07-05T18:16:22.87</time>
<name>2651</name>
<sym>Dot</sym>
</trkpt>
<trkpt lat="42.889623" lon="-2.094323">
<ele>1696.0</ele>
<desc>Speed 31.4 km/h Distance 12.72 km</desc>
<time>2013-07-05T18:16:23.86</time>
<name>2652</name>
<sym>Dot</sym>
</trkpt>
<trkpt lat="42.889695" lon="-2.094277">
<ele>1695.0</ele>
<desc>Speed 32.0 km/h Distance 12.73 km</desc>
<time>2013-07-05T18:16:24.85</time>
<name>2653</name>
<sym>Dot</sym>
</trkpt>
<trkpt lat="42.889772" lon="-2.094233">
<ele>1693.5</ele>
<desc>Speed 32.7 km/h Distance 12.74 km</desc>
<time>2013-07-05T18:16:25.85</time>
<name>2654</name>
<sym>Dot</sym>
</trkpt>
<trkpt lat="42.889848" lon="-2.094193">
<ele>1692.5</ele>
<desc>Speed 32.5 km/h Distance 12.75 km</desc>
<time>2013-07-05T18:16:26.84</time>
<name>2655</name>
<sym>Dot</sym>
</trkpt>
<trkpt lat="42.889923" lon="-2.094152">
<ele>1691.5</ele>
<desc>Speed 32.5 km/h Distance 12.76 km</desc>
<time>2013-07-05T18:16:27.84</time>
<name>2656</name>
<sym>Dot</sym>
</trkpt>
<trkpt lat="42.889998" lon="-2.094110">
<ele>1690.5</ele>
<desc>Speed 32.3 km/h Distance 12.77 km</desc>
<time>2013-07-05T18:16:28.84</time>
<name>2657</name>
<sym>Dot</sym>
</trkpt>
<trkpt lat="42.890072" lon="-2.094070">
<ele>1689.5</ele>
<desc>Speed 31.6 km/h Distance 12.78 km</desc>
<time>2013-07-05T18:16:29.84</time>
<name>2658</name>
<sym>Dot</sym>
</trkpt>
<trkpt lat="42.890145" lon="-2.094030">
<ele>1688.5</ele>
<desc>Speed 31.2 km/h Distance 12.79 km</desc>
<time>2013-07-05T18:16:30.83</time>
<name>2659</name>
<sym>Dot</sym>
</trkpt>
<trkpt lat="42.890217" lon="-2.093987">
<ele>1687.0</ele>
<desc>Speed 31.2 km/h Distance 12.79 km</desc>
<time>2013-07-05T18:16:31.82</time>
<name>2660</name>
<sym>Dot</sym>
</trkpt>
<trkpt lat="42.890288" lon="-2.093935">
<ele>1685.5</ele>
<desc>Speed 32.2 km/h Distance 12.80 km</desc>
<time>2013-07-05T18:16:32.81</time>
<name>2661</name>
<sym>Dot</sym>
</trkpt>
<trkpt lat="42.890360" lon="-2.093873">
<ele>1684.5</ele>
<desc>Speed 33.9 km/h Distance 12.81 km</desc>
<time>2013-07-05T18:16:33.81</time>
<name>2662</name>
<sym>Dot</sym>
</trkpt>
<trkpt lat="42.890435" lon="-2.093810">
<ele>1683.5</ele>
<desc>Speed 35.0 km/h Distance 12.82 km</desc>
<time>2013-07-05T18:16:34.81</time>
<name>2663</name>
<sym>Dot</sym>
</trkpt>
<trkpt lat="42.890507" lon="-2.093748">
<ele>1683.0</ele>
<desc>Speed 33.7 km/h Distance 12.83 km</desc>
<time>2013-07-05T18:16:35.79</time>
<name>2664</name>
<sym>Dot</sym>
</trkpt>
<trkpt lat="42.890570" lon="-2.093682">
<ele>1683.0</ele>
<desc>Speed 32.0 km/h Distance 12.84 km</desc>
<time>2013-07-05T18:16:36.79</time>
<name>2665</name>
<sym>Dot</sym>
</trkpt>
<trkpt lat="42.890628" lon="-2.093610">
<ele>1682.5</ele>
<desc>Speed 31.2 km/h Distance 12.85 km</desc>
<time>2013-07-05T18:16:37.78</time>
<name>2666</name>
<sym>Dot</sym>
</trkpt>
<trkpt lat="42.890682" lon="-2.093533">
<ele>1682.0</ele>
<desc>Speed 31.0 km/h Distance 12.86 km</desc>
<time>2013-07-05T18:16:38.77</time>
<name>2667</name>
<sym>Dot</sym>
</trkpt>
<trkpt lat="42.890733" lon="-2.093452">
<ele>1681.5</ele>
<desc>Speed 31.3 km/h Distance 12.87 km</desc>
<time>2013-07-05T18:16:39.76</time>
<name>2668</name>
<sym>Dot</sym>
</trkpt>
<trkpt lat="42.890790" lon="-2.093378">
<ele>1682.0</ele>
<desc>Speed 31.0 km/h Distance 12.88 km</desc>
<time>2013-07-05T18:16:40.76</time>
<name>2669</name>
<sym>Dot</sym>
</trkpt>
<trkpt lat="42.890837" lon="-2.093302">
<ele>1681.0</ele>
<desc>Speed 28.9 km/h Distance 12.88 km</desc>
<time>2013-07-05T18:16:41.75</time>
<name>2670</name>
<sym>Dot</sym>
</trkpt>
<trkpt lat="42.890882" lon="-2.093227">
<ele>1681.5</ele>
<desc>Speed 28.5 km/h Distance 12.89 km</desc>
<time>2013-07-05T18:16:42.74</time>
<name>2671</name>
<sym>Dot</sym>
</trkpt>
<trkpt lat="42.890923" lon="-2.093147">
<ele>1681.0</ele>
<desc>Speed 29.0 km/h Distance 12.90 km</desc>
<time>2013-07-05T18:16:43.73</time>
<name>2672</name>
<sym>Dot</sym>
</trkpt>
<trkpt lat="42.890965" lon="-2.093062">
<ele>1680.5</ele>
<desc>Speed 29.8 km/h Distance 12.91 km</desc>
<time>2013-07-05T18:16:44.73</time>
<name>2673</name>
<sym>Dot</sym>
</trkpt>
<trkpt lat="42.891008" lon="-2.092977">
<ele>1680.5</ele>
<desc>Speed 29.8 km/h Distance 12.92 km</desc>
<time>2013-07-05T18:16:45.72</time>
<name>2674</name>
<sym>Dot</sym>
</trkpt>
<trkpt lat="42.891055" lon="-2.092898">
<ele>1680.0</ele>
<desc>Speed 29.9 km/h Distance 12.92 km</desc>
<time>2013-07-05T18:16:46.71</time>
<name>2675</name>
<sym>Dot</sym>
</trkpt>
<trkpt lat="42.891108" lon="-2.092825">
<ele>1679.5</ele>
<desc>Speed 29.9 km/h Distance 12.93 km</desc>
<time>2013-07-05T18:16:47.72</time>
<name>2676</name>
<sym>Dot</sym>
</trkpt>
<trkpt lat="42.891167" lon="-2.092753">
<ele>1679.0</ele>
<desc>Speed 31.1 km/h Distance 12.94 km</desc>
<time>2013-07-05T18:16:48.72</time>
<name>2677</name>
<sym>Dot</sym>
</trkpt>
<trkpt lat="42.891230" lon="-2.092685">
<ele>1678.0</ele>
<desc>Speed 32.5 km/h Distance 12.95 km</desc>
<time>2013-07-05T18:16:49.71</time>
<name>2678</name>
<sym>Dot</sym>
</trkpt>
<trkpt lat="42.891298" lon="-2.092618">
<ele>1677.5</ele>
<desc>Speed 32.7 km/h Distance 12.96 km</desc>
<time>2013-07-05T18:16:50.71</time>
<name>2679</name>
<sym>Dot</sym>
</trkpt>
<trkpt lat="42.891368" lon="-2.092557">
<ele>1677.0</ele>
<desc>Speed 33.2 km/h Distance 12.97 km</desc>
<time>2013-07-05T18:16:51.69</time>
<name>2680</name>
<sym>Dot</sym>
</trkpt>
<trkpt lat="42.891425" lon="-2.092490">
<ele>1679.0</ele>
<desc>Speed 29.6 km/h Distance 12.98 km</desc>
<time>2013-07-05T18:16:52.69</time>
<name>2681</name>
<sym>Dot</sym>
</trkpt>
<trkpt lat="42.891490" lon="-2.092428">
<ele>1679.5</ele>
<desc>Speed 31.9 km/h Distance 12.99 km</desc>
<time>2013-07-05T18:16:53.68</time>
<name>2682</name>
<sym>Dot</sym>
</trkpt>
<trkpt lat="42.891558" lon="-2.092370">
<ele>1678.5</ele>
<desc>Speed 32.0 km/h Distance 13.00 km</desc>
<time>2013-07-05T18:16:54.66</time>
<name>2683</name>
<sym>Dot</sym>
</trkpt>
<trkpt lat="42.891622" lon="-2.092313">
<ele>1678.0</ele>
<desc>Speed 30.4 km/h Distance 13.00 km</desc>
<time>2013-07-05T18:16:55.66</time>
<name>2684</name>
<sym>Dot</sym>
</trkpt>
<trkpt lat="42.891687" lon="-2.092253">
<ele>1677.0</ele>
<desc>Speed 31.0 km/h Distance 13.01 km</desc>
<time>2013-07-05T18:16:56.66</time>
<name>2685</name>
<sym>Dot</sym>
</trkpt>
<trkpt lat="42.891753" lon="-2.092195">
<ele>1675.0</ele>
<desc>Speed 31.9 km/h Distance 13.02 km</desc>
<time>2013-07-05T18:16:57.66</time>
<name>2686</name>
<sym>Dot</sym>
</trkpt>
<trkpt lat="42.891818" lon="-2.092133">
<ele>1676.0</ele>
<desc>Speed 30.9 km/h Distance 13.03 km</desc>
<time>2013-07-05T18:16:58.66</time>
<name>2687</name>
<sym>Dot</sym>
</trkpt>
<trkpt lat="42.891892" lon="-2.092078">
<ele>1674.0</ele>
<desc>Speed 33.7 km/h Distance 13.04 km</desc>
<time>2013-07-05T18:16:59.65</time>
<name>2688</name>
<sym>Dot</sym>
</trkpt>
<trkpt lat="42.891965" lon="-2.092025">
<ele>1673.0</ele>
<desc>Speed 33.3 km/h Distance 13.05 km</desc>
<time>2013-07-05T18:17:00.64</time>
<name>2689</name>
<sym>Dot</sym>
</trkpt>
<trkpt lat="42.892038" lon="-2.091972">
<ele>1672.0</ele>
<desc>Speed 33.0 km/h Distance 13.06 km</desc>
<time>2013-07-05T18:17:01.64</time>
<name>2690</name>
<sym>Dot</sym>
</trkpt>
<trkpt lat="42.892113" lon="-2.091918">
<ele>1670.5</ele>
<desc>Speed 33.3 km/h Distance 13.07 km</desc>
<time>2013-07-05T18:17:02.63</time>
<name>2691</name>
<sym>Dot</sym>
</trkpt>
<trkpt lat="42.892183" lon="-2.091863">
<ele>1668.5</ele>
<desc>Speed 32.7 km/h Distance 13.08 km</desc>
<time>2013-07-05T18:17:03.63</time>
<name>2692</name>
<sym>Dot</sym>
</trkpt>
<trkpt lat="42.892255" lon="-2.091807">
<ele>1666.0</ele>
<desc>Speed 32.5 km/h Distance 13.09 km</desc>
<time>2013-07-05T18:17:04.62</time>
<name>2693</name>
<sym>Dot</sym>
</trkpt>
<trkpt lat="42.892322" lon="-2.091747">
<ele>1664.0</ele>
<desc>Speed 31.6 km/h Distance 13.09 km</desc>
<time>2013-07-05T18:17:05.61</time>
<name>2694</name>
<sym>Dot</sym>
</trkpt>
<trkpt lat="42.892392" lon="-2.091685">
<ele>1661.5</ele>
<desc>Speed 32.4 km/h Distance 13.10 km</desc>
<time>2013-07-05T18:17:06.60</time>
<name>2695</name>
<sym>Dot</sym>
</trkpt>
<trkpt lat="42.892460" lon="-2.091620">
<ele>1660.0</ele>
<desc>Speed 33.0 km/h Distance 13.11 km</desc>
<time>2013-07-05T18:17:07.60</time>
<name>2696</name>
<sym>Dot</sym>
</trkpt>
<trkpt lat="42.892532" lon="-2.091555">
<ele>1658.5</ele>
<desc>Speed 34.6 km/h Distance 13.12 km</desc>
<time>2013-07-05T18:17:08.60</time>
<name>2697</name>
<sym>Dot</sym>
</trkpt>
<trkpt lat="42.892608" lon="-2.091495">
<ele>1657.5</ele>
<desc>Speed 34.8 km/h Distance 13.13 km</desc>
<time>2013-07-05T18:17:09.59</time>
<name>2698</name>
<sym>Dot</sym>
</trkpt>
<trkpt lat="42.892685" lon="-2.091447">
<ele>1656.5</ele>
<desc>Speed 34.1 km/h Distance 13.14 km</desc>
<time>2013-07-05T18:17:10.58</time>
<name>2699</name>
<sym>Dot</sym>
</trkpt>
<trkpt lat="42.892760" lon="-2.091403">
<ele>1655.0</ele>
<desc>Speed 32.6 km/h Distance 13.15 km</desc>
<time>2013-07-05T18:17:11.57</time>
<name>2700</name>
<sym>Dot</sym>
</trkpt>
<trkpt lat="42.892835" lon="-2.091357">
<ele>1653.0</ele>
<desc>Speed 32.6 km/h Distance 13.16 km</desc>
<time>2013-07-05T18:17:12.57</time>
<name>2701</name>
<sym>Dot</sym>
</trkpt>
<trkpt lat="42.892900" lon="-2.091297">
<ele>1653.0</ele>
<desc>Speed 30.7 km/h Distance 13.17 km</desc>
<time>2013-07-05T18:17:13.56</time>
<name>2702</name>
<sym>Dot</sym>
</trkpt>
<trkpt lat="42.892970" lon="-2.091228">
<ele>1651.5</ele>
<desc>Speed 34.5 km/h Distance 13.18 km</desc>
<time>2013-07-05T18:17:14.55</time>
<name>2703</name>
<sym>Dot</sym>
</trkpt>
<trkpt lat="42.893040" lon="-2.091153">
<ele>1650.5</ele>
<desc>Speed 35.6 km/h Distance 13.19 km</desc>
<time>2013-07-05T18:17:15.55</time>
<name>2704</name>
<sym>Dot</sym>
</trkpt>
<trkpt lat="42.893115" lon="-2.091083">
<ele>1650.0</ele>
<desc>Speed 35.6 km/h Distance 13.20 km</desc>
<time>2013-07-05T18:17:16.54</time>
<name>2705</name>
<sym>Dot</sym>
</trkpt>
<trkpt lat="42.893187" lon="-2.091023">
<ele>1649.5</ele>
<desc>Speed 33.3 km/h Distance 13.21 km</desc>
<time>2013-07-05T18:17:17.54</time>
<name>2706</name>
<sym>Dot</sym>
</trkpt>
<trkpt lat="42.893253" lon="-2.090968">
<ele>1649.5</ele>
<desc>Speed 30.8 km/h Distance 13.22 km</desc>
<time>2013-07-05T18:17:18.53</time>
<name>2707</name>
<sym>Dot</sym>
</trkpt>
<trkpt lat="42.893317" lon="-2.090915">
<ele>1648.5</ele>
<desc>Speed 29.4 km/h Distance 13.22 km</desc>
<time>2013-07-05T18:17:19.52</time>
<name>2708</name>
<sym>Dot</sym>
</trkpt>
<trkpt lat="42.893378" lon="-2.090860">
<ele>1647.5</ele>
<desc>Speed 29.3 km/h Distance 13.23 km</desc>
<time>2013-07-05T18:17:20.51</time>
<name>2709</name>
<sym>Dot</sym>
</trkpt>
<trkpt lat="42.893440" lon="-2.090795">
<ele>1646.0</ele>
<desc>Speed 31.1 km/h Distance 13.24 km</desc>
<time>2013-07-05T18:17:21.51</time>
<name>2710</name>
<sym>Dot</sym>
</trkpt>
<trkpt lat="42.893505" lon="-2.090722">
<ele>1644.5</ele>
<desc>Speed 33.8 km/h Distance 13.25 km</desc>
<time>2013-07-05T18:17:22.51</time>
<name>2711</name>
<sym>Dot</sym>
</trkpt>
<trkpt lat="42.893568" lon="-2.090642">
<ele>1643.5</ele>
<desc>Speed 34.7 km/h Distance 13.26 km</desc>
<time>2013-07-05T18:17:23.50</time>
<name>2712</name>
<sym>Dot</sym>
</trkpt>
<trkpt lat="42.893625" lon="-2.090553">
<ele>1642.5</ele>
<desc>Speed 34.7 km/h Distance 13.27 km</desc>
<time>2013-07-05T18:17:24.50</time>
<name>2713</name>
<sym>Dot</sym>
</trkpt>
<trkpt lat="42.893677" lon="-2.090468">
<ele>1642.0</ele>
<desc>Speed 32.3 km/h Distance 13.28 km</desc>
<time>2013-07-05T18:17:25.49</time>
<name>2714</name>
<sym>Dot</sym>
</trkpt>
<trkpt lat="42.893728" lon="-2.090390">
<ele>1641.0</ele>
<desc>Speed 30.9 km/h Distance 13.29 km</desc>
<time>2013-07-05T18:17:26.47</time>
<name>2715</name>
<sym>Dot</sym>
</trkpt>
<trkpt lat="42.893778" lon="-2.090310">
<ele>1640.0</ele>
<desc>Speed 30.6 km/h Distance 13.30 km</desc>
<time>2013-07-05T18:17:27.48</time>
<name>2716</name>
<sym>Dot</sym>
</trkpt>
<trkpt lat="42.893822" lon="-2.090230">
<ele>1640.0</ele>
<desc>Speed 29.0 km/h Distance 13.30 km</desc>
<time>2013-07-05T18:17:28.46</time>
<name>2717</name>
<sym>Dot</sym>
</trkpt>
<trkpt lat="42.893860" lon="-2.090142">
<ele>1640.0</ele>
<desc>Speed 29.8 km/h Distance 13.31 km</desc>
<time>2013-07-05T18:17:29.46</time>
<name>2718</name>
<sym>Dot</sym>
</trkpt>
<trkpt lat="42.893892" lon="-2.090048">
<ele>1640.0</ele>
<desc>Speed 29.8 km/h Distance 13.32 km</desc>
<time>2013-07-05T18:17:30.45</time>
<name>2719</name>
<sym>Dot</sym>
</trkpt>
<trkpt lat="42.893923" lon="-2.089948">
<ele>1639.0</ele>
<desc>Speed 31.5 km/h Distance 13.33 km</desc>
<time>2013-07-05T18:17:31.44</time>
<name>2720</name>
<sym>Dot</sym>
</trkpt>
<trkpt lat="42.893958" lon="-2.089850">
<ele>1638.5</ele>
<desc>Speed 31.1 km/h Distance 13.34 km</desc>
<time>2013-07-05T18:17:32.44</time>
<name>2721</name>
<sym>Dot</sym>
</trkpt>
<trkpt lat="42.893998" lon="-2.089750">
<ele>1637.5</ele>
<desc>Speed 32.6 km/h Distance 13.35 km</desc>
<time>2013-07-05T18:17:33.43</time>
<name>2722</name>
<sym>Dot</sym>
</trkpt>
<trkpt lat="42.894022" lon="-2.089645">
<ele>1637.0</ele>
<desc>Speed 30.9 km/h Distance 13.36 km</desc>
<time>2013-07-05T18:17:34.42</time>
<name>2723</name>
<sym>Dot</sym>
</trkpt>
<trkpt lat="42.894108" lon="-2.089375">
<ele>1636.5</ele>
<desc>Speed 41.8 km/h Distance 13.38 km</desc>
<time>2013-07-05T18:17:36.41</time>
<name>2724</name>
<sym>Dot</sym>
</trkpt>
<trkpt lat="42.894125" lon="-2.089172">
<ele>1635.5</ele>
<desc>Speed 30.5 km/h Distance 13.40 km</desc>
<time>2013-07-05T18:17:38.41</time>
<name>2725</name>
<sym>Dot</sym>
</trkpt>
<trkpt lat="42.894113" lon="-2.089077">
<ele>1636.0</ele>
<desc>Speed 31.6 km/h Distance 13.41 km</desc>
<time>2013-07-05T18:17:39.40</time>
<name>2726</name>
<sym>Dot</sym>
</trkpt>
<trkpt lat="42.894103" lon="-2.088978">
<ele>1635.5</ele>
<desc>Speed 30.6 km/h Distance 13.41 km</desc>
<time>2013-07-05T18:17:40.42</time>
<name>2727</name>
<sym>Dot</sym>
</trkpt>
<trkpt lat="42.894115" lon="-2.088862">
<ele>1635.0</ele>
<desc>Speed 34.4 km/h Distance 13.42 km</desc>
<time>2013-07-05T18:17:41.38</time>
<name>2728</name>
<sym>Dot</sym>
</trkpt>
<trkpt lat="42.894122" lon="-2.088752">
<ele>1634.5</ele>
<desc>Speed 31.8 km/h Distance 13.43 km</desc>
<time>2013-07-05T18:17:42.37</time>
<name>2729</name>
<sym>Dot</sym>
</trkpt>
<trkpt lat="42.894117" lon="-2.088655">
<ele>1632.5</ele>
<desc>Speed 30.6 km/h Distance 13.44 km</desc>
<time>2013-07-05T18:17:43.37</time>
<name>2730</name>
<sym>Dot</sym>
</trkpt>
<trkpt lat="42.894108" lon="-2.088565">
<ele>1631.0</ele>
<desc>Speed 31.6 km/h Distance 13.45 km</desc>
<time>2013-07-05T18:17:44.36</time>
<name>2731</name>
<sym>Dot</sym>
</trkpt>
<trkpt lat="42.894118" lon="-2.088460">
<ele>1630.5</ele>
<desc>Speed 31.9 km/h Distance 13.46 km</desc>
<time>2013-07-05T18:17:45.35</time>
<name>2732</name>
<sym>Dot</sym>
</trkpt>
<trkpt lat="42.894130" lon="-2.088360">
<ele>1630.0</ele>
<desc>Speed 30.7 km/h Distance 13.46 km</desc>
<time>2013-07-05T18:17:46.38</time>
<name>2733</name>
<sym>Dot</sym>
</trkpt>
<trkpt lat="42.894143" lon="-2.088263">
<ele>1629.5</ele>
<desc>Speed 29.6 km/h Distance 13.47 km</desc>
<time>2013-07-05T18:17:47.38</time>
<name>2734</name>
<sym>Dot</sym>
</trkpt>
<trkpt lat="42.894160" lon="-2.088165">
<ele>1629.0</ele>
<desc>Speed 30.1 km/h Distance 13.48 km</desc>
<time>2013-07-05T18:17:48.33</time>
<name>2735</name>
<sym>Dot</sym>
</trkpt>
<trkpt lat="42.894173" lon="-2.088058">
<ele>1629.0</ele>
<desc>Speed 31.9 km/h Distance 13.49 km</desc>
<time>2013-07-05T18:17:49.32</time>
<name>2736</name>
<sym>Dot</sym>
</trkpt>
<trkpt lat="42.894182" lon="-2.087948">
<ele>1627.0</ele>
<desc>Speed 32.9 km/h Distance 13.50 km</desc>
<time>2013-07-05T18:17:50.35</time>
<name>2737</name>
<sym>Dot</sym>
</trkpt>
<trkpt lat="42.894188" lon="-2.087835">
<ele>1626.5</ele>
<desc>Speed 34.1 km/h Distance 13.51 km</desc>
<time>2013-07-05T18:17:51.32</time>
<name>2738</name>
<sym>Dot</sym>
</trkpt>
<trkpt lat="42.894197" lon="-2.087727">
<ele>1625.5</ele>
<desc>Speed 32.9 km/h Distance 13.52 km</desc>
<time>2013-07-05T18:17:52.30</time>
<name>2739</name>
<sym>Dot</sym>
</trkpt>
<trkpt lat="42.894208" lon="-2.087627">
<ele>1624.5</ele>
<desc>Speed 30.7 km/h Distance 13.53 km</desc>
<time>2013-07-05T18:17:53.29</time>
<name>2740</name>
<sym>Dot</sym>
</trkpt>
<trkpt lat="42.894220" lon="-2.087533">
<ele>1622.5</ele>
<desc>Speed 28.5 km/h Distance 13.53 km</desc>
<time>2013-07-05T18:17:54.29</time>
<name>2741</name>
<sym>Dot</sym>
</trkpt>
<trkpt lat="42.894232" lon="-2.087442">
<ele>1622.0</ele>
<desc>Speed 28.9 km/h Distance 13.54 km</desc>
<time>2013-07-05T18:17:55.28</time>
<name>2742</name>
<sym>Dot</sym>
</trkpt>
<trkpt lat="42.894242" lon="-2.087347">
<ele>1620.0</ele>
<desc>Speed 28.8 km/h Distance 13.55 km</desc>
<time>2013-07-05T18:17:56.28</time>
<name>2743</name>
<sym>Dot</sym>
</trkpt>
<trkpt lat="42.894252" lon="-2.087250">
<ele>1620.0</ele>
<desc>Speed 29.3 km/h Distance 13.56 km</desc>
<time>2013-07-05T18:17:57.27</time>
<name>2744</name>
<sym>Dot</sym>
</trkpt>
<trkpt lat="42.894267" lon="-2.087153">
<ele>1620.0</ele>
<desc>Speed 28.9 km/h Distance 13.56 km</desc>
<time>2013-07-05T18:17:58.27</time>
<name>2745</name>
<sym>Dot</sym>
</trkpt>
<trkpt lat="42.894288" lon="-2.087058">
<ele>1620.0</ele>
<desc>Speed 29.6 km/h Distance 13.57 km</desc>
<time>2013-07-05T18:17:59.26</time>
<name>2746</name>
<sym>Dot</sym>
</trkpt>
<trkpt lat="42.894312" lon="-2.086963">
<ele>1620.0</ele>
<desc>Speed 29.4 km/h Distance 13.58 km</desc>
<time>2013-07-05T18:18:00.25</time>
<name>2747</name>
<sym>Dot</sym>
</trkpt>
<trkpt lat="42.894337" lon="-2.086870">
<ele>1619.5</ele>
<desc>Speed 30.3 km/h Distance 13.59 km</desc>
<time>2013-07-05T18:18:01.25</time>
<name>2748</name>
<sym>Dot</sym>
</trkpt>
<trkpt lat="42.894357" lon="-2.086775">
<ele>1618.5</ele>
<desc>Speed 30.3 km/h Distance 13.60 km</desc>
<time>2013-07-05T18:18:02.25</time>
<name>2749</name>
<sym>Dot</sym>
</trkpt>
<trkpt lat="42.894373" lon="-2.086677">
<ele>1616.5</ele>
<desc>Speed 31.0 km/h Distance 13.61 km</desc>
<time>2013-07-05T18:18:03.24</time>
<name>2750</name>
<sym>Dot</sym>
</trkpt>
<trkpt lat="42.894390" lon="-2.086580">
<ele>1616.5</ele>
<desc>Speed 30.7 km/h Distance 13.61 km</desc>
<time>2013-07-05T18:18:04.24</time>
<name>2751</name>
<sym>Dot</sym>
</trkpt>
<trkpt lat="42.894408" lon="-2.086485">
<ele>1616.0</ele>
<desc>Speed 30.4 km/h Distance 13.62 km</desc>
<time>2013-07-05T18:18:05.23</time>
<name>2752</name>
<sym>Dot</sym>
</trkpt>
<trkpt lat="42.894432" lon="-2.086390">
<ele>1616.0</ele>
<desc>Speed 30.5 km/h Distance 13.63 km</desc>
<time>2013-07-05T18:18:06.23</time>
<name>2753</name>
<sym>Dot</sym>
</trkpt>
<trkpt lat="42.894448" lon="-2.086302">
<ele>1613.0</ele>
<desc>Speed 29.6 km/h Distance 13.64 km</desc>
<time>2013-07-05T18:18:07.23</time>
<name>2754</name>
<sym>Dot</sym>
</trkpt>
<trkpt lat="42.894475" lon="-2.086212">
<ele>1611.5</ele>
<desc>Speed 29.3 km/h Distance 13.64 km</desc>
<time>2013-07-05T18:18:08.22</time>
<name>2755</name>
<sym>Dot</sym>
</trkpt>
<trkpt lat="42.894505" lon="-2.086123">
<ele>1610.0</ele>
<desc>Speed 29.0 km/h Distance 13.65 km</desc>
<time>2013-07-05T18:18:09.21</time>
<name>2756</name>
<sym>Dot</sym>
</trkpt>
<trkpt lat="42.894537" lon="-2.086035">
<ele>1608.0</ele>
<desc>Speed 29.5 km/h Distance 13.66 km</desc>
<time>2013-07-05T18:18:10.21</time>
<name>2757</name>
<sym>Dot</sym>
</trkpt>
<trkpt lat="42.894562" lon="-2.085942">
<ele>1608.0</ele>
<desc>Speed 29.6 km/h Distance 13.67 km</desc>
<time>2013-07-05T18:18:11.21</time>
<name>2758</name>
<sym>Dot</sym>
</trkpt>
<trkpt lat="42.894580" lon="-2.085867">
<ele>1607.5</ele>
<desc>Speed 29.6 km/h Distance 13.68 km</desc>
<time>2013-07-05T18:18:12.20</time>
<name>2759</name>
<sym>Dot</sym>
</trkpt>
<trkpt lat="42.894603" lon="-2.085773">
<ele>1607.5</ele>
<desc>Speed 31.1 km/h Distance 13.68 km</desc>
<time>2013-07-05T18:18:13.20</time>
<name>2760</name>
<sym>Dot</sym>
</trkpt>
<trkpt lat="42.894632" lon="-2.085673">
<ele>1606.0</ele>
<desc>Speed 31.4 km/h Distance 13.69 km</desc>
<time>2013-07-05T18:18:14.19</time>
<name>2761</name>
<sym>Dot</sym>
</trkpt>
<trkpt lat="42.894662" lon="-2.085577">
<ele>1604.5</ele>
<desc>Speed 31.1 km/h Distance 13.70 km</desc>
<time>2013-07-05T18:18:15.18</time>
<name>2762</name>
<sym>Dot</sym>
</trkpt>
<trkpt lat="42.894688" lon="-2.085478">
<ele>1603.5</ele>
<desc>Speed 30.4 km/h Distance 13.71 km</desc>
<time>2013-07-05T18:18:16.18</time>
<name>2763</name>
<sym>Dot</sym>
</trkpt>
<trkpt lat="42.894723" lon="-2.085385">
<ele>1602.0</ele>
<desc>Speed 29.6 km/h Distance 13.72 km</desc>
<time>2013-07-05T18:18:17.16</time>
<name>2764</name>
<sym>Dot</sym>
</trkpt>
<trkpt lat="42.894758" lon="-2.085293">
<ele>1600.5</ele>
<desc>Speed 29.8 km/h Distance 13.73 km</desc>
<time>2013-07-05T18:18:18.16</time>
<name>2765</name>
<sym>Dot</sym>
</trkpt>
<trkpt lat="42.894807" lon="-2.085205">
<ele>1599.5</ele>
<desc>Speed 31.4 km/h Distance 13.74 km</desc>
<time>2013-07-05T18:18:19.16</time>
<name>2766</name>
<sym>Dot</sym>
</trkpt>
<trkpt lat="42.894835" lon="-2.085110">
<ele>1598.5</ele>
<desc>Speed 29.9 km/h Distance 13.74 km</desc>
<time>2013-07-05T18:18:20.15</time>
<name>2767</name>
<sym>Dot</sym>
</trkpt>
<trkpt lat="42.894870" lon="-2.085015">
<ele>1596.5</ele>
<desc>Speed 30.3 km/h Distance 13.75 km</desc>
<time>2013-07-05T18:18:24.46</time>
<name>2768</name>
<sym>Dot</sym>
</trkpt>
<trkpt lat="42.894907" lon="-2.084920">
<ele>1596.0</ele>
<desc>Speed 31.6 km/h Distance 13.76 km</desc>
<time>2013-07-05T18:18:25.25</time>
<name>2769</name>
<sym>Dot</sym>
</trkpt>
<trkpt lat="42.894945" lon="-2.084833">
<ele>1595.0</ele>
<desc>Speed 29.3 km/h Distance 13.77 km</desc>
<time>2013-07-05T18:18:26.25</time>
<name>2770</name>
<sym>Dot</sym>
</trkpt>
<trkpt lat="42.895005" lon="-2.084762">
<ele>1594.5</ele>
<desc>Speed 32.4 km/h Distance 13.78 km</desc>
<time>2013-07-05T18:18:27.24</time>
<name>2771</name>
<sym>Dot</sym>
</trkpt>
<trkpt lat="42.895048" lon="-2.084693">
<ele>1593.0</ele>
<desc>Speed 26.4 km/h Distance 13.79 km</desc>
<time>2013-07-05T18:18:28.23</time>
<name>2772</name>
<sym>Dot</sym>
</trkpt>
<trkpt lat="42.895132" lon="-2.084562">
<ele>1588.0</ele>
<desc>Speed 25.8 km/h Distance 13.80 km</desc>
<time>2013-07-05T18:18:30.23</time>
<name>2773</name>
<sym>Dot</sym>
</trkpt>
<trkpt lat="42.895175" lon="-2.084498">
<ele>1586.0</ele>
<desc>Speed 26.8 km/h Distance 13.81 km</desc>
<time>2013-07-05T18:18:31.22</time>
<name>2774</name>
<sym>Dot</sym>
</trkpt>
<trkpt lat="42.895225" lon="-2.084430">
<ele>1585.0</ele>
<desc>Speed 29.0 km/h Distance 13.81 km</desc>
<time>2013-07-05T18:18:32.22</time>
<name>2775</name>
<sym>Dot</sym>
</trkpt>
<trkpt lat="42.895278" lon="-2.084353">
<ele>1583.0</ele>
<desc>Speed 31.5 km/h Distance 13.82 km</desc>
<time>2013-07-05T18:18:33.20</time>
<name>2776</name>
<sym>Dot</sym>
</trkpt>
<trkpt lat="42.895335" lon="-2.084272">
<ele>1581.5</ele>
<desc>Speed 33.2 km/h Distance 13.83 km</desc>
<time>2013-07-05T18:18:34.21</time>
<name>2777</name>
<sym>Dot</sym>
</trkpt>
<trkpt lat="42.895392" lon="-2.084197">
<ele>1581.0</ele>
<desc>Speed 32.8 km/h Distance 13.84 km</desc>
<time>2013-07-05T18:18:35.20</time>
<name>2778</name>
<sym>Dot</sym>
</trkpt>
<trkpt lat="42.895450" lon="-2.084130">
<ele>1581.0</ele>
<desc>Speed 31.7 km/h Distance 13.85 km</desc>
<time>2013-07-05T18:18:36.20</time>
<name>2779</name>
<sym>Dot</sym>
</trkpt>
<trkpt lat="42.895510" lon="-2.084065">
<ele>1581.0</ele>
<desc>Speed 30.5 km/h Distance 13.86 km</desc>
<time>2013-07-05T18:18:37.18</time>
<name>2780</name>
<sym>Dot</sym>
</trkpt>
<trkpt lat="42.895563" lon="-2.084002">
<ele>1580.5</ele>
<desc>Speed 28.7 km/h Distance 13.87 km</desc>
<time>2013-07-05T18:18:38.18</time>
<name>2781</name>
<sym>Dot</sym>
</trkpt>
<trkpt lat="42.895612" lon="-2.083935">
<ele>1579.5</ele>
<desc>Speed 27.8 km/h Distance 13.87 km</desc>
<time>2013-07-05T18:18:39.18</time>
<name>2782</name>
<sym>Dot</sym>
</trkpt>
<trkpt lat="42.895667" lon="-2.083872">
<ele>1579.0</ele>
<desc>Speed 29.3 km/h Distance 13.88 km</desc>
<time>2013-07-05T18:18:40.17</time>
<name>2783</name>
<sym>Dot</sym>
</trkpt>
<trkpt lat="42.895732" lon="-2.083813">
<ele>1578.5</ele>
<desc>Speed 31.4 km/h Distance 13.89 km</desc>
<time>2013-07-05T18:18:41.17</time>
<name>2784</name>
<sym>Dot</sym>
</trkpt>
<trkpt lat="42.895797" lon="-2.083755">
<ele>1577.0</ele>
<desc>Speed 31.4 km/h Distance 13.90 km</desc>
<time>2013-07-05T18:18:42.17</time>
<name>2785</name>
<sym>Dot</sym>
</trkpt>
<trkpt lat="42.895863" lon="-2.083698">
<ele>1575.5</ele>
<desc>Speed 31.2 km/h Distance 13.91 km</desc>
<time>2013-07-05T18:18:43.16</time>
<name>2786</name>
<sym>Dot</sym>
</trkpt>
<trkpt lat="42.895923" lon="-2.083645">
<ele>1575.0</ele>
<desc>Speed 28.9 km/h Distance 13.92 km</desc>
<time>2013-07-05T18:18:44.15</time>
<name>2787</name>
<sym>Dot</sym>
</trkpt>
<trkpt lat="42.895973" lon="-2.083593">
<ele>1574.0</ele>
<desc>Speed 25.3 km/h Distance 13.92 km</desc>
<time>2013-07-05T18:18:45.14</time>
<name>2788</name>
<sym>Dot</sym>
</trkpt>
<trkpt lat="42.896017" lon="-2.083545">
<ele>1572.5</ele>
<desc>Speed 22.4 km/h Distance 13.93 km</desc>
<time>2013-07-05T18:18:46.14</time>
<name>2789</name>
<sym>Dot</sym>
</trkpt>
<trkpt lat="42.896067" lon="-2.083503">
<ele>1572.0</ele>
<desc>Speed 23.4 km/h Distance 13.94 km</desc>
<time>2013-07-05T18:18:47.13</time>
<name>2790</name>
<sym>Dot</sym>
</trkpt>
<trkpt lat="42.896128" lon="-2.083462">
<ele>1571.5</ele>
<desc>Speed 26.6 km/h Distance 13.94 km</desc>
<time>2013-07-05T18:18:48.12</time>
<name>2791</name>
<sym>Dot</sym>
</trkpt>
<trkpt lat="42.896195" lon="-2.083420">
<ele>1571.0</ele>
<desc>Speed 29.3 km/h Distance 13.95 km</desc>
<time>2013-07-05T18:18:49.12</time>
<name>2792</name>
<sym>Dot</sym>
</trkpt>
<trkpt lat="42.896265" lon="-2.083375">
<ele>1570.0</ele>
<desc>Speed 29.7 km/h Distance 13.96 km</desc>
<time>2013-07-05T18:18:50.12</time>
<name>2793</name>
<sym>Dot</sym>
</trkpt>
<trkpt lat="42.896320" lon="-2.083320">
<ele>1568.5</ele>
<desc>Speed 26.3 km/h Distance 13.97 km</desc>
<time>2013-07-05T18:18:51.10</time>
<name>2794</name>
<sym>Dot</sym>
</trkpt>
<trkpt lat="42.896353" lon="-2.083242">
<ele>1568.0</ele>
<desc>Speed 26.3 km/h Distance 13.97 km</desc>
<time>2013-07-05T18:18:52.10</time>
<name>2795</name>
<sym>Dot</sym>
</trkpt>
<trkpt lat="42.896097" lon="-2.082943">
<ele>1564.5</ele>
<desc>Speed 55.3 km/h Distance 14.01 km</desc>
<time>2013-07-05T18:18:57.21</time>
<name>2796</name>
<sym>Dot</sym>
</trkpt>
<trkpt lat="42.895987" lon="-2.082857">
<ele>1563.5</ele>
<desc>Speed 55.3 km/h Distance 14.03 km</desc>
<time>2013-07-05T18:18:58.21</time>
<name>2797</name>
<sym>Dot</sym>
</trkpt>
<trkpt lat="42.895913" lon="-2.082482">
<ele>1560.5</ele>
<desc>Speed 33.5 km/h Distance 14.06 km</desc>
<time>2013-07-05T18:19:02.21</time>
<name>2798</name>
<sym>Dot</sym>
</trkpt>
<trkpt lat="42.895250" lon="-2.082242">
<ele>1555.0</ele>
<desc>Speed 72.9 km/h Distance 14.13 km</desc>
<time>2013-07-05T18:19:07.21</time>
<name>2799</name>
<sym>Dot</sym>
</trkpt>
<trkpt lat="42.895010" lon="-2.081677">
<ele>1553.5</ele>
<desc>Speed 77.6 km/h Distance 14.19 km</desc>
<time>2013-07-05T18:19:12.20</time>
<name>2800</name>
<sym>Dot</sym>
</trkpt>
<trkpt lat="42.893973" lon="-2.080357">
<ele>1552.0</ele>
<desc>Speed 185 km/h Distance 14.35 km</desc>
<time>2013-07-05T18:19:18.20</time>
<name>2801</name>
<sym>Dot</sym>
</trkpt>
<trkpt lat="42.893725" lon="-2.079702">
<ele>1544.5</ele>
<desc>Speed 43.4 km/h Distance 14.41 km</desc>
<time>2013-07-05T18:19:24.19</time>
<name>2802</name>
<sym>Dot</sym>
</trkpt>
<trkpt lat="42.893677" lon="-2.079593">
<ele>1542.5</ele>
<desc>Speed 47.6 km/h Distance 14.42 km</desc>
<time>2013-07-05T18:19:25.18</time>
<name>2803</name>
<sym>Dot</sym>
</trkpt>
<trkpt lat="42.893523" lon="-2.079247">
<ele>1527.5</ele>
<desc>Speed 41.7 km/h Distance 14.45 km</desc>
<time>2013-07-05T18:19:29.18</time>
<name>2804</name>
<sym>Dot</sym>
</trkpt>
<trkpt lat="42.893467" lon="-2.079147">
<ele>1525.0</ele>
<desc>Speed 37.0 km/h Distance 14.46 km</desc>
<time>2013-07-05T18:19:30.18</time>
<name>2805</name>
<sym>Dot</sym>
</trkpt>
<trkpt lat="42.893398" lon="-2.079052">
<ele>1523.5</ele>
<desc>Speed 38.5 km/h Distance 14.47 km</desc>
<time>2013-07-05T18:19:31.16</time>
<name>2806</name>
<sym>Dot</sym>
</trkpt>
<trkpt lat="42.893328" lon="-2.078943">
<ele>1522.5</ele>
<desc>Speed 43.7 km/h Distance 14.48 km</desc>
<time>2013-07-05T18:19:32.16</time>
<name>2807</name>
<sym>Dot</sym>
</trkpt>
<trkpt lat="42.893233" lon="-2.078748">
<ele>1518.0</ele>
<desc>Speed 46.9 km/h Distance 14.50 km</desc>
<time>2013-07-05T18:19:34.15</time>
<name>2808</name>
<sym>Dot</sym>
</trkpt>
<trkpt lat="42.893183" lon="-2.078603">
<ele>1516.5</ele>
<desc>Speed 50.8 km/h Distance 14.51 km</desc>
<time>2013-07-05T18:19:35.14</time>
<name>2809</name>
<sym>Dot</sym>
</trkpt>
<trkpt lat="42.893128" lon="-2.078457">
<ele>1516.0</ele>
<desc>Speed 48.7 km/h Distance 14.53 km</desc>
<time>2013-07-05T18:19:36.13</time>
<name>2810</name>
<sym>Dot</sym>
</trkpt>
<trkpt lat="42.893018" lon="-2.078145">
<ele>1508.0</ele>
<desc>Speed 35.1 km/h Distance 14.56 km</desc>
<time>2013-07-05T18:19:39.16</time>
<name>2811</name>
<sym>Dot</sym>
</trkpt>
<trkpt lat="42.892910" lon="-2.077885">
<ele>1505.0</ele>
<desc>Speed 47.7 km/h Distance 14.58 km</desc>
<time>2013-07-05T18:19:41.15</time>
<name>2812</name>
<sym>Dot</sym>
</trkpt>
<trkpt lat="42.892837" lon="-2.077585">
<ele>1504.5</ele>
<desc>Speed 44.2 km/h Distance 14.61 km</desc>
<time>2013-07-05T18:19:43.13</time>
<name>2813</name>
<sym>Dot</sym>
</trkpt>
<trkpt lat="42.892762" lon="-2.077255">
<ele>1495.0</ele>
<desc>Speed 36.2 km/h Distance 14.63 km</desc>
<time>2013-07-05T18:19:47.14</time>
<name>2814</name>
<sym>Dot</sym>
</trkpt>
<trkpt lat="42.892735" lon="-2.077028">
<ele>1493.5</ele>
<desc>Speed 46.9 km/h Distance 14.65 km</desc>
<time>2013-07-05T18:19:49.14</time>
<name>2815</name>
<sym>Dot</sym>
</trkpt>
<trkpt lat="42.892707" lon="-2.076872">
<ele>1492.5</ele>
<desc>Speed 51.3 km/h Distance 14.67 km</desc>
<time>2013-07-05T18:19:50.14</time>
<name>2816</name>
<sym>Dot</sym>
</trkpt>
<trkpt lat="42.892613" lon="-2.076612">
<ele>1489.0</ele>
<desc>Speed 45.6 km/h Distance 14.69 km</desc>
<time>2013-07-05T18:19:52.12</time>
<name>2817</name>
<sym>Dot</sym>
</trkpt>
<trkpt lat="42.892535" lon="-2.076485">
<ele>1488.0</ele>
<desc>Speed 49.8 km/h Distance 14.70 km</desc>
<time>2013-07-05T18:19:53.12</time>
<name>2818</name>
<sym>Dot</sym>
</trkpt>
<trkpt lat="42.892402" lon="-2.076225">
<ele>1484.5</ele>
<desc>Speed 55.4 km/h Distance 14.73 km</desc>
<time>2013-07-05T18:19:55.11</time>
<name>2819</name>
<sym>Dot</sym>
</trkpt>
<trkpt lat="42.892260" lon="-2.075997">
<ele>1483.5</ele>
<desc>Speed 50.1 km/h Distance 14.75 km</desc>
<time>2013-07-05T18:19:57.10</time>
<name>2820</name>
<sym>Dot</sym>
</trkpt>
<trkpt lat="42.892185" lon="-2.075882">
<ele>1482.0</ele>
<desc>Speed 51.2 km/h Distance 14.77 km</desc>
<time>2013-07-05T18:19:58.09</time>
<name>2821</name>
<sym>Dot</sym>
</trkpt>
<trkpt lat="42.892108" lon="-2.075757">
<ele>1481.0</ele>
<desc>Speed 49.6 km/h Distance 14.78 km</desc>
<time>2013-07-05T18:19:59.08</time>
<name>2822</name>
<sym>Dot</sym>
</trkpt>
<trkpt lat="42.892037" lon="-2.075623">
<ele>1480.5</ele>
<desc>Speed 48.5 km/h Distance 14.79 km</desc>
<time>2013-07-05T18:20:00.08</time>
<name>2823</name>
<sym>Dot</sym>
</trkpt>
<trkpt lat="42.891975" lon="-2.075487">
<ele>1480.0</ele>
<desc>Speed 46.7 km/h Distance 14.81 km</desc>
<time>2013-07-05T18:20:01.07</time>
<name>2824</name>
<sym>Dot</sym>
</trkpt>
<trkpt lat="42.891912" lon="-2.075355">
<ele>1478.0</ele>
<desc>Speed 44.6 km/h Distance 14.82 km</desc>
<time>2013-07-05T18:20:02.08</time>
<name>2825</name>
<sym>Dot</sym>
</trkpt>
<trkpt lat="42.891603" lon="-2.074470">
<ele>1472.0</ele>
<desc>Speed 43.1 km/h Distance 14.90 km</desc>
<time>2013-07-05T18:20:08.12</time>
<name>2826</name>
<sym>Dot</sym>
</trkpt>
<trkpt lat="42.891565" lon="-2.074315">
<ele>1472.0</ele>
<desc>Speed 45.8 km/h Distance 14.91 km</desc>
<time>2013-07-05T18:20:09.12</time>
<name>2827</name>
<sym>Dot</sym>
</trkpt>
<trkpt lat="42.891523" lon="-2.074160">
<ele>1472.0</ele>
<desc>Speed 45.5 km/h Distance 14.93 km</desc>
<time>2013-07-05T18:20:10.11</time>
<name>2828</name>
<sym>Dot</sym>
</trkpt>
<trkpt lat="42.891480" lon="-2.074007">
<ele>1472.0</ele>
<desc>Speed 47.3 km/h Distance 14.94 km</desc>
<time>2013-07-05T18:20:11.11</time>
<name>2829</name>
<sym>Dot</sym>
</trkpt>
<trkpt lat="42.891452" lon="-2.073845">
<ele>1472.0</ele>
<desc>Speed 49.2 km/h Distance 14.95 km</desc>
<time>2013-07-05T18:20:12.10</time>
<name>2830</name>
<sym>Dot</sym>
</trkpt>
<trkpt lat="42.891392" lon="-2.073537">
<ele>1471.5</ele>
<desc>Speed 48.8 km/h Distance 14.98 km</desc>
<time>2013-07-05T18:20:14.09</time>
<name>2831</name>
<sym>Dot</sym>
</trkpt>
<trkpt lat="42.891368" lon="-2.073380">
<ele>1471.5</ele>
<desc>Speed 47.1 km/h Distance 14.99 km</desc>
<time>2013-07-05T18:20:15.08</time>
<name>2832</name>
<sym>Dot</sym>
</trkpt>
<trkpt lat="42.891350" lon="-2.073240">
<ele>1471.5</ele>
<desc>Speed 44.6 km/h Distance 15.00 km</desc>
<time>2013-07-05T18:20:16.07</time>
<name>2833</name>
<sym>Dot</sym>
</trkpt>
<trkpt lat="42.891337" lon="-2.072912">
<ele>1463.5</ele>
<desc>Speed 45.8 km/h Distance 15.03 km</desc>
<time>2013-07-05T18:20:20.11</time>
<name>2834</name>
<sym>Dot</sym>
</trkpt>
<trkpt lat="42.891327" lon="-2.072742">
<ele>1462.0</ele>
<desc>Speed 47.4 km/h Distance 15.04 km</desc>
<time>2013-07-05T18:20:21.11</time>
<name>2835</name>
<sym>Dot</sym>
</trkpt>
<trkpt lat="42.891303" lon="-2.072577">
<ele>1461.0</ele>
<desc>Speed 48.5 km/h Distance 15.06 km</desc>
<time>2013-07-05T18:20:22.10</time>
<name>2836</name>
<sym>Dot</sym>
</trkpt>
<trkpt lat="42.891105" lon="-2.072402">
<ele>1452.0</ele>
<desc>Speed 47.8 km/h Distance 15.08 km</desc>
<time>2013-07-05T18:20:24.09</time>
<name>2837</name>
<sym>Dot</sym>
</trkpt>
<trkpt lat="42.891007" lon="-2.072343">
<ele>1448.0</ele>
<desc>Speed 44.7 km/h Distance 15.10 km</desc>
<time>2013-07-05T18:20:25.09</time>
<name>2838</name>
<sym>Dot</sym>
</trkpt>
<trkpt lat="42.890988" lon="-2.072213">
<ele>1446.0</ele>
<desc>Speed 51.7 km/h Distance 15.11 km</desc>
<time>2013-07-05T18:20:26.07</time>
<name>2839</name>
<sym>Dot</sym>
</trkpt>
<trkpt lat="42.890907" lon="-2.072620">
<ele>1440.5</ele>
<desc>Speed 48.8 km/h Distance 15.14 km</desc>
<time>2013-07-05T18:20:29.10</time>
<name>2840</name>
<sym>Dot</sym>
</trkpt>
<trkpt lat="42.890917" lon="-2.072763">
<ele>1440.0</ele>
<desc>Speed 48.8 km/h Distance 15.15 km</desc>
<time>2013-07-05T18:20:30.10</time>
<name>2841</name>
<sym>Dot</sym>
</trkpt>
<trkpt lat="42.889390" lon="-2.071927">
<ele>1437.5</ele>
<desc>Speed 141 km/h Distance 15.34 km</desc>
<time>2013-07-05T18:20:41.09</time>
<name>2842</name>
<sym>Dot</sym>
</trkpt>
<trkpt lat="42.890010" lon="-2.072577">
<ele>1399.5</ele>
<desc>Speed 28.7 km/h Distance 15.42 km</desc>
<time>2013-07-05T18:21:02.08</time>
<name>2843</name>
<sym>Dot</sym>
</trkpt>
<trkpt lat="42.889738" lon="-2.071388">
<ele>1381.5</ele>
<desc>Speed 36.1 km/h Distance 15.52 km</desc>
<time>2013-07-05T18:21:10.08</time>
<name>2844</name>
<sym>Dot</sym>
</trkpt>
<trkpt lat="42.889438" lon="-2.070983">
<ele>1353.0</ele>
<desc>Speed 47.3 km/h Distance 15.57 km</desc>
<time>2013-07-05T18:21:13.08</time>
<name>2845</name>
<sym>Dot</sym>
</trkpt>
<trkpt lat="42.889275" lon="-2.070813">
<ele>1338.0</ele>
<desc>Speed 57.0 km/h Distance 15.59 km</desc>
<time>2013-07-05T18:21:15.07</time>
<name>2846</name>
<sym>Dot</sym>
</trkpt>
<trkpt lat="42.889138" lon="-2.070803">
<ele>1330.0</ele>
<desc>Speed 55.0 km/h Distance 15.61 km</desc>
<time>2013-07-05T18:21:16.06</time>
<name>2847</name>
<sym>Dot</sym>
</trkpt>
<trkpt lat="42.889018" lon="-2.070865">
<ele>1322.5</ele>
<desc>Speed 57.2 km/h Distance 15.62 km</desc>
<time>2013-07-05T18:21:17.06</time>
<name>2848</name>
<sym>Dot</sym>
</trkpt>
<trkpt lat="42.888862" lon="-2.071085">
<ele>1312.5</ele>
<desc>Speed 44.9 km/h Distance 15.65 km</desc>
<time>2013-07-05T18:21:19.04</time>
<name>2849</name>
<sym>Dot</sym>
</trkpt>
<trkpt lat="42.889042" lon="-2.071288">
<ele>1304.5</ele>
<desc>Speed 31.2 km/h Distance 15.67 km</desc>
<time>2013-07-05T18:21:22.06</time>
<name>2850</name>
<sym>Dot</sym>
</trkpt>
<trkpt lat="42.889222" lon="-2.071327">
<ele>1301.5</ele>
<desc>Speed 26.5 km/h Distance 15.70 km</desc>
<time>2013-07-05T18:21:24.06</time>
<name>2851</name>
<sym>Dot</sym>
</trkpt>
<trkpt lat="42.889295" lon="-2.071375">
<ele>1301.0</ele>
<desc>Speed 24.6 km/h Distance 15.70 km</desc>
<time>2013-07-05T18:21:25.04</time>
<name>2852</name>
<sym>Dot</sym>
</trkpt>
<trkpt lat="42.889347" lon="-2.071407">
<ele>1300.5</ele>
<desc>Speed 22.1 km/h Distance 15.71 km</desc>
<time>2013-07-05T18:21:26.04</time>
<name>2853</name>
<sym>Dot</sym>
</trkpt>
<trkpt lat="42.889397" lon="-2.071412">
<ele>1299.0</ele>
<desc>Speed 15.6 km/h Distance 15.72 km</desc>
<time>2013-07-05T18:21:27.03</time>
<name>2854</name>
<sym>Dot</sym>
</trkpt>
<trkpt lat="42.889443" lon="-2.071412">
<ele>1297.5</ele>
<desc>Speed 17.1 km/h Distance 15.72 km</desc>
<time>2013-07-05T18:21:28.03</time>
<name>2855</name>
<sym>Dot</sym>
</trkpt>
<trkpt lat="42.889495" lon="-2.071420">
<ele>1295.5</ele>
<desc>Speed 19.4 km/h Distance 15.73 km</desc>
<time>2013-07-05T18:21:29.03</time>
<name>2856</name>
<sym>Dot</sym>
</trkpt>
<trkpt lat="42.889548" lon="-2.071425">
<ele>1293.5</ele>
<desc>Speed 21.1 km/h Distance 15.73 km</desc>
<time>2013-07-05T18:21:30.02</time>
<name>2857</name>
<sym>Dot</sym>
</trkpt>
<trkpt lat="42.889665" lon="-2.071490">
<ele>1292.0</ele>
<desc>Speed 22.1 km/h Distance 15.75 km</desc>
<time>2013-07-05T18:21:32.01</time>
<name>2858</name>
<sym>Dot</sym>
</trkpt>
<trkpt lat="42.889738" lon="-2.071477">
<ele>1291.0</ele>
<desc>Speed 15.3 km/h Distance 15.76 km</desc>
<time>2013-07-05T18:21:34.01</time>
<name>2859</name>
<sym>Dot</sym>
</trkpt>
<trkpt lat="42.889788" lon="-2.071462">
<ele>1289.5</ele>
<desc>Speed 19.2 km/h Distance 15.76 km</desc>
<time>2013-07-05T18:21:34.99</time>
<name>2860</name>
<sym>Dot</sym>
</trkpt>
<trkpt lat="42.889843" lon="-2.071450">
<ele>1288.0</ele>
<desc>Speed 21.0 km/h Distance 15.77 km</desc>
<time>2013-07-05T18:21:35.98</time>
<name>2861</name>
<sym>Dot</sym>
</trkpt>
<trkpt lat="42.889900" lon="-2.071465">
<ele>1288.0</ele>
<desc>Speed 24.6 km/h Distance 15.77 km</desc>
<time>2013-07-05T18:21:36.97</time>
<name>2862</name>
<sym>Dot</sym>
</trkpt>
<trkpt lat="42.889962" lon="-2.071505">
<ele>1289.0</ele>
<desc>Speed 28.4 km/h Distance 15.78 km</desc>
<time>2013-07-05T18:21:37.97</time>
<name>2863</name>
<sym>Dot</sym>
</trkpt>
<trkpt lat="42.890042" lon="-2.071568">
<ele>1286.5</ele>
<desc>Speed 15.7 km/h Distance 15.79 km</desc>
<time>2013-07-05T18:21:41.03</time>
<name>2864</name>
<sym>Dot</sym>
</trkpt>
<trkpt lat="42.890075" lon="-2.071582">
<ele>1285.0</ele>
<desc>Speed 14.1 km/h Distance 15.80 km</desc>
<time>2013-07-05T18:21:42.02</time>
<name>2865</name>
<sym>Dot</sym>
</trkpt>
<trkpt lat="42.890117" lon="-2.071605">
<ele>1283.5</ele>
<desc>Speed 17.0 km/h Distance 15.80 km</desc>
<time>2013-07-05T18:21:43.02</time>
<name>2866</name>
<sym>Dot</sym>
</trkpt>
<trkpt lat="42.890155" lon="-2.071647">
<ele>1282.5</ele>
<desc>Speed 18.1 km/h Distance 15.81 km</desc>
<time>2013-07-05T18:21:44.00</time>
<name>2867</name>
<sym>Dot</sym>
</trkpt>
<trkpt lat="42.890180" lon="-2.071725">
<ele>1282.0</ele>
<desc>Speed 24.1 km/h Distance 15.81 km</desc>
<time>2013-07-05T18:21:45.00</time>
<name>2868</name>
<sym>Dot</sym>
</trkpt>
<trkpt lat="42.890178" lon="-2.071815">
<ele>1281.5</ele>
<desc>Speed 25.3 km/h Distance 15.82 km</desc>
<time>2013-07-05T18:21:45.99</time>
<name>2869</name>
<sym>Dot</sym>
</trkpt>
<trkpt lat="42.889958" lon="-2.072088">
<ele>1279.5</ele>
<desc>Speed 42.9 km/h Distance 15.85 km</desc>
<time>2013-07-05T18:21:49.03</time>
<name>2870</name>
<sym>Dot</sym>
</trkpt>
<trkpt lat="42.889735" lon="-2.072143">
<ele>1277.0</ele>
<desc>Speed 41.9 km/h Distance 15.88 km</desc>
<time>2013-07-05T18:21:51.01</time>
<name>2871</name>
<sym>Dot</sym>
</trkpt>
<trkpt lat="42.889620" lon="-2.072135">
<ele>1274.5</ele>
<desc>Speed 45.5 km/h Distance 15.89 km</desc>
<time>2013-07-05T18:21:52.01</time>
<name>2872</name>
<sym>Dot</sym>
</trkpt>
<trkpt lat="42.889493" lon="-2.072128">
<ele>1274.0</ele>
<desc>Speed 48.0 km/h Distance 15.91 km</desc>
<time>2013-07-05T18:21:53.01</time>
<name>2873</name>
<sym>Dot</sym>
</trkpt>
<trkpt lat="42.889368" lon="-2.072157">
<ele>1273.0</ele>
<desc>Speed 52.4 km/h Distance 15.92 km</desc>
<time>2013-07-05T18:21:54.00</time>
<name>2874</name>
<sym>Dot</sym>
</trkpt>
<trkpt lat="42.889245" lon="-2.072207">
<ele>1272.0</ele>
<desc>Speed 53.1 km/h Distance 15.93 km</desc>
<time>2013-07-05T18:21:54.99</time>
<name>2875</name>
<sym>Dot</sym>
</trkpt>
<trkpt lat="42.889123" lon="-2.072245">
<ele>1270.5</ele>
<desc>Speed 49.4 km/h Distance 15.95 km</desc>
<time>2013-07-05T18:21:55.98</time>
<name>2876</name>
<sym>Dot</sym>
</trkpt>
<trkpt lat="42.889008" lon="-2.072268">
<ele>1269.5</ele>
<desc>Speed 46.3 km/h Distance 15.96 km</desc>
<time>2013-07-05T18:21:56.97</time>
<name>2877</name>
<sym>Dot</sym>
</trkpt>
<trkpt lat="42.888897" lon="-2.072275">
<ele>1267.5</ele>
<desc>Speed 43.6 km/h Distance 15.97 km</desc>
<time>2013-07-05T18:21:57.96</time>
<name>2878</name>
<sym>Dot</sym>
</trkpt>
<trkpt lat="42.888798" lon="-2.072302">
<ele>1265.0</ele>
<desc>Speed 41.9 km/h Distance 15.98 km</desc>
<time>2013-07-05T18:21:58.96</time>
<name>2879</name>
<sym>Dot</sym>
</trkpt>
<trkpt lat="42.888688" lon="-2.072345">
<ele>1263.5</ele>
<desc>Speed 43.1 km/h Distance 16.00 km</desc>
<time>2013-07-05T18:21:59.95</time>
<name>2880</name>
<sym>Dot</sym>
</trkpt>
<trkpt lat="42.888482" lon="-2.072503">
<ele>1258.0</ele>
<desc>Speed 42.3 km/h Distance 16.02 km</desc>
<time>2013-07-05T18:22:01.94</time>
<name>2881</name>
<sym>Dot</sym>
</trkpt>
<trkpt lat="42.888422" lon="-2.072597">
<ele>1253.5</ele>
<desc>Speed 36.5 km/h Distance 16.03 km</desc>
<time>2013-07-05T18:22:02.93</time>
<name>2882</name>
<sym>Dot</sym>
</trkpt>
<trkpt lat="42.888405" lon="-2.072782">
<ele>1249.5</ele>
<desc>Speed 25.2 km/h Distance 16.05 km</desc>
<time>2013-07-05T18:22:04.93</time>
<name>2883</name>
<sym>Dot</sym>
</trkpt>
<trkpt lat="42.888425" lon="-2.072865">
<ele>1249.0</ele>
<desc>Speed 24.7 km/h Distance 16.06 km</desc>
<time>2013-07-05T18:22:05.92</time>
<name>2884</name>
<sym>Dot</sym>
</trkpt>
<trkpt lat="42.888535" lon="-2.072978">
<ele>1247.5</ele>
<desc>Speed 26.9 km/h Distance 16.07 km</desc>
<time>2013-07-05T18:22:07.91</time>
<name>2885</name>
<sym>Dot</sym>
</trkpt>
<trkpt lat="42.888587" lon="-2.073037">
<ele>1246.0</ele>
<desc>Speed 24.8 km/h Distance 16.08 km</desc>
<time>2013-07-05T18:22:08.91</time>
<name>2886</name>
<sym>Dot</sym>
</trkpt>
<trkpt lat="42.888630" lon="-2.073085">
<ele>1246.0</ele>
<desc>Speed 21.9 km/h Distance 16.08 km</desc>
<time>2013-07-05T18:22:09.90</time>
<name>2887</name>
<sym>Dot</sym>
</trkpt>
<trkpt lat="42.888673" lon="-2.073123">
<ele>1245.0</ele>
<desc>Speed 18.3 km/h Distance 16.09 km</desc>
<time>2013-07-05T18:22:10.90</time>
<name>2888</name>
<sym>Dot</sym>
</trkpt>
<trkpt lat="42.888768" lon="-2.073148">
<ele>1242.0</ele>
<desc>Speed 17.9 km/h Distance 16.10 km</desc>
<time>2013-07-05T18:22:12.89</time>
<name>2889</name>
<sym>Dot</sym>
</trkpt>
<trkpt lat="42.888815" lon="-2.073165">
<ele>1240.0</ele>
<desc>Speed 18.2 km/h Distance 16.11 km</desc>
<time>2013-07-05T18:22:13.88</time>
<name>2890</name>
<sym>Dot</sym>
</trkpt>
<trkpt lat="42.888833" lon="-2.073223">
<ele>1239.5</ele>
<desc>Speed 19.4 km/h Distance 16.11 km</desc>
<time>2013-07-05T18:22:14.88</time>
<name>2891</name>
<sym>Dot</sym>
</trkpt>
<trkpt lat="42.888760" lon="-2.073580">
<ele>1234.0</ele>
<desc>Speed 36.3 km/h Distance 16.14 km</desc>
<time>2013-07-05T18:22:17.99</time>
<name>2892</name>
<sym>Dot</sym>
</trkpt>
<trkpt lat="42.888782" lon="-2.073747">
<ele>1231.0</ele>
<desc>Speed 24.2 km/h Distance 16.16 km</desc>
<time>2013-07-05T18:22:19.98</time>
<name>2893</name>
<sym>Dot</sym>
</trkpt>
<trkpt lat="42.888817" lon="-2.073822">
<ele>1229.5</ele>
<desc>Speed 26.2 km/h Distance 16.16 km</desc>
<time>2013-07-05T18:22:20.97</time>
<name>2894</name>
<sym>Dot</sym>
</trkpt>
<trkpt lat="42.888847" lon="-2.073902">
<ele>1227.0</ele>
<desc>Speed 26.1 km/h Distance 16.17 km</desc>
<time>2013-07-05T18:22:21.96</time>
<name>2895</name>
<sym>Dot</sym>
</trkpt>
<trkpt lat="42.888870" lon="-2.073978">
<ele>1224.5</ele>
<desc>Speed 26.0 km/h Distance 16.18 km</desc>
<time>2013-07-05T18:22:22.95</time>
<name>2896</name>
<sym>Dot</sym>
</trkpt>
<trkpt lat="42.888895" lon="-2.074050">
<ele>1223.0</ele>
<desc>Speed 25.6 km/h Distance 16.18 km</desc>
<time>2013-07-05T18:22:23.95</time>
<name>2897</name>
<sym>Dot</sym>
</trkpt>
<trkpt lat="42.888913" lon="-2.074122">
<ele>1222.0</ele>
<desc>Speed 22.1 km/h Distance 16.19 km</desc>
<time>2013-07-05T18:22:24.95</time>
<name>2898</name>
<sym>Dot</sym>
</trkpt>
<trkpt lat="42.888942" lon="-2.074187">
<ele>1219.0</ele>
<desc>Speed 11.3 km/h Distance 16.20 km</desc>
<time>2013-07-05T18:22:26.94</time>
<name>2899</name>
<sym>Dot</sym>
</trkpt>
<trkpt lat="42.888952" lon="-2.074202">
<ele>1216.5</ele>
<desc>Speed 8.6 km/h Distance 16.20 km</desc>
<time>2013-07-05T18:22:27.93</time>
<name>2900</name>
<sym>Dot</sym>
</trkpt>
<trkpt lat="42.888962" lon="-2.074220">
<ele>1214.0</ele>
<desc>Speed 7.8 km/h Distance 16.20 km</desc>
<time>2013-07-05T18:22:28.92</time>
<name>2901</name>
<sym>Dot</sym>
</trkpt>
<trkpt lat="42.888965" lon="-2.074245">
<ele>1213.0</ele>
<desc>Speed 7.0 km/h Distance 16.20 km</desc>
<time>2013-07-05T18:22:29.91</time>
<name>2902</name>
<sym>Dot</sym>
</trkpt>
<trkpt lat="42.888968" lon="-2.074270">
<ele>1212.0</ele>
<desc>Speed 5.9 km/h Distance 16.20 km</desc>
<time>2013-07-05T18:22:30.90</time>
<name>2903</name>
<sym>Dot</sym>
</trkpt>
<trkpt lat="42.888975" lon="-2.074283">
<ele>1210.0</ele>
<desc>Speed 4.8 km/h Distance 16.21 km</desc>
<time>2013-07-05T18:22:31.89</time>
<name>2904</name>
<sym>Dot</sym>
</trkpt>
<trkpt lat="42.888975" lon="-2.074302">
<ele>1208.0</ele>
<desc>Speed 4.4 km/h Distance 16.21 km</desc>
<time>2013-07-05T18:22:32.88</time>
<name>2905</name>
<sym>Dot</sym>
</trkpt>
<trkpt lat="42.888980" lon="-2.074325">
<ele>1206.5</ele>
<desc>Speed 4.6 km/h Distance 16.21 km</desc>
<time>2013-07-05T18:22:33.87</time>
<name>2906</name>
<sym>Dot</sym>
</trkpt>
<trkpt lat="42.888990" lon="-2.074338">
<ele>1205.5</ele>
<desc>Speed 5.0 km/h Distance 16.21 km</desc>
<time>2013-07-05T18:22:34.87</time>
<name>2907</name>
<sym>Dot</sym>
</trkpt>
<trkpt lat="42.889000" lon="-2.074352">
<ele>1204.0</ele>
<desc>Speed 3.6 km/h Distance 16.21 km</desc>
<time>2013-07-05T18:22:35.86</time>
<name>2908</name>
<sym>Dot</sym>
</trkpt>
<trkpt lat="42.889005" lon="-2.074363">
<ele>1202.5</ele>
<desc>Speed 4.0 km/h Distance 16.21 km</desc>
<time>2013-07-05T18:22:36.85</time>
<name>2909</name>
<sym>Dot</sym>
</trkpt>
<trkpt lat="42.889005" lon="-2.074372">
<ele>1200.5</ele>
<desc>Speed 3.9 km/h Distance 16.21 km</desc>
<time>2013-07-05T18:22:37.84</time>
<name>2910</name>
<sym>Dot</sym>
</trkpt>
<trkpt lat="42.889002" lon="-2.074380">
<ele>1200.0</ele>
<desc>Speed 3.3 km/h Distance 16.21 km</desc>
<time>2013-07-05T18:22:38.83</time>
<name>2911</name>
<sym>Dot</sym>
</trkpt>
<trkpt lat="42.889012" lon="-2.074380">
<ele>1198.0</ele>
<desc>Speed 1.9 km/h Distance 16.22 km</desc>
<time>2013-07-05T18:22:39.83</time>
<name>2912</name>
<sym>Dot</sym>
</trkpt>
<trkpt lat="42.889013" lon="-2.074380">
<ele>1197.0</ele>
<desc>Speed 1.0 km/h Distance 16.22 km</desc>
<time>2013-07-05T18:22:40.82</time>
<name>2913</name>
<sym>Dot</sym>
</trkpt>
<trkpt lat="42.889012" lon="-2.074382">
<ele>1197.0</ele>
<desc>Speed 0.3 km/h Distance 16.22 km</desc>
<time>2013-07-05T18:22:41.81</time>
<name>2914</name>
<sym>Dot</sym>
</trkpt>
<trkpt lat="42.889012" lon="-2.074377">
<ele>1196.5</ele>
<desc>Speed 0.4 km/h Distance 16.22 km</desc>
<time>2013-07-05T18:22:42.80</time>
<name>2915</name>
<sym>Dot</sym>
</trkpt>
<trkpt lat="42.889012" lon="-2.074377">
<ele>1196.0</ele>
<desc>Speed 0.3 km/h Distance 16.22 km</desc>
<time>2013-07-05T18:22:43.79</time>
<name>2916</name>
<sym>Dot</sym>
</trkpt>
<trkpt lat="42.889013" lon="-2.074378">
<ele>1196.0</ele>
<desc>Speed 0.4 km/h Distance 16.22 km</desc>
<time>2013-07-05T18:22:44.78</time>
<name>2917</name>
<sym>Dot</sym>
</trkpt>
<trkpt lat="42.889013" lon="-2.074380">
<ele>1195.5</ele>
<desc>Speed 0.4 km/h Distance 16.22 km</desc>
<time>2013-07-05T18:22:45.77</time>
<name>2918</name>
<sym>Dot</sym>
</trkpt>
<trkpt lat="42.889013" lon="-2.074378">
<ele>1195.5</ele>
<desc>Speed 0.1 km/h Distance 16.22 km</desc>
<time>2013-07-05T18:22:46.76</time>
<name>2919</name>
<sym>Dot</sym>
</trkpt>
<trkpt lat="42.889012" lon="-2.074377">
<ele>1195.0</ele>
<desc>Speed 0.9 km/h Distance 16.22 km</desc>
<time>2013-07-05T18:22:47.76</time>
<name>2920</name>
<sym>Dot</sym>
</trkpt>
<trkpt lat="42.889012" lon="-2.074372">
<ele>1194.5</ele>
<desc>Speed 0.7 km/h Distance 16.22 km</desc>
<time>2013-07-05T18:22:48.76</time>
<name>2921</name>
<sym>Dot</sym>
</trkpt>
<trkpt lat="42.889012" lon="-2.074370">
<ele>1194.0</ele>
<desc>Speed 0.3 km/h Distance 16.22 km</desc>
<time>2013-07-05T18:22:49.74</time>
<name>2922</name>
<sym>Dot</sym>
</trkpt>
<trkpt lat="42.889013" lon="-2.074370">
<ele>1194.0</ele>
<desc>Speed 0.3 km/h Distance 16.22 km</desc>
<time>2013-07-05T18:22:50.73</time>
<name>2923</name>
<sym>Dot</sym>
</trkpt>
<trkpt lat="42.889012" lon="-2.074367">
<ele>1193.5</ele>
<desc>Speed 0.1 km/h Distance 16.22 km</desc>
<time>2013-07-05T18:22:51.74</time>
<name>2924</name>
<sym>Dot</sym>
</trkpt>
<trkpt lat="42.889012" lon="-2.074363">
<ele>1193.0</ele>
<desc>Speed 0.3 km/h Distance 16.22 km</desc>
<time>2013-07-05T18:22:52.74</time>
<name>2925</name>
<sym>Dot</sym>
</trkpt>
<trkpt lat="42.889012" lon="-2.074362">
<ele>1192.5</ele>
<desc>Speed 0.1 km/h Distance 16.22 km</desc>
<time>2013-07-05T18:22:53.71</time>
<name>2926</name>
<sym>Dot</sym>
</trkpt>
<trkpt lat="42.889012" lon="-2.074358">
<ele>1192.5</ele>
<desc>Speed 0.1 km/h Distance 16.22 km</desc>
<time>2013-07-05T18:22:54.71</time>
<name>2927</name>
<sym>Dot</sym>
</trkpt>
<trkpt lat="42.889013" lon="-2.074357">
<ele>1192.0</ele>
<desc>Speed 0.0 km/h Distance 16.22 km</desc>
<time>2013-07-05T18:22:55.70</time>
<name>2928</name>
<sym>Dot</sym>
</trkpt>
<trkpt lat="42.889013" lon="-2.074355">
<ele>1192.0</ele>
<desc>Speed 0.1 km/h Distance 16.22 km</desc>
<time>2013-07-05T18:22:56.68</time>
<name>2929</name>
<sym>Dot</sym>
</trkpt>
<trkpt lat="42.889013" lon="-2.074353">
<ele>1192.0</ele>
<desc>Speed 0.2 km/h Distance 16.22 km</desc>
<time>2013-07-05T18:22:57.68</time>
<name>2930</name>
<sym>Dot</sym>
</trkpt>
<trkpt lat="42.889013" lon="-2.074353">
<ele>1192.0</ele>
<desc>Speed 0.2 km/h Distance 16.22 km</desc>
<time>2013-07-05T18:22:58.67</time>
<name>2931</name>
<sym>Dot</sym>
</trkpt>
<trkpt lat="42.889013" lon="-2.074353">
<ele>1192.0</ele>
<desc>Speed 0.2 km/h Distance 16.22 km</desc>
<time>2013-07-05T18:22:59.67</time>
<name>2932</name>
<sym>Dot</sym>
</trkpt>
<trkpt lat="42.889013" lon="-2.074352">
<ele>1192.0</ele>
<desc>Speed 0.4 km/h Distance 16.22 km</desc>
<time>2013-07-05T18:23:00.66</time>
<name>2933</name>
<sym>Dot</sym>
</trkpt>
<trkpt lat="42.889013" lon="-2.074352">
<ele>1191.5</ele>
<desc>Speed 0.5 km/h Distance 16.22 km</desc>
<time>2013-07-05T18:23:01.65</time>
<name>2934</name>
<sym>Dot</sym>
</trkpt>
<trkpt lat="42.889013" lon="-2.074352">
<ele>1191.5</ele>
<desc>Speed 0.2 km/h Distance 16.22 km</desc>
<time>2013-07-05T18:23:02.65</time>
<name>2935</name>
<sym>Dot</sym>
</trkpt>
<trkpt lat="42.889013" lon="-2.074350">
<ele>1191.5</ele>
<desc>Speed 0.3 km/h Distance 16.22 km</desc>
<time>2013-07-05T18:23:03.64</time>
<name>2936</name>
<sym>Dot</sym>
</trkpt>
<trkpt lat="42.889013" lon="-2.074350">
<ele>1191.5</ele>
<desc>Speed 0.1 km/h Distance 16.22 km</desc>
<time>2013-07-05T18:23:04.63</time>
<name>2937</name>
<sym>Dot</sym>
</trkpt>
<trkpt lat="42.889015" lon="-2.074350">
<ele>1191.5</ele>
<desc>Speed 0.4 km/h Distance 16.22 km</desc>
<time>2013-07-05T18:23:05.63</time>
<name>2938</name>
<sym>Dot</sym>
</trkpt>
<trkpt lat="42.889015" lon="-2.074348">
<ele>1191.0</ele>
<desc>Speed 0.5 km/h Distance 16.22 km</desc>
<time>2013-07-05T18:23:06.62</time>
<name>2939</name>
<sym>Dot</sym>
</trkpt>
<trkpt lat="42.889015" lon="-2.074350">
<ele>1191.0</ele>
<desc>Speed 0.2 km/h Distance 16.22 km</desc>
<time>2013-07-05T18:23:07.61</time>
<name>2940</name>
<sym>Dot</sym>
</trkpt>
<trkpt lat="42.889015" lon="-2.074348">
<ele>1191.0</ele>
<desc>Speed 0.1 km/h Distance 16.22 km</desc>
<time>2013-07-05T18:23:08.61</time>
<name>2941</name>
<sym>Dot</sym>
</trkpt>
<trkpt lat="42.889017" lon="-2.074348">
<ele>1190.5</ele>
<desc>Speed 0.1 km/h Distance 16.22 km</desc>
<time>2013-07-05T18:23:09.60</time>
<name>2942</name>
<sym>Dot</sym>
</trkpt>
<trkpt lat="42.889017" lon="-2.074348">
<ele>1190.5</ele>
<desc>Speed 0.1 km/h Distance 16.22 km</desc>
<time>2013-07-05T18:23:10.59</time>
<name>2943</name>
<sym>Dot</sym>
</trkpt>
<trkpt lat="42.889017" lon="-2.074348">
<ele>1190.5</ele>
<desc>Speed 0.3 km/h Distance 16.22 km</desc>
<time>2013-07-05T18:23:11.59</time>
<name>2944</name>
<sym>Dot</sym>
</trkpt>
<trkpt lat="42.889017" lon="-2.074348">
<ele>1190.5</ele>
<desc>Speed 0.0 km/h Distance 16.22 km</desc>
<time>2013-07-05T18:23:12.58</time>
<name>2945</name>
<sym>Dot</sym>
</trkpt>
<trkpt lat="42.889015" lon="-2.074348">
<ele>1190.5</ele>
<desc>Speed 0.2 km/h Distance 16.22 km</desc>
<time>2013-07-05T18:23:13.58</time>
<name>2946</name>
<sym>Dot</sym>
</trkpt>
<trkpt lat="42.889017" lon="-2.074347">
<ele>1190.5</ele>
<desc>Speed 0.2 km/h Distance 16.22 km</desc>
<time>2013-07-05T18:23:14.58</time>
<name>2947</name>
<sym>Dot</sym>
</trkpt>
<trkpt lat="42.889017" lon="-2.074347">
<ele>1190.0</ele>
<desc>Speed 0.1 km/h Distance 16.22 km</desc>
<time>2013-07-05T18:23:15.57</time>
<name>2948</name>
<sym>Dot</sym>
</trkpt>
<trkpt lat="42.889017" lon="-2.074347">
<ele>1190.0</ele>
<desc>Speed 0.1 km/h Distance 16.22 km</desc>
<time>2013-07-05T18:23:16.57</time>
<name>2949</name>
<sym>Dot</sym>
</trkpt>
<trkpt lat="42.889017" lon="-2.074347">
<ele>1190.0</ele>
<desc>Speed 0.0 km/h Distance 16.22 km</desc>
<time>2013-07-05T18:23:17.55</time>
<name>2950</name>
<sym>Dot</sym>
</trkpt>
<trkpt lat="42.889017" lon="-2.074347">
<ele>1190.0</ele>
<desc>Speed 0.1 km/h Distance 16.22 km</desc>
<time>2013-07-05T18:23:18.54</time>
<name>2951</name>
<sym>Dot</sym>
</trkpt>
<trkpt lat="42.889017" lon="-2.074347">
<ele>1190.0</ele>
<desc>Speed 0.4 km/h Distance 16.22 km</desc>
<time>2013-07-05T18:23:19.53</time>
<name>2952</name>
<sym>Dot</sym>
</trkpt>
<trkpt lat="42.889018" lon="-2.074345">
<ele>1190.0</ele>
<desc>Speed 0.4 km/h Distance 16.22 km</desc>
<time>2013-07-05T18:23:20.52</time>
<name>2953</name>
<sym>Dot</sym>
</trkpt>
<trkpt lat="42.889018" lon="-2.074345">
<ele>1190.0</ele>
<desc>Speed 0.5 km/h Distance 16.22 km</desc>
<time>2013-07-05T18:23:21.51</time>
<name>2954</name>
<sym>Dot</sym>
</trkpt>
<trkpt lat="42.889018" lon="-2.074345">
<ele>1189.5</ele>
<desc>Speed 0.2 km/h Distance 16.22 km</desc>
<time>2013-07-05T18:23:22.50</time>
<name>2955</name>
<sym>Dot</sym>
</trkpt>
<trkpt lat="42.889018" lon="-2.074345">
<ele>1189.5</ele>
<desc>Speed 0.2 km/h Distance 16.22 km</desc>
<time>2013-07-05T18:23:23.50</time>
<name>2956</name>
<sym>Dot</sym>
</trkpt>
<trkpt lat="42.889020" lon="-2.074343">
<ele>1189.5</ele>
<desc>Speed 0.0 km/h Distance 16.22 km</desc>
<time>2013-07-05T18:23:24.49</time>
<name>2957</name>
<sym>Dot</sym>
</trkpt>
<trkpt lat="42.889020" lon="-2.074343">
<ele>1189.5</ele>
<desc>Speed 0.4 km/h Distance 16.22 km</desc>
<time>2013-07-05T18:23:25.49</time>
<name>2958</name>
<sym>Dot</sym>
</trkpt>
<trkpt lat="42.889020" lon="-2.074343">
<ele>1189.5</ele>
<desc>Speed 0.1 km/h Distance 16.22 km</desc>
<time>2013-07-05T18:23:26.48</time>
<name>2959</name>
<sym>Dot</sym>
</trkpt>
<trkpt lat="42.889020" lon="-2.074343">
<ele>1189.0</ele>
<desc>Speed 0.3 km/h Distance 16.22 km</desc>
<time>2013-07-05T18:23:27.47</time>
<name>2960</name>
<sym>Dot</sym>
</trkpt>
<trkpt lat="42.889020" lon="-2.074343">
<ele>1189.0</ele>
<desc>Speed 0.3 km/h Distance 16.22 km</desc>
<time>2013-07-05T18:23:28.46</time>
<name>2961</name>
<sym>Dot</sym>
</trkpt>
<trkpt lat="42.889020" lon="-2.074343">
<ele>1189.0</ele>
<desc>Speed 0.2 km/h Distance 16.22 km</desc>
<time>2013-07-05T18:23:29.46</time>
<name>2962</name>
<sym>Dot</sym>
</trkpt>
<trkpt lat="42.889018" lon="-2.074343">
<ele>1189.0</ele>
<desc>Speed 0.3 km/h Distance 16.22 km</desc>
<time>2013-07-05T18:23:30.45</time>
<name>2963</name>
<sym>Dot</sym>
</trkpt>
<trkpt lat="42.889018" lon="-2.074343">
<ele>1189.0</ele>
<desc>Speed 0.1 km/h Distance 16.22 km</desc>
<time>2013-07-05T18:23:31.44</time>
<name>2964</name>
<sym>Dot</sym>
</trkpt>
<trkpt lat="42.889018" lon="-2.074343">
<ele>1189.0</ele>
<desc>Speed 0.1 km/h Distance 16.22 km</desc>
<time>2013-07-05T18:23:32.43</time>
<name>2965</name>
<sym>Dot</sym>
</trkpt>
<trkpt lat="42.889018" lon="-2.074342">
<ele>1189.0</ele>
<desc>Speed 0.0 km/h Distance 16.22 km</desc>
<time>2013-07-05T18:23:33.42</time>
<name>2966</name>
<sym>Dot</sym>
</trkpt>
<trkpt lat="42.889018" lon="-2.074342">
<ele>1189.0</ele>
<desc>Speed 0.0 km/h Distance 16.22 km</desc>
<time>2013-07-05T18:23:34.41</time>
<name>2967</name>
<sym>Dot</sym>
</trkpt>
<trkpt lat="42.889020" lon="-2.074342">
<ele>1188.5</ele>
<desc>Speed 0.2 km/h Distance 16.22 km</desc>
<time>2013-07-05T18:23:35.40</time>
<name>2968</name>
<sym>Dot</sym>
</trkpt>
<trkpt lat="42.889020" lon="-2.074342">
<ele>1188.5</ele>
<desc>Speed 0.2 km/h Distance 16.22 km</desc>
<time>2013-07-05T18:23:36.39</time>
<name>2969</name>
<sym>Dot</sym>
</trkpt>
<trkpt lat="42.889020" lon="-2.074340">
<ele>1188.5</ele>
<desc>Speed 0.0 km/h Distance 16.22 km</desc>
<time>2013-07-05T18:23:37.38</time>
<name>2970</name>
<sym>Dot</sym>
</trkpt>
<trkpt lat="42.889020" lon="-2.074340">
<ele>1188.5</ele>
<desc>Speed 0.4 km/h Distance 16.22 km</desc>
<time>2013-07-05T18:23:38.38</time>
<name>2971</name>
<sym>Dot</sym>
</trkpt>
<trkpt lat="42.889020" lon="-2.074340">
<ele>1188.5</ele>
<desc>Speed 0.2 km/h Distance 16.22 km</desc>
<time>2013-07-05T18:23:39.37</time>
<name>2972</name>
<sym>Dot</sym>
</trkpt>
<trkpt lat="42.889020" lon="-2.074340">
<ele>1188.5</ele>
<desc>Speed 0.1 km/h Distance 16.22 km</desc>
<time>2013-07-05T18:23:40.37</time>
<name>2973</name>
<sym>Dot</sym>
</trkpt>
<trkpt lat="42.889020" lon="-2.074338">
<ele>1188.5</ele>
<desc>Speed 0.1 km/h Distance 16.22 km</desc>
<time>2013-07-05T18:23:41.36</time>
<name>2974</name>
<sym>Dot</sym>
</trkpt>
<trkpt lat="42.889020" lon="-2.074338">
<ele>1188.5</ele>
<desc>Speed 0.0 km/h Distance 16.22 km</desc>
<time>2013-07-05T18:23:42.36</time>
<name>2975</name>
<sym>Dot</sym>
</trkpt>
<trkpt lat="42.889020" lon="-2.074338">
<ele>1188.5</ele>
<desc>Speed 0.3 km/h Distance 16.22 km</desc>
<time>2013-07-05T18:23:43.35</time>
<name>2976</name>
<sym>Dot</sym>
</trkpt>
<trkpt lat="42.889020" lon="-2.074338">
<ele>1188.0</ele>
<desc>Speed 0.3 km/h Distance 16.22 km</desc>
<time>2013-07-05T18:23:44.34</time>
<name>2977</name>
<sym>Dot</sym>
</trkpt>
<trkpt lat="42.889020" lon="-2.074338">
<ele>1188.0</ele>
<desc>Speed 0.1 km/h Distance 16.22 km</desc>
<time>2013-07-05T18:23:45.33</time>
<name>2978</name>
<sym>Dot</sym>
</trkpt>
<trkpt lat="42.889020" lon="-2.074337">
<ele>1188.0</ele>
<desc>Speed 0.2 km/h Distance 16.22 km</desc>
<time>2013-07-05T18:23:46.32</time>
<name>2979</name>
<sym>Dot</sym>
</trkpt>
<trkpt lat="42.889020" lon="-2.074337">
<ele>1188.0</ele>
<desc>Speed 0.1 km/h Distance 16.22 km</desc>
<time>2013-07-05T18:23:47.31</time>
<name>2980</name>
<sym>Dot</sym>
</trkpt>
<trkpt lat="42.889022" lon="-2.074338">
<ele>1186.5</ele>
<desc>Speed 0.9 km/h Distance 16.22 km</desc>
<time>2013-07-05T18:23:48.30</time>
<name>2981</name>
<sym>Dot</sym>
</trkpt>
<trkpt lat="42.889020" lon="-2.074335">
<ele>1186.0</ele>
<desc>Speed 0.4 km/h Distance 16.22 km</desc>
<time>2013-07-05T18:23:49.30</time>
<name>2982</name>
<sym>Dot</sym>
</trkpt>
<trkpt lat="42.889017" lon="-2.074335">
<ele>1186.0</ele>
<desc>Speed 1.0 km/h Distance 16.22 km</desc>
<time>2013-07-05T18:23:50.29</time>
<name>2983</name>
<sym>Dot</sym>
</trkpt>
<trkpt lat="42.889018" lon="-2.074330">
<ele>1185.5</ele>
<desc>Speed 0.4 km/h Distance 16.22 km</desc>
<time>2013-07-05T18:23:51.28</time>
<name>2984</name>
<sym>Dot</sym>
</trkpt>
<trkpt lat="42.889020" lon="-2.074330">
<ele>1185.0</ele>
<desc>Speed 0.5 km/h Distance 16.22 km</desc>
<time>2013-07-05T18:23:52.28</time>
<name>2985</name>
<sym>Dot</sym>
</trkpt>
<trkpt lat="42.889027" lon="-2.074335">
<ele>1183.0</ele>
<desc>Speed 1.0 km/h Distance 16.22 km</desc>
<time>2013-07-05T18:23:53.27</time>
<name>2986</name>
<sym>Dot</sym>
</trkpt>
<trkpt lat="42.889028" lon="-2.074342">
<ele>1180.0</ele>
<desc>Speed 0.0 km/h Distance 16.23 km</desc>
<time>2013-07-05T18:23:54.26</time>
<name>2987</name>
<sym>Dot</sym>
</trkpt>
<trkpt lat="42.889033" lon="-2.074348">
<ele>1177.5</ele>
<desc>Speed 0.1 km/h Distance 16.23 km</desc>
<time>2013-07-05T18:23:55.25</time>
<name>2988</name>
<sym>Dot</sym>
</trkpt>
<trkpt lat="42.889037" lon="-2.074352">
<ele>1176.0</ele>
<desc>Speed 0.0 km/h Distance 16.23 km</desc>
<time>2013-07-05T18:23:56.25</time>
<name>2989</name>
<sym>Dot</sym>
</trkpt>
<trkpt lat="42.889037" lon="-2.074353">
<ele>1175.5</ele>
<desc>Speed 0.1 km/h Distance 16.23 km</desc>
<time>2013-07-05T18:23:57.24</time>
<name>2990</name>
<sym>Dot</sym>
</trkpt>
<trkpt lat="42.889037" lon="-2.074353">
<ele>1175.0</ele>
<desc>Speed 0.0 km/h Distance 16.23 km</desc>
<time>2013-07-05T18:23:58.23</time>
<name>2991</name>
<sym>Dot</sym>
</trkpt>
<trkpt lat="42.889037" lon="-2.074355">
<ele>1175.0</ele>
<desc>Speed 0.0 km/h Distance 16.23 km</desc>
<time>2013-07-05T18:23:59.23</time>
<name>2992</name>
<sym>Dot</sym>
</trkpt>
<trkpt lat="42.889037" lon="-2.074355">
<ele>1175.0</ele>
<desc>Speed 0.0 km/h Distance 16.23 km</desc>
<time>2013-07-05T18:24:00.22</time>
<name>2993</name>
<sym>Dot</sym>
</trkpt>
<trkpt lat="42.889035" lon="-2.074355">
<ele>1175.0</ele>
<desc>Speed 0.0 km/h Distance 16.23 km</desc>
<time>2013-07-05T18:24:01.21</time>
<name>2994</name>
<sym>Dot</sym>
</trkpt>
<trkpt lat="42.889035" lon="-2.074357">
<ele>1174.5</ele>
<desc>Speed 0.0 km/h Distance 16.23 km</desc>
<time>2013-07-05T18:24:02.21</time>
<name>2995</name>
<sym>Dot</sym>
</trkpt>
<trkpt lat="42.889035" lon="-2.074358">
<ele>1174.0</ele>
<desc>Speed 0.0 km/h Distance 16.23 km</desc>
<time>2013-07-05T18:24:03.20</time>
<name>2996</name>
<sym>Dot</sym>
</trkpt>
<trkpt lat="42.889037" lon="-2.074360">
<ele>1173.0</ele>
<desc>Speed 0.0 km/h Distance 16.23 km</desc>
<time>2013-07-05T18:24:04.19</time>
<name>2997</name>
<sym>Dot</sym>
</trkpt>
<trkpt lat="42.889037" lon="-2.074360">
<ele>1172.5</ele>
<desc>Speed 0.0 km/h Distance 16.23 km</desc>
<time>2013-07-05T18:24:05.18</time>
<name>2998</name>
<sym>Dot</sym>
</trkpt>
<trkpt lat="42.889038" lon="-2.074360">
<ele>1172.0</ele>
<desc>Speed 0.1 km/h Distance 16.23 km</desc>
<time>2013-07-05T18:24:06.17</time>
<name>2999</name>
<sym>Dot</sym>
</trkpt>
<trkpt lat="42.889040" lon="-2.074362">
<ele>1171.0</ele>
<desc>Speed 0.0 km/h Distance 16.23 km</desc>
<time>2013-07-05T18:24:07.16</time>
<name>3000</name>
<sym>Dot</sym>
</trkpt>
<trkpt lat="42.889040" lon="-2.074363">
<ele>1170.5</ele>
<desc>Speed 0.0 km/h Distance 16.23 km</desc>
<time>2013-07-05T18:24:08.15</time>
<name>3001</name>
<sym>Dot</sym>
</trkpt>
<trkpt lat="42.889040" lon="-2.074363">
<ele>1170.0</ele>
<desc>Speed 0.1 km/h Distance 16.23 km</desc>
<time>2013-07-05T18:24:09.14</time>
<name>3002</name>
<sym>Dot</sym>
</trkpt>
<trkpt lat="42.889042" lon="-2.074363">
<ele>1169.5</ele>
<desc>Speed 0.0 km/h Distance 16.23 km</desc>
<time>2013-07-05T18:24:10.13</time>
<name>3003</name>
<sym>Dot</sym>
</trkpt>
<trkpt lat="42.889042" lon="-2.074363">
<ele>1169.0</ele>
<desc>Speed 0.0 km/h Distance 16.23 km</desc>
<time>2013-07-05T18:24:11.12</time>
<name>3004</name>
<sym>Dot</sym>
</trkpt>
<trkpt lat="42.889042" lon="-2.074363">
<ele>1169.0</ele>
<desc>Speed 0.0 km/h Distance 16.23 km</desc>
<time>2013-07-05T18:24:12.11</time>
<name>3005</name>
<sym>Dot</sym>
</trkpt>
<trkpt lat="42.889043" lon="-2.074363">
<ele>1168.5</ele>
<desc>Speed 0.0 km/h Distance 16.23 km</desc>
<time>2013-07-05T18:24:13.10</time>
<name>3006</name>
<sym>Dot</sym>
</trkpt>
<trkpt lat="42.889043" lon="-2.074363">
<ele>1168.5</ele>
<desc>Speed 0.0 km/h Distance 16.23 km</desc>
<time>2013-07-05T18:24:14.09</time>
<name>3007</name>
<sym>Dot</sym>
</trkpt>
<trkpt lat="42.889043" lon="-2.074365">
<ele>1168.0</ele>
<desc>Speed 0.0 km/h Distance 16.23 km</desc>
<time>2013-07-05T18:24:15.08</time>
<name>3008</name>
<sym>Dot</sym>
</trkpt>
<trkpt lat="42.889043" lon="-2.074365">
<ele>1168.0</ele>
<desc>Speed 0.0 km/h Distance 16.23 km</desc>
<time>2013-07-05T18:24:16.07</time>
<name>3009</name>
<sym>Dot</sym>
</trkpt>
<trkpt lat="42.889043" lon="-2.074365">
<ele>1168.0</ele>
<desc>Speed 0.0 km/h Distance 16.23 km</desc>
<time>2013-07-05T18:24:17.06</time>
<name>3010</name>
<sym>Dot</sym>
</trkpt>
<trkpt lat="42.889043" lon="-2.074365">
<ele>1167.5</ele>
<desc>Speed 0.0 km/h Distance 16.23 km</desc>
<time>2013-07-05T18:24:18.05</time>
<name>3011</name>
<sym>Dot</sym>
</trkpt>
<trkpt lat="42.889043" lon="-2.074365">
<ele>1167.5</ele>
<desc>Speed 0.1 km/h Distance 16.23 km</desc>
<time>2013-07-05T18:24:19.04</time>
<name>3012</name>
<sym>Dot</sym>
</trkpt>
<trkpt lat="42.889045" lon="-2.074367">
<ele>1167.5</ele>
<desc>Speed 0.0 km/h Distance 16.23 km</desc>
<time>2013-07-05T18:24:20.03</time>
<name>3013</name>
<sym>Dot</sym>
</trkpt>
<trkpt lat="42.889045" lon="-2.074367">
<ele>1167.5</ele>
<desc>Speed 0.0 km/h Distance 16.23 km</desc>
<time>2013-07-05T18:24:21.02</time>
<name>3014</name>
<sym>Dot</sym>
</trkpt>
<trkpt lat="42.889045" lon="-2.074367">
<ele>1167.0</ele>
<desc>Speed 0.0 km/h Distance 16.23 km</desc>
<time>2013-07-05T18:24:22.02</time>
<name>3015</name>
<sym>Dot</sym>
</trkpt>
<trkpt lat="42.889045" lon="-2.074367">
<ele>1167.0</ele>
<desc>Speed 0.1 km/h Distance 16.23 km</desc>
<time>2013-07-05T18:24:23.01</time>
<name>3016</name>
<sym>Dot</sym>
</trkpt>
<trkpt lat="42.889045" lon="-2.074367">
<ele>1166.5</ele>
<desc>Speed 0.0 km/h Distance 16.23 km</desc>
<time>2013-07-05T18:24:24.01</time>
<name>3017</name>
<sym>Dot</sym>
</trkpt>
<trkpt lat="42.889047" lon="-2.074368">
<ele>1166.5</ele>
<desc>Speed 0.0 km/h Distance 16.23 km</desc>
<time>2013-07-05T18:24:25.00</time>
<name>3018</name>
<sym>Dot</sym>
</trkpt>
<trkpt lat="42.889047" lon="-2.074368">
<ele>1166.5</ele>
<desc>Speed 0.0 km/h Distance 16.23 km</desc>
<time>2013-07-05T18:24:25.99</time>
<name>3019</name>
<sym>Dot</sym>
</trkpt>
<trkpt lat="42.889047" lon="-2.074368">
<ele>1166.5</ele>
<desc>Speed 0.1 km/h Distance 16.23 km</desc>
<time>2013-07-05T18:24:26.98</time>
<name>3020</name>
<sym>Dot</sym>
</trkpt>
<trkpt lat="42.889047" lon="-2.074368">
<ele>1166.5</ele>
<desc>Speed 0.0 km/h Distance 16.23 km</desc>
<time>2013-07-05T18:24:27.98</time>
<name>3021</name>
<sym>Dot</sym>
</trkpt>
<trkpt lat="42.889047" lon="-2.074368">
<ele>1166.5</ele>
<desc>Speed 0.0 km/h Distance 16.23 km</desc>
<time>2013-07-05T18:24:28.97</time>
<name>3022</name>
<sym>Dot</sym>
</trkpt>
<trkpt lat="42.889047" lon="-2.074368">
<ele>1166.0</ele>
<desc>Speed 0.1 km/h Distance 16.23 km</desc>
<time>2013-07-05T18:24:29.96</time>
<name>3023</name>
<sym>Dot</sym>
</trkpt>
<trkpt lat="42.889047" lon="-2.074368">
<ele>1166.0</ele>
<desc>Speed 0.1 km/h Distance 16.23 km</desc>
<time>2013-07-05T18:24:30.95</time>
<name>3024</name>
<sym>Dot</sym>
</trkpt>
<trkpt lat="42.889047" lon="-2.074368">
<ele>1166.0</ele>
<desc>Speed 0.1 km/h Distance 16.23 km</desc>
<time>2013-07-05T18:24:31.94</time>
<name>3025</name>
<sym>Dot</sym>
</trkpt>
<trkpt lat="42.889047" lon="-2.074368">
<ele>1166.0</ele>
<desc>Speed 0.2 km/h Distance 16.23 km</desc>
<time>2013-07-05T18:24:32.94</time>
<name>3026</name>
<sym>Dot</sym>
</trkpt>
<trkpt lat="42.889047" lon="-2.074367">
<ele>1165.5</ele>
<desc>Speed 0.5 km/h Distance 16.23 km</desc>
<time>2013-07-05T18:24:33.94</time>
<name>3027</name>
<sym>Dot</sym>
</trkpt>
<trkpt lat="42.889047" lon="-2.074368">
<ele>1165.0</ele>
<desc>Speed 1.3 km/h Distance 16.23 km</desc>
<time>2013-07-05T18:24:34.93</time>
<name>3028</name>
<sym>Dot</sym>
</trkpt>
<trkpt lat="42.889045" lon="-2.074368">
<ele>1165.0</ele>
<desc>Speed 0.1 km/h Distance 16.23 km</desc>
<time>2013-07-05T18:24:35.93</time>
<name>3029</name>
<sym>Dot</sym>
</trkpt>
<trkpt lat="42.889048" lon="-2.074367">
<ele>1165.0</ele>
<desc>Speed 1.2 km/h Distance 16.23 km</desc>
<time>2013-07-05T18:24:36.92</time>
<name>3030</name>
<sym>Dot</sym>
</trkpt>
<trkpt lat="42.889040" lon="-2.074363">
<ele>1164.5</ele>
<desc>Speed 2.6 km/h Distance 16.23 km</desc>
<time>2013-07-05T18:24:37.91</time>
<name>3031</name>
<sym>Dot</sym>
</trkpt>
<trkpt lat="42.889038" lon="-2.074353">
<ele>1163.5</ele>
<desc>Speed 1.4 km/h Distance 16.23 km</desc>
<time>2013-07-05T18:24:38.90</time>
<name>3032</name>
<sym>Dot</sym>
</trkpt>
<trkpt lat="42.889038" lon="-2.074357">
<ele>1163.0</ele>
<desc>Speed 1.3 km/h Distance 16.23 km</desc>
<time>2013-07-05T18:24:39.90</time>
<name>3033</name>
<sym>Dot</sym>
</trkpt>
<trkpt lat="42.889035" lon="-2.074355">
<ele>1162.0</ele>
<desc>Speed 0.5 km/h Distance 16.23 km</desc>
<time>2013-07-05T18:24:40.89</time>
<name>3034</name>
<sym>Dot</sym>
</trkpt>
<trkpt lat="42.889033" lon="-2.074353">
<ele>1161.5</ele>
<desc>Speed 0.4 km/h Distance 16.23 km</desc>
<time>2013-07-05T18:24:41.87</time>
<name>3035</name>
<sym>Dot</sym>
</trkpt>
<trkpt lat="42.889033" lon="-2.074353">
<ele>1161.5</ele>
<desc>Speed 0.5 km/h Distance 16.23 km</desc>
<time>2013-07-05T18:24:42.87</time>
<name>3036</name>
<sym>Dot</sym>
</trkpt>
<trkpt lat="42.889033" lon="-2.074353">
<ele>1161.5</ele>
<desc>Speed 0.4 km/h Distance 16.23 km</desc>
<time>2013-07-05T18:24:43.86</time>
<name>3037</name>
<sym>Dot</sym>
</trkpt>
<trkpt lat="42.889033" lon="-2.074352">
<ele>1161.0</ele>
<desc>Speed 0.4 km/h Distance 16.23 km</desc>
<time>2013-07-05T18:24:44.86</time>
<name>3038</name>
<sym>Dot</sym>
</trkpt>
<trkpt lat="42.889030" lon="-2.074347">
<ele>1160.5</ele>
<desc>Speed 2.2 km/h Distance 16.23 km</desc>
<time>2013-07-05T18:24:45.85</time>
<name>3039</name>
<sym>Dot</sym>
</trkpt>
<trkpt lat="42.889027" lon="-2.074347">
<ele>1161.5</ele>
<desc>Speed 1.4 km/h Distance 16.23 km</desc>
<time>2013-07-05T18:24:46.84</time>
<name>3040</name>
<sym>Dot</sym>
</trkpt>
<trkpt lat="42.889025" lon="-2.074345">
<ele>1161.5</ele>
<desc>Speed 1.4 km/h Distance 16.23 km</desc>
<time>2013-07-05T18:24:47.82</time>
<name>3041</name>
<sym>Dot</sym>
</trkpt>
<trkpt lat="42.888988" lon="-2.074323">
<ele>1161.0</ele>
<desc>Speed 1.2 km/h Distance 16.24 km</desc>
<time>2013-07-05T18:24:51.77</time>
<name>3042</name>
<sym>Dot</sym>
</trkpt>
<trkpt lat="42.888987" lon="-2.074318">
<ele>1161.0</ele>
<desc>Speed 0.1 km/h Distance 16.24 km</desc>
<time>2013-07-05T18:24:52.77</time>
<name>3043</name>
<sym>Dot</sym>
</trkpt>
<trkpt lat="42.888985" lon="-2.074323">
<ele>1161.0</ele>
<desc>Speed 0.6 km/h Distance 16.24 km</desc>
<time>2013-07-05T18:24:53.76</time>
<name>3044</name>
<sym>Dot</sym>
</trkpt>
<trkpt lat="42.888985" lon="-2.074323">
<ele>1160.5</ele>
<desc>Speed 0.1 km/h Distance 16.24 km</desc>
<time>2013-07-05T18:24:54.75</time>
<name>3045</name>
<sym>Dot</sym>
</trkpt>
<trkpt lat="42.888988" lon="-2.074328">
<ele>1160.5</ele>
<desc>Speed 0.4 km/h Distance 16.24 km</desc>
<time>2013-07-05T18:24:55.74</time>
<name>3046</name>
<sym>Dot</sym>
</trkpt>
<trkpt lat="42.888992" lon="-2.074333">
<ele>1160.0</ele>
<desc>Speed 0.3 km/h Distance 16.24 km</desc>
<time>2013-07-05T18:24:56.73</time>
<name>3047</name>
<sym>Dot</sym>
</trkpt>
<trkpt lat="42.888995" lon="-2.074337">
<ele>1159.5</ele>
<desc>Speed 0.3 km/h Distance 16.24 km</desc>
<time>2013-07-05T18:24:57.74</time>
<name>3048</name>
<sym>Dot</sym>
</trkpt>
<trkpt lat="42.889002" lon="-2.074342">
<ele>1158.5</ele>
<desc>Speed 0.3 km/h Distance 16.24 km</desc>
<time>2013-07-05T18:24:58.72</time>
<name>3049</name>
<sym>Dot</sym>
</trkpt>
<trkpt lat="42.889010" lon="-2.074347">
<ele>1157.5</ele>
<desc>Speed 0.4 km/h Distance 16.24 km</desc>
<time>2013-07-05T18:24:59.72</time>
<name>3050</name>
<sym>Dot</sym>
</trkpt>
<trkpt lat="42.889018" lon="-2.074352">
<ele>1156.0</ele>
<desc>Speed 0.5 km/h Distance 16.24 km</desc>
<time>2013-07-05T18:25:00.71</time>
<name>3051</name>
<sym>Dot</sym>
</trkpt>
<trkpt lat="42.889018" lon="-2.074350">
<ele>1155.5</ele>
<desc>Speed 0.6 km/h Distance 16.24 km</desc>
<time>2013-07-05T18:25:01.71</time>
<name>3052</name>
<sym>Dot</sym>
</trkpt>
<trkpt lat="42.889017" lon="-2.074348">
<ele>1155.5</ele>
<desc>Speed 0.1 km/h Distance 16.24 km</desc>
<time>2013-07-05T18:25:02.71</time>
<name>3053</name>
<sym>Dot</sym>
</trkpt>
<trkpt lat="42.889017" lon="-2.074348">
<ele>1155.0</ele>
<desc>Speed 0.3 km/h Distance 16.24 km</desc>
<time>2013-07-05T18:25:03.86</time>
<name>3054</name>
<sym>Dot</sym>
</trkpt>
<trkpt lat="42.889017" lon="-2.074347">
<ele>1155.0</ele>
<desc>Speed 0.6 km/h Distance 16.24 km</desc>
<time>2013-07-05T18:25:04.69</time>
<name>3055</name>
<sym>Crossing</sym>
</trkpt>
</trkseg>
</trk>
</gpx>
